<?xml version="1.0" encoding="UTF-8" standalone="no" ?>
<gpx xmlns="http://www.topografix.com/GPX/1/1" xmlns:xsi="http://www.w3.org/2001/XMLSchema-instance" xsi:schemaLocation="http://www.topografix.com/GPX/1/1 http://www.topografix.com/GPX/1/1/gpx.xsd" version="1.1" creator="VisuGPX - https://www.visugpx.com">
  <metadata>
    <name>Vtt ZunGroupe Mérigou</name>
  </metadata>
  <trk>
    <name><![CDATA[Vtt ZunGroupe Mérigou_1]]></name>
    <trkseg>
      <trkpt lat="43.95367" lon="1.86993">
        <ele>280.4</ele>
        <time>2022-09-08T17:10:11Z</time>
      </trkpt>
      <trkpt lat="43.95387" lon="1.87013">
        <ele>274.6</ele>
        <time>2022-09-08T17:10:19Z</time>
      </trkpt>
      <trkpt lat="43.95389" lon="1.87015">
        <ele>274.8</ele>
        <time>2022-09-08T17:10:20Z</time>
      </trkpt>
      <trkpt lat="43.95392" lon="1.87018">
        <ele>274.8</ele>
        <time>2022-09-08T17:10:21Z</time>
      </trkpt>
      <trkpt lat="43.95394" lon="1.87021">
        <ele>274.8</ele>
        <time>2022-09-08T17:10:22Z</time>
      </trkpt>
      <trkpt lat="43.95397" lon="1.87023">
        <ele>274.6</ele>
        <time>2022-09-08T17:10:23Z</time>
      </trkpt>
      <trkpt lat="43.95398" lon="1.87025">
        <ele>274.6</ele>
        <time>2022-09-08T17:10:24Z</time>
      </trkpt>
      <trkpt lat="43.95401" lon="1.87028">
        <ele>274.8</ele>
        <time>2022-09-08T17:10:25Z</time>
      </trkpt>
      <trkpt lat="43.95403" lon="1.87029">
        <ele>274.8</ele>
        <time>2022-09-08T17:10:26Z</time>
      </trkpt>
      <trkpt lat="43.95405" lon="1.8703">
        <ele>274.8</ele>
        <time>2022-09-08T17:10:27Z</time>
      </trkpt>
      <trkpt lat="43.95407" lon="1.8703">
        <ele>274.8</ele>
        <time>2022-09-08T17:10:28Z</time>
      </trkpt>
      <trkpt lat="43.95409" lon="1.87027">
        <ele>274.8</ele>
        <time>2022-09-08T17:10:29Z</time>
      </trkpt>
      <trkpt lat="43.9541" lon="1.87024">
        <ele>275</ele>
        <time>2022-09-08T17:10:30Z</time>
      </trkpt>
      <trkpt lat="43.95426" lon="1.87007">
        <ele>275.4</ele>
        <time>2022-09-08T17:10:37Z</time>
      </trkpt>
      <trkpt lat="43.95428" lon="1.87004">
        <ele>275.4</ele>
        <time>2022-09-08T17:10:38Z</time>
      </trkpt>
      <trkpt lat="43.95442" lon="1.86991">
        <ele>275.6</ele>
        <time>2022-09-08T17:10:43Z</time>
      </trkpt>
      <trkpt lat="43.95443" lon="1.86989">
        <ele>275.6</ele>
        <time>2022-09-08T17:10:44Z</time>
      </trkpt>
      <trkpt lat="43.95445" lon="1.86986">
        <ele>275.6</ele>
        <time>2022-09-08T17:10:45Z</time>
      </trkpt>
      <trkpt lat="43.95448" lon="1.86984">
        <ele>275.6</ele>
        <time>2022-09-08T17:10:46Z</time>
      </trkpt>
      <trkpt lat="43.95458" lon="1.86959">
        <ele>275.8</ele>
        <time>2022-09-08T17:10:52Z</time>
      </trkpt>
      <trkpt lat="43.95465" lon="1.86934">
        <ele>275.8</ele>
        <time>2022-09-08T17:10:57Z</time>
      </trkpt>
      <trkpt lat="43.95466" lon="1.86929">
        <ele>275.6</ele>
        <time>2022-09-08T17:10:58Z</time>
      </trkpt>
      <trkpt lat="43.95468" lon="1.86919">
        <ele>275.6</ele>
        <time>2022-09-08T17:11:00Z</time>
      </trkpt>
      <trkpt lat="43.95469" lon="1.86915">
        <ele>275.4</ele>
        <time>2022-09-08T17:11:01Z</time>
      </trkpt>
      <trkpt lat="43.9547" lon="1.8691">
        <ele>275.4</ele>
        <time>2022-09-08T17:11:02Z</time>
      </trkpt>
      <trkpt lat="43.95472" lon="1.86906">
        <ele>275.4</ele>
        <time>2022-09-08T17:11:03Z</time>
      </trkpt>
      <trkpt lat="43.95473" lon="1.86901">
        <ele>275.4</ele>
        <time>2022-09-08T17:11:04Z</time>
      </trkpt>
      <trkpt lat="43.95475" lon="1.86892">
        <ele>275.4</ele>
        <time>2022-09-08T17:11:06Z</time>
      </trkpt>
      <trkpt lat="43.95476" lon="1.86887">
        <ele>275.2</ele>
        <time>2022-09-08T17:11:07Z</time>
      </trkpt>
      <trkpt lat="43.95478" lon="1.86878">
        <ele>275.2</ele>
        <time>2022-09-08T17:11:09Z</time>
      </trkpt>
      <trkpt lat="43.95478" lon="1.86873">
        <ele>275</ele>
        <time>2022-09-08T17:11:10Z</time>
      </trkpt>
      <trkpt lat="43.95476" lon="1.86865">
        <ele>274.8</ele>
        <time>2022-09-08T17:11:12Z</time>
      </trkpt>
      <trkpt lat="43.95474" lon="1.8686">
        <ele>274.8</ele>
        <time>2022-09-08T17:11:13Z</time>
      </trkpt>
      <trkpt lat="43.95471" lon="1.86856">
        <ele>274.6</ele>
        <time>2022-09-08T17:11:14Z</time>
      </trkpt>
      <trkpt lat="43.95469" lon="1.86851">
        <ele>274.6</ele>
        <time>2022-09-08T17:11:15Z</time>
      </trkpt>
      <trkpt lat="43.95465" lon="1.86847">
        <ele>274.4</ele>
        <time>2022-09-08T17:11:16Z</time>
      </trkpt>
      <trkpt lat="43.95463" lon="1.86843">
        <ele>274.4</ele>
        <time>2022-09-08T17:11:17Z</time>
      </trkpt>
      <trkpt lat="43.9546" lon="1.86839">
        <ele>274.4</ele>
        <time>2022-09-08T17:11:18Z</time>
      </trkpt>
      <trkpt lat="43.95457" lon="1.86835">
        <ele>274.2</ele>
        <time>2022-09-08T17:11:19Z</time>
      </trkpt>
      <trkpt lat="43.95445" lon="1.86818">
        <ele>273.6</ele>
        <time>2022-09-08T17:11:23Z</time>
      </trkpt>
      <trkpt lat="43.95443" lon="1.86814">
        <ele>273.2</ele>
        <time>2022-09-08T17:11:24Z</time>
      </trkpt>
      <trkpt lat="43.95439" lon="1.86809">
        <ele>273.2</ele>
        <time>2022-09-08T17:11:25Z</time>
      </trkpt>
      <trkpt lat="43.9543" lon="1.86797">
        <ele>272.6</ele>
        <time>2022-09-08T17:11:28Z</time>
      </trkpt>
      <trkpt lat="43.95421" lon="1.86784">
        <ele>272.4</ele>
        <time>2022-09-08T17:11:32Z</time>
      </trkpt>
      <trkpt lat="43.9541" lon="1.86766">
        <ele>272</ele>
        <time>2022-09-08T17:11:52Z</time>
      </trkpt>
      <trkpt lat="43.95407" lon="1.86761">
        <ele>271.6</ele>
        <time>2022-09-08T17:11:53Z</time>
      </trkpt>
      <trkpt lat="43.95405" lon="1.86757">
        <ele>271.4</ele>
        <time>2022-09-08T17:11:54Z</time>
      </trkpt>
      <trkpt lat="43.954" lon="1.86748">
        <ele>271</ele>
        <time>2022-09-08T17:11:56Z</time>
      </trkpt>
      <trkpt lat="43.95399" lon="1.86745">
        <ele>270.8</ele>
        <time>2022-09-08T17:11:57Z</time>
      </trkpt>
      <trkpt lat="43.95396" lon="1.86742">
        <ele>270.6</ele>
        <time>2022-09-08T17:11:58Z</time>
      </trkpt>
      <trkpt lat="43.95393" lon="1.86741">
        <ele>270.6</ele>
        <time>2022-09-08T17:11:59Z</time>
      </trkpt>
      <trkpt lat="43.95391" lon="1.86742">
        <ele>270.2</ele>
        <time>2022-09-08T17:12:00Z</time>
      </trkpt>
      <trkpt lat="43.9539" lon="1.86744">
        <ele>269.8</ele>
        <time>2022-09-08T17:12:01Z</time>
      </trkpt>
      <trkpt lat="43.95387" lon="1.8675">
        <ele>269</ele>
        <time>2022-09-08T17:12:04Z</time>
      </trkpt>
      <trkpt lat="43.95385" lon="1.86751">
        <ele>268.8</ele>
        <time>2022-09-08T17:12:05Z</time>
      </trkpt>
      <trkpt lat="43.95384" lon="1.86751">
        <ele>268.8</ele>
        <time>2022-09-08T17:12:06Z</time>
      </trkpt>
      <trkpt lat="43.95384" lon="1.8675">
        <ele>268.8</ele>
        <time>2022-09-08T17:12:07Z</time>
      </trkpt>
      <trkpt lat="43.95382" lon="1.86749">
        <ele>268.6</ele>
        <time>2022-09-08T17:12:09Z</time>
      </trkpt>
      <trkpt lat="43.95382" lon="1.86749">
        <ele>268.6</ele>
        <time>2022-09-08T17:12:10Z</time>
      </trkpt>
      <trkpt lat="43.95381" lon="1.8675">
        <ele>268.8</ele>
        <time>2022-09-08T17:12:11Z</time>
      </trkpt>
      <trkpt lat="43.9538" lon="1.86751">
        <ele>268.8</ele>
        <time>2022-09-08T17:12:12Z</time>
      </trkpt>
      <trkpt lat="43.95378" lon="1.86752">
        <ele>268.8</ele>
        <time>2022-09-08T17:12:14Z</time>
      </trkpt>
      <trkpt lat="43.95376" lon="1.86753">
        <ele>268.8</ele>
        <time>2022-09-08T17:12:15Z</time>
      </trkpt>
      <trkpt lat="43.95373" lon="1.86755">
        <ele>269.4</ele>
        <time>2022-09-08T17:12:18Z</time>
      </trkpt>
      <trkpt lat="43.9537" lon="1.86755">
        <ele>269.6</ele>
        <time>2022-09-08T17:12:21Z</time>
      </trkpt>
      <trkpt lat="43.95369" lon="1.86755">
        <ele>269.6</ele>
        <time>2022-09-08T17:12:22Z</time>
      </trkpt>
      <trkpt lat="43.95369" lon="1.86754">
        <ele>269.6</ele>
        <time>2022-09-08T17:12:23Z</time>
      </trkpt>
      <trkpt lat="43.95368" lon="1.86752">
        <ele>269.6</ele>
        <time>2022-09-08T17:12:24Z</time>
      </trkpt>
      <trkpt lat="43.95368" lon="1.8675">
        <ele>269.6</ele>
        <time>2022-09-08T17:12:25Z</time>
      </trkpt>
      <trkpt lat="43.95368" lon="1.86748">
        <ele>269.6</ele>
        <time>2022-09-08T17:12:26Z</time>
      </trkpt>
      <trkpt lat="43.95367" lon="1.86745">
        <ele>269.6</ele>
        <time>2022-09-08T17:12:27Z</time>
      </trkpt>
      <trkpt lat="43.95367" lon="1.86743">
        <ele>269.2</ele>
        <time>2022-09-08T17:12:28Z</time>
      </trkpt>
      <trkpt lat="43.95367" lon="1.86741">
        <ele>269.2</ele>
        <time>2022-09-08T17:12:29Z</time>
      </trkpt>
      <trkpt lat="43.95367" lon="1.8674">
        <ele>269</ele>
        <time>2022-09-08T17:12:30Z</time>
      </trkpt>
      <trkpt lat="43.95366" lon="1.86738">
        <ele>268.8</ele>
        <time>2022-09-08T17:12:31Z</time>
      </trkpt>
      <trkpt lat="43.95365" lon="1.86735">
        <ele>268.8</ele>
        <time>2022-09-08T17:12:32Z</time>
      </trkpt>
      <trkpt lat="43.95364" lon="1.86734">
        <ele>268.8</ele>
        <time>2022-09-08T17:12:33Z</time>
      </trkpt>
      <trkpt lat="43.95363" lon="1.8673">
        <ele>268.6</ele>
        <time>2022-09-08T17:12:34Z</time>
      </trkpt>
      <trkpt lat="43.95358" lon="1.86724">
        <ele>268</ele>
        <time>2022-09-08T17:12:38Z</time>
      </trkpt>
      <trkpt lat="43.95357" lon="1.86722">
        <ele>267.8</ele>
        <time>2022-09-08T17:12:39Z</time>
      </trkpt>
      <trkpt lat="43.95353" lon="1.86717">
        <ele>267.4</ele>
        <time>2022-09-08T17:12:41Z</time>
      </trkpt>
      <trkpt lat="43.95351" lon="1.86714">
        <ele>267.2</ele>
        <time>2022-09-08T17:12:42Z</time>
      </trkpt>
      <trkpt lat="43.95349" lon="1.8671">
        <ele>267</ele>
        <time>2022-09-08T17:12:43Z</time>
      </trkpt>
      <trkpt lat="43.95348" lon="1.86707">
        <ele>266.8</ele>
        <time>2022-09-08T17:12:44Z</time>
      </trkpt>
      <trkpt lat="43.95347" lon="1.86705">
        <ele>266.6</ele>
        <time>2022-09-08T17:12:45Z</time>
      </trkpt>
      <trkpt lat="43.95344" lon="1.86703">
        <ele>266.4</ele>
        <time>2022-09-08T17:12:46Z</time>
      </trkpt>
      <trkpt lat="43.95341" lon="1.86701">
        <ele>266.4</ele>
        <time>2022-09-08T17:12:47Z</time>
      </trkpt>
      <trkpt lat="43.95337" lon="1.86697">
        <ele>266.2</ele>
        <time>2022-09-08T17:12:48Z</time>
      </trkpt>
      <trkpt lat="43.95335" lon="1.86695">
        <ele>266.2</ele>
        <time>2022-09-08T17:12:49Z</time>
      </trkpt>
      <trkpt lat="43.95334" lon="1.86694">
        <ele>266</ele>
        <time>2022-09-08T17:12:50Z</time>
      </trkpt>
      <trkpt lat="43.95332" lon="1.86692">
        <ele>266</ele>
        <time>2022-09-08T17:12:51Z</time>
      </trkpt>
      <trkpt lat="43.95331" lon="1.8669">
        <ele>265.8</ele>
        <time>2022-09-08T17:12:52Z</time>
      </trkpt>
      <trkpt lat="43.9533" lon="1.86688">
        <ele>265.8</ele>
        <time>2022-09-08T17:12:53Z</time>
      </trkpt>
      <trkpt lat="43.95325" lon="1.86682">
        <ele>265.8</ele>
        <time>2022-09-08T17:12:54Z</time>
      </trkpt>
      <trkpt lat="43.95321" lon="1.86677">
        <ele>265.8</ele>
        <time>2022-09-08T17:12:55Z</time>
      </trkpt>
      <trkpt lat="43.95317" lon="1.86672">
        <ele>265.8</ele>
        <time>2022-09-08T17:12:56Z</time>
      </trkpt>
      <trkpt lat="43.95316" lon="1.86671">
        <ele>265.8</ele>
        <time>2022-09-08T17:12:57Z</time>
      </trkpt>
      <trkpt lat="43.95315" lon="1.86668">
        <ele>265.8</ele>
        <time>2022-09-08T17:12:58Z</time>
      </trkpt>
      <trkpt lat="43.95315" lon="1.86666">
        <ele>265.8</ele>
        <time>2022-09-08T17:12:59Z</time>
      </trkpt>
      <trkpt lat="43.95315" lon="1.86663">
        <ele>265.6</ele>
        <time>2022-09-08T17:13:00Z</time>
      </trkpt>
      <trkpt lat="43.95314" lon="1.8666">
        <ele>265.6</ele>
        <time>2022-09-08T17:13:01Z</time>
      </trkpt>
      <trkpt lat="43.95313" lon="1.86656">
        <ele>265.6</ele>
        <time>2022-09-08T17:13:02Z</time>
      </trkpt>
      <trkpt lat="43.95308" lon="1.86651">
        <ele>265.6</ele>
        <time>2022-09-08T17:13:03Z</time>
      </trkpt>
      <trkpt lat="43.95308" lon="1.86648">
        <ele>265.6</ele>
        <time>2022-09-08T17:13:04Z</time>
      </trkpt>
      <trkpt lat="43.95309" lon="1.86646">
        <ele>265.6</ele>
        <time>2022-09-08T17:13:05Z</time>
      </trkpt>
      <trkpt lat="43.95309" lon="1.86644">
        <ele>265.4</ele>
        <time>2022-09-08T17:13:06Z</time>
      </trkpt>
      <trkpt lat="43.95308" lon="1.86639">
        <ele>265.4</ele>
        <time>2022-09-08T17:13:07Z</time>
      </trkpt>
      <trkpt lat="43.95308" lon="1.86633">
        <ele>265.4</ele>
        <time>2022-09-08T17:13:08Z</time>
      </trkpt>
      <trkpt lat="43.95306" lon="1.86628">
        <ele>265.4</ele>
        <time>2022-09-08T17:13:09Z</time>
      </trkpt>
      <trkpt lat="43.95306" lon="1.86624">
        <ele>265.4</ele>
        <time>2022-09-08T17:13:10Z</time>
      </trkpt>
      <trkpt lat="43.95306" lon="1.8662">
        <ele>265.4</ele>
        <time>2022-09-08T17:13:11Z</time>
      </trkpt>
      <trkpt lat="43.95306" lon="1.86616">
        <ele>265.4</ele>
        <time>2022-09-08T17:13:12Z</time>
      </trkpt>
      <trkpt lat="43.95307" lon="1.86612">
        <ele>265.2</ele>
        <time>2022-09-08T17:13:13Z</time>
      </trkpt>
      <trkpt lat="43.95306" lon="1.8661">
        <ele>265.2</ele>
        <time>2022-09-08T17:13:14Z</time>
      </trkpt>
      <trkpt lat="43.95305" lon="1.86609">
        <ele>265</ele>
        <time>2022-09-08T17:13:15Z</time>
      </trkpt>
      <trkpt lat="43.95302" lon="1.86606">
        <ele>264.6</ele>
        <time>2022-09-08T17:13:16Z</time>
      </trkpt>
      <trkpt lat="43.953" lon="1.86603">
        <ele>264.6</ele>
        <time>2022-09-08T17:13:17Z</time>
      </trkpt>
      <trkpt lat="43.953" lon="1.86601">
        <ele>264.6</ele>
        <time>2022-09-08T17:13:18Z</time>
      </trkpt>
      <trkpt lat="43.95294" lon="1.86596">
        <ele>264.4</ele>
        <time>2022-09-08T17:13:20Z</time>
      </trkpt>
      <trkpt lat="43.95291" lon="1.86594">
        <ele>264.4</ele>
        <time>2022-09-08T17:13:21Z</time>
      </trkpt>
      <trkpt lat="43.95289" lon="1.86594">
        <ele>264.4</ele>
        <time>2022-09-08T17:13:22Z</time>
      </trkpt>
      <trkpt lat="43.95286" lon="1.86592">
        <ele>264.4</ele>
        <time>2022-09-08T17:13:23Z</time>
      </trkpt>
      <trkpt lat="43.95281" lon="1.86591">
        <ele>265.2</ele>
        <time>2022-09-08T17:13:25Z</time>
      </trkpt>
      <trkpt lat="43.95277" lon="1.8659">
        <ele>265.4</ele>
        <time>2022-09-08T17:13:26Z</time>
      </trkpt>
      <trkpt lat="43.95276" lon="1.86589">
        <ele>265.8</ele>
        <time>2022-09-08T17:13:27Z</time>
      </trkpt>
      <trkpt lat="43.95272" lon="1.86588">
        <ele>266.2</ele>
        <time>2022-09-08T17:13:28Z</time>
      </trkpt>
      <trkpt lat="43.95271" lon="1.86587">
        <ele>266.6</ele>
        <time>2022-09-08T17:13:29Z</time>
      </trkpt>
      <trkpt lat="43.95271" lon="1.86587">
        <ele>267</ele>
        <time>2022-09-08T17:13:30Z</time>
      </trkpt>
      <trkpt lat="43.95271" lon="1.86588">
        <ele>267.2</ele>
        <time>2022-09-08T17:13:31Z</time>
      </trkpt>
      <trkpt lat="43.95271" lon="1.86587">
        <ele>267.6</ele>
        <time>2022-09-08T17:13:32Z</time>
      </trkpt>
      <trkpt lat="43.9527" lon="1.86585">
        <ele>267.8</ele>
        <time>2022-09-08T17:13:33Z</time>
      </trkpt>
      <trkpt lat="43.95269" lon="1.86585">
        <ele>268</ele>
        <time>2022-09-08T17:13:34Z</time>
      </trkpt>
      <trkpt lat="43.95268" lon="1.86583">
        <ele>268</ele>
        <time>2022-09-08T17:13:35Z</time>
      </trkpt>
      <trkpt lat="43.95267" lon="1.86582">
        <ele>268.2</ele>
        <time>2022-09-08T17:13:36Z</time>
      </trkpt>
      <trkpt lat="43.95265" lon="1.86582">
        <ele>268.2</ele>
        <time>2022-09-08T17:13:37Z</time>
      </trkpt>
      <trkpt lat="43.95264" lon="1.86581">
        <ele>268.2</ele>
        <time>2022-09-08T17:13:38Z</time>
      </trkpt>
      <trkpt lat="43.95263" lon="1.86581">
        <ele>268.2</ele>
        <time>2022-09-08T17:13:39Z</time>
      </trkpt>
      <trkpt lat="43.95262" lon="1.86578">
        <ele>268.2</ele>
        <time>2022-09-08T17:13:40Z</time>
      </trkpt>
      <trkpt lat="43.95262" lon="1.86576">
        <ele>268.2</ele>
        <time>2022-09-08T17:13:41Z</time>
      </trkpt>
      <trkpt lat="43.95261" lon="1.86574">
        <ele>268.2</ele>
        <time>2022-09-08T17:13:42Z</time>
      </trkpt>
      <trkpt lat="43.95261" lon="1.86572">
        <ele>268.2</ele>
        <time>2022-09-08T17:13:43Z</time>
      </trkpt>
      <trkpt lat="43.9526" lon="1.8657">
        <ele>268.2</ele>
        <time>2022-09-08T17:13:44Z</time>
      </trkpt>
      <trkpt lat="43.95258" lon="1.86568">
        <ele>268.2</ele>
        <time>2022-09-08T17:13:45Z</time>
      </trkpt>
      <trkpt lat="43.95254" lon="1.86566">
        <ele>267.8</ele>
        <time>2022-09-08T17:13:46Z</time>
      </trkpt>
      <trkpt lat="43.95252" lon="1.86563">
        <ele>267.8</ele>
        <time>2022-09-08T17:13:47Z</time>
      </trkpt>
      <trkpt lat="43.9525" lon="1.86561">
        <ele>267.6</ele>
        <time>2022-09-08T17:13:48Z</time>
      </trkpt>
      <trkpt lat="43.95247" lon="1.86558">
        <ele>267.4</ele>
        <time>2022-09-08T17:13:49Z</time>
      </trkpt>
      <trkpt lat="43.95244" lon="1.86557">
        <ele>267.4</ele>
        <time>2022-09-08T17:13:50Z</time>
      </trkpt>
      <trkpt lat="43.95241" lon="1.86556">
        <ele>267.4</ele>
        <time>2022-09-08T17:13:51Z</time>
      </trkpt>
      <trkpt lat="43.95239" lon="1.86555">
        <ele>267.4</ele>
        <time>2022-09-08T17:13:52Z</time>
      </trkpt>
      <trkpt lat="43.95236" lon="1.86556">
        <ele>267.2</ele>
        <time>2022-09-08T17:13:53Z</time>
      </trkpt>
      <trkpt lat="43.95234" lon="1.86556">
        <ele>267.2</ele>
        <time>2022-09-08T17:13:54Z</time>
      </trkpt>
      <trkpt lat="43.95232" lon="1.86558">
        <ele>267.4</ele>
        <time>2022-09-08T17:13:55Z</time>
      </trkpt>
      <trkpt lat="43.9523" lon="1.86559">
        <ele>267.4</ele>
        <time>2022-09-08T17:13:56Z</time>
      </trkpt>
      <trkpt lat="43.95228" lon="1.86559">
        <ele>267.4</ele>
        <time>2022-09-08T17:13:57Z</time>
      </trkpt>
      <trkpt lat="43.95226" lon="1.8656">
        <ele>267.4</ele>
        <time>2022-09-08T17:13:58Z</time>
      </trkpt>
      <trkpt lat="43.95217" lon="1.86561">
        <ele>268</ele>
        <time>2022-09-08T17:14:02Z</time>
      </trkpt>
      <trkpt lat="43.95207" lon="1.86565">
        <ele>268.6</ele>
        <time>2022-09-08T17:14:06Z</time>
      </trkpt>
      <trkpt lat="43.95197" lon="1.86567">
        <ele>269</ele>
        <time>2022-09-08T17:14:09Z</time>
      </trkpt>
      <trkpt lat="43.95195" lon="1.86567">
        <ele>269.2</ele>
        <time>2022-09-08T17:14:10Z</time>
      </trkpt>
      <trkpt lat="43.95191" lon="1.86567">
        <ele>269.6</ele>
        <time>2022-09-08T17:14:11Z</time>
      </trkpt>
      <trkpt lat="43.9519" lon="1.86568">
        <ele>269.6</ele>
        <time>2022-09-08T17:14:12Z</time>
      </trkpt>
      <trkpt lat="43.95189" lon="1.86569">
        <ele>270</ele>
        <time>2022-09-08T17:14:13Z</time>
      </trkpt>
      <trkpt lat="43.95189" lon="1.86568">
        <ele>270</ele>
        <time>2022-09-08T17:14:14Z</time>
      </trkpt>
      <trkpt lat="43.95186" lon="1.86566">
        <ele>270.8</ele>
        <time>2022-09-08T17:14:26Z</time>
      </trkpt>
      <trkpt lat="43.95183" lon="1.86564">
        <ele>270.8</ele>
        <time>2022-09-08T17:14:27Z</time>
      </trkpt>
      <trkpt lat="43.95182" lon="1.86564">
        <ele>270.8</ele>
        <time>2022-09-08T17:14:28Z</time>
      </trkpt>
      <trkpt lat="43.9518" lon="1.86563">
        <ele>271</ele>
        <time>2022-09-08T17:14:29Z</time>
      </trkpt>
      <trkpt lat="43.95171" lon="1.8656">
        <ele>271</ele>
        <time>2022-09-08T17:14:33Z</time>
      </trkpt>
      <trkpt lat="43.95169" lon="1.86559">
        <ele>271</ele>
        <time>2022-09-08T17:14:34Z</time>
      </trkpt>
      <trkpt lat="43.9516" lon="1.86556">
        <ele>271.2</ele>
        <time>2022-09-08T17:14:38Z</time>
      </trkpt>
      <trkpt lat="43.95158" lon="1.86556">
        <ele>271.2</ele>
        <time>2022-09-08T17:14:39Z</time>
      </trkpt>
      <trkpt lat="43.95155" lon="1.86555">
        <ele>271.2</ele>
        <time>2022-09-08T17:14:40Z</time>
      </trkpt>
      <trkpt lat="43.95148" lon="1.86555">
        <ele>271.2</ele>
        <time>2022-09-08T17:14:42Z</time>
      </trkpt>
      <trkpt lat="43.95146" lon="1.86558">
        <ele>271</ele>
        <time>2022-09-08T17:14:43Z</time>
      </trkpt>
      <trkpt lat="43.9514" lon="1.86565">
        <ele>270.4</ele>
        <time>2022-09-08T17:14:45Z</time>
      </trkpt>
      <trkpt lat="43.95136" lon="1.86567">
        <ele>270.2</ele>
        <time>2022-09-08T17:14:46Z</time>
      </trkpt>
      <trkpt lat="43.9513" lon="1.86567">
        <ele>270</ele>
        <time>2022-09-08T17:14:47Z</time>
      </trkpt>
      <trkpt lat="43.95127" lon="1.86568">
        <ele>269.6</ele>
        <time>2022-09-08T17:14:48Z</time>
      </trkpt>
      <trkpt lat="43.95124" lon="1.86567">
        <ele>269.2</ele>
        <time>2022-09-08T17:14:49Z</time>
      </trkpt>
      <trkpt lat="43.9512" lon="1.86567">
        <ele>269</ele>
        <time>2022-09-08T17:14:50Z</time>
      </trkpt>
      <trkpt lat="43.95116" lon="1.86569">
        <ele>268.2</ele>
        <time>2022-09-08T17:14:51Z</time>
      </trkpt>
      <trkpt lat="43.95113" lon="1.8657">
        <ele>267.6</ele>
        <time>2022-09-08T17:14:52Z</time>
      </trkpt>
      <trkpt lat="43.95108" lon="1.86571">
        <ele>267.2</ele>
        <time>2022-09-08T17:14:53Z</time>
      </trkpt>
      <trkpt lat="43.95098" lon="1.86567">
        <ele>266</ele>
        <time>2022-09-08T17:14:55Z</time>
      </trkpt>
      <trkpt lat="43.95093" lon="1.86563">
        <ele>264.8</ele>
        <time>2022-09-08T17:14:56Z</time>
      </trkpt>
      <trkpt lat="43.95088" lon="1.86559">
        <ele>264.4</ele>
        <time>2022-09-08T17:14:57Z</time>
      </trkpt>
      <trkpt lat="43.95084" lon="1.86556">
        <ele>263.4</ele>
        <time>2022-09-08T17:14:58Z</time>
      </trkpt>
      <trkpt lat="43.9508" lon="1.86553">
        <ele>262.6</ele>
        <time>2022-09-08T17:14:59Z</time>
      </trkpt>
      <trkpt lat="43.95077" lon="1.8655">
        <ele>262.4</ele>
        <time>2022-09-08T17:15:00Z</time>
      </trkpt>
      <trkpt lat="43.95074" lon="1.86549">
        <ele>261.8</ele>
        <time>2022-09-08T17:15:01Z</time>
      </trkpt>
      <trkpt lat="43.95071" lon="1.86549">
        <ele>261.4</ele>
        <time>2022-09-08T17:15:02Z</time>
      </trkpt>
      <trkpt lat="43.95069" lon="1.86549">
        <ele>261</ele>
        <time>2022-09-08T17:15:03Z</time>
      </trkpt>
      <trkpt lat="43.95067" lon="1.8655">
        <ele>260.8</ele>
        <time>2022-09-08T17:15:04Z</time>
      </trkpt>
      <trkpt lat="43.95065" lon="1.8655">
        <ele>260.4</ele>
        <time>2022-09-08T17:15:05Z</time>
      </trkpt>
      <trkpt lat="43.95063" lon="1.86549">
        <ele>260.2</ele>
        <time>2022-09-08T17:15:06Z</time>
      </trkpt>
      <trkpt lat="43.95061" lon="1.86547">
        <ele>259.6</ele>
        <time>2022-09-08T17:15:07Z</time>
      </trkpt>
      <trkpt lat="43.95059" lon="1.86545">
        <ele>259</ele>
        <time>2022-09-08T17:15:08Z</time>
      </trkpt>
      <trkpt lat="43.95058" lon="1.86543">
        <ele>259</ele>
        <time>2022-09-08T17:15:09Z</time>
      </trkpt>
      <trkpt lat="43.95057" lon="1.86542">
        <ele>258.4</ele>
        <time>2022-09-08T17:15:10Z</time>
      </trkpt>
      <trkpt lat="43.95055" lon="1.86541">
        <ele>258.2</ele>
        <time>2022-09-08T17:15:11Z</time>
      </trkpt>
      <trkpt lat="43.95054" lon="1.86542">
        <ele>258</ele>
        <time>2022-09-08T17:15:12Z</time>
      </trkpt>
      <trkpt lat="43.95053" lon="1.86542">
        <ele>258</ele>
        <time>2022-09-08T17:15:13Z</time>
      </trkpt>
      <trkpt lat="43.95053" lon="1.86543">
        <ele>257.8</ele>
        <time>2022-09-08T17:15:14Z</time>
      </trkpt>
      <trkpt lat="43.95053" lon="1.86544">
        <ele>257.6</ele>
        <time>2022-09-08T17:15:15Z</time>
      </trkpt>
      <trkpt lat="43.95053" lon="1.86543">
        <ele>257.6</ele>
        <time>2022-09-08T17:15:16Z</time>
      </trkpt>
      <trkpt lat="43.95048" lon="1.86544">
        <ele>256.6</ele>
        <time>2022-09-08T17:16:31Z</time>
      </trkpt>
      <trkpt lat="43.95047" lon="1.86545">
        <ele>256.6</ele>
        <time>2022-09-08T17:16:33Z</time>
      </trkpt>
      <trkpt lat="43.95045" lon="1.86547">
        <ele>256.6</ele>
        <time>2022-09-08T17:16:34Z</time>
      </trkpt>
      <trkpt lat="43.95044" lon="1.8655">
        <ele>256.6</ele>
        <time>2022-09-08T17:16:35Z</time>
      </trkpt>
      <trkpt lat="43.95041" lon="1.86563">
        <ele>256.4</ele>
        <time>2022-09-08T17:16:38Z</time>
      </trkpt>
      <trkpt lat="43.9504" lon="1.86569">
        <ele>256.4</ele>
        <time>2022-09-08T17:16:39Z</time>
      </trkpt>
      <trkpt lat="43.9504" lon="1.86577">
        <ele>256.4</ele>
        <time>2022-09-08T17:16:40Z</time>
      </trkpt>
      <trkpt lat="43.95042" lon="1.86599">
        <ele>255.4</ele>
        <time>2022-09-08T17:16:43Z</time>
      </trkpt>
      <trkpt lat="43.95043" lon="1.86626">
        <ele>254.4</ele>
        <time>2022-09-08T17:16:46Z</time>
      </trkpt>
      <trkpt lat="43.95046" lon="1.86635">
        <ele>254.2</ele>
        <time>2022-09-08T17:16:47Z</time>
      </trkpt>
      <trkpt lat="43.9505" lon="1.86641">
        <ele>253.6</ele>
        <time>2022-09-08T17:16:48Z</time>
      </trkpt>
      <trkpt lat="43.95054" lon="1.86647">
        <ele>253</ele>
        <time>2022-09-08T17:16:49Z</time>
      </trkpt>
      <trkpt lat="43.95058" lon="1.86652">
        <ele>252</ele>
        <time>2022-09-08T17:16:50Z</time>
      </trkpt>
      <trkpt lat="43.95061" lon="1.86657">
        <ele>251.8</ele>
        <time>2022-09-08T17:16:51Z</time>
      </trkpt>
      <trkpt lat="43.95064" lon="1.8666">
        <ele>251.2</ele>
        <time>2022-09-08T17:16:52Z</time>
      </trkpt>
      <trkpt lat="43.95065" lon="1.86663">
        <ele>250.8</ele>
        <time>2022-09-08T17:16:53Z</time>
      </trkpt>
      <trkpt lat="43.95066" lon="1.86666">
        <ele>250.6</ele>
        <time>2022-09-08T17:16:54Z</time>
      </trkpt>
      <trkpt lat="43.95064" lon="1.86669">
        <ele>250.4</ele>
        <time>2022-09-08T17:16:55Z</time>
      </trkpt>
      <trkpt lat="43.95061" lon="1.86673">
        <ele>250.2</ele>
        <time>2022-09-08T17:16:56Z</time>
      </trkpt>
      <trkpt lat="43.95057" lon="1.86679">
        <ele>250</ele>
        <time>2022-09-08T17:16:57Z</time>
      </trkpt>
      <trkpt lat="43.95049" lon="1.86692">
        <ele>249.8</ele>
        <time>2022-09-08T17:16:59Z</time>
      </trkpt>
      <trkpt lat="43.95045" lon="1.86701">
        <ele>249.6</ele>
        <time>2022-09-08T17:17:00Z</time>
      </trkpt>
      <trkpt lat="43.95034" lon="1.8672">
        <ele>249</ele>
        <time>2022-09-08T17:17:02Z</time>
      </trkpt>
      <trkpt lat="43.95025" lon="1.86733">
        <ele>248.2</ele>
        <time>2022-09-08T17:17:03Z</time>
      </trkpt>
      <trkpt lat="43.9501" lon="1.86755">
        <ele>247</ele>
        <time>2022-09-08T17:17:05Z</time>
      </trkpt>
      <trkpt lat="43.95002" lon="1.86766">
        <ele>246.4</ele>
        <time>2022-09-08T17:17:06Z</time>
      </trkpt>
      <trkpt lat="43.94994" lon="1.86777">
        <ele>245.8</ele>
        <time>2022-09-08T17:17:07Z</time>
      </trkpt>
      <trkpt lat="43.94987" lon="1.86787">
        <ele>244.6</ele>
        <time>2022-09-08T17:17:08Z</time>
      </trkpt>
      <trkpt lat="43.94981" lon="1.86797">
        <ele>243.4</ele>
        <time>2022-09-08T17:17:09Z</time>
      </trkpt>
      <trkpt lat="43.94975" lon="1.86806">
        <ele>242.8</ele>
        <time>2022-09-08T17:17:10Z</time>
      </trkpt>
      <trkpt lat="43.94969" lon="1.86814">
        <ele>241.8</ele>
        <time>2022-09-08T17:17:11Z</time>
      </trkpt>
      <trkpt lat="43.94964" lon="1.86821">
        <ele>241.2</ele>
        <time>2022-09-08T17:17:12Z</time>
      </trkpt>
      <trkpt lat="43.94958" lon="1.86829">
        <ele>240.2</ele>
        <time>2022-09-08T17:17:13Z</time>
      </trkpt>
      <trkpt lat="43.94944" lon="1.86847">
        <ele>238.6</ele>
        <time>2022-09-08T17:17:15Z</time>
      </trkpt>
      <trkpt lat="43.94937" lon="1.86855">
        <ele>236.8</ele>
        <time>2022-09-08T17:17:16Z</time>
      </trkpt>
      <trkpt lat="43.94921" lon="1.8687">
        <ele>234.8</ele>
        <time>2022-09-08T17:17:18Z</time>
      </trkpt>
      <trkpt lat="43.94912" lon="1.86878">
        <ele>234.2</ele>
        <time>2022-09-08T17:17:19Z</time>
      </trkpt>
      <trkpt lat="43.94902" lon="1.86884">
        <ele>233</ele>
        <time>2022-09-08T17:17:20Z</time>
      </trkpt>
      <trkpt lat="43.94881" lon="1.86898">
        <ele>231.6</ele>
        <time>2022-09-08T17:17:22Z</time>
      </trkpt>
      <trkpt lat="43.9487" lon="1.86905">
        <ele>230.8</ele>
        <time>2022-09-08T17:17:23Z</time>
      </trkpt>
      <trkpt lat="43.94859" lon="1.86912">
        <ele>230.2</ele>
        <time>2022-09-08T17:17:24Z</time>
      </trkpt>
      <trkpt lat="43.94849" lon="1.86918">
        <ele>227.6</ele>
        <time>2022-09-08T17:17:25Z</time>
      </trkpt>
      <trkpt lat="43.94841" lon="1.86924">
        <ele>226.4</ele>
        <time>2022-09-08T17:17:26Z</time>
      </trkpt>
      <trkpt lat="43.94832" lon="1.8693">
        <ele>225</ele>
        <time>2022-09-08T17:17:27Z</time>
      </trkpt>
      <trkpt lat="43.94824" lon="1.86936">
        <ele>224.4</ele>
        <time>2022-09-08T17:17:28Z</time>
      </trkpt>
      <trkpt lat="43.94816" lon="1.86942">
        <ele>223.2</ele>
        <time>2022-09-08T17:17:29Z</time>
      </trkpt>
      <trkpt lat="43.94808" lon="1.86948">
        <ele>222.8</ele>
        <time>2022-09-08T17:17:30Z</time>
      </trkpt>
      <trkpt lat="43.948" lon="1.86953">
        <ele>221</ele>
        <time>2022-09-08T17:17:31Z</time>
      </trkpt>
      <trkpt lat="43.94794" lon="1.86958">
        <ele>219.4</ele>
        <time>2022-09-08T17:17:32Z</time>
      </trkpt>
      <trkpt lat="43.94789" lon="1.86961">
        <ele>218.2</ele>
        <time>2022-09-08T17:17:33Z</time>
      </trkpt>
      <trkpt lat="43.94786" lon="1.86961">
        <ele>216.6</ele>
        <time>2022-09-08T17:17:34Z</time>
      </trkpt>
      <trkpt lat="43.94784" lon="1.8696">
        <ele>216</ele>
        <time>2022-09-08T17:17:35Z</time>
      </trkpt>
      <trkpt lat="43.94784" lon="1.86958">
        <ele>214</ele>
        <time>2022-09-08T17:17:36Z</time>
      </trkpt>
      <trkpt lat="43.94784" lon="1.86954">
        <ele>213.2</ele>
        <time>2022-09-08T17:17:37Z</time>
      </trkpt>
      <trkpt lat="43.94784" lon="1.86951">
        <ele>212.2</ele>
        <time>2022-09-08T17:17:38Z</time>
      </trkpt>
      <trkpt lat="43.94784" lon="1.86947">
        <ele>211.8</ele>
        <time>2022-09-08T17:17:39Z</time>
      </trkpt>
      <trkpt lat="43.94784" lon="1.86944">
        <ele>210.8</ele>
        <time>2022-09-08T17:17:40Z</time>
      </trkpt>
      <trkpt lat="43.94785" lon="1.86929">
        <ele>209.4</ele>
        <time>2022-09-08T17:17:43Z</time>
      </trkpt>
      <trkpt lat="43.94784" lon="1.86918">
        <ele>209</ele>
        <time>2022-09-08T17:17:46Z</time>
      </trkpt>
      <trkpt lat="43.94782" lon="1.86915">
        <ele>208.6</ele>
        <time>2022-09-08T17:17:47Z</time>
      </trkpt>
      <trkpt lat="43.9478" lon="1.86914">
        <ele>208.6</ele>
        <time>2022-09-08T17:17:48Z</time>
      </trkpt>
      <trkpt lat="43.94779" lon="1.86914">
        <ele>208.2</ele>
        <time>2022-09-08T17:17:49Z</time>
      </trkpt>
      <trkpt lat="43.94777" lon="1.86914">
        <ele>207.8</ele>
        <time>2022-09-08T17:17:50Z</time>
      </trkpt>
      <trkpt lat="43.94775" lon="1.86913">
        <ele>207.6</ele>
        <time>2022-09-08T17:17:51Z</time>
      </trkpt>
      <trkpt lat="43.94772" lon="1.86913">
        <ele>207.4</ele>
        <time>2022-09-08T17:17:52Z</time>
      </trkpt>
      <trkpt lat="43.94769" lon="1.86912">
        <ele>207.2</ele>
        <time>2022-09-08T17:17:53Z</time>
      </trkpt>
      <trkpt lat="43.94767" lon="1.86911">
        <ele>207</ele>
        <time>2022-09-08T17:17:54Z</time>
      </trkpt>
      <trkpt lat="43.94765" lon="1.86909">
        <ele>207</ele>
        <time>2022-09-08T17:17:55Z</time>
      </trkpt>
      <trkpt lat="43.94763" lon="1.86908">
        <ele>206.6</ele>
        <time>2022-09-08T17:17:56Z</time>
      </trkpt>
      <trkpt lat="43.94762" lon="1.86908">
        <ele>206.4</ele>
        <time>2022-09-08T17:17:57Z</time>
      </trkpt>
      <trkpt lat="43.9476" lon="1.86909">
        <ele>206.4</ele>
        <time>2022-09-08T17:17:58Z</time>
      </trkpt>
      <trkpt lat="43.94758" lon="1.8691">
        <ele>206.4</ele>
        <time>2022-09-08T17:17:59Z</time>
      </trkpt>
      <trkpt lat="43.94757" lon="1.86911">
        <ele>206.4</ele>
        <time>2022-09-08T17:18:00Z</time>
      </trkpt>
      <trkpt lat="43.94755" lon="1.86911">
        <ele>206.4</ele>
        <time>2022-09-08T17:18:01Z</time>
      </trkpt>
      <trkpt lat="43.94748" lon="1.86915">
        <ele>206.2</ele>
        <time>2022-09-08T17:18:06Z</time>
      </trkpt>
      <trkpt lat="43.94746" lon="1.86916">
        <ele>206</ele>
        <time>2022-09-08T17:18:07Z</time>
      </trkpt>
      <trkpt lat="43.94744" lon="1.86918">
        <ele>205.8</ele>
        <time>2022-09-08T17:18:08Z</time>
      </trkpt>
      <trkpt lat="43.94743" lon="1.86919">
        <ele>205.6</ele>
        <time>2022-09-08T17:18:09Z</time>
      </trkpt>
      <trkpt lat="43.94741" lon="1.86921">
        <ele>205.4</ele>
        <time>2022-09-08T17:18:10Z</time>
      </trkpt>
      <trkpt lat="43.94739" lon="1.86923">
        <ele>205.4</ele>
        <time>2022-09-08T17:18:11Z</time>
      </trkpt>
      <trkpt lat="43.94738" lon="1.86924">
        <ele>205.2</ele>
        <time>2022-09-08T17:18:12Z</time>
      </trkpt>
      <trkpt lat="43.94736" lon="1.86926">
        <ele>204.6</ele>
        <time>2022-09-08T17:18:13Z</time>
      </trkpt>
      <trkpt lat="43.94727" lon="1.86933">
        <ele>203.6</ele>
        <time>2022-09-08T17:18:19Z</time>
      </trkpt>
      <trkpt lat="43.94724" lon="1.86936">
        <ele>203.4</ele>
        <time>2022-09-08T17:18:21Z</time>
      </trkpt>
      <trkpt lat="43.94704" lon="1.8695">
        <ele>202.4</ele>
        <time>2022-09-08T17:18:28Z</time>
      </trkpt>
      <trkpt lat="43.94698" lon="1.86954">
        <ele>202.2</ele>
        <time>2022-09-08T17:18:30Z</time>
      </trkpt>
      <trkpt lat="43.94679" lon="1.86959">
        <ele>201.4</ele>
        <time>2022-09-08T17:18:34Z</time>
      </trkpt>
      <trkpt lat="43.94674" lon="1.8696">
        <ele>201.2</ele>
        <time>2022-09-08T17:18:35Z</time>
      </trkpt>
      <trkpt lat="43.94649" lon="1.86953">
        <ele>200.8</ele>
        <time>2022-09-08T17:18:40Z</time>
      </trkpt>
      <trkpt lat="43.94645" lon="1.86951">
        <ele>200.8</ele>
        <time>2022-09-08T17:18:41Z</time>
      </trkpt>
      <trkpt lat="43.9464" lon="1.86947">
        <ele>200.6</ele>
        <time>2022-09-08T17:18:42Z</time>
      </trkpt>
      <trkpt lat="43.94636" lon="1.86942">
        <ele>200.4</ele>
        <time>2022-09-08T17:18:43Z</time>
      </trkpt>
      <trkpt lat="43.94632" lon="1.86939">
        <ele>200.2</ele>
        <time>2022-09-08T17:18:44Z</time>
      </trkpt>
      <trkpt lat="43.94627" lon="1.86937">
        <ele>200</ele>
        <time>2022-09-08T17:18:45Z</time>
      </trkpt>
      <trkpt lat="43.94599" lon="1.86929">
        <ele>199.2</ele>
        <time>2022-09-08T17:18:50Z</time>
      </trkpt>
      <trkpt lat="43.94593" lon="1.86929">
        <ele>198.8</ele>
        <time>2022-09-08T17:18:51Z</time>
      </trkpt>
      <trkpt lat="43.94586" lon="1.86928">
        <ele>198.8</ele>
        <time>2022-09-08T17:18:52Z</time>
      </trkpt>
      <trkpt lat="43.94572" lon="1.86925">
        <ele>198.2</ele>
        <time>2022-09-08T17:18:54Z</time>
      </trkpt>
      <trkpt lat="43.94566" lon="1.86921">
        <ele>198.2</ele>
        <time>2022-09-08T17:18:55Z</time>
      </trkpt>
      <trkpt lat="43.94554" lon="1.86915">
        <ele>197.4</ele>
        <time>2022-09-08T17:18:57Z</time>
      </trkpt>
      <trkpt lat="43.94548" lon="1.8691">
        <ele>196.6</ele>
        <time>2022-09-08T17:18:58Z</time>
      </trkpt>
      <trkpt lat="43.94542" lon="1.86904">
        <ele>196.2</ele>
        <time>2022-09-08T17:18:59Z</time>
      </trkpt>
      <trkpt lat="43.94539" lon="1.869">
        <ele>195.6</ele>
        <time>2022-09-08T17:19:00Z</time>
      </trkpt>
      <trkpt lat="43.94536" lon="1.86897">
        <ele>195.6</ele>
        <time>2022-09-08T17:19:01Z</time>
      </trkpt>
      <trkpt lat="43.94534" lon="1.86896">
        <ele>195.4</ele>
        <time>2022-09-08T17:19:02Z</time>
      </trkpt>
      <trkpt lat="43.94532" lon="1.86894">
        <ele>195.6</ele>
        <time>2022-09-08T17:19:03Z</time>
      </trkpt>
      <trkpt lat="43.9453" lon="1.86891">
        <ele>195.4</ele>
        <time>2022-09-08T17:19:04Z</time>
      </trkpt>
      <trkpt lat="43.94528" lon="1.8689">
        <ele>195.6</ele>
        <time>2022-09-08T17:19:05Z</time>
      </trkpt>
      <trkpt lat="43.94523" lon="1.86883">
        <ele>195.8</ele>
        <time>2022-09-08T17:19:08Z</time>
      </trkpt>
      <trkpt lat="43.94522" lon="1.8688">
        <ele>196</ele>
        <time>2022-09-08T17:19:09Z</time>
      </trkpt>
      <trkpt lat="43.94522" lon="1.86877">
        <ele>196.4</ele>
        <time>2022-09-08T17:19:10Z</time>
      </trkpt>
      <trkpt lat="43.94523" lon="1.86873">
        <ele>196.6</ele>
        <time>2022-09-08T17:19:11Z</time>
      </trkpt>
      <trkpt lat="43.94524" lon="1.8687">
        <ele>197</ele>
        <time>2022-09-08T17:19:12Z</time>
      </trkpt>
      <trkpt lat="43.94526" lon="1.86864">
        <ele>197.2</ele>
        <time>2022-09-08T17:19:14Z</time>
      </trkpt>
      <trkpt lat="43.94528" lon="1.86858">
        <ele>197.6</ele>
        <time>2022-09-08T17:19:16Z</time>
      </trkpt>
      <trkpt lat="43.94531" lon="1.86854">
        <ele>197.8</ele>
        <time>2022-09-08T17:19:18Z</time>
      </trkpt>
      <trkpt lat="43.94534" lon="1.86849">
        <ele>198.2</ele>
        <time>2022-09-08T17:19:20Z</time>
      </trkpt>
      <trkpt lat="43.94535" lon="1.86846">
        <ele>198.4</ele>
        <time>2022-09-08T17:19:21Z</time>
      </trkpt>
      <trkpt lat="43.94537" lon="1.86844">
        <ele>198.6</ele>
        <time>2022-09-08T17:19:22Z</time>
      </trkpt>
      <trkpt lat="43.94539" lon="1.86841">
        <ele>198.8</ele>
        <time>2022-09-08T17:19:23Z</time>
      </trkpt>
      <trkpt lat="43.94543" lon="1.86833">
        <ele>199.2</ele>
        <time>2022-09-08T17:19:26Z</time>
      </trkpt>
      <trkpt lat="43.94545" lon="1.86829">
        <ele>199.4</ele>
        <time>2022-09-08T17:19:28Z</time>
      </trkpt>
      <trkpt lat="43.94547" lon="1.86826">
        <ele>199.4</ele>
        <time>2022-09-08T17:19:29Z</time>
      </trkpt>
      <trkpt lat="43.94548" lon="1.86824">
        <ele>199.6</ele>
        <time>2022-09-08T17:19:30Z</time>
      </trkpt>
      <trkpt lat="43.9455" lon="1.86821">
        <ele>199.6</ele>
        <time>2022-09-08T17:19:31Z</time>
      </trkpt>
      <trkpt lat="43.94551" lon="1.86819">
        <ele>199.8</ele>
        <time>2022-09-08T17:19:32Z</time>
      </trkpt>
      <trkpt lat="43.94552" lon="1.86815">
        <ele>199.8</ele>
        <time>2022-09-08T17:19:33Z</time>
      </trkpt>
      <trkpt lat="43.94552" lon="1.86812">
        <ele>200</ele>
        <time>2022-09-08T17:19:34Z</time>
      </trkpt>
      <trkpt lat="43.94552" lon="1.8681">
        <ele>200.4</ele>
        <time>2022-09-08T17:19:35Z</time>
      </trkpt>
      <trkpt lat="43.9455" lon="1.86809">
        <ele>200.4</ele>
        <time>2022-09-08T17:19:36Z</time>
      </trkpt>
      <trkpt lat="43.94549" lon="1.86808">
        <ele>200.6</ele>
        <time>2022-09-08T17:19:37Z</time>
      </trkpt>
      <trkpt lat="43.94548" lon="1.86807">
        <ele>200.8</ele>
        <time>2022-09-08T17:19:38Z</time>
      </trkpt>
      <trkpt lat="43.94547" lon="1.86806">
        <ele>201</ele>
        <time>2022-09-08T17:19:39Z</time>
      </trkpt>
      <trkpt lat="43.94546" lon="1.86805">
        <ele>201</ele>
        <time>2022-09-08T17:19:40Z</time>
      </trkpt>
      <trkpt lat="43.94545" lon="1.86804">
        <ele>201.2</ele>
        <time>2022-09-08T17:19:41Z</time>
      </trkpt>
      <trkpt lat="43.94544" lon="1.86803">
        <ele>201.4</ele>
        <time>2022-09-08T17:19:42Z</time>
      </trkpt>
      <trkpt lat="43.94543" lon="1.86803">
        <ele>201.4</ele>
        <time>2022-09-08T17:19:43Z</time>
      </trkpt>
      <trkpt lat="43.94542" lon="1.86802">
        <ele>201.8</ele>
        <time>2022-09-08T17:19:44Z</time>
      </trkpt>
      <trkpt lat="43.9454" lon="1.86801">
        <ele>202</ele>
        <time>2022-09-08T17:19:45Z</time>
      </trkpt>
      <trkpt lat="43.94539" lon="1.868">
        <ele>202.2</ele>
        <time>2022-09-08T17:19:46Z</time>
      </trkpt>
      <trkpt lat="43.94538" lon="1.86799">
        <ele>202.2</ele>
        <time>2022-09-08T17:19:47Z</time>
      </trkpt>
      <trkpt lat="43.94536" lon="1.86798">
        <ele>202.4</ele>
        <time>2022-09-08T17:19:48Z</time>
      </trkpt>
      <trkpt lat="43.94535" lon="1.86798">
        <ele>202.6</ele>
        <time>2022-09-08T17:19:49Z</time>
      </trkpt>
      <trkpt lat="43.94534" lon="1.86797">
        <ele>203</ele>
        <time>2022-09-08T17:19:50Z</time>
      </trkpt>
      <trkpt lat="43.94533" lon="1.86796">
        <ele>203.2</ele>
        <time>2022-09-08T17:19:51Z</time>
      </trkpt>
      <trkpt lat="43.94532" lon="1.86795">
        <ele>203.2</ele>
        <time>2022-09-08T17:19:52Z</time>
      </trkpt>
      <trkpt lat="43.94531" lon="1.86794">
        <ele>203.4</ele>
        <time>2022-09-08T17:19:53Z</time>
      </trkpt>
      <trkpt lat="43.94529" lon="1.86794">
        <ele>203.6</ele>
        <time>2022-09-08T17:19:54Z</time>
      </trkpt>
      <trkpt lat="43.94528" lon="1.86793">
        <ele>203.8</ele>
        <time>2022-09-08T17:19:55Z</time>
      </trkpt>
      <trkpt lat="43.94527" lon="1.86792">
        <ele>204</ele>
        <time>2022-09-08T17:19:56Z</time>
      </trkpt>
      <trkpt lat="43.94526" lon="1.86791">
        <ele>204.4</ele>
        <time>2022-09-08T17:19:57Z</time>
      </trkpt>
      <trkpt lat="43.94524" lon="1.86791">
        <ele>204.6</ele>
        <time>2022-09-08T17:19:58Z</time>
      </trkpt>
      <trkpt lat="43.94522" lon="1.8679">
        <ele>204.8</ele>
        <time>2022-09-08T17:19:59Z</time>
      </trkpt>
      <trkpt lat="43.9452" lon="1.86789">
        <ele>205.2</ele>
        <time>2022-09-08T17:20:00Z</time>
      </trkpt>
      <trkpt lat="43.94519" lon="1.86788">
        <ele>205.4</ele>
        <time>2022-09-08T17:20:01Z</time>
      </trkpt>
      <trkpt lat="43.94517" lon="1.86786">
        <ele>205.8</ele>
        <time>2022-09-08T17:20:02Z</time>
      </trkpt>
      <trkpt lat="43.94516" lon="1.86786">
        <ele>206</ele>
        <time>2022-09-08T17:20:03Z</time>
      </trkpt>
      <trkpt lat="43.94515" lon="1.86785">
        <ele>206.4</ele>
        <time>2022-09-08T17:20:04Z</time>
      </trkpt>
      <trkpt lat="43.94513" lon="1.86784">
        <ele>206.6</ele>
        <time>2022-09-08T17:20:05Z</time>
      </trkpt>
      <trkpt lat="43.94512" lon="1.86783">
        <ele>207</ele>
        <time>2022-09-08T17:20:06Z</time>
      </trkpt>
      <trkpt lat="43.9451" lon="1.86783">
        <ele>207.4</ele>
        <time>2022-09-08T17:20:07Z</time>
      </trkpt>
      <trkpt lat="43.94508" lon="1.86782">
        <ele>207.6</ele>
        <time>2022-09-08T17:20:08Z</time>
      </trkpt>
      <trkpt lat="43.94507" lon="1.8678">
        <ele>208</ele>
        <time>2022-09-08T17:20:09Z</time>
      </trkpt>
      <trkpt lat="43.94505" lon="1.86779">
        <ele>208.4</ele>
        <time>2022-09-08T17:20:10Z</time>
      </trkpt>
      <trkpt lat="43.94504" lon="1.86778">
        <ele>209</ele>
        <time>2022-09-08T17:20:11Z</time>
      </trkpt>
      <trkpt lat="43.94503" lon="1.86777">
        <ele>209.2</ele>
        <time>2022-09-08T17:20:12Z</time>
      </trkpt>
      <trkpt lat="43.94501" lon="1.86776">
        <ele>209.6</ele>
        <time>2022-09-08T17:20:13Z</time>
      </trkpt>
      <trkpt lat="43.94499" lon="1.86775">
        <ele>210</ele>
        <time>2022-09-08T17:20:14Z</time>
      </trkpt>
      <trkpt lat="43.94498" lon="1.86774">
        <ele>210.2</ele>
        <time>2022-09-08T17:20:15Z</time>
      </trkpt>
      <trkpt lat="43.94496" lon="1.86773">
        <ele>210.8</ele>
        <time>2022-09-08T17:20:16Z</time>
      </trkpt>
      <trkpt lat="43.94494" lon="1.86772">
        <ele>211</ele>
        <time>2022-09-08T17:20:17Z</time>
      </trkpt>
      <trkpt lat="43.94493" lon="1.86771">
        <ele>211.4</ele>
        <time>2022-09-08T17:20:18Z</time>
      </trkpt>
      <trkpt lat="43.94491" lon="1.86769">
        <ele>211.4</ele>
        <time>2022-09-08T17:20:19Z</time>
      </trkpt>
      <trkpt lat="43.94489" lon="1.86768">
        <ele>211.6</ele>
        <time>2022-09-08T17:20:20Z</time>
      </trkpt>
      <trkpt lat="43.94488" lon="1.86767">
        <ele>212</ele>
        <time>2022-09-08T17:20:21Z</time>
      </trkpt>
      <trkpt lat="43.94486" lon="1.86766">
        <ele>212.6</ele>
        <time>2022-09-08T17:20:22Z</time>
      </trkpt>
      <trkpt lat="43.94485" lon="1.86765">
        <ele>213</ele>
        <time>2022-09-08T17:20:23Z</time>
      </trkpt>
      <trkpt lat="43.94483" lon="1.86764">
        <ele>213.2</ele>
        <time>2022-09-08T17:20:24Z</time>
      </trkpt>
      <trkpt lat="43.94482" lon="1.86763">
        <ele>213.6</ele>
        <time>2022-09-08T17:20:25Z</time>
      </trkpt>
      <trkpt lat="43.9448" lon="1.86763">
        <ele>213.8</ele>
        <time>2022-09-08T17:20:26Z</time>
      </trkpt>
      <trkpt lat="43.94479" lon="1.86762">
        <ele>214.4</ele>
        <time>2022-09-08T17:20:27Z</time>
      </trkpt>
      <trkpt lat="43.94477" lon="1.86761">
        <ele>214.6</ele>
        <time>2022-09-08T17:20:28Z</time>
      </trkpt>
      <trkpt lat="43.94476" lon="1.8676">
        <ele>215</ele>
        <time>2022-09-08T17:20:29Z</time>
      </trkpt>
      <trkpt lat="43.94475" lon="1.86758">
        <ele>215.6</ele>
        <time>2022-09-08T17:20:30Z</time>
      </trkpt>
      <trkpt lat="43.94474" lon="1.86757">
        <ele>215.8</ele>
        <time>2022-09-08T17:20:31Z</time>
      </trkpt>
      <trkpt lat="43.94474" lon="1.86755">
        <ele>216.2</ele>
        <time>2022-09-08T17:20:32Z</time>
      </trkpt>
      <trkpt lat="43.94474" lon="1.86753">
        <ele>216.2</ele>
        <time>2022-09-08T17:20:33Z</time>
      </trkpt>
      <trkpt lat="43.94474" lon="1.86751">
        <ele>216.6</ele>
        <time>2022-09-08T17:20:34Z</time>
      </trkpt>
      <trkpt lat="43.94475" lon="1.86749">
        <ele>217</ele>
        <time>2022-09-08T17:20:35Z</time>
      </trkpt>
      <trkpt lat="43.94476" lon="1.86748">
        <ele>217.4</ele>
        <time>2022-09-08T17:20:36Z</time>
      </trkpt>
      <trkpt lat="43.94476" lon="1.86746">
        <ele>217.4</ele>
        <time>2022-09-08T17:20:37Z</time>
      </trkpt>
      <trkpt lat="43.94477" lon="1.86744">
        <ele>217.8</ele>
        <time>2022-09-08T17:20:38Z</time>
      </trkpt>
      <trkpt lat="43.94478" lon="1.86742">
        <ele>218</ele>
        <time>2022-09-08T17:20:39Z</time>
      </trkpt>
      <trkpt lat="43.94479" lon="1.8674">
        <ele>218</ele>
        <time>2022-09-08T17:20:40Z</time>
      </trkpt>
      <trkpt lat="43.9448" lon="1.86739">
        <ele>218.2</ele>
        <time>2022-09-08T17:20:41Z</time>
      </trkpt>
      <trkpt lat="43.94481" lon="1.86737">
        <ele>218.2</ele>
        <time>2022-09-08T17:20:42Z</time>
      </trkpt>
      <trkpt lat="43.94482" lon="1.86736">
        <ele>218.2</ele>
        <time>2022-09-08T17:20:43Z</time>
      </trkpt>
      <trkpt lat="43.94482" lon="1.86734">
        <ele>218.4</ele>
        <time>2022-09-08T17:20:44Z</time>
      </trkpt>
      <trkpt lat="43.94483" lon="1.86733">
        <ele>218.4</ele>
        <time>2022-09-08T17:20:45Z</time>
      </trkpt>
      <trkpt lat="43.94484" lon="1.86731">
        <ele>218.4</ele>
        <time>2022-09-08T17:20:46Z</time>
      </trkpt>
      <trkpt lat="43.94484" lon="1.8673">
        <ele>218.4</ele>
        <time>2022-09-08T17:20:47Z</time>
      </trkpt>
      <trkpt lat="43.94485" lon="1.86728">
        <ele>218.4</ele>
        <time>2022-09-08T17:20:48Z</time>
      </trkpt>
      <trkpt lat="43.94485" lon="1.86727">
        <ele>218.4</ele>
        <time>2022-09-08T17:20:49Z</time>
      </trkpt>
      <trkpt lat="43.94485" lon="1.86725">
        <ele>218.4</ele>
        <time>2022-09-08T17:20:50Z</time>
      </trkpt>
      <trkpt lat="43.94486" lon="1.86723">
        <ele>218.4</ele>
        <time>2022-09-08T17:20:51Z</time>
      </trkpt>
      <trkpt lat="43.94487" lon="1.86722">
        <ele>218.2</ele>
        <time>2022-09-08T17:20:52Z</time>
      </trkpt>
      <trkpt lat="43.94488" lon="1.8672">
        <ele>218.2</ele>
        <time>2022-09-08T17:20:53Z</time>
      </trkpt>
      <trkpt lat="43.94488" lon="1.86718">
        <ele>218.2</ele>
        <time>2022-09-08T17:20:54Z</time>
      </trkpt>
      <trkpt lat="43.94489" lon="1.86716">
        <ele>218.2</ele>
        <time>2022-09-08T17:20:55Z</time>
      </trkpt>
      <trkpt lat="43.9449" lon="1.86714">
        <ele>218.2</ele>
        <time>2022-09-08T17:20:56Z</time>
      </trkpt>
      <trkpt lat="43.9449" lon="1.86712">
        <ele>218.2</ele>
        <time>2022-09-08T17:20:57Z</time>
      </trkpt>
      <trkpt lat="43.94491" lon="1.8671">
        <ele>218.2</ele>
        <time>2022-09-08T17:20:58Z</time>
      </trkpt>
      <trkpt lat="43.94492" lon="1.86707">
        <ele>218.2</ele>
        <time>2022-09-08T17:20:59Z</time>
      </trkpt>
      <trkpt lat="43.94493" lon="1.86705">
        <ele>218.2</ele>
        <time>2022-09-08T17:21:00Z</time>
      </trkpt>
      <trkpt lat="43.94494" lon="1.86702">
        <ele>218.2</ele>
        <time>2022-09-08T17:21:01Z</time>
      </trkpt>
      <trkpt lat="43.94494" lon="1.867">
        <ele>218.2</ele>
        <time>2022-09-08T17:21:02Z</time>
      </trkpt>
      <trkpt lat="43.94496" lon="1.86695">
        <ele>218</ele>
        <time>2022-09-08T17:21:04Z</time>
      </trkpt>
      <trkpt lat="43.94498" lon="1.86693">
        <ele>218</ele>
        <time>2022-09-08T17:21:05Z</time>
      </trkpt>
      <trkpt lat="43.94498" lon="1.8669">
        <ele>217.8</ele>
        <time>2022-09-08T17:21:06Z</time>
      </trkpt>
      <trkpt lat="43.94506" lon="1.86671">
        <ele>217.4</ele>
        <time>2022-09-08T17:21:14Z</time>
      </trkpt>
      <trkpt lat="43.94508" lon="1.86665">
        <ele>217.4</ele>
        <time>2022-09-08T17:21:16Z</time>
      </trkpt>
      <trkpt lat="43.94508" lon="1.86662">
        <ele>217.4</ele>
        <time>2022-09-08T17:21:17Z</time>
      </trkpt>
      <trkpt lat="43.94507" lon="1.86659">
        <ele>217.4</ele>
        <time>2022-09-08T17:21:18Z</time>
      </trkpt>
      <trkpt lat="43.94506" lon="1.86658">
        <ele>217.2</ele>
        <time>2022-09-08T17:21:19Z</time>
      </trkpt>
      <trkpt lat="43.94505" lon="1.86656">
        <ele>217.2</ele>
        <time>2022-09-08T17:21:20Z</time>
      </trkpt>
      <trkpt lat="43.94503" lon="1.86654">
        <ele>217.2</ele>
        <time>2022-09-08T17:21:21Z</time>
      </trkpt>
      <trkpt lat="43.94501" lon="1.86653">
        <ele>217.2</ele>
        <time>2022-09-08T17:21:22Z</time>
      </trkpt>
      <trkpt lat="43.945" lon="1.86651">
        <ele>217.2</ele>
        <time>2022-09-08T17:21:23Z</time>
      </trkpt>
      <trkpt lat="43.9449" lon="1.86642">
        <ele>217.2</ele>
        <time>2022-09-08T17:21:29Z</time>
      </trkpt>
      <trkpt lat="43.94476" lon="1.86627">
        <ele>217.2</ele>
        <time>2022-09-08T17:21:35Z</time>
      </trkpt>
      <trkpt lat="43.94469" lon="1.86621">
        <ele>216.8</ele>
        <time>2022-09-08T17:21:38Z</time>
      </trkpt>
      <trkpt lat="43.94463" lon="1.86616">
        <ele>216.4</ele>
        <time>2022-09-08T17:21:40Z</time>
      </trkpt>
      <trkpt lat="43.94462" lon="1.86615">
        <ele>216.2</ele>
        <time>2022-09-08T17:21:41Z</time>
      </trkpt>
      <trkpt lat="43.9446" lon="1.86613">
        <ele>216</ele>
        <time>2022-09-08T17:21:42Z</time>
      </trkpt>
      <trkpt lat="43.94458" lon="1.86614">
        <ele>215.4</ele>
        <time>2022-09-08T17:21:43Z</time>
      </trkpt>
      <trkpt lat="43.94457" lon="1.86615">
        <ele>215.2</ele>
        <time>2022-09-08T17:21:44Z</time>
      </trkpt>
      <trkpt lat="43.94456" lon="1.86617">
        <ele>214.6</ele>
        <time>2022-09-08T17:21:45Z</time>
      </trkpt>
      <trkpt lat="43.94454" lon="1.86619">
        <ele>214.4</ele>
        <time>2022-09-08T17:21:46Z</time>
      </trkpt>
      <trkpt lat="43.94453" lon="1.86622">
        <ele>213.8</ele>
        <time>2022-09-08T17:21:47Z</time>
      </trkpt>
      <trkpt lat="43.94451" lon="1.86624">
        <ele>213.4</ele>
        <time>2022-09-08T17:21:48Z</time>
      </trkpt>
      <trkpt lat="43.94448" lon="1.86626">
        <ele>213</ele>
        <time>2022-09-08T17:21:49Z</time>
      </trkpt>
      <trkpt lat="43.94442" lon="1.86623">
        <ele>212.4</ele>
        <time>2022-09-08T17:21:51Z</time>
      </trkpt>
      <trkpt lat="43.94439" lon="1.86619">
        <ele>212</ele>
        <time>2022-09-08T17:21:52Z</time>
      </trkpt>
      <trkpt lat="43.94425" lon="1.86605">
        <ele>211.8</ele>
        <time>2022-09-08T17:21:55Z</time>
      </trkpt>
      <trkpt lat="43.9442" lon="1.86601">
        <ele>211.4</ele>
        <time>2022-09-08T17:21:56Z</time>
      </trkpt>
      <trkpt lat="43.94416" lon="1.86597">
        <ele>211.2</ele>
        <time>2022-09-08T17:21:57Z</time>
      </trkpt>
      <trkpt lat="43.94414" lon="1.86593">
        <ele>210.8</ele>
        <time>2022-09-08T17:21:58Z</time>
      </trkpt>
      <trkpt lat="43.94411" lon="1.8659">
        <ele>210.2</ele>
        <time>2022-09-08T17:21:59Z</time>
      </trkpt>
      <trkpt lat="43.94411" lon="1.86587">
        <ele>209</ele>
        <time>2022-09-08T17:22:00Z</time>
      </trkpt>
      <trkpt lat="43.94411" lon="1.86584">
        <ele>208.4</ele>
        <time>2022-09-08T17:22:01Z</time>
      </trkpt>
      <trkpt lat="43.94411" lon="1.86582">
        <ele>208</ele>
        <time>2022-09-08T17:22:02Z</time>
      </trkpt>
      <trkpt lat="43.94411" lon="1.86579">
        <ele>207.6</ele>
        <time>2022-09-08T17:22:03Z</time>
      </trkpt>
      <trkpt lat="43.9441" lon="1.86577">
        <ele>207.4</ele>
        <time>2022-09-08T17:22:04Z</time>
      </trkpt>
      <trkpt lat="43.94409" lon="1.86575">
        <ele>207.2</ele>
        <time>2022-09-08T17:22:05Z</time>
      </trkpt>
      <trkpt lat="43.94408" lon="1.86575">
        <ele>207</ele>
        <time>2022-09-08T17:22:06Z</time>
      </trkpt>
      <trkpt lat="43.94407" lon="1.86575">
        <ele>207</ele>
        <time>2022-09-08T17:22:07Z</time>
      </trkpt>
      <trkpt lat="43.94406" lon="1.86575">
        <ele>207</ele>
        <time>2022-09-08T17:22:08Z</time>
      </trkpt>
      <trkpt lat="43.94406" lon="1.86574">
        <ele>207</ele>
        <time>2022-09-08T17:22:09Z</time>
      </trkpt>
      <trkpt lat="43.94405" lon="1.86574">
        <ele>207</ele>
        <time>2022-09-08T17:22:10Z</time>
      </trkpt>
      <trkpt lat="43.94404" lon="1.86574">
        <ele>207</ele>
        <time>2022-09-08T17:22:11Z</time>
      </trkpt>
      <trkpt lat="43.94403" lon="1.86574">
        <ele>207</ele>
        <time>2022-09-08T17:22:12Z</time>
      </trkpt>
      <trkpt lat="43.94402" lon="1.86574">
        <ele>207</ele>
        <time>2022-09-08T17:22:13Z</time>
      </trkpt>
      <trkpt lat="43.94402" lon="1.86574">
        <ele>207</ele>
        <time>2022-09-08T17:22:14Z</time>
      </trkpt>
      <trkpt lat="43.94401" lon="1.86574">
        <ele>207.2</ele>
        <time>2022-09-08T17:22:15Z</time>
      </trkpt>
      <trkpt lat="43.94396" lon="1.86575">
        <ele>207.4</ele>
        <time>2022-09-08T17:22:20Z</time>
      </trkpt>
      <trkpt lat="43.94394" lon="1.86573">
        <ele>207.4</ele>
        <time>2022-09-08T17:22:22Z</time>
      </trkpt>
      <trkpt lat="43.94393" lon="1.86573">
        <ele>207.6</ele>
        <time>2022-09-08T17:22:23Z</time>
      </trkpt>
      <trkpt lat="43.94391" lon="1.86573">
        <ele>207.8</ele>
        <time>2022-09-08T17:22:24Z</time>
      </trkpt>
      <trkpt lat="43.94391" lon="1.86574">
        <ele>207.8</ele>
        <time>2022-09-08T17:22:25Z</time>
      </trkpt>
      <trkpt lat="43.9439" lon="1.86574">
        <ele>208</ele>
        <time>2022-09-08T17:22:26Z</time>
      </trkpt>
      <trkpt lat="43.94389" lon="1.86574">
        <ele>208</ele>
        <time>2022-09-08T17:22:27Z</time>
      </trkpt>
      <trkpt lat="43.9438" lon="1.86573">
        <ele>208.8</ele>
        <time>2022-09-08T17:22:40Z</time>
      </trkpt>
      <trkpt lat="43.9438" lon="1.86574">
        <ele>208.8</ele>
        <time>2022-09-08T17:22:41Z</time>
      </trkpt>
      <trkpt lat="43.94379" lon="1.86574">
        <ele>208.4</ele>
        <time>2022-09-08T17:23:58Z</time>
      </trkpt>
      <trkpt lat="43.94379" lon="1.86574">
        <ele>208.4</ele>
        <time>2022-09-08T17:23:59Z</time>
      </trkpt>
      <trkpt lat="43.94379" lon="1.86574">
        <ele>208.6</ele>
        <time>2022-09-08T17:24:02Z</time>
      </trkpt>
      <trkpt lat="43.94375" lon="1.86573">
        <ele>208.6</ele>
        <time>2022-09-08T17:24:07Z</time>
      </trkpt>
      <trkpt lat="43.94365" lon="1.86569">
        <ele>209</ele>
        <time>2022-09-08T17:24:14Z</time>
      </trkpt>
      <trkpt lat="43.94358" lon="1.86566">
        <ele>209.4</ele>
        <time>2022-09-08T17:24:18Z</time>
      </trkpt>
      <trkpt lat="43.94357" lon="1.86566">
        <ele>209.4</ele>
        <time>2022-09-08T17:24:19Z</time>
      </trkpt>
      <trkpt lat="43.94355" lon="1.86565">
        <ele>209.6</ele>
        <time>2022-09-08T17:24:20Z</time>
      </trkpt>
      <trkpt lat="43.94353" lon="1.86564">
        <ele>209.6</ele>
        <time>2022-09-08T17:24:21Z</time>
      </trkpt>
      <trkpt lat="43.94352" lon="1.86565">
        <ele>209.8</ele>
        <time>2022-09-08T17:24:22Z</time>
      </trkpt>
      <trkpt lat="43.94347" lon="1.86566">
        <ele>209.8</ele>
        <time>2022-09-08T17:24:24Z</time>
      </trkpt>
      <trkpt lat="43.94346" lon="1.86568">
        <ele>210</ele>
        <time>2022-09-08T17:24:25Z</time>
      </trkpt>
      <trkpt lat="43.94344" lon="1.8657">
        <ele>210</ele>
        <time>2022-09-08T17:24:26Z</time>
      </trkpt>
      <trkpt lat="43.94343" lon="1.86572">
        <ele>210</ele>
        <time>2022-09-08T17:24:27Z</time>
      </trkpt>
      <trkpt lat="43.94341" lon="1.86575">
        <ele>210</ele>
        <time>2022-09-08T17:24:28Z</time>
      </trkpt>
      <trkpt lat="43.9434" lon="1.86579">
        <ele>210</ele>
        <time>2022-09-08T17:24:29Z</time>
      </trkpt>
      <trkpt lat="43.94338" lon="1.86584">
        <ele>210</ele>
        <time>2022-09-08T17:24:30Z</time>
      </trkpt>
      <trkpt lat="43.94329" lon="1.86603">
        <ele>209.8</ele>
        <time>2022-09-08T17:24:33Z</time>
      </trkpt>
      <trkpt lat="43.94322" lon="1.86613">
        <ele>209.8</ele>
        <time>2022-09-08T17:24:35Z</time>
      </trkpt>
      <trkpt lat="43.9432" lon="1.86615">
        <ele>209.6</ele>
        <time>2022-09-08T17:24:36Z</time>
      </trkpt>
      <trkpt lat="43.94316" lon="1.86617">
        <ele>209.4</ele>
        <time>2022-09-08T17:24:37Z</time>
      </trkpt>
      <trkpt lat="43.94313" lon="1.86619">
        <ele>209.2</ele>
        <time>2022-09-08T17:24:38Z</time>
      </trkpt>
      <trkpt lat="43.9431" lon="1.86622">
        <ele>209</ele>
        <time>2022-09-08T17:24:39Z</time>
      </trkpt>
      <trkpt lat="43.94308" lon="1.86623">
        <ele>209</ele>
        <time>2022-09-08T17:24:40Z</time>
      </trkpt>
      <trkpt lat="43.94307" lon="1.86624">
        <ele>208.8</ele>
        <time>2022-09-08T17:24:41Z</time>
      </trkpt>
      <trkpt lat="43.94305" lon="1.86625">
        <ele>208.8</ele>
        <time>2022-09-08T17:24:42Z</time>
      </trkpt>
      <trkpt lat="43.94302" lon="1.86628">
        <ele>208.8</ele>
        <time>2022-09-08T17:24:43Z</time>
      </trkpt>
      <trkpt lat="43.943" lon="1.8663">
        <ele>208.8</ele>
        <time>2022-09-08T17:24:44Z</time>
      </trkpt>
      <trkpt lat="43.94295" lon="1.86632">
        <ele>208.8</ele>
        <time>2022-09-08T17:24:46Z</time>
      </trkpt>
      <trkpt lat="43.94293" lon="1.86633">
        <ele>208.8</ele>
        <time>2022-09-08T17:24:47Z</time>
      </trkpt>
      <trkpt lat="43.94292" lon="1.86634">
        <ele>208.8</ele>
        <time>2022-09-08T17:24:48Z</time>
      </trkpt>
      <trkpt lat="43.9429" lon="1.86635">
        <ele>209</ele>
        <time>2022-09-08T17:24:49Z</time>
      </trkpt>
      <trkpt lat="43.94289" lon="1.86635">
        <ele>209</ele>
        <time>2022-09-08T17:24:50Z</time>
      </trkpt>
      <trkpt lat="43.94287" lon="1.86636">
        <ele>209.2</ele>
        <time>2022-09-08T17:24:51Z</time>
      </trkpt>
      <trkpt lat="43.94282" lon="1.86639">
        <ele>209.4</ele>
        <time>2022-09-08T17:24:54Z</time>
      </trkpt>
      <trkpt lat="43.9428" lon="1.8664">
        <ele>209.4</ele>
        <time>2022-09-08T17:24:55Z</time>
      </trkpt>
      <trkpt lat="43.94279" lon="1.86641">
        <ele>209.4</ele>
        <time>2022-09-08T17:24:56Z</time>
      </trkpt>
      <trkpt lat="43.94278" lon="1.86642">
        <ele>209.4</ele>
        <time>2022-09-08T17:24:57Z</time>
      </trkpt>
      <trkpt lat="43.94275" lon="1.86642">
        <ele>210</ele>
        <time>2022-09-08T17:24:59Z</time>
      </trkpt>
      <trkpt lat="43.94275" lon="1.86643">
        <ele>210.2</ele>
        <time>2022-09-08T17:25:00Z</time>
      </trkpt>
      <trkpt lat="43.94272" lon="1.86645">
        <ele>210.6</ele>
        <time>2022-09-08T17:25:02Z</time>
      </trkpt>
      <trkpt lat="43.94271" lon="1.86646">
        <ele>211</ele>
        <time>2022-09-08T17:25:03Z</time>
      </trkpt>
      <trkpt lat="43.9427" lon="1.86647">
        <ele>211</ele>
        <time>2022-09-08T17:25:04Z</time>
      </trkpt>
      <trkpt lat="43.94268" lon="1.86648">
        <ele>211.2</ele>
        <time>2022-09-08T17:25:05Z</time>
      </trkpt>
      <trkpt lat="43.94267" lon="1.86648">
        <ele>211.4</ele>
        <time>2022-09-08T17:25:06Z</time>
      </trkpt>
      <trkpt lat="43.94265" lon="1.8665">
        <ele>211.8</ele>
        <time>2022-09-08T17:25:08Z</time>
      </trkpt>
      <trkpt lat="43.94262" lon="1.8665">
        <ele>212.2</ele>
        <time>2022-09-08T17:25:10Z</time>
      </trkpt>
      <trkpt lat="43.9426" lon="1.8665">
        <ele>212.2</ele>
        <time>2022-09-08T17:25:11Z</time>
      </trkpt>
      <trkpt lat="43.94259" lon="1.8665">
        <ele>212.4</ele>
        <time>2022-09-08T17:25:12Z</time>
      </trkpt>
      <trkpt lat="43.94257" lon="1.8665">
        <ele>212.6</ele>
        <time>2022-09-08T17:25:13Z</time>
      </trkpt>
      <trkpt lat="43.94255" lon="1.8665">
        <ele>213</ele>
        <time>2022-09-08T17:25:14Z</time>
      </trkpt>
      <trkpt lat="43.94254" lon="1.8665">
        <ele>213.2</ele>
        <time>2022-09-08T17:25:15Z</time>
      </trkpt>
      <trkpt lat="43.94252" lon="1.8665">
        <ele>213.2</ele>
        <time>2022-09-08T17:25:16Z</time>
      </trkpt>
      <trkpt lat="43.94251" lon="1.8665">
        <ele>213.4</ele>
        <time>2022-09-08T17:25:17Z</time>
      </trkpt>
      <trkpt lat="43.94249" lon="1.86651">
        <ele>213.8</ele>
        <time>2022-09-08T17:25:18Z</time>
      </trkpt>
      <trkpt lat="43.94246" lon="1.8665">
        <ele>214.2</ele>
        <time>2022-09-08T17:25:19Z</time>
      </trkpt>
      <trkpt lat="43.94244" lon="1.8665">
        <ele>214.4</ele>
        <time>2022-09-08T17:25:20Z</time>
      </trkpt>
      <trkpt lat="43.94241" lon="1.8665">
        <ele>214.8</ele>
        <time>2022-09-08T17:25:21Z</time>
      </trkpt>
      <trkpt lat="43.94237" lon="1.86651">
        <ele>215</ele>
        <time>2022-09-08T17:25:22Z</time>
      </trkpt>
      <trkpt lat="43.94235" lon="1.8665">
        <ele>215.2</ele>
        <time>2022-09-08T17:25:23Z</time>
      </trkpt>
      <trkpt lat="43.94233" lon="1.8665">
        <ele>215.6</ele>
        <time>2022-09-08T17:25:24Z</time>
      </trkpt>
      <trkpt lat="43.94231" lon="1.86649">
        <ele>215.6</ele>
        <time>2022-09-08T17:25:25Z</time>
      </trkpt>
      <trkpt lat="43.94229" lon="1.86649">
        <ele>215.8</ele>
        <time>2022-09-08T17:25:26Z</time>
      </trkpt>
      <trkpt lat="43.94226" lon="1.8665">
        <ele>215.8</ele>
        <time>2022-09-08T17:25:27Z</time>
      </trkpt>
      <trkpt lat="43.94225" lon="1.86649">
        <ele>216.2</ele>
        <time>2022-09-08T17:25:28Z</time>
      </trkpt>
      <trkpt lat="43.94223" lon="1.86649">
        <ele>216.2</ele>
        <time>2022-09-08T17:25:29Z</time>
      </trkpt>
      <trkpt lat="43.9422" lon="1.86648">
        <ele>216.6</ele>
        <time>2022-09-08T17:25:30Z</time>
      </trkpt>
      <trkpt lat="43.94217" lon="1.86648">
        <ele>217.2</ele>
        <time>2022-09-08T17:25:31Z</time>
      </trkpt>
      <trkpt lat="43.94214" lon="1.86647">
        <ele>217.4</ele>
        <time>2022-09-08T17:25:32Z</time>
      </trkpt>
      <trkpt lat="43.94212" lon="1.86645">
        <ele>217.6</ele>
        <time>2022-09-08T17:25:33Z</time>
      </trkpt>
      <trkpt lat="43.9421" lon="1.86645">
        <ele>217.8</ele>
        <time>2022-09-08T17:25:34Z</time>
      </trkpt>
      <trkpt lat="43.94208" lon="1.86644">
        <ele>218.2</ele>
        <time>2022-09-08T17:25:35Z</time>
      </trkpt>
      <trkpt lat="43.94207" lon="1.86643">
        <ele>218.2</ele>
        <time>2022-09-08T17:25:36Z</time>
      </trkpt>
      <trkpt lat="43.94205" lon="1.86641">
        <ele>218.4</ele>
        <time>2022-09-08T17:25:37Z</time>
      </trkpt>
      <trkpt lat="43.94202" lon="1.86641">
        <ele>218.4</ele>
        <time>2022-09-08T17:25:38Z</time>
      </trkpt>
      <trkpt lat="43.942" lon="1.8664">
        <ele>218.6</ele>
        <time>2022-09-08T17:25:39Z</time>
      </trkpt>
      <trkpt lat="43.94199" lon="1.86639">
        <ele>219</ele>
        <time>2022-09-08T17:25:40Z</time>
      </trkpt>
      <trkpt lat="43.94198" lon="1.86638">
        <ele>219</ele>
        <time>2022-09-08T17:25:41Z</time>
      </trkpt>
      <trkpt lat="43.94196" lon="1.86637">
        <ele>219.2</ele>
        <time>2022-09-08T17:25:42Z</time>
      </trkpt>
      <trkpt lat="43.94195" lon="1.86636">
        <ele>219.4</ele>
        <time>2022-09-08T17:25:43Z</time>
      </trkpt>
      <trkpt lat="43.94194" lon="1.86636">
        <ele>219.6</ele>
        <time>2022-09-08T17:25:44Z</time>
      </trkpt>
      <trkpt lat="43.94192" lon="1.86637">
        <ele>219.8</ele>
        <time>2022-09-08T17:25:45Z</time>
      </trkpt>
      <trkpt lat="43.94191" lon="1.86638">
        <ele>220</ele>
        <time>2022-09-08T17:25:46Z</time>
      </trkpt>
      <trkpt lat="43.94191" lon="1.8664">
        <ele>220.2</ele>
        <time>2022-09-08T17:25:47Z</time>
      </trkpt>
      <trkpt lat="43.9419" lon="1.86642">
        <ele>220.2</ele>
        <time>2022-09-08T17:25:48Z</time>
      </trkpt>
      <trkpt lat="43.94189" lon="1.86644">
        <ele>220.4</ele>
        <time>2022-09-08T17:25:49Z</time>
      </trkpt>
      <trkpt lat="43.94188" lon="1.86646">
        <ele>220.4</ele>
        <time>2022-09-08T17:25:50Z</time>
      </trkpt>
      <trkpt lat="43.94187" lon="1.86648">
        <ele>220.6</ele>
        <time>2022-09-08T17:25:51Z</time>
      </trkpt>
      <trkpt lat="43.94186" lon="1.8665">
        <ele>220.6</ele>
        <time>2022-09-08T17:25:52Z</time>
      </trkpt>
      <trkpt lat="43.94185" lon="1.86653">
        <ele>220.8</ele>
        <time>2022-09-08T17:25:53Z</time>
      </trkpt>
      <trkpt lat="43.94184" lon="1.86655">
        <ele>221</ele>
        <time>2022-09-08T17:25:54Z</time>
      </trkpt>
      <trkpt lat="43.94183" lon="1.86657">
        <ele>221.2</ele>
        <time>2022-09-08T17:25:55Z</time>
      </trkpt>
      <trkpt lat="43.94182" lon="1.86659">
        <ele>221.2</ele>
        <time>2022-09-08T17:25:56Z</time>
      </trkpt>
      <trkpt lat="43.94181" lon="1.86661">
        <ele>221.4</ele>
        <time>2022-09-08T17:25:57Z</time>
      </trkpt>
      <trkpt lat="43.9418" lon="1.86663">
        <ele>221.4</ele>
        <time>2022-09-08T17:25:58Z</time>
      </trkpt>
      <trkpt lat="43.94179" lon="1.86664">
        <ele>221.4</ele>
        <time>2022-09-08T17:25:59Z</time>
      </trkpt>
      <trkpt lat="43.94178" lon="1.86666">
        <ele>221.6</ele>
        <time>2022-09-08T17:26:00Z</time>
      </trkpt>
      <trkpt lat="43.94176" lon="1.86668">
        <ele>221.8</ele>
        <time>2022-09-08T17:26:01Z</time>
      </trkpt>
      <trkpt lat="43.94175" lon="1.8667">
        <ele>222</ele>
        <time>2022-09-08T17:26:02Z</time>
      </trkpt>
      <trkpt lat="43.94173" lon="1.86671">
        <ele>222.2</ele>
        <time>2022-09-08T17:26:03Z</time>
      </trkpt>
      <trkpt lat="43.94172" lon="1.86673">
        <ele>222.4</ele>
        <time>2022-09-08T17:26:04Z</time>
      </trkpt>
      <trkpt lat="43.94171" lon="1.86674">
        <ele>222.4</ele>
        <time>2022-09-08T17:26:05Z</time>
      </trkpt>
      <trkpt lat="43.94169" lon="1.86674">
        <ele>222.4</ele>
        <time>2022-09-08T17:26:06Z</time>
      </trkpt>
      <trkpt lat="43.94168" lon="1.86675">
        <ele>222.6</ele>
        <time>2022-09-08T17:26:07Z</time>
      </trkpt>
      <trkpt lat="43.94166" lon="1.86676">
        <ele>222.8</ele>
        <time>2022-09-08T17:26:08Z</time>
      </trkpt>
      <trkpt lat="43.94164" lon="1.86677">
        <ele>223.2</ele>
        <time>2022-09-08T17:26:09Z</time>
      </trkpt>
      <trkpt lat="43.94163" lon="1.86678">
        <ele>223.4</ele>
        <time>2022-09-08T17:26:10Z</time>
      </trkpt>
      <trkpt lat="43.94161" lon="1.8668">
        <ele>223.6</ele>
        <time>2022-09-08T17:26:11Z</time>
      </trkpt>
      <trkpt lat="43.94159" lon="1.86681">
        <ele>223.8</ele>
        <time>2022-09-08T17:26:12Z</time>
      </trkpt>
      <trkpt lat="43.94157" lon="1.86682">
        <ele>224</ele>
        <time>2022-09-08T17:26:13Z</time>
      </trkpt>
      <trkpt lat="43.94155" lon="1.86682">
        <ele>224.4</ele>
        <time>2022-09-08T17:26:14Z</time>
      </trkpt>
      <trkpt lat="43.94154" lon="1.86682">
        <ele>224.4</ele>
        <time>2022-09-08T17:26:15Z</time>
      </trkpt>
      <trkpt lat="43.94153" lon="1.86682">
        <ele>224.6</ele>
        <time>2022-09-08T17:26:16Z</time>
      </trkpt>
      <trkpt lat="43.9415" lon="1.86682">
        <ele>224.6</ele>
        <time>2022-09-08T17:26:17Z</time>
      </trkpt>
      <trkpt lat="43.94149" lon="1.86681">
        <ele>224.8</ele>
        <time>2022-09-08T17:26:18Z</time>
      </trkpt>
      <trkpt lat="43.94148" lon="1.8668">
        <ele>225</ele>
        <time>2022-09-08T17:26:19Z</time>
      </trkpt>
      <trkpt lat="43.94148" lon="1.86678">
        <ele>225</ele>
        <time>2022-09-08T17:26:20Z</time>
      </trkpt>
      <trkpt lat="43.94148" lon="1.86677">
        <ele>225</ele>
        <time>2022-09-08T17:26:21Z</time>
      </trkpt>
      <trkpt lat="43.94148" lon="1.86676">
        <ele>225.2</ele>
        <time>2022-09-08T17:26:22Z</time>
      </trkpt>
      <trkpt lat="43.94149" lon="1.86671">
        <ele>225.4</ele>
        <time>2022-09-08T17:26:36Z</time>
      </trkpt>
      <trkpt lat="43.94149" lon="1.86669">
        <ele>225.4</ele>
        <time>2022-09-08T17:26:37Z</time>
      </trkpt>
      <trkpt lat="43.94153" lon="1.86652">
        <ele>225.8</ele>
        <time>2022-09-08T17:26:43Z</time>
      </trkpt>
      <trkpt lat="43.94154" lon="1.86642">
        <ele>226.2</ele>
        <time>2022-09-08T17:26:46Z</time>
      </trkpt>
      <trkpt lat="43.94156" lon="1.8663">
        <ele>226.6</ele>
        <time>2022-09-08T17:26:50Z</time>
      </trkpt>
      <trkpt lat="43.94158" lon="1.86613">
        <ele>227.6</ele>
        <time>2022-09-08T17:26:55Z</time>
      </trkpt>
      <trkpt lat="43.94159" lon="1.8661">
        <ele>227.8</ele>
        <time>2022-09-08T17:26:56Z</time>
      </trkpt>
      <trkpt lat="43.94159" lon="1.86607">
        <ele>228</ele>
        <time>2022-09-08T17:26:57Z</time>
      </trkpt>
      <trkpt lat="43.9416" lon="1.86604">
        <ele>228</ele>
        <time>2022-09-08T17:26:58Z</time>
      </trkpt>
      <trkpt lat="43.9416" lon="1.86598">
        <ele>228.4</ele>
        <time>2022-09-08T17:27:00Z</time>
      </trkpt>
      <trkpt lat="43.94161" lon="1.86595">
        <ele>228.6</ele>
        <time>2022-09-08T17:27:01Z</time>
      </trkpt>
      <trkpt lat="43.94161" lon="1.86592">
        <ele>228.8</ele>
        <time>2022-09-08T17:27:02Z</time>
      </trkpt>
      <trkpt lat="43.94161" lon="1.86589">
        <ele>228.8</ele>
        <time>2022-09-08T17:27:03Z</time>
      </trkpt>
      <trkpt lat="43.94162" lon="1.86586">
        <ele>229</ele>
        <time>2022-09-08T17:27:04Z</time>
      </trkpt>
      <trkpt lat="43.94162" lon="1.86583">
        <ele>229</ele>
        <time>2022-09-08T17:27:05Z</time>
      </trkpt>
      <trkpt lat="43.94162" lon="1.8658">
        <ele>229.2</ele>
        <time>2022-09-08T17:27:06Z</time>
      </trkpt>
      <trkpt lat="43.94163" lon="1.86578">
        <ele>229.4</ele>
        <time>2022-09-08T17:27:07Z</time>
      </trkpt>
      <trkpt lat="43.94164" lon="1.86575">
        <ele>229.6</ele>
        <time>2022-09-08T17:27:08Z</time>
      </trkpt>
      <trkpt lat="43.94164" lon="1.86572">
        <ele>229.6</ele>
        <time>2022-09-08T17:27:09Z</time>
      </trkpt>
      <trkpt lat="43.94164" lon="1.8657">
        <ele>229.8</ele>
        <time>2022-09-08T17:27:10Z</time>
      </trkpt>
      <trkpt lat="43.94165" lon="1.86567">
        <ele>230</ele>
        <time>2022-09-08T17:27:11Z</time>
      </trkpt>
      <trkpt lat="43.94165" lon="1.86564">
        <ele>230</ele>
        <time>2022-09-08T17:27:12Z</time>
      </trkpt>
      <trkpt lat="43.94166" lon="1.86562">
        <ele>230.2</ele>
        <time>2022-09-08T17:27:13Z</time>
      </trkpt>
      <trkpt lat="43.94166" lon="1.8656">
        <ele>230.2</ele>
        <time>2022-09-08T17:27:14Z</time>
      </trkpt>
      <trkpt lat="43.94166" lon="1.86558">
        <ele>230.2</ele>
        <time>2022-09-08T17:27:15Z</time>
      </trkpt>
      <trkpt lat="43.94165" lon="1.86556">
        <ele>230.2</ele>
        <time>2022-09-08T17:27:16Z</time>
      </trkpt>
      <trkpt lat="43.94164" lon="1.86554">
        <ele>230.4</ele>
        <time>2022-09-08T17:27:17Z</time>
      </trkpt>
      <trkpt lat="43.94162" lon="1.86553">
        <ele>230.4</ele>
        <time>2022-09-08T17:27:18Z</time>
      </trkpt>
      <trkpt lat="43.94161" lon="1.86552">
        <ele>230.4</ele>
        <time>2022-09-08T17:27:19Z</time>
      </trkpt>
      <trkpt lat="43.94159" lon="1.86552">
        <ele>230.4</ele>
        <time>2022-09-08T17:27:20Z</time>
      </trkpt>
      <trkpt lat="43.94157" lon="1.86552">
        <ele>230.4</ele>
        <time>2022-09-08T17:27:21Z</time>
      </trkpt>
      <trkpt lat="43.94155" lon="1.86552">
        <ele>230.4</ele>
        <time>2022-09-08T17:27:22Z</time>
      </trkpt>
      <trkpt lat="43.94153" lon="1.86553">
        <ele>230.4</ele>
        <time>2022-09-08T17:27:23Z</time>
      </trkpt>
      <trkpt lat="43.9415" lon="1.86552">
        <ele>230.2</ele>
        <time>2022-09-08T17:27:24Z</time>
      </trkpt>
      <trkpt lat="43.94148" lon="1.86552">
        <ele>230.2</ele>
        <time>2022-09-08T17:27:25Z</time>
      </trkpt>
      <trkpt lat="43.94145" lon="1.86551">
        <ele>230.2</ele>
        <time>2022-09-08T17:27:26Z</time>
      </trkpt>
      <trkpt lat="43.94137" lon="1.86549">
        <ele>229.4</ele>
        <time>2022-09-08T17:27:29Z</time>
      </trkpt>
      <trkpt lat="43.94134" lon="1.86548">
        <ele>229.2</ele>
        <time>2022-09-08T17:27:30Z</time>
      </trkpt>
      <trkpt lat="43.9413" lon="1.86547">
        <ele>228.4</ele>
        <time>2022-09-08T17:27:31Z</time>
      </trkpt>
      <trkpt lat="43.94121" lon="1.86546">
        <ele>227.6</ele>
        <time>2022-09-08T17:27:33Z</time>
      </trkpt>
      <trkpt lat="43.94116" lon="1.86546">
        <ele>227</ele>
        <time>2022-09-08T17:27:34Z</time>
      </trkpt>
      <trkpt lat="43.94106" lon="1.86544">
        <ele>226.4</ele>
        <time>2022-09-08T17:27:36Z</time>
      </trkpt>
      <trkpt lat="43.94102" lon="1.86544">
        <ele>226.2</ele>
        <time>2022-09-08T17:27:37Z</time>
      </trkpt>
      <trkpt lat="43.94098" lon="1.86544">
        <ele>225.8</ele>
        <time>2022-09-08T17:27:38Z</time>
      </trkpt>
      <trkpt lat="43.94096" lon="1.86545">
        <ele>225.2</ele>
        <time>2022-09-08T17:27:39Z</time>
      </trkpt>
      <trkpt lat="43.94095" lon="1.86545">
        <ele>220.2</ele>
        <time>2022-09-08T17:27:56Z</time>
      </trkpt>
      <trkpt lat="43.94094" lon="1.86548">
        <ele>220.2</ele>
        <time>2022-09-08T17:27:57Z</time>
      </trkpt>
      <trkpt lat="43.94091" lon="1.86551">
        <ele>220.2</ele>
        <time>2022-09-08T17:27:58Z</time>
      </trkpt>
      <trkpt lat="43.94089" lon="1.86554">
        <ele>220</ele>
        <time>2022-09-08T17:27:59Z</time>
      </trkpt>
      <trkpt lat="43.94086" lon="1.86558">
        <ele>220</ele>
        <time>2022-09-08T17:28:00Z</time>
      </trkpt>
      <trkpt lat="43.94083" lon="1.86561">
        <ele>220</ele>
        <time>2022-09-08T17:28:01Z</time>
      </trkpt>
      <trkpt lat="43.94081" lon="1.86564">
        <ele>219.8</ele>
        <time>2022-09-08T17:28:02Z</time>
      </trkpt>
      <trkpt lat="43.94071" lon="1.86578">
        <ele>219</ele>
        <time>2022-09-08T17:28:06Z</time>
      </trkpt>
      <trkpt lat="43.94055" lon="1.86603">
        <ele>218</ele>
        <time>2022-09-08T17:28:10Z</time>
      </trkpt>
      <trkpt lat="43.94034" lon="1.86639">
        <ele>216.8</ele>
        <time>2022-09-08T17:28:14Z</time>
      </trkpt>
      <trkpt lat="43.94015" lon="1.86673">
        <ele>215.2</ele>
        <time>2022-09-08T17:28:17Z</time>
      </trkpt>
      <trkpt lat="43.94008" lon="1.86685">
        <ele>214.4</ele>
        <time>2022-09-08T17:28:18Z</time>
      </trkpt>
      <trkpt lat="43.94001" lon="1.86697">
        <ele>213.4</ele>
        <time>2022-09-08T17:28:19Z</time>
      </trkpt>
      <trkpt lat="43.93986" lon="1.86722">
        <ele>212.4</ele>
        <time>2022-09-08T17:28:21Z</time>
      </trkpt>
      <trkpt lat="43.93979" lon="1.86736">
        <ele>210.8</ele>
        <time>2022-09-08T17:28:22Z</time>
      </trkpt>
      <trkpt lat="43.93972" lon="1.86748">
        <ele>210.2</ele>
        <time>2022-09-08T17:28:23Z</time>
      </trkpt>
      <trkpt lat="43.93965" lon="1.86759">
        <ele>208.2</ele>
        <time>2022-09-08T17:28:24Z</time>
      </trkpt>
      <trkpt lat="43.93958" lon="1.86769">
        <ele>207.4</ele>
        <time>2022-09-08T17:28:25Z</time>
      </trkpt>
      <trkpt lat="43.93952" lon="1.86777">
        <ele>206.2</ele>
        <time>2022-09-08T17:28:26Z</time>
      </trkpt>
      <trkpt lat="43.93946" lon="1.86784">
        <ele>205.6</ele>
        <time>2022-09-08T17:28:27Z</time>
      </trkpt>
      <trkpt lat="43.93938" lon="1.86789">
        <ele>204.8</ele>
        <time>2022-09-08T17:28:28Z</time>
      </trkpt>
      <trkpt lat="43.9393" lon="1.86791">
        <ele>203.6</ele>
        <time>2022-09-08T17:28:29Z</time>
      </trkpt>
      <trkpt lat="43.93921" lon="1.8679">
        <ele>203</ele>
        <time>2022-09-08T17:28:30Z</time>
      </trkpt>
      <trkpt lat="43.93911" lon="1.86789">
        <ele>201</ele>
        <time>2022-09-08T17:28:31Z</time>
      </trkpt>
      <trkpt lat="43.93901" lon="1.86788">
        <ele>199.8</ele>
        <time>2022-09-08T17:28:32Z</time>
      </trkpt>
      <trkpt lat="43.93891" lon="1.86788">
        <ele>197.8</ele>
        <time>2022-09-08T17:28:33Z</time>
      </trkpt>
      <trkpt lat="43.93882" lon="1.86787">
        <ele>197</ele>
        <time>2022-09-08T17:28:34Z</time>
      </trkpt>
      <trkpt lat="43.93875" lon="1.86788">
        <ele>195.8</ele>
        <time>2022-09-08T17:28:35Z</time>
      </trkpt>
      <trkpt lat="43.93869" lon="1.86788">
        <ele>194.6</ele>
        <time>2022-09-08T17:28:36Z</time>
      </trkpt>
      <trkpt lat="43.93865" lon="1.86788">
        <ele>193.6</ele>
        <time>2022-09-08T17:28:37Z</time>
      </trkpt>
      <trkpt lat="43.93863" lon="1.86787">
        <ele>192.2</ele>
        <time>2022-09-08T17:28:38Z</time>
      </trkpt>
      <trkpt lat="43.93861" lon="1.86784">
        <ele>191</ele>
        <time>2022-09-08T17:28:39Z</time>
      </trkpt>
      <trkpt lat="43.93861" lon="1.8678">
        <ele>189.6</ele>
        <time>2022-09-08T17:28:40Z</time>
      </trkpt>
      <trkpt lat="43.93862" lon="1.86776">
        <ele>189.2</ele>
        <time>2022-09-08T17:28:41Z</time>
      </trkpt>
      <trkpt lat="43.93862" lon="1.86773">
        <ele>188.2</ele>
        <time>2022-09-08T17:28:42Z</time>
      </trkpt>
      <trkpt lat="43.93863" lon="1.8677">
        <ele>187.8</ele>
        <time>2022-09-08T17:28:43Z</time>
      </trkpt>
      <trkpt lat="43.93864" lon="1.86767">
        <ele>187.2</ele>
        <time>2022-09-08T17:28:44Z</time>
      </trkpt>
      <trkpt lat="43.93864" lon="1.86764">
        <ele>186.6</ele>
        <time>2022-09-08T17:28:45Z</time>
      </trkpt>
      <trkpt lat="43.93864" lon="1.86758">
        <ele>186.2</ele>
        <time>2022-09-08T17:28:47Z</time>
      </trkpt>
      <trkpt lat="43.93863" lon="1.86731">
        <ele>185.8</ele>
        <time>2022-09-08T17:28:55Z</time>
      </trkpt>
      <trkpt lat="43.93862" lon="1.86691">
        <ele>186</ele>
        <time>2022-09-08T17:29:05Z</time>
      </trkpt>
      <trkpt lat="43.9386" lon="1.86657">
        <ele>186.4</ele>
        <time>2022-09-08T17:29:12Z</time>
      </trkpt>
      <trkpt lat="43.93858" lon="1.86604">
        <ele>186.8</ele>
        <time>2022-09-08T17:29:23Z</time>
      </trkpt>
      <trkpt lat="43.93857" lon="1.86589">
        <ele>187</ele>
        <time>2022-09-08T17:29:26Z</time>
      </trkpt>
      <trkpt lat="43.93857" lon="1.86583">
        <ele>187</ele>
        <time>2022-09-08T17:29:27Z</time>
      </trkpt>
      <trkpt lat="43.93855" lon="1.86563">
        <ele>187.6</ele>
        <time>2022-09-08T17:29:31Z</time>
      </trkpt>
      <trkpt lat="43.93855" lon="1.86558">
        <ele>187.6</ele>
        <time>2022-09-08T17:29:32Z</time>
      </trkpt>
      <trkpt lat="43.93854" lon="1.86537">
        <ele>188</ele>
        <time>2022-09-08T17:29:36Z</time>
      </trkpt>
      <trkpt lat="43.93853" lon="1.86521">
        <ele>188.2</ele>
        <time>2022-09-08T17:29:39Z</time>
      </trkpt>
      <trkpt lat="43.93853" lon="1.8651">
        <ele>188.2</ele>
        <time>2022-09-08T17:29:41Z</time>
      </trkpt>
      <trkpt lat="43.93852" lon="1.865">
        <ele>188.6</ele>
        <time>2022-09-08T17:29:43Z</time>
      </trkpt>
      <trkpt lat="43.93851" lon="1.8649">
        <ele>188.8</ele>
        <time>2022-09-08T17:29:45Z</time>
      </trkpt>
      <trkpt lat="43.93851" lon="1.86474">
        <ele>189.2</ele>
        <time>2022-09-08T17:29:48Z</time>
      </trkpt>
      <trkpt lat="43.9385" lon="1.86468">
        <ele>189.2</ele>
        <time>2022-09-08T17:29:49Z</time>
      </trkpt>
      <trkpt lat="43.9385" lon="1.86463">
        <ele>189.2</ele>
        <time>2022-09-08T17:29:50Z</time>
      </trkpt>
      <trkpt lat="43.93849" lon="1.86447">
        <ele>189.6</ele>
        <time>2022-09-08T17:29:53Z</time>
      </trkpt>
      <trkpt lat="43.93848" lon="1.86437">
        <ele>189.8</ele>
        <time>2022-09-08T17:29:55Z</time>
      </trkpt>
      <trkpt lat="43.93847" lon="1.86427">
        <ele>190.2</ele>
        <time>2022-09-08T17:29:57Z</time>
      </trkpt>
      <trkpt lat="43.93846" lon="1.86412">
        <ele>190.4</ele>
        <time>2022-09-08T17:30:00Z</time>
      </trkpt>
      <trkpt lat="43.93845" lon="1.86396">
        <ele>191</ele>
        <time>2022-09-08T17:30:03Z</time>
      </trkpt>
      <trkpt lat="43.93845" lon="1.86391">
        <ele>191.2</ele>
        <time>2022-09-08T17:30:04Z</time>
      </trkpt>
      <trkpt lat="43.93845" lon="1.86385">
        <ele>191.4</ele>
        <time>2022-09-08T17:30:05Z</time>
      </trkpt>
      <trkpt lat="43.93844" lon="1.8638">
        <ele>191.6</ele>
        <time>2022-09-08T17:30:06Z</time>
      </trkpt>
      <trkpt lat="43.93844" lon="1.86375">
        <ele>191.8</ele>
        <time>2022-09-08T17:30:07Z</time>
      </trkpt>
      <trkpt lat="43.93844" lon="1.8637">
        <ele>192</ele>
        <time>2022-09-08T17:30:08Z</time>
      </trkpt>
      <trkpt lat="43.93843" lon="1.86365">
        <ele>192.2</ele>
        <time>2022-09-08T17:30:09Z</time>
      </trkpt>
      <trkpt lat="43.93843" lon="1.8636">
        <ele>192.4</ele>
        <time>2022-09-08T17:30:10Z</time>
      </trkpt>
      <trkpt lat="43.93843" lon="1.86355">
        <ele>192.6</ele>
        <time>2022-09-08T17:30:11Z</time>
      </trkpt>
      <trkpt lat="43.93843" lon="1.8635">
        <ele>192.8</ele>
        <time>2022-09-08T17:30:12Z</time>
      </trkpt>
      <trkpt lat="43.93843" lon="1.86344">
        <ele>192.8</ele>
        <time>2022-09-08T17:30:13Z</time>
      </trkpt>
      <trkpt lat="43.93843" lon="1.86339">
        <ele>193</ele>
        <time>2022-09-08T17:30:14Z</time>
      </trkpt>
      <trkpt lat="43.93843" lon="1.86334">
        <ele>193.2</ele>
        <time>2022-09-08T17:30:15Z</time>
      </trkpt>
      <trkpt lat="43.93843" lon="1.86329">
        <ele>193.4</ele>
        <time>2022-09-08T17:30:16Z</time>
      </trkpt>
      <trkpt lat="43.93843" lon="1.86324">
        <ele>193.4</ele>
        <time>2022-09-08T17:30:17Z</time>
      </trkpt>
      <trkpt lat="43.93843" lon="1.86319">
        <ele>193.8</ele>
        <time>2022-09-08T17:30:18Z</time>
      </trkpt>
      <trkpt lat="43.93843" lon="1.86313">
        <ele>194</ele>
        <time>2022-09-08T17:30:19Z</time>
      </trkpt>
      <trkpt lat="43.93844" lon="1.86308">
        <ele>194</ele>
        <time>2022-09-08T17:30:20Z</time>
      </trkpt>
      <trkpt lat="43.93844" lon="1.86303">
        <ele>194.2</ele>
        <time>2022-09-08T17:30:21Z</time>
      </trkpt>
      <trkpt lat="43.93845" lon="1.86298">
        <ele>194.4</ele>
        <time>2022-09-08T17:30:22Z</time>
      </trkpt>
      <trkpt lat="43.93846" lon="1.86293">
        <ele>194.6</ele>
        <time>2022-09-08T17:30:23Z</time>
      </trkpt>
      <trkpt lat="43.93847" lon="1.86288">
        <ele>194.8</ele>
        <time>2022-09-08T17:30:24Z</time>
      </trkpt>
      <trkpt lat="43.93849" lon="1.86284">
        <ele>194.8</ele>
        <time>2022-09-08T17:30:25Z</time>
      </trkpt>
      <trkpt lat="43.9385" lon="1.86279">
        <ele>195</ele>
        <time>2022-09-08T17:30:26Z</time>
      </trkpt>
      <trkpt lat="43.93852" lon="1.86276">
        <ele>195.2</ele>
        <time>2022-09-08T17:30:27Z</time>
      </trkpt>
      <trkpt lat="43.93854" lon="1.86271">
        <ele>195.4</ele>
        <time>2022-09-08T17:30:28Z</time>
      </trkpt>
      <trkpt lat="43.93856" lon="1.86267">
        <ele>195.4</ele>
        <time>2022-09-08T17:30:29Z</time>
      </trkpt>
      <trkpt lat="43.93858" lon="1.86263">
        <ele>195.6</ele>
        <time>2022-09-08T17:30:30Z</time>
      </trkpt>
      <trkpt lat="43.93859" lon="1.86259">
        <ele>195.8</ele>
        <time>2022-09-08T17:30:31Z</time>
      </trkpt>
      <trkpt lat="43.93861" lon="1.86255">
        <ele>196</ele>
        <time>2022-09-08T17:30:32Z</time>
      </trkpt>
      <trkpt lat="43.93864" lon="1.86251">
        <ele>196.2</ele>
        <time>2022-09-08T17:30:33Z</time>
      </trkpt>
      <trkpt lat="43.93866" lon="1.86247">
        <ele>196.6</ele>
        <time>2022-09-08T17:30:34Z</time>
      </trkpt>
      <trkpt lat="43.93868" lon="1.86243">
        <ele>196.8</ele>
        <time>2022-09-08T17:30:35Z</time>
      </trkpt>
      <trkpt lat="43.9387" lon="1.86239">
        <ele>197.2</ele>
        <time>2022-09-08T17:30:36Z</time>
      </trkpt>
      <trkpt lat="43.93873" lon="1.86235">
        <ele>197.6</ele>
        <time>2022-09-08T17:30:37Z</time>
      </trkpt>
      <trkpt lat="43.93875" lon="1.86231">
        <ele>197.8</ele>
        <time>2022-09-08T17:30:38Z</time>
      </trkpt>
      <trkpt lat="43.93877" lon="1.86227">
        <ele>198</ele>
        <time>2022-09-08T17:30:39Z</time>
      </trkpt>
      <trkpt lat="43.9388" lon="1.86224">
        <ele>198</ele>
        <time>2022-09-08T17:30:40Z</time>
      </trkpt>
      <trkpt lat="43.93882" lon="1.8622">
        <ele>198.4</ele>
        <time>2022-09-08T17:30:41Z</time>
      </trkpt>
      <trkpt lat="43.93884" lon="1.86216">
        <ele>198.6</ele>
        <time>2022-09-08T17:30:42Z</time>
      </trkpt>
      <trkpt lat="43.93886" lon="1.86212">
        <ele>199</ele>
        <time>2022-09-08T17:30:43Z</time>
      </trkpt>
      <trkpt lat="43.93889" lon="1.86209">
        <ele>199.2</ele>
        <time>2022-09-08T17:30:44Z</time>
      </trkpt>
      <trkpt lat="43.93891" lon="1.86205">
        <ele>199.4</ele>
        <time>2022-09-08T17:30:45Z</time>
      </trkpt>
      <trkpt lat="43.93894" lon="1.86201">
        <ele>199.8</ele>
        <time>2022-09-08T17:30:46Z</time>
      </trkpt>
      <trkpt lat="43.93897" lon="1.86198">
        <ele>200</ele>
        <time>2022-09-08T17:30:47Z</time>
      </trkpt>
      <trkpt lat="43.93899" lon="1.86194">
        <ele>200.2</ele>
        <time>2022-09-08T17:30:48Z</time>
      </trkpt>
      <trkpt lat="43.93902" lon="1.8619">
        <ele>200.4</ele>
        <time>2022-09-08T17:30:49Z</time>
      </trkpt>
      <trkpt lat="43.93904" lon="1.86187">
        <ele>200.8</ele>
        <time>2022-09-08T17:30:50Z</time>
      </trkpt>
      <trkpt lat="43.93907" lon="1.86183">
        <ele>201.2</ele>
        <time>2022-09-08T17:30:51Z</time>
      </trkpt>
      <trkpt lat="43.93909" lon="1.86179">
        <ele>201.4</ele>
        <time>2022-09-08T17:30:52Z</time>
      </trkpt>
      <trkpt lat="43.93911" lon="1.86175">
        <ele>201.8</ele>
        <time>2022-09-08T17:30:53Z</time>
      </trkpt>
      <trkpt lat="43.93914" lon="1.86172">
        <ele>201.8</ele>
        <time>2022-09-08T17:30:54Z</time>
      </trkpt>
      <trkpt lat="43.93916" lon="1.86168">
        <ele>202.4</ele>
        <time>2022-09-08T17:30:55Z</time>
      </trkpt>
      <trkpt lat="43.93918" lon="1.86165">
        <ele>202.6</ele>
        <time>2022-09-08T17:30:56Z</time>
      </trkpt>
      <trkpt lat="43.93921" lon="1.86161">
        <ele>202.8</ele>
        <time>2022-09-08T17:30:57Z</time>
      </trkpt>
      <trkpt lat="43.93923" lon="1.86158">
        <ele>203</ele>
        <time>2022-09-08T17:30:58Z</time>
      </trkpt>
      <trkpt lat="43.93924" lon="1.86154">
        <ele>203.2</ele>
        <time>2022-09-08T17:30:59Z</time>
      </trkpt>
      <trkpt lat="43.93926" lon="1.86151">
        <ele>203.6</ele>
        <time>2022-09-08T17:31:00Z</time>
      </trkpt>
      <trkpt lat="43.93927" lon="1.86148">
        <ele>203.8</ele>
        <time>2022-09-08T17:31:01Z</time>
      </trkpt>
      <trkpt lat="43.93928" lon="1.86145">
        <ele>204.2</ele>
        <time>2022-09-08T17:31:02Z</time>
      </trkpt>
      <trkpt lat="43.9393" lon="1.86143">
        <ele>204.2</ele>
        <time>2022-09-08T17:31:03Z</time>
      </trkpt>
      <trkpt lat="43.93931" lon="1.86141">
        <ele>204.4</ele>
        <time>2022-09-08T17:31:04Z</time>
      </trkpt>
      <trkpt lat="43.93933" lon="1.86139">
        <ele>204.6</ele>
        <time>2022-09-08T17:31:05Z</time>
      </trkpt>
      <trkpt lat="43.93934" lon="1.86137">
        <ele>204.8</ele>
        <time>2022-09-08T17:31:06Z</time>
      </trkpt>
      <trkpt lat="43.93935" lon="1.86134">
        <ele>204.8</ele>
        <time>2022-09-08T17:31:07Z</time>
      </trkpt>
      <trkpt lat="43.93935" lon="1.86133">
        <ele>205</ele>
        <time>2022-09-08T17:31:08Z</time>
      </trkpt>
      <trkpt lat="43.93935" lon="1.86132">
        <ele>205.2</ele>
        <time>2022-09-08T17:31:09Z</time>
      </trkpt>
      <trkpt lat="43.93933" lon="1.86132">
        <ele>205.2</ele>
        <time>2022-09-08T17:31:22Z</time>
      </trkpt>
      <trkpt lat="43.93933" lon="1.86132">
        <ele>205.2</ele>
        <time>2022-09-08T17:31:23Z</time>
      </trkpt>
      <trkpt lat="43.93931" lon="1.8613">
        <ele>205.2</ele>
        <time>2022-09-08T17:31:24Z</time>
      </trkpt>
      <trkpt lat="43.93929" lon="1.86127">
        <ele>205.2</ele>
        <time>2022-09-08T17:31:25Z</time>
      </trkpt>
      <trkpt lat="43.93926" lon="1.86123">
        <ele>205.2</ele>
        <time>2022-09-08T17:31:26Z</time>
      </trkpt>
      <trkpt lat="43.93924" lon="1.86118">
        <ele>205</ele>
        <time>2022-09-08T17:31:27Z</time>
      </trkpt>
      <trkpt lat="43.93922" lon="1.86111">
        <ele>205</ele>
        <time>2022-09-08T17:31:28Z</time>
      </trkpt>
      <trkpt lat="43.93921" lon="1.86102">
        <ele>204.8</ele>
        <time>2022-09-08T17:31:29Z</time>
      </trkpt>
      <trkpt lat="43.93919" lon="1.86094">
        <ele>204.6</ele>
        <time>2022-09-08T17:31:30Z</time>
      </trkpt>
      <trkpt lat="43.93916" lon="1.86087">
        <ele>204.2</ele>
        <time>2022-09-08T17:31:31Z</time>
      </trkpt>
      <trkpt lat="43.93912" lon="1.86081">
        <ele>204</ele>
        <time>2022-09-08T17:31:32Z</time>
      </trkpt>
      <trkpt lat="43.93907" lon="1.86076">
        <ele>203.6</ele>
        <time>2022-09-08T17:31:33Z</time>
      </trkpt>
      <trkpt lat="43.93902" lon="1.86071">
        <ele>203.4</ele>
        <time>2022-09-08T17:31:34Z</time>
      </trkpt>
      <trkpt lat="43.93897" lon="1.86067">
        <ele>203.2</ele>
        <time>2022-09-08T17:31:35Z</time>
      </trkpt>
      <trkpt lat="43.9389" lon="1.86065">
        <ele>202.8</ele>
        <time>2022-09-08T17:31:36Z</time>
      </trkpt>
      <trkpt lat="43.93882" lon="1.86063">
        <ele>202.4</ele>
        <time>2022-09-08T17:31:37Z</time>
      </trkpt>
      <trkpt lat="43.93865" lon="1.8606">
        <ele>201.4</ele>
        <time>2022-09-08T17:31:39Z</time>
      </trkpt>
      <trkpt lat="43.93848" lon="1.86057">
        <ele>200</ele>
        <time>2022-09-08T17:31:41Z</time>
      </trkpt>
      <trkpt lat="43.93839" lon="1.86055">
        <ele>199.4</ele>
        <time>2022-09-08T17:31:42Z</time>
      </trkpt>
      <trkpt lat="43.93831" lon="1.86052">
        <ele>198.6</ele>
        <time>2022-09-08T17:31:43Z</time>
      </trkpt>
      <trkpt lat="43.93821" lon="1.86048">
        <ele>198.2</ele>
        <time>2022-09-08T17:31:44Z</time>
      </trkpt>
      <trkpt lat="43.93815" lon="1.86045">
        <ele>197.8</ele>
        <time>2022-09-08T17:31:45Z</time>
      </trkpt>
      <trkpt lat="43.93808" lon="1.86041">
        <ele>197.6</ele>
        <time>2022-09-08T17:31:46Z</time>
      </trkpt>
      <trkpt lat="43.93801" lon="1.86037">
        <ele>197.2</ele>
        <time>2022-09-08T17:31:47Z</time>
      </trkpt>
      <trkpt lat="43.93794" lon="1.86034">
        <ele>197</ele>
        <time>2022-09-08T17:31:48Z</time>
      </trkpt>
      <trkpt lat="43.93788" lon="1.8603">
        <ele>196.6</ele>
        <time>2022-09-08T17:31:49Z</time>
      </trkpt>
      <trkpt lat="43.93782" lon="1.86027">
        <ele>196.6</ele>
        <time>2022-09-08T17:31:50Z</time>
      </trkpt>
      <trkpt lat="43.93776" lon="1.86024">
        <ele>196.4</ele>
        <time>2022-09-08T17:31:51Z</time>
      </trkpt>
      <trkpt lat="43.93771" lon="1.86022">
        <ele>196.4</ele>
        <time>2022-09-08T17:31:52Z</time>
      </trkpt>
      <trkpt lat="43.93766" lon="1.8602">
        <ele>196.2</ele>
        <time>2022-09-08T17:31:53Z</time>
      </trkpt>
      <trkpt lat="43.93761" lon="1.86018">
        <ele>196.2</ele>
        <time>2022-09-08T17:31:54Z</time>
      </trkpt>
      <trkpt lat="43.93757" lon="1.86016">
        <ele>196.2</ele>
        <time>2022-09-08T17:31:55Z</time>
      </trkpt>
      <trkpt lat="43.93754" lon="1.86013">
        <ele>196</ele>
        <time>2022-09-08T17:31:56Z</time>
      </trkpt>
      <trkpt lat="43.93751" lon="1.8601">
        <ele>196</ele>
        <time>2022-09-08T17:31:57Z</time>
      </trkpt>
      <trkpt lat="43.93749" lon="1.86005">
        <ele>196</ele>
        <time>2022-09-08T17:31:58Z</time>
      </trkpt>
      <trkpt lat="43.93748" lon="1.86001">
        <ele>196</ele>
        <time>2022-09-08T17:31:59Z</time>
      </trkpt>
      <trkpt lat="43.93747" lon="1.85996">
        <ele>196</ele>
        <time>2022-09-08T17:32:00Z</time>
      </trkpt>
      <trkpt lat="43.93746" lon="1.85992">
        <ele>195.8</ele>
        <time>2022-09-08T17:32:01Z</time>
      </trkpt>
      <trkpt lat="43.93744" lon="1.85987">
        <ele>195.8</ele>
        <time>2022-09-08T17:32:02Z</time>
      </trkpt>
      <trkpt lat="43.9374" lon="1.85969">
        <ele>196.2</ele>
        <time>2022-09-08T17:32:06Z</time>
      </trkpt>
      <trkpt lat="43.93737" lon="1.85956">
        <ele>196.2</ele>
        <time>2022-09-08T17:32:09Z</time>
      </trkpt>
      <trkpt lat="43.93736" lon="1.85951">
        <ele>196.2</ele>
        <time>2022-09-08T17:32:10Z</time>
      </trkpt>
      <trkpt lat="43.93735" lon="1.85946">
        <ele>196.2</ele>
        <time>2022-09-08T17:32:11Z</time>
      </trkpt>
      <trkpt lat="43.93734" lon="1.85942">
        <ele>196.4</ele>
        <time>2022-09-08T17:32:12Z</time>
      </trkpt>
      <trkpt lat="43.93734" lon="1.85939">
        <ele>196.4</ele>
        <time>2022-09-08T17:32:13Z</time>
      </trkpt>
      <trkpt lat="43.93733" lon="1.85935">
        <ele>196.4</ele>
        <time>2022-09-08T17:32:14Z</time>
      </trkpt>
      <trkpt lat="43.93726" lon="1.85914">
        <ele>197</ele>
        <time>2022-09-08T17:32:19Z</time>
      </trkpt>
      <trkpt lat="43.93724" lon="1.85905">
        <ele>197.2</ele>
        <time>2022-09-08T17:32:21Z</time>
      </trkpt>
      <trkpt lat="43.93724" lon="1.85901">
        <ele>197.4</ele>
        <time>2022-09-08T17:32:22Z</time>
      </trkpt>
      <trkpt lat="43.93723" lon="1.85896">
        <ele>197.4</ele>
        <time>2022-09-08T17:32:23Z</time>
      </trkpt>
      <trkpt lat="43.93722" lon="1.85892">
        <ele>197.4</ele>
        <time>2022-09-08T17:32:24Z</time>
      </trkpt>
      <trkpt lat="43.9372" lon="1.85887">
        <ele>197.4</ele>
        <time>2022-09-08T17:32:25Z</time>
      </trkpt>
      <trkpt lat="43.93718" lon="1.85882">
        <ele>197.4</ele>
        <time>2022-09-08T17:32:26Z</time>
      </trkpt>
      <trkpt lat="43.93717" lon="1.85878">
        <ele>197.6</ele>
        <time>2022-09-08T17:32:27Z</time>
      </trkpt>
      <trkpt lat="43.93713" lon="1.85863">
        <ele>198.2</ele>
        <time>2022-09-08T17:32:30Z</time>
      </trkpt>
      <trkpt lat="43.93712" lon="1.85859">
        <ele>198.4</ele>
        <time>2022-09-08T17:32:31Z</time>
      </trkpt>
      <trkpt lat="43.9371" lon="1.85855">
        <ele>198.6</ele>
        <time>2022-09-08T17:32:32Z</time>
      </trkpt>
      <trkpt lat="43.93706" lon="1.85844">
        <ele>198.8</ele>
        <time>2022-09-08T17:32:34Z</time>
      </trkpt>
      <trkpt lat="43.93705" lon="1.85838">
        <ele>199</ele>
        <time>2022-09-08T17:32:35Z</time>
      </trkpt>
      <trkpt lat="43.93703" lon="1.85828">
        <ele>199.4</ele>
        <time>2022-09-08T17:32:37Z</time>
      </trkpt>
      <trkpt lat="43.93702" lon="1.85823">
        <ele>199.8</ele>
        <time>2022-09-08T17:32:38Z</time>
      </trkpt>
      <trkpt lat="43.93701" lon="1.85817">
        <ele>199.8</ele>
        <time>2022-09-08T17:32:39Z</time>
      </trkpt>
      <trkpt lat="43.93699" lon="1.85812">
        <ele>200</ele>
        <time>2022-09-08T17:32:40Z</time>
      </trkpt>
      <trkpt lat="43.93698" lon="1.85806">
        <ele>200</ele>
        <time>2022-09-08T17:32:41Z</time>
      </trkpt>
      <trkpt lat="43.93697" lon="1.85801">
        <ele>200.2</ele>
        <time>2022-09-08T17:32:42Z</time>
      </trkpt>
      <trkpt lat="43.93695" lon="1.85796">
        <ele>200.2</ele>
        <time>2022-09-08T17:32:43Z</time>
      </trkpt>
      <trkpt lat="43.93694" lon="1.8579">
        <ele>200.4</ele>
        <time>2022-09-08T17:32:44Z</time>
      </trkpt>
      <trkpt lat="43.9369" lon="1.85784">
        <ele>200.6</ele>
        <time>2022-09-08T17:32:45Z</time>
      </trkpt>
      <trkpt lat="43.93688" lon="1.85779">
        <ele>200.8</ele>
        <time>2022-09-08T17:32:46Z</time>
      </trkpt>
      <trkpt lat="43.93686" lon="1.85774">
        <ele>201</ele>
        <time>2022-09-08T17:32:47Z</time>
      </trkpt>
      <trkpt lat="43.93684" lon="1.85769">
        <ele>201</ele>
        <time>2022-09-08T17:32:48Z</time>
      </trkpt>
      <trkpt lat="43.93684" lon="1.85765">
        <ele>201.2</ele>
        <time>2022-09-08T17:32:49Z</time>
      </trkpt>
      <trkpt lat="43.93682" lon="1.85761">
        <ele>201.2</ele>
        <time>2022-09-08T17:32:50Z</time>
      </trkpt>
      <trkpt lat="43.93681" lon="1.85757">
        <ele>201.4</ele>
        <time>2022-09-08T17:32:51Z</time>
      </trkpt>
      <trkpt lat="43.93679" lon="1.85751">
        <ele>201.4</ele>
        <time>2022-09-08T17:32:52Z</time>
      </trkpt>
      <trkpt lat="43.93676" lon="1.85747">
        <ele>201.6</ele>
        <time>2022-09-08T17:32:53Z</time>
      </trkpt>
      <trkpt lat="43.93675" lon="1.85742">
        <ele>201.8</ele>
        <time>2022-09-08T17:32:54Z</time>
      </trkpt>
      <trkpt lat="43.93673" lon="1.85738">
        <ele>201.8</ele>
        <time>2022-09-08T17:32:55Z</time>
      </trkpt>
      <trkpt lat="43.93671" lon="1.85734">
        <ele>202</ele>
        <time>2022-09-08T17:32:56Z</time>
      </trkpt>
      <trkpt lat="43.93669" lon="1.8573">
        <ele>202</ele>
        <time>2022-09-08T17:32:57Z</time>
      </trkpt>
      <trkpt lat="43.93668" lon="1.85725">
        <ele>202.2</ele>
        <time>2022-09-08T17:32:58Z</time>
      </trkpt>
      <trkpt lat="43.93667" lon="1.85721">
        <ele>202.4</ele>
        <time>2022-09-08T17:32:59Z</time>
      </trkpt>
      <trkpt lat="43.93666" lon="1.85716">
        <ele>202.6</ele>
        <time>2022-09-08T17:33:00Z</time>
      </trkpt>
      <trkpt lat="43.93665" lon="1.85711">
        <ele>202.8</ele>
        <time>2022-09-08T17:33:01Z</time>
      </trkpt>
      <trkpt lat="43.93664" lon="1.85707">
        <ele>203</ele>
        <time>2022-09-08T17:33:02Z</time>
      </trkpt>
      <trkpt lat="43.93664" lon="1.85702">
        <ele>203.4</ele>
        <time>2022-09-08T17:33:03Z</time>
      </trkpt>
      <trkpt lat="43.93663" lon="1.85698">
        <ele>203.4</ele>
        <time>2022-09-08T17:33:04Z</time>
      </trkpt>
      <trkpt lat="43.93663" lon="1.85693">
        <ele>203.6</ele>
        <time>2022-09-08T17:33:05Z</time>
      </trkpt>
      <trkpt lat="43.93663" lon="1.85688">
        <ele>203.6</ele>
        <time>2022-09-08T17:33:06Z</time>
      </trkpt>
      <trkpt lat="43.93663" lon="1.85683">
        <ele>203.6</ele>
        <time>2022-09-08T17:33:07Z</time>
      </trkpt>
      <trkpt lat="43.93662" lon="1.85678">
        <ele>203.8</ele>
        <time>2022-09-08T17:33:08Z</time>
      </trkpt>
      <trkpt lat="43.93662" lon="1.85674">
        <ele>204</ele>
        <time>2022-09-08T17:33:09Z</time>
      </trkpt>
      <trkpt lat="43.93662" lon="1.8567">
        <ele>204.4</ele>
        <time>2022-09-08T17:33:10Z</time>
      </trkpt>
      <trkpt lat="43.93662" lon="1.85665">
        <ele>204.6</ele>
        <time>2022-09-08T17:33:11Z</time>
      </trkpt>
      <trkpt lat="43.93662" lon="1.85661">
        <ele>205</ele>
        <time>2022-09-08T17:33:12Z</time>
      </trkpt>
      <trkpt lat="43.93661" lon="1.85657">
        <ele>205</ele>
        <time>2022-09-08T17:33:13Z</time>
      </trkpt>
      <trkpt lat="43.93661" lon="1.85653">
        <ele>205.4</ele>
        <time>2022-09-08T17:33:14Z</time>
      </trkpt>
      <trkpt lat="43.9366" lon="1.85648">
        <ele>205.4</ele>
        <time>2022-09-08T17:33:15Z</time>
      </trkpt>
      <trkpt lat="43.9366" lon="1.85644">
        <ele>205.6</ele>
        <time>2022-09-08T17:33:16Z</time>
      </trkpt>
      <trkpt lat="43.93659" lon="1.8564">
        <ele>205.8</ele>
        <time>2022-09-08T17:33:17Z</time>
      </trkpt>
      <trkpt lat="43.93658" lon="1.85637">
        <ele>206.2</ele>
        <time>2022-09-08T17:33:18Z</time>
      </trkpt>
      <trkpt lat="43.93656" lon="1.85634">
        <ele>206.4</ele>
        <time>2022-09-08T17:33:19Z</time>
      </trkpt>
      <trkpt lat="43.93655" lon="1.8563">
        <ele>206.6</ele>
        <time>2022-09-08T17:33:20Z</time>
      </trkpt>
      <trkpt lat="43.93652" lon="1.85626">
        <ele>206.8</ele>
        <time>2022-09-08T17:33:21Z</time>
      </trkpt>
      <trkpt lat="43.9365" lon="1.85622">
        <ele>207</ele>
        <time>2022-09-08T17:33:22Z</time>
      </trkpt>
      <trkpt lat="43.93648" lon="1.85618">
        <ele>207.2</ele>
        <time>2022-09-08T17:33:23Z</time>
      </trkpt>
      <trkpt lat="43.93646" lon="1.85614">
        <ele>207.4</ele>
        <time>2022-09-08T17:33:24Z</time>
      </trkpt>
      <trkpt lat="43.93645" lon="1.8561">
        <ele>207.6</ele>
        <time>2022-09-08T17:33:25Z</time>
      </trkpt>
      <trkpt lat="43.93643" lon="1.85607">
        <ele>207.8</ele>
        <time>2022-09-08T17:33:26Z</time>
      </trkpt>
      <trkpt lat="43.93642" lon="1.85604">
        <ele>208.2</ele>
        <time>2022-09-08T17:33:27Z</time>
      </trkpt>
      <trkpt lat="43.9364" lon="1.85601">
        <ele>208.6</ele>
        <time>2022-09-08T17:33:28Z</time>
      </trkpt>
      <trkpt lat="43.93639" lon="1.85598">
        <ele>208.8</ele>
        <time>2022-09-08T17:33:29Z</time>
      </trkpt>
      <trkpt lat="43.93637" lon="1.85595">
        <ele>209</ele>
        <time>2022-09-08T17:33:30Z</time>
      </trkpt>
      <trkpt lat="43.93635" lon="1.85592">
        <ele>209.2</ele>
        <time>2022-09-08T17:33:31Z</time>
      </trkpt>
      <trkpt lat="43.93634" lon="1.8559">
        <ele>209.6</ele>
        <time>2022-09-08T17:33:32Z</time>
      </trkpt>
      <trkpt lat="43.93632" lon="1.85587">
        <ele>209.8</ele>
        <time>2022-09-08T17:33:33Z</time>
      </trkpt>
      <trkpt lat="43.9363" lon="1.85585">
        <ele>210</ele>
        <time>2022-09-08T17:33:34Z</time>
      </trkpt>
      <trkpt lat="43.93628" lon="1.85582">
        <ele>210.2</ele>
        <time>2022-09-08T17:33:35Z</time>
      </trkpt>
      <trkpt lat="43.93627" lon="1.8558">
        <ele>210.2</ele>
        <time>2022-09-08T17:33:36Z</time>
      </trkpt>
      <trkpt lat="43.93625" lon="1.85578">
        <ele>210.4</ele>
        <time>2022-09-08T17:33:37Z</time>
      </trkpt>
      <trkpt lat="43.93624" lon="1.85577">
        <ele>210.4</ele>
        <time>2022-09-08T17:33:38Z</time>
      </trkpt>
      <trkpt lat="43.93622" lon="1.85574">
        <ele>210.6</ele>
        <time>2022-09-08T17:33:39Z</time>
      </trkpt>
      <trkpt lat="43.93619" lon="1.85572">
        <ele>210.8</ele>
        <time>2022-09-08T17:33:40Z</time>
      </trkpt>
      <trkpt lat="43.93617" lon="1.8557">
        <ele>211</ele>
        <time>2022-09-08T17:33:41Z</time>
      </trkpt>
      <trkpt lat="43.93614" lon="1.85568">
        <ele>211</ele>
        <time>2022-09-08T17:33:42Z</time>
      </trkpt>
      <trkpt lat="43.93612" lon="1.85566">
        <ele>211.2</ele>
        <time>2022-09-08T17:33:43Z</time>
      </trkpt>
      <trkpt lat="43.9361" lon="1.85564">
        <ele>211.2</ele>
        <time>2022-09-08T17:33:44Z</time>
      </trkpt>
      <trkpt lat="43.93608" lon="1.85562">
        <ele>211.4</ele>
        <time>2022-09-08T17:33:45Z</time>
      </trkpt>
      <trkpt lat="43.93606" lon="1.8556">
        <ele>211.4</ele>
        <time>2022-09-08T17:33:46Z</time>
      </trkpt>
      <trkpt lat="43.93604" lon="1.85557">
        <ele>211.6</ele>
        <time>2022-09-08T17:33:47Z</time>
      </trkpt>
      <trkpt lat="43.93602" lon="1.85555">
        <ele>211.8</ele>
        <time>2022-09-08T17:33:48Z</time>
      </trkpt>
      <trkpt lat="43.936" lon="1.85553">
        <ele>211.8</ele>
        <time>2022-09-08T17:33:49Z</time>
      </trkpt>
      <trkpt lat="43.93598" lon="1.85551">
        <ele>211.8</ele>
        <time>2022-09-08T17:33:50Z</time>
      </trkpt>
      <trkpt lat="43.93596" lon="1.85549">
        <ele>212</ele>
        <time>2022-09-08T17:33:51Z</time>
      </trkpt>
      <trkpt lat="43.93594" lon="1.85547">
        <ele>212</ele>
        <time>2022-09-08T17:33:52Z</time>
      </trkpt>
      <trkpt lat="43.93591" lon="1.85544">
        <ele>212</ele>
        <time>2022-09-08T17:33:53Z</time>
      </trkpt>
      <trkpt lat="43.93589" lon="1.85541">
        <ele>212.2</ele>
        <time>2022-09-08T17:33:54Z</time>
      </trkpt>
      <trkpt lat="43.93586" lon="1.85538">
        <ele>212.2</ele>
        <time>2022-09-08T17:33:55Z</time>
      </trkpt>
      <trkpt lat="43.93584" lon="1.85536">
        <ele>212.2</ele>
        <time>2022-09-08T17:33:56Z</time>
      </trkpt>
      <trkpt lat="43.93581" lon="1.85534">
        <ele>212.2</ele>
        <time>2022-09-08T17:33:57Z</time>
      </trkpt>
      <trkpt lat="43.93579" lon="1.85533">
        <ele>212.2</ele>
        <time>2022-09-08T17:33:58Z</time>
      </trkpt>
      <trkpt lat="43.93576" lon="1.85532">
        <ele>212.2</ele>
        <time>2022-09-08T17:33:59Z</time>
      </trkpt>
      <trkpt lat="43.93574" lon="1.85531">
        <ele>212.2</ele>
        <time>2022-09-08T17:34:00Z</time>
      </trkpt>
      <trkpt lat="43.93573" lon="1.85531">
        <ele>212.2</ele>
        <time>2022-09-08T17:34:01Z</time>
      </trkpt>
      <trkpt lat="43.93571" lon="1.8553">
        <ele>212</ele>
        <time>2022-09-08T17:34:02Z</time>
      </trkpt>
      <trkpt lat="43.93569" lon="1.8553">
        <ele>212</ele>
        <time>2022-09-08T17:34:03Z</time>
      </trkpt>
      <trkpt lat="43.93567" lon="1.85529">
        <ele>212</ele>
        <time>2022-09-08T17:34:04Z</time>
      </trkpt>
      <trkpt lat="43.93566" lon="1.85528">
        <ele>212</ele>
        <time>2022-09-08T17:34:05Z</time>
      </trkpt>
      <trkpt lat="43.93561" lon="1.85529">
        <ele>211.6</ele>
        <time>2022-09-08T17:34:08Z</time>
      </trkpt>
      <trkpt lat="43.93558" lon="1.8553">
        <ele>211.6</ele>
        <time>2022-09-08T17:34:09Z</time>
      </trkpt>
      <trkpt lat="43.93556" lon="1.85532">
        <ele>211.6</ele>
        <time>2022-09-08T17:34:10Z</time>
      </trkpt>
      <trkpt lat="43.93554" lon="1.85534">
        <ele>211.6</ele>
        <time>2022-09-08T17:34:11Z</time>
      </trkpt>
      <trkpt lat="43.93551" lon="1.85535">
        <ele>211.6</ele>
        <time>2022-09-08T17:34:12Z</time>
      </trkpt>
      <trkpt lat="43.93548" lon="1.85536">
        <ele>211.6</ele>
        <time>2022-09-08T17:34:13Z</time>
      </trkpt>
      <trkpt lat="43.93546" lon="1.85536">
        <ele>211.6</ele>
        <time>2022-09-08T17:34:14Z</time>
      </trkpt>
      <trkpt lat="43.93543" lon="1.85535">
        <ele>211.6</ele>
        <time>2022-09-08T17:34:15Z</time>
      </trkpt>
      <trkpt lat="43.9354" lon="1.85534">
        <ele>211.6</ele>
        <time>2022-09-08T17:34:16Z</time>
      </trkpt>
      <trkpt lat="43.93538" lon="1.85533">
        <ele>211.8</ele>
        <time>2022-09-08T17:34:17Z</time>
      </trkpt>
      <trkpt lat="43.93536" lon="1.85533">
        <ele>211.8</ele>
        <time>2022-09-08T17:34:18Z</time>
      </trkpt>
      <trkpt lat="43.93534" lon="1.85532">
        <ele>212</ele>
        <time>2022-09-08T17:34:19Z</time>
      </trkpt>
      <trkpt lat="43.93532" lon="1.85531">
        <ele>212.2</ele>
        <time>2022-09-08T17:34:20Z</time>
      </trkpt>
      <trkpt lat="43.93531" lon="1.85531">
        <ele>212.4</ele>
        <time>2022-09-08T17:34:21Z</time>
      </trkpt>
      <trkpt lat="43.93529" lon="1.8553">
        <ele>212.6</ele>
        <time>2022-09-08T17:34:22Z</time>
      </trkpt>
      <trkpt lat="43.93527" lon="1.8553">
        <ele>212.8</ele>
        <time>2022-09-08T17:34:23Z</time>
      </trkpt>
      <trkpt lat="43.93517" lon="1.85529">
        <ele>213.6</ele>
        <time>2022-09-08T17:34:28Z</time>
      </trkpt>
      <trkpt lat="43.93516" lon="1.85528">
        <ele>214</ele>
        <time>2022-09-08T17:34:29Z</time>
      </trkpt>
      <trkpt lat="43.93508" lon="1.85528">
        <ele>215</ele>
        <time>2022-09-08T17:34:33Z</time>
      </trkpt>
      <trkpt lat="43.93507" lon="1.85529">
        <ele>215.4</ele>
        <time>2022-09-08T17:34:34Z</time>
      </trkpt>
      <trkpt lat="43.93506" lon="1.8553">
        <ele>215.6</ele>
        <time>2022-09-08T17:34:35Z</time>
      </trkpt>
      <trkpt lat="43.93505" lon="1.85532">
        <ele>216</ele>
        <time>2022-09-08T17:34:36Z</time>
      </trkpt>
      <trkpt lat="43.93504" lon="1.85533">
        <ele>216</ele>
        <time>2022-09-08T17:34:37Z</time>
      </trkpt>
      <trkpt lat="43.93503" lon="1.85535">
        <ele>216.4</ele>
        <time>2022-09-08T17:34:38Z</time>
      </trkpt>
      <trkpt lat="43.93502" lon="1.85537">
        <ele>216.6</ele>
        <time>2022-09-08T17:34:39Z</time>
      </trkpt>
      <trkpt lat="43.93502" lon="1.8554">
        <ele>216.8</ele>
        <time>2022-09-08T17:34:40Z</time>
      </trkpt>
      <trkpt lat="43.93501" lon="1.85542">
        <ele>217</ele>
        <time>2022-09-08T17:34:41Z</time>
      </trkpt>
      <trkpt lat="43.935" lon="1.85545">
        <ele>217.2</ele>
        <time>2022-09-08T17:34:42Z</time>
      </trkpt>
      <trkpt lat="43.93498" lon="1.85547">
        <ele>217.4</ele>
        <time>2022-09-08T17:34:43Z</time>
      </trkpt>
      <trkpt lat="43.93496" lon="1.85548">
        <ele>217.6</ele>
        <time>2022-09-08T17:34:44Z</time>
      </trkpt>
      <trkpt lat="43.93494" lon="1.8555">
        <ele>218</ele>
        <time>2022-09-08T17:34:45Z</time>
      </trkpt>
      <trkpt lat="43.93492" lon="1.85551">
        <ele>218.2</ele>
        <time>2022-09-08T17:34:46Z</time>
      </trkpt>
      <trkpt lat="43.93491" lon="1.85553">
        <ele>218.6</ele>
        <time>2022-09-08T17:34:47Z</time>
      </trkpt>
      <trkpt lat="43.9349" lon="1.85553">
        <ele>218.6</ele>
        <time>2022-09-08T17:34:48Z</time>
      </trkpt>
      <trkpt lat="43.9349" lon="1.85553">
        <ele>218.8</ele>
        <time>2022-09-08T17:34:49Z</time>
      </trkpt>
      <trkpt lat="43.93489" lon="1.85552">
        <ele>219.2</ele>
        <time>2022-09-08T17:34:50Z</time>
      </trkpt>
      <trkpt lat="43.93487" lon="1.85551">
        <ele>219.4</ele>
        <time>2022-09-08T17:34:51Z</time>
      </trkpt>
      <trkpt lat="43.93486" lon="1.85549">
        <ele>219.6</ele>
        <time>2022-09-08T17:34:52Z</time>
      </trkpt>
      <trkpt lat="43.93485" lon="1.85546">
        <ele>219.6</ele>
        <time>2022-09-08T17:34:53Z</time>
      </trkpt>
      <trkpt lat="43.93484" lon="1.85543">
        <ele>219.8</ele>
        <time>2022-09-08T17:34:54Z</time>
      </trkpt>
      <trkpt lat="43.93484" lon="1.85541">
        <ele>219.8</ele>
        <time>2022-09-08T17:34:55Z</time>
      </trkpt>
      <trkpt lat="43.93484" lon="1.8554">
        <ele>220</ele>
        <time>2022-09-08T17:34:56Z</time>
      </trkpt>
      <trkpt lat="43.93484" lon="1.85539">
        <ele>220</ele>
        <time>2022-09-08T17:34:57Z</time>
      </trkpt>
      <trkpt lat="43.93484" lon="1.85537">
        <ele>220</ele>
        <time>2022-09-08T17:34:58Z</time>
      </trkpt>
      <trkpt lat="43.93484" lon="1.85536">
        <ele>220.2</ele>
        <time>2022-09-08T17:34:59Z</time>
      </trkpt>
      <trkpt lat="43.93483" lon="1.85534">
        <ele>220.4</ele>
        <time>2022-09-08T17:35:00Z</time>
      </trkpt>
      <trkpt lat="43.93482" lon="1.85533">
        <ele>220.4</ele>
        <time>2022-09-08T17:35:01Z</time>
      </trkpt>
      <trkpt lat="43.93482" lon="1.85533">
        <ele>220.6</ele>
        <time>2022-09-08T17:35:02Z</time>
      </trkpt>
      <trkpt lat="43.93482" lon="1.85532">
        <ele>220.6</ele>
        <time>2022-09-08T17:35:03Z</time>
      </trkpt>
      <trkpt lat="43.93482" lon="1.85531">
        <ele>220.6</ele>
        <time>2022-09-08T17:35:04Z</time>
      </trkpt>
      <trkpt lat="43.93482" lon="1.85531">
        <ele>220.8</ele>
        <time>2022-09-08T17:35:05Z</time>
      </trkpt>
      <trkpt lat="43.93482" lon="1.8553">
        <ele>220.8</ele>
        <time>2022-09-08T17:35:06Z</time>
      </trkpt>
      <trkpt lat="43.93482" lon="1.85529">
        <ele>220.8</ele>
        <time>2022-09-08T17:35:07Z</time>
      </trkpt>
      <trkpt lat="43.93482" lon="1.85527">
        <ele>220.8</ele>
        <time>2022-09-08T17:35:08Z</time>
      </trkpt>
      <trkpt lat="43.93481" lon="1.85526">
        <ele>221</ele>
        <time>2022-09-08T17:35:09Z</time>
      </trkpt>
      <trkpt lat="43.9348" lon="1.85525">
        <ele>221.2</ele>
        <time>2022-09-08T17:35:10Z</time>
      </trkpt>
      <trkpt lat="43.9348" lon="1.85523">
        <ele>221.2</ele>
        <time>2022-09-08T17:35:11Z</time>
      </trkpt>
      <trkpt lat="43.93479" lon="1.85521">
        <ele>221.2</ele>
        <time>2022-09-08T17:35:12Z</time>
      </trkpt>
      <trkpt lat="43.93479" lon="1.8552">
        <ele>221.4</ele>
        <time>2022-09-08T17:35:13Z</time>
      </trkpt>
      <trkpt lat="43.93479" lon="1.85518">
        <ele>221.6</ele>
        <time>2022-09-08T17:35:14Z</time>
      </trkpt>
      <trkpt lat="43.93479" lon="1.85517">
        <ele>221.6</ele>
        <time>2022-09-08T17:35:15Z</time>
      </trkpt>
      <trkpt lat="43.93479" lon="1.85516">
        <ele>221.6</ele>
        <time>2022-09-08T17:35:16Z</time>
      </trkpt>
      <trkpt lat="43.93479" lon="1.85515">
        <ele>221.8</ele>
        <time>2022-09-08T17:35:17Z</time>
      </trkpt>
      <trkpt lat="43.93479" lon="1.85515">
        <ele>222.4</ele>
        <time>2022-09-08T17:35:53Z</time>
      </trkpt>
      <trkpt lat="43.93479" lon="1.85515">
        <ele>222.4</ele>
        <time>2022-09-08T17:35:54Z</time>
      </trkpt>
      <trkpt lat="43.93478" lon="1.85514">
        <ele>222.4</ele>
        <time>2022-09-08T17:35:55Z</time>
      </trkpt>
      <trkpt lat="43.93476" lon="1.85512">
        <ele>222.6</ele>
        <time>2022-09-08T17:35:57Z</time>
      </trkpt>
      <trkpt lat="43.93474" lon="1.85509">
        <ele>222.6</ele>
        <time>2022-09-08T17:35:59Z</time>
      </trkpt>
      <trkpt lat="43.9347" lon="1.85505">
        <ele>222.8</ele>
        <time>2022-09-08T17:36:02Z</time>
      </trkpt>
      <trkpt lat="43.93469" lon="1.85504">
        <ele>223</ele>
        <time>2022-09-08T17:36:03Z</time>
      </trkpt>
      <trkpt lat="43.93463" lon="1.85499">
        <ele>223.2</ele>
        <time>2022-09-08T17:36:06Z</time>
      </trkpt>
      <trkpt lat="43.93462" lon="1.85498">
        <ele>223.8</ele>
        <time>2022-09-08T17:36:07Z</time>
      </trkpt>
      <trkpt lat="43.93461" lon="1.85497">
        <ele>223.8</ele>
        <time>2022-09-08T17:36:08Z</time>
      </trkpt>
      <trkpt lat="43.93457" lon="1.85493">
        <ele>224.4</ele>
        <time>2022-09-08T17:36:11Z</time>
      </trkpt>
      <trkpt lat="43.93454" lon="1.85491">
        <ele>224.6</ele>
        <time>2022-09-08T17:36:12Z</time>
      </trkpt>
      <trkpt lat="43.93451" lon="1.8549">
        <ele>224.8</ele>
        <time>2022-09-08T17:36:13Z</time>
      </trkpt>
      <trkpt lat="43.9345" lon="1.85489">
        <ele>225</ele>
        <time>2022-09-08T17:36:14Z</time>
      </trkpt>
      <trkpt lat="43.93448" lon="1.85487">
        <ele>225</ele>
        <time>2022-09-08T17:36:15Z</time>
      </trkpt>
      <trkpt lat="43.93446" lon="1.85487">
        <ele>225.4</ele>
        <time>2022-09-08T17:36:16Z</time>
      </trkpt>
      <trkpt lat="43.93444" lon="1.85486">
        <ele>225.6</ele>
        <time>2022-09-08T17:36:17Z</time>
      </trkpt>
      <trkpt lat="43.93442" lon="1.85485">
        <ele>226.2</ele>
        <time>2022-09-08T17:36:18Z</time>
      </trkpt>
      <trkpt lat="43.9344" lon="1.85483">
        <ele>226.6</ele>
        <time>2022-09-08T17:36:19Z</time>
      </trkpt>
      <trkpt lat="43.93439" lon="1.85481">
        <ele>226.8</ele>
        <time>2022-09-08T17:36:20Z</time>
      </trkpt>
      <trkpt lat="43.93438" lon="1.85479">
        <ele>227</ele>
        <time>2022-09-08T17:36:21Z</time>
      </trkpt>
      <trkpt lat="43.93438" lon="1.8548">
        <ele>227.2</ele>
        <time>2022-09-08T17:36:22Z</time>
      </trkpt>
      <trkpt lat="43.93436" lon="1.85478">
        <ele>227.2</ele>
        <time>2022-09-08T17:36:23Z</time>
      </trkpt>
      <trkpt lat="43.93435" lon="1.85476">
        <ele>227.4</ele>
        <time>2022-09-08T17:36:24Z</time>
      </trkpt>
      <trkpt lat="43.93434" lon="1.85475">
        <ele>227.8</ele>
        <time>2022-09-08T17:36:25Z</time>
      </trkpt>
      <trkpt lat="43.93432" lon="1.85473">
        <ele>227.8</ele>
        <time>2022-09-08T17:36:26Z</time>
      </trkpt>
      <trkpt lat="43.93431" lon="1.85473">
        <ele>227.8</ele>
        <time>2022-09-08T17:36:27Z</time>
      </trkpt>
      <trkpt lat="43.9343" lon="1.85473">
        <ele>228</ele>
        <time>2022-09-08T17:36:28Z</time>
      </trkpt>
      <trkpt lat="43.93429" lon="1.85471">
        <ele>228</ele>
        <time>2022-09-08T17:36:29Z</time>
      </trkpt>
      <trkpt lat="43.93428" lon="1.85471">
        <ele>228.2</ele>
        <time>2022-09-08T17:36:30Z</time>
      </trkpt>
      <trkpt lat="43.93426" lon="1.8547">
        <ele>228.2</ele>
        <time>2022-09-08T17:36:31Z</time>
      </trkpt>
      <trkpt lat="43.93425" lon="1.85469">
        <ele>228.6</ele>
        <time>2022-09-08T17:36:32Z</time>
      </trkpt>
      <trkpt lat="43.93424" lon="1.85469">
        <ele>228.6</ele>
        <time>2022-09-08T17:36:33Z</time>
      </trkpt>
      <trkpt lat="43.93423" lon="1.85468">
        <ele>228.8</ele>
        <time>2022-09-08T17:36:34Z</time>
      </trkpt>
      <trkpt lat="43.93421" lon="1.85468">
        <ele>229</ele>
        <time>2022-09-08T17:36:35Z</time>
      </trkpt>
      <trkpt lat="43.9342" lon="1.85467">
        <ele>229</ele>
        <time>2022-09-08T17:36:36Z</time>
      </trkpt>
      <trkpt lat="43.93418" lon="1.85467">
        <ele>229.2</ele>
        <time>2022-09-08T17:36:37Z</time>
      </trkpt>
      <trkpt lat="43.93417" lon="1.85466">
        <ele>229.4</ele>
        <time>2022-09-08T17:36:38Z</time>
      </trkpt>
      <trkpt lat="43.93415" lon="1.85464">
        <ele>229.6</ele>
        <time>2022-09-08T17:36:39Z</time>
      </trkpt>
      <trkpt lat="43.93414" lon="1.85464">
        <ele>229.6</ele>
        <time>2022-09-08T17:36:40Z</time>
      </trkpt>
      <trkpt lat="43.93413" lon="1.85463">
        <ele>230</ele>
        <time>2022-09-08T17:36:41Z</time>
      </trkpt>
      <trkpt lat="43.93412" lon="1.85461">
        <ele>230.2</ele>
        <time>2022-09-08T17:36:42Z</time>
      </trkpt>
      <trkpt lat="43.93412" lon="1.8546">
        <ele>230.4</ele>
        <time>2022-09-08T17:36:43Z</time>
      </trkpt>
      <trkpt lat="43.93412" lon="1.85458">
        <ele>230.6</ele>
        <time>2022-09-08T17:36:44Z</time>
      </trkpt>
      <trkpt lat="43.93411" lon="1.85456">
        <ele>230.8</ele>
        <time>2022-09-08T17:36:45Z</time>
      </trkpt>
      <trkpt lat="43.93411" lon="1.85455">
        <ele>231</ele>
        <time>2022-09-08T17:36:46Z</time>
      </trkpt>
      <trkpt lat="43.9341" lon="1.85454">
        <ele>231</ele>
        <time>2022-09-08T17:36:47Z</time>
      </trkpt>
      <trkpt lat="43.9341" lon="1.85452">
        <ele>231.4</ele>
        <time>2022-09-08T17:36:48Z</time>
      </trkpt>
      <trkpt lat="43.93409" lon="1.85451">
        <ele>231.4</ele>
        <time>2022-09-08T17:36:49Z</time>
      </trkpt>
      <trkpt lat="43.93408" lon="1.8545">
        <ele>231.6</ele>
        <time>2022-09-08T17:36:50Z</time>
      </trkpt>
      <trkpt lat="43.93407" lon="1.85449">
        <ele>232</ele>
        <time>2022-09-08T17:36:51Z</time>
      </trkpt>
      <trkpt lat="43.93407" lon="1.85448">
        <ele>232.2</ele>
        <time>2022-09-08T17:36:52Z</time>
      </trkpt>
      <trkpt lat="43.93406" lon="1.85447">
        <ele>232.4</ele>
        <time>2022-09-08T17:36:53Z</time>
      </trkpt>
      <trkpt lat="43.93405" lon="1.85446">
        <ele>232.6</ele>
        <time>2022-09-08T17:36:54Z</time>
      </trkpt>
      <trkpt lat="43.93404" lon="1.85445">
        <ele>232.6</ele>
        <time>2022-09-08T17:36:55Z</time>
      </trkpt>
      <trkpt lat="43.93403" lon="1.85444">
        <ele>232.8</ele>
        <time>2022-09-08T17:36:56Z</time>
      </trkpt>
      <trkpt lat="43.93403" lon="1.85443">
        <ele>232.8</ele>
        <time>2022-09-08T17:36:57Z</time>
      </trkpt>
      <trkpt lat="43.93402" lon="1.85442">
        <ele>232.8</ele>
        <time>2022-09-08T17:36:58Z</time>
      </trkpt>
      <trkpt lat="43.93402" lon="1.85441">
        <ele>233</ele>
        <time>2022-09-08T17:36:59Z</time>
      </trkpt>
      <trkpt lat="43.93401" lon="1.8544">
        <ele>233.2</ele>
        <time>2022-09-08T17:37:00Z</time>
      </trkpt>
      <trkpt lat="43.93399" lon="1.85439">
        <ele>233.2</ele>
        <time>2022-09-08T17:37:01Z</time>
      </trkpt>
      <trkpt lat="43.93397" lon="1.85437">
        <ele>233.4</ele>
        <time>2022-09-08T17:37:02Z</time>
      </trkpt>
      <trkpt lat="43.93395" lon="1.85436">
        <ele>233.6</ele>
        <time>2022-09-08T17:37:03Z</time>
      </trkpt>
      <trkpt lat="43.93393" lon="1.85435">
        <ele>233.8</ele>
        <time>2022-09-08T17:37:04Z</time>
      </trkpt>
      <trkpt lat="43.93393" lon="1.85434">
        <ele>233.8</ele>
        <time>2022-09-08T17:37:05Z</time>
      </trkpt>
      <trkpt lat="43.93392" lon="1.85433">
        <ele>234.2</ele>
        <time>2022-09-08T17:37:06Z</time>
      </trkpt>
      <trkpt lat="43.93391" lon="1.85433">
        <ele>234.6</ele>
        <time>2022-09-08T17:37:07Z</time>
      </trkpt>
      <trkpt lat="43.93389" lon="1.85432">
        <ele>234.6</ele>
        <time>2022-09-08T17:37:08Z</time>
      </trkpt>
      <trkpt lat="43.93387" lon="1.85431">
        <ele>235</ele>
        <time>2022-09-08T17:37:09Z</time>
      </trkpt>
      <trkpt lat="43.93386" lon="1.85429">
        <ele>235</ele>
        <time>2022-09-08T17:37:10Z</time>
      </trkpt>
      <trkpt lat="43.93385" lon="1.85428">
        <ele>235.4</ele>
        <time>2022-09-08T17:37:11Z</time>
      </trkpt>
      <trkpt lat="43.93384" lon="1.85427">
        <ele>235.4</ele>
        <time>2022-09-08T17:37:12Z</time>
      </trkpt>
      <trkpt lat="43.93383" lon="1.85426">
        <ele>235.6</ele>
        <time>2022-09-08T17:37:13Z</time>
      </trkpt>
      <trkpt lat="43.93382" lon="1.85425">
        <ele>235.6</ele>
        <time>2022-09-08T17:37:14Z</time>
      </trkpt>
      <trkpt lat="43.93381" lon="1.85424">
        <ele>236</ele>
        <time>2022-09-08T17:37:15Z</time>
      </trkpt>
      <trkpt lat="43.93381" lon="1.85423">
        <ele>236.4</ele>
        <time>2022-09-08T17:37:16Z</time>
      </trkpt>
      <trkpt lat="43.9338" lon="1.85422">
        <ele>236.6</ele>
        <time>2022-09-08T17:37:17Z</time>
      </trkpt>
      <trkpt lat="43.93379" lon="1.85421">
        <ele>237</ele>
        <time>2022-09-08T17:37:18Z</time>
      </trkpt>
      <trkpt lat="43.93376" lon="1.85419">
        <ele>237</ele>
        <time>2022-09-08T17:37:19Z</time>
      </trkpt>
      <trkpt lat="43.93376" lon="1.85419">
        <ele>237.2</ele>
        <time>2022-09-08T17:37:20Z</time>
      </trkpt>
      <trkpt lat="43.93376" lon="1.85419">
        <ele>237.4</ele>
        <time>2022-09-08T17:37:21Z</time>
      </trkpt>
      <trkpt lat="43.93374" lon="1.85418">
        <ele>237.8</ele>
        <time>2022-09-08T17:37:22Z</time>
      </trkpt>
      <trkpt lat="43.93373" lon="1.85417">
        <ele>238.2</ele>
        <time>2022-09-08T17:37:23Z</time>
      </trkpt>
      <trkpt lat="43.93371" lon="1.85416">
        <ele>238.4</ele>
        <time>2022-09-08T17:37:24Z</time>
      </trkpt>
      <trkpt lat="43.93369" lon="1.85414">
        <ele>238.8</ele>
        <time>2022-09-08T17:37:25Z</time>
      </trkpt>
      <trkpt lat="43.93369" lon="1.85414">
        <ele>238.8</ele>
        <time>2022-09-08T17:37:26Z</time>
      </trkpt>
      <trkpt lat="43.93369" lon="1.85412">
        <ele>239</ele>
        <time>2022-09-08T17:37:27Z</time>
      </trkpt>
      <trkpt lat="43.93368" lon="1.8541">
        <ele>239.2</ele>
        <time>2022-09-08T17:37:28Z</time>
      </trkpt>
      <trkpt lat="43.93367" lon="1.85407">
        <ele>239.2</ele>
        <time>2022-09-08T17:37:29Z</time>
      </trkpt>
      <trkpt lat="43.93365" lon="1.85404">
        <ele>239.2</ele>
        <time>2022-09-08T17:37:30Z</time>
      </trkpt>
      <trkpt lat="43.93365" lon="1.85401">
        <ele>239.4</ele>
        <time>2022-09-08T17:37:31Z</time>
      </trkpt>
      <trkpt lat="43.93365" lon="1.85397">
        <ele>239.4</ele>
        <time>2022-09-08T17:37:32Z</time>
      </trkpt>
      <trkpt lat="43.93365" lon="1.85395">
        <ele>239.6</ele>
        <time>2022-09-08T17:37:33Z</time>
      </trkpt>
      <trkpt lat="43.93365" lon="1.85393">
        <ele>239.6</ele>
        <time>2022-09-08T17:37:34Z</time>
      </trkpt>
      <trkpt lat="43.93366" lon="1.85393">
        <ele>239.6</ele>
        <time>2022-09-08T17:37:35Z</time>
      </trkpt>
      <trkpt lat="43.93367" lon="1.85391">
        <ele>239.8</ele>
        <time>2022-09-08T17:37:36Z</time>
      </trkpt>
      <trkpt lat="43.93368" lon="1.85389">
        <ele>239.8</ele>
        <time>2022-09-08T17:37:37Z</time>
      </trkpt>
      <trkpt lat="43.93369" lon="1.85386">
        <ele>239.8</ele>
        <time>2022-09-08T17:37:38Z</time>
      </trkpt>
      <trkpt lat="43.93369" lon="1.85384">
        <ele>240</ele>
        <time>2022-09-08T17:37:39Z</time>
      </trkpt>
      <trkpt lat="43.93369" lon="1.85384">
        <ele>240</ele>
        <time>2022-09-08T17:37:40Z</time>
      </trkpt>
      <trkpt lat="43.93369" lon="1.85382">
        <ele>240</ele>
        <time>2022-09-08T17:37:41Z</time>
      </trkpt>
      <trkpt lat="43.93369" lon="1.85381">
        <ele>240</ele>
        <time>2022-09-08T17:37:42Z</time>
      </trkpt>
      <trkpt lat="43.9337" lon="1.85379">
        <ele>243.6</ele>
        <time>2022-09-08T17:40:18Z</time>
      </trkpt>
      <trkpt lat="43.9337" lon="1.85379">
        <ele>240.6</ele>
        <time>2022-09-08T17:40:19Z</time>
      </trkpt>
      <trkpt lat="43.93371" lon="1.85379">
        <ele>240.4</ele>
        <time>2022-09-08T17:40:28Z</time>
      </trkpt>
      <trkpt lat="43.93371" lon="1.85379">
        <ele>240.4</ele>
        <time>2022-09-08T17:40:29Z</time>
      </trkpt>
      <trkpt lat="43.93371" lon="1.85379">
        <ele>240.4</ele>
        <time>2022-09-08T17:40:30Z</time>
      </trkpt>
      <trkpt lat="43.93371" lon="1.85379">
        <ele>240.4</ele>
        <time>2022-09-08T17:40:31Z</time>
      </trkpt>
      <trkpt lat="43.93371" lon="1.85379">
        <ele>240.4</ele>
        <time>2022-09-08T17:40:32Z</time>
      </trkpt>
      <trkpt lat="43.93371" lon="1.85379">
        <ele>240.6</ele>
        <time>2022-09-08T17:40:33Z</time>
      </trkpt>
      <trkpt lat="43.93371" lon="1.85379">
        <ele>240.6</ele>
        <time>2022-09-08T17:40:34Z</time>
      </trkpt>
      <trkpt lat="43.93371" lon="1.85379">
        <ele>240.8</ele>
        <time>2022-09-08T17:40:35Z</time>
      </trkpt>
      <trkpt lat="43.93371" lon="1.85379">
        <ele>240.8</ele>
        <time>2022-09-08T17:40:37Z</time>
      </trkpt>
      <trkpt lat="43.93373" lon="1.85376">
        <ele>241.6</ele>
        <time>2022-09-08T17:40:45Z</time>
      </trkpt>
      <trkpt lat="43.93373" lon="1.85376">
        <ele>241.6</ele>
        <time>2022-09-08T17:40:46Z</time>
      </trkpt>
      <trkpt lat="43.93375" lon="1.85368">
        <ele>242</ele>
        <time>2022-09-08T17:40:52Z</time>
      </trkpt>
      <trkpt lat="43.93375" lon="1.85368">
        <ele>242.2</ele>
        <time>2022-09-08T17:40:53Z</time>
      </trkpt>
      <trkpt lat="43.93375" lon="1.85368">
        <ele>242.4</ele>
        <time>2022-09-08T17:40:54Z</time>
      </trkpt>
      <trkpt lat="43.93375" lon="1.85368">
        <ele>242.4</ele>
        <time>2022-09-08T17:40:55Z</time>
      </trkpt>
      <trkpt lat="43.93375" lon="1.85368">
        <ele>242.8</ele>
        <time>2022-09-08T17:41:01Z</time>
      </trkpt>
      <trkpt lat="43.93377" lon="1.85363">
        <ele>243.2</ele>
        <time>2022-09-08T17:41:06Z</time>
      </trkpt>
      <trkpt lat="43.93378" lon="1.85361">
        <ele>244.6</ele>
        <time>2022-09-08T17:41:23Z</time>
      </trkpt>
      <trkpt lat="43.93378" lon="1.85361">
        <ele>244.4</ele>
        <time>2022-09-08T17:41:25Z</time>
      </trkpt>
      <trkpt lat="43.93379" lon="1.8536">
        <ele>245</ele>
        <time>2022-09-08T17:41:44Z</time>
      </trkpt>
      <trkpt lat="43.93379" lon="1.8536">
        <ele>245.6</ele>
        <time>2022-09-08T17:41:46Z</time>
      </trkpt>
      <trkpt lat="43.9338" lon="1.85358">
        <ele>245.6</ele>
        <time>2022-09-08T17:41:47Z</time>
      </trkpt>
      <trkpt lat="43.93381" lon="1.85356">
        <ele>246</ele>
        <time>2022-09-08T17:41:51Z</time>
      </trkpt>
      <trkpt lat="43.93388" lon="1.85344">
        <ele>246</ele>
        <time>2022-09-08T17:41:56Z</time>
      </trkpt>
      <trkpt lat="43.93392" lon="1.85335">
        <ele>246</ele>
        <time>2022-09-08T17:41:57Z</time>
      </trkpt>
      <trkpt lat="43.93394" lon="1.85331">
        <ele>246</ele>
        <time>2022-09-08T17:41:58Z</time>
      </trkpt>
      <trkpt lat="43.93396" lon="1.85327">
        <ele>246</ele>
        <time>2022-09-08T17:41:59Z</time>
      </trkpt>
      <trkpt lat="43.93398" lon="1.85323">
        <ele>246.2</ele>
        <time>2022-09-08T17:42:00Z</time>
      </trkpt>
      <trkpt lat="43.93403" lon="1.8531">
        <ele>246.4</ele>
        <time>2022-09-08T17:42:03Z</time>
      </trkpt>
      <trkpt lat="43.93404" lon="1.85308">
        <ele>246.6</ele>
        <time>2022-09-08T17:42:04Z</time>
      </trkpt>
      <trkpt lat="43.93404" lon="1.85305">
        <ele>246.6</ele>
        <time>2022-09-08T17:42:05Z</time>
      </trkpt>
      <trkpt lat="43.93404" lon="1.85303">
        <ele>247</ele>
        <time>2022-09-08T17:42:06Z</time>
      </trkpt>
      <trkpt lat="43.93404" lon="1.85303">
        <ele>247.2</ele>
        <time>2022-09-08T17:42:07Z</time>
      </trkpt>
      <trkpt lat="43.93406" lon="1.85298">
        <ele>247.6</ele>
        <time>2022-09-08T17:42:08Z</time>
      </trkpt>
      <trkpt lat="43.93406" lon="1.85297">
        <ele>247.6</ele>
        <time>2022-09-08T17:42:09Z</time>
      </trkpt>
      <trkpt lat="43.93406" lon="1.85295">
        <ele>247.8</ele>
        <time>2022-09-08T17:42:10Z</time>
      </trkpt>
      <trkpt lat="43.93408" lon="1.85291">
        <ele>248</ele>
        <time>2022-09-08T17:42:11Z</time>
      </trkpt>
      <trkpt lat="43.93408" lon="1.85291">
        <ele>248.2</ele>
        <time>2022-09-08T17:42:12Z</time>
      </trkpt>
      <trkpt lat="43.93413" lon="1.8528">
        <ele>248.8</ele>
        <time>2022-09-08T17:42:16Z</time>
      </trkpt>
      <trkpt lat="43.93413" lon="1.8528">
        <ele>249</ele>
        <time>2022-09-08T17:42:17Z</time>
      </trkpt>
      <trkpt lat="43.93414" lon="1.85278">
        <ele>249.2</ele>
        <time>2022-09-08T17:42:18Z</time>
      </trkpt>
      <trkpt lat="43.93415" lon="1.85276">
        <ele>249.4</ele>
        <time>2022-09-08T17:42:19Z</time>
      </trkpt>
      <trkpt lat="43.93416" lon="1.85276">
        <ele>249.4</ele>
        <time>2022-09-08T17:42:20Z</time>
      </trkpt>
      <trkpt lat="43.93416" lon="1.85275">
        <ele>249.4</ele>
        <time>2022-09-08T17:42:21Z</time>
      </trkpt>
      <trkpt lat="43.93417" lon="1.85274">
        <ele>249.4</ele>
        <time>2022-09-08T17:42:22Z</time>
      </trkpt>
      <trkpt lat="43.93417" lon="1.85272">
        <ele>249.6</ele>
        <time>2022-09-08T17:42:23Z</time>
      </trkpt>
      <trkpt lat="43.93417" lon="1.85271">
        <ele>249.8</ele>
        <time>2022-09-08T17:43:25Z</time>
      </trkpt>
      <trkpt lat="43.93418" lon="1.85269">
        <ele>249.8</ele>
        <time>2022-09-08T17:43:26Z</time>
      </trkpt>
      <trkpt lat="43.93422" lon="1.85263">
        <ele>249.8</ele>
        <time>2022-09-08T17:43:29Z</time>
      </trkpt>
      <trkpt lat="43.93427" lon="1.85255">
        <ele>250.2</ele>
        <time>2022-09-08T17:43:32Z</time>
      </trkpt>
      <trkpt lat="43.93433" lon="1.85243">
        <ele>250.8</ele>
        <time>2022-09-08T17:43:36Z</time>
      </trkpt>
      <trkpt lat="43.93434" lon="1.8524">
        <ele>251</ele>
        <time>2022-09-08T17:43:37Z</time>
      </trkpt>
      <trkpt lat="43.93435" lon="1.85238">
        <ele>251.2</ele>
        <time>2022-09-08T17:43:38Z</time>
      </trkpt>
      <trkpt lat="43.93436" lon="1.85234">
        <ele>251.4</ele>
        <time>2022-09-08T17:43:40Z</time>
      </trkpt>
      <trkpt lat="43.93437" lon="1.85231">
        <ele>251.4</ele>
        <time>2022-09-08T17:43:41Z</time>
      </trkpt>
      <trkpt lat="43.93438" lon="1.8523">
        <ele>251.8</ele>
        <time>2022-09-08T17:43:42Z</time>
      </trkpt>
      <trkpt lat="43.93438" lon="1.85229">
        <ele>251.8</ele>
        <time>2022-09-08T17:43:43Z</time>
      </trkpt>
      <trkpt lat="43.93439" lon="1.85227">
        <ele>252.2</ele>
        <time>2022-09-08T17:43:44Z</time>
      </trkpt>
      <trkpt lat="43.9344" lon="1.85225">
        <ele>252.4</ele>
        <time>2022-09-08T17:43:45Z</time>
      </trkpt>
      <trkpt lat="43.93441" lon="1.85224">
        <ele>252.8</ele>
        <time>2022-09-08T17:43:46Z</time>
      </trkpt>
      <trkpt lat="43.93441" lon="1.85224">
        <ele>253</ele>
        <time>2022-09-08T17:43:47Z</time>
      </trkpt>
      <trkpt lat="43.93444" lon="1.8522">
        <ele>253.4</ele>
        <time>2022-09-08T17:43:49Z</time>
      </trkpt>
      <trkpt lat="43.93446" lon="1.85217">
        <ele>253.4</ele>
        <time>2022-09-08T17:43:50Z</time>
      </trkpt>
      <trkpt lat="43.93448" lon="1.85214">
        <ele>253.6</ele>
        <time>2022-09-08T17:43:51Z</time>
      </trkpt>
      <trkpt lat="43.9345" lon="1.85211">
        <ele>253.6</ele>
        <time>2022-09-08T17:43:52Z</time>
      </trkpt>
      <trkpt lat="43.93454" lon="1.85208">
        <ele>253.8</ele>
        <time>2022-09-08T17:43:53Z</time>
      </trkpt>
      <trkpt lat="43.93459" lon="1.85205">
        <ele>253.8</ele>
        <time>2022-09-08T17:43:54Z</time>
      </trkpt>
      <trkpt lat="43.93464" lon="1.85201">
        <ele>253.8</ele>
        <time>2022-09-08T17:43:55Z</time>
      </trkpt>
      <trkpt lat="43.9347" lon="1.85194">
        <ele>253.8</ele>
        <time>2022-09-08T17:43:56Z</time>
      </trkpt>
      <trkpt lat="43.93476" lon="1.8519">
        <ele>253.8</ele>
        <time>2022-09-08T17:43:57Z</time>
      </trkpt>
      <trkpt lat="43.93483" lon="1.85184">
        <ele>253.6</ele>
        <time>2022-09-08T17:43:58Z</time>
      </trkpt>
      <trkpt lat="43.93488" lon="1.85179">
        <ele>253.2</ele>
        <time>2022-09-08T17:43:59Z</time>
      </trkpt>
      <trkpt lat="43.93492" lon="1.85175">
        <ele>252.6</ele>
        <time>2022-09-08T17:44:00Z</time>
      </trkpt>
      <trkpt lat="43.93498" lon="1.85171">
        <ele>252.2</ele>
        <time>2022-09-08T17:44:01Z</time>
      </trkpt>
      <trkpt lat="43.93502" lon="1.85169">
        <ele>251.8</ele>
        <time>2022-09-08T17:44:02Z</time>
      </trkpt>
      <trkpt lat="43.93505" lon="1.85166">
        <ele>251.6</ele>
        <time>2022-09-08T17:44:03Z</time>
      </trkpt>
      <trkpt lat="43.93509" lon="1.85163">
        <ele>251.2</ele>
        <time>2022-09-08T17:44:04Z</time>
      </trkpt>
      <trkpt lat="43.93513" lon="1.85159">
        <ele>250.8</ele>
        <time>2022-09-08T17:44:05Z</time>
      </trkpt>
      <trkpt lat="43.93518" lon="1.85155">
        <ele>250.6</ele>
        <time>2022-09-08T17:44:06Z</time>
      </trkpt>
      <trkpt lat="43.93537" lon="1.85142">
        <ele>249.8</ele>
        <time>2022-09-08T17:44:11Z</time>
      </trkpt>
      <trkpt lat="43.93548" lon="1.85139">
        <ele>249.2</ele>
        <time>2022-09-08T17:44:12Z</time>
      </trkpt>
      <trkpt lat="43.93561" lon="1.85135">
        <ele>248.6</ele>
        <time>2022-09-08T17:44:14Z</time>
      </trkpt>
      <trkpt lat="43.93568" lon="1.85133">
        <ele>248.4</ele>
        <time>2022-09-08T17:44:15Z</time>
      </trkpt>
      <trkpt lat="43.93582" lon="1.8513">
        <ele>247.8</ele>
        <time>2022-09-08T17:44:17Z</time>
      </trkpt>
      <trkpt lat="43.93588" lon="1.85131">
        <ele>247.6</ele>
        <time>2022-09-08T17:44:18Z</time>
      </trkpt>
      <trkpt lat="43.93594" lon="1.85134">
        <ele>247.4</ele>
        <time>2022-09-08T17:44:19Z</time>
      </trkpt>
      <trkpt lat="43.93598" lon="1.85136">
        <ele>247.2</ele>
        <time>2022-09-08T17:44:20Z</time>
      </trkpt>
      <trkpt lat="43.93603" lon="1.85138">
        <ele>246.8</ele>
        <time>2022-09-08T17:44:21Z</time>
      </trkpt>
      <trkpt lat="43.93608" lon="1.85141">
        <ele>246.8</ele>
        <time>2022-09-08T17:44:22Z</time>
      </trkpt>
      <trkpt lat="43.93608" lon="1.85141">
        <ele>246.6</ele>
        <time>2022-09-08T17:44:23Z</time>
      </trkpt>
      <trkpt lat="43.93615" lon="1.85146">
        <ele>246.4</ele>
        <time>2022-09-08T17:44:24Z</time>
      </trkpt>
      <trkpt lat="43.93616" lon="1.85147">
        <ele>246.4</ele>
        <time>2022-09-08T17:44:25Z</time>
      </trkpt>
      <trkpt lat="43.93618" lon="1.85148">
        <ele>246.2</ele>
        <time>2022-09-08T17:44:26Z</time>
      </trkpt>
      <trkpt lat="43.93621" lon="1.8515">
        <ele>246.2</ele>
        <time>2022-09-08T17:44:27Z</time>
      </trkpt>
      <trkpt lat="43.93623" lon="1.85152">
        <ele>246.2</ele>
        <time>2022-09-08T17:44:28Z</time>
      </trkpt>
      <trkpt lat="43.93625" lon="1.85153">
        <ele>246.2</ele>
        <time>2022-09-08T17:44:29Z</time>
      </trkpt>
      <trkpt lat="43.93628" lon="1.85154">
        <ele>246.2</ele>
        <time>2022-09-08T17:44:30Z</time>
      </trkpt>
      <trkpt lat="43.93641" lon="1.85165">
        <ele>246.4</ele>
        <time>2022-09-08T17:44:35Z</time>
      </trkpt>
      <trkpt lat="43.93644" lon="1.85167">
        <ele>246.4</ele>
        <time>2022-09-08T17:44:36Z</time>
      </trkpt>
      <trkpt lat="43.93645" lon="1.85169">
        <ele>246.6</ele>
        <time>2022-09-08T17:44:37Z</time>
      </trkpt>
      <trkpt lat="43.93648" lon="1.8517">
        <ele>246.8</ele>
        <time>2022-09-08T17:44:38Z</time>
      </trkpt>
      <trkpt lat="43.9365" lon="1.85171">
        <ele>246.8</ele>
        <time>2022-09-08T17:44:39Z</time>
      </trkpt>
      <trkpt lat="43.93652" lon="1.85175">
        <ele>247</ele>
        <time>2022-09-08T17:44:40Z</time>
      </trkpt>
      <trkpt lat="43.93655" lon="1.85184">
        <ele>247.2</ele>
        <time>2022-09-08T17:44:42Z</time>
      </trkpt>
      <trkpt lat="43.93657" lon="1.85189">
        <ele>247.2</ele>
        <time>2022-09-08T17:44:43Z</time>
      </trkpt>
      <trkpt lat="43.93658" lon="1.85193">
        <ele>247.4</ele>
        <time>2022-09-08T17:44:44Z</time>
      </trkpt>
      <trkpt lat="43.9366" lon="1.85197">
        <ele>247.4</ele>
        <time>2022-09-08T17:44:45Z</time>
      </trkpt>
      <trkpt lat="43.93664" lon="1.85211">
        <ele>247.8</ele>
        <time>2022-09-08T17:44:48Z</time>
      </trkpt>
      <trkpt lat="43.93673" lon="1.85235">
        <ele>248.2</ele>
        <time>2022-09-08T17:44:53Z</time>
      </trkpt>
      <trkpt lat="43.93679" lon="1.8525">
        <ele>248.4</ele>
        <time>2022-09-08T17:44:56Z</time>
      </trkpt>
      <trkpt lat="43.93682" lon="1.85254">
        <ele>248.4</ele>
        <time>2022-09-08T17:44:57Z</time>
      </trkpt>
      <trkpt lat="43.93685" lon="1.85258">
        <ele>248.4</ele>
        <time>2022-09-08T17:44:58Z</time>
      </trkpt>
      <trkpt lat="43.93688" lon="1.85261">
        <ele>248.4</ele>
        <time>2022-09-08T17:44:59Z</time>
      </trkpt>
      <trkpt lat="43.93692" lon="1.85264">
        <ele>248.4</ele>
        <time>2022-09-08T17:45:00Z</time>
      </trkpt>
      <trkpt lat="43.93703" lon="1.85269">
        <ele>248.8</ele>
        <time>2022-09-08T17:45:03Z</time>
      </trkpt>
      <trkpt lat="43.93706" lon="1.85269">
        <ele>249.2</ele>
        <time>2022-09-08T17:45:04Z</time>
      </trkpt>
      <trkpt lat="43.93708" lon="1.85269">
        <ele>249.6</ele>
        <time>2022-09-08T17:45:05Z</time>
      </trkpt>
      <trkpt lat="43.93709" lon="1.85269">
        <ele>249.8</ele>
        <time>2022-09-08T17:45:06Z</time>
      </trkpt>
      <trkpt lat="43.93712" lon="1.85268">
        <ele>250.2</ele>
        <time>2022-09-08T17:45:07Z</time>
      </trkpt>
      <trkpt lat="43.93715" lon="1.85266">
        <ele>250.4</ele>
        <time>2022-09-08T17:45:08Z</time>
      </trkpt>
      <trkpt lat="43.93718" lon="1.85264">
        <ele>250.8</ele>
        <time>2022-09-08T17:45:09Z</time>
      </trkpt>
      <trkpt lat="43.93724" lon="1.8526">
        <ele>251.2</ele>
        <time>2022-09-08T17:45:11Z</time>
      </trkpt>
      <trkpt lat="43.93727" lon="1.85258">
        <ele>251.4</ele>
        <time>2022-09-08T17:45:12Z</time>
      </trkpt>
      <trkpt lat="43.9373" lon="1.85256">
        <ele>251.8</ele>
        <time>2022-09-08T17:45:13Z</time>
      </trkpt>
      <trkpt lat="43.93733" lon="1.85253">
        <ele>252</ele>
        <time>2022-09-08T17:45:14Z</time>
      </trkpt>
      <trkpt lat="43.93736" lon="1.85252">
        <ele>252.2</ele>
        <time>2022-09-08T17:45:15Z</time>
      </trkpt>
      <trkpt lat="43.93739" lon="1.85251">
        <ele>252.4</ele>
        <time>2022-09-08T17:45:16Z</time>
      </trkpt>
      <trkpt lat="43.93743" lon="1.8525">
        <ele>252.4</ele>
        <time>2022-09-08T17:45:17Z</time>
      </trkpt>
      <trkpt lat="43.93746" lon="1.85249">
        <ele>252.6</ele>
        <time>2022-09-08T17:45:18Z</time>
      </trkpt>
      <trkpt lat="43.93751" lon="1.85248">
        <ele>252.6</ele>
        <time>2022-09-08T17:45:19Z</time>
      </trkpt>
      <trkpt lat="43.93755" lon="1.85247">
        <ele>252.8</ele>
        <time>2022-09-08T17:45:20Z</time>
      </trkpt>
      <trkpt lat="43.9376" lon="1.85245">
        <ele>252.8</ele>
        <time>2022-09-08T17:45:21Z</time>
      </trkpt>
      <trkpt lat="43.93763" lon="1.85244">
        <ele>253</ele>
        <time>2022-09-08T17:45:22Z</time>
      </trkpt>
      <trkpt lat="43.93767" lon="1.85244">
        <ele>253</ele>
        <time>2022-09-08T17:45:23Z</time>
      </trkpt>
      <trkpt lat="43.93771" lon="1.85244">
        <ele>253</ele>
        <time>2022-09-08T17:45:24Z</time>
      </trkpt>
      <trkpt lat="43.93776" lon="1.85243">
        <ele>253.2</ele>
        <time>2022-09-08T17:45:25Z</time>
      </trkpt>
      <trkpt lat="43.9378" lon="1.85244">
        <ele>253.2</ele>
        <time>2022-09-08T17:45:26Z</time>
      </trkpt>
      <trkpt lat="43.93785" lon="1.85244">
        <ele>253.4</ele>
        <time>2022-09-08T17:45:27Z</time>
      </trkpt>
      <trkpt lat="43.93789" lon="1.85244">
        <ele>253.4</ele>
        <time>2022-09-08T17:45:28Z</time>
      </trkpt>
      <trkpt lat="43.93794" lon="1.85245">
        <ele>253.6</ele>
        <time>2022-09-08T17:45:29Z</time>
      </trkpt>
      <trkpt lat="43.93798" lon="1.85246">
        <ele>253.8</ele>
        <time>2022-09-08T17:45:30Z</time>
      </trkpt>
      <trkpt lat="43.93803" lon="1.85246">
        <ele>253.8</ele>
        <time>2022-09-08T17:45:31Z</time>
      </trkpt>
      <trkpt lat="43.93807" lon="1.85246">
        <ele>254</ele>
        <time>2022-09-08T17:45:32Z</time>
      </trkpt>
      <trkpt lat="43.93807" lon="1.85246">
        <ele>254</ele>
        <time>2022-09-08T17:45:33Z</time>
      </trkpt>
      <trkpt lat="43.93817" lon="1.85246">
        <ele>254.2</ele>
        <time>2022-09-08T17:45:34Z</time>
      </trkpt>
      <trkpt lat="43.93821" lon="1.85245">
        <ele>254.2</ele>
        <time>2022-09-08T17:45:35Z</time>
      </trkpt>
      <trkpt lat="43.93826" lon="1.85245">
        <ele>254.2</ele>
        <time>2022-09-08T17:45:36Z</time>
      </trkpt>
      <trkpt lat="43.93829" lon="1.85245">
        <ele>254.4</ele>
        <time>2022-09-08T17:45:37Z</time>
      </trkpt>
      <trkpt lat="43.93833" lon="1.85246">
        <ele>254.4</ele>
        <time>2022-09-08T17:45:38Z</time>
      </trkpt>
      <trkpt lat="43.93836" lon="1.85246">
        <ele>254.6</ele>
        <time>2022-09-08T17:45:39Z</time>
      </trkpt>
      <trkpt lat="43.9384" lon="1.85246">
        <ele>254.6</ele>
        <time>2022-09-08T17:45:40Z</time>
      </trkpt>
      <trkpt lat="43.93843" lon="1.85247">
        <ele>254.6</ele>
        <time>2022-09-08T17:45:41Z</time>
      </trkpt>
      <trkpt lat="43.93846" lon="1.85247">
        <ele>254.6</ele>
        <time>2022-09-08T17:45:42Z</time>
      </trkpt>
      <trkpt lat="43.93849" lon="1.85248">
        <ele>254.8</ele>
        <time>2022-09-08T17:45:43Z</time>
      </trkpt>
      <trkpt lat="43.93853" lon="1.85248">
        <ele>254.8</ele>
        <time>2022-09-08T17:45:44Z</time>
      </trkpt>
      <trkpt lat="43.93856" lon="1.85249">
        <ele>255</ele>
        <time>2022-09-08T17:45:45Z</time>
      </trkpt>
      <trkpt lat="43.93859" lon="1.85249">
        <ele>255.2</ele>
        <time>2022-09-08T17:45:46Z</time>
      </trkpt>
      <trkpt lat="43.93863" lon="1.85249">
        <ele>255.4</ele>
        <time>2022-09-08T17:45:47Z</time>
      </trkpt>
      <trkpt lat="43.93867" lon="1.85248">
        <ele>255.4</ele>
        <time>2022-09-08T17:45:48Z</time>
      </trkpt>
      <trkpt lat="43.93871" lon="1.85247">
        <ele>255.6</ele>
        <time>2022-09-08T17:45:49Z</time>
      </trkpt>
      <trkpt lat="43.93871" lon="1.85247">
        <ele>256</ele>
        <time>2022-09-08T17:45:50Z</time>
      </trkpt>
      <trkpt lat="43.93877" lon="1.85243">
        <ele>256</ele>
        <time>2022-09-08T17:45:51Z</time>
      </trkpt>
      <trkpt lat="43.9388" lon="1.85241">
        <ele>256.2</ele>
        <time>2022-09-08T17:45:52Z</time>
      </trkpt>
      <trkpt lat="43.93883" lon="1.85239">
        <ele>256.4</ele>
        <time>2022-09-08T17:45:53Z</time>
      </trkpt>
      <trkpt lat="43.93886" lon="1.85236">
        <ele>256.4</ele>
        <time>2022-09-08T17:45:54Z</time>
      </trkpt>
      <trkpt lat="43.93888" lon="1.85234">
        <ele>256.6</ele>
        <time>2022-09-08T17:45:55Z</time>
      </trkpt>
      <trkpt lat="43.93891" lon="1.85232">
        <ele>256.8</ele>
        <time>2022-09-08T17:45:56Z</time>
      </trkpt>
      <trkpt lat="43.93894" lon="1.85229">
        <ele>257</ele>
        <time>2022-09-08T17:45:57Z</time>
      </trkpt>
      <trkpt lat="43.93898" lon="1.85227">
        <ele>257</ele>
        <time>2022-09-08T17:45:58Z</time>
      </trkpt>
      <trkpt lat="43.93901" lon="1.85224">
        <ele>257</ele>
        <time>2022-09-08T17:45:59Z</time>
      </trkpt>
      <trkpt lat="43.93905" lon="1.85222">
        <ele>257.2</ele>
        <time>2022-09-08T17:46:00Z</time>
      </trkpt>
      <trkpt lat="43.93909" lon="1.8522">
        <ele>257.2</ele>
        <time>2022-09-08T17:46:01Z</time>
      </trkpt>
      <trkpt lat="43.93914" lon="1.85218">
        <ele>257.2</ele>
        <time>2022-09-08T17:46:02Z</time>
      </trkpt>
      <trkpt lat="43.93917" lon="1.85216">
        <ele>257.4</ele>
        <time>2022-09-08T17:46:03Z</time>
      </trkpt>
      <trkpt lat="43.93921" lon="1.85213">
        <ele>257.4</ele>
        <time>2022-09-08T17:46:04Z</time>
      </trkpt>
      <trkpt lat="43.93924" lon="1.85212">
        <ele>257.6</ele>
        <time>2022-09-08T17:46:05Z</time>
      </trkpt>
      <trkpt lat="43.93927" lon="1.85211">
        <ele>257.6</ele>
        <time>2022-09-08T17:46:06Z</time>
      </trkpt>
      <trkpt lat="43.93927" lon="1.85211">
        <ele>257.8</ele>
        <time>2022-09-08T17:46:07Z</time>
      </trkpt>
      <trkpt lat="43.93936" lon="1.8521">
        <ele>257.8</ele>
        <time>2022-09-08T17:46:08Z</time>
      </trkpt>
      <trkpt lat="43.93941" lon="1.85211">
        <ele>258</ele>
        <time>2022-09-08T17:46:09Z</time>
      </trkpt>
      <trkpt lat="43.93946" lon="1.8521">
        <ele>258</ele>
        <time>2022-09-08T17:46:10Z</time>
      </trkpt>
      <trkpt lat="43.93951" lon="1.8521">
        <ele>258</ele>
        <time>2022-09-08T17:46:11Z</time>
      </trkpt>
      <trkpt lat="43.93955" lon="1.85209">
        <ele>258.2</ele>
        <time>2022-09-08T17:46:12Z</time>
      </trkpt>
      <trkpt lat="43.93959" lon="1.85209">
        <ele>258.2</ele>
        <time>2022-09-08T17:46:13Z</time>
      </trkpt>
      <trkpt lat="43.93963" lon="1.85208">
        <ele>258.2</ele>
        <time>2022-09-08T17:46:14Z</time>
      </trkpt>
      <trkpt lat="43.93967" lon="1.85207">
        <ele>258.4</ele>
        <time>2022-09-08T17:46:15Z</time>
      </trkpt>
      <trkpt lat="43.93971" lon="1.85207">
        <ele>258.4</ele>
        <time>2022-09-08T17:46:16Z</time>
      </trkpt>
      <trkpt lat="43.93975" lon="1.85207">
        <ele>258.4</ele>
        <time>2022-09-08T17:46:17Z</time>
      </trkpt>
      <trkpt lat="43.93978" lon="1.85206">
        <ele>258.6</ele>
        <time>2022-09-08T17:46:18Z</time>
      </trkpt>
      <trkpt lat="43.93982" lon="1.85206">
        <ele>258.6</ele>
        <time>2022-09-08T17:46:19Z</time>
      </trkpt>
      <trkpt lat="43.93985" lon="1.85204">
        <ele>258.6</ele>
        <time>2022-09-08T17:46:20Z</time>
      </trkpt>
      <trkpt lat="43.93988" lon="1.85203">
        <ele>258.6</ele>
        <time>2022-09-08T17:46:21Z</time>
      </trkpt>
      <trkpt lat="43.93991" lon="1.85201">
        <ele>258.6</ele>
        <time>2022-09-08T17:46:22Z</time>
      </trkpt>
      <trkpt lat="43.93994" lon="1.852">
        <ele>258.8</ele>
        <time>2022-09-08T17:46:23Z</time>
      </trkpt>
      <trkpt lat="43.93997" lon="1.85199">
        <ele>258.8</ele>
        <time>2022-09-08T17:46:24Z</time>
      </trkpt>
      <trkpt lat="43.94009" lon="1.85193">
        <ele>259.2</ele>
        <time>2022-09-08T17:46:28Z</time>
      </trkpt>
      <trkpt lat="43.94013" lon="1.85192">
        <ele>259.4</ele>
        <time>2022-09-08T17:46:29Z</time>
      </trkpt>
      <trkpt lat="43.94016" lon="1.85191">
        <ele>259.6</ele>
        <time>2022-09-08T17:46:30Z</time>
      </trkpt>
      <trkpt lat="43.94019" lon="1.8519">
        <ele>259.8</ele>
        <time>2022-09-08T17:46:31Z</time>
      </trkpt>
      <trkpt lat="43.94021" lon="1.85189">
        <ele>260</ele>
        <time>2022-09-08T17:46:32Z</time>
      </trkpt>
      <trkpt lat="43.94023" lon="1.8519">
        <ele>260</ele>
        <time>2022-09-08T17:46:33Z</time>
      </trkpt>
      <trkpt lat="43.94025" lon="1.8519">
        <ele>260</ele>
        <time>2022-09-08T17:46:34Z</time>
      </trkpt>
      <trkpt lat="43.94026" lon="1.8519">
        <ele>260.2</ele>
        <time>2022-09-08T17:46:35Z</time>
      </trkpt>
      <trkpt lat="43.94028" lon="1.8519">
        <ele>260.6</ele>
        <time>2022-09-08T17:46:36Z</time>
      </trkpt>
      <trkpt lat="43.9403" lon="1.8519">
        <ele>260.8</ele>
        <time>2022-09-08T17:46:37Z</time>
      </trkpt>
      <trkpt lat="43.94032" lon="1.8519">
        <ele>261.2</ele>
        <time>2022-09-08T17:46:38Z</time>
      </trkpt>
      <trkpt lat="43.94034" lon="1.85189">
        <ele>261.2</ele>
        <time>2022-09-08T17:46:39Z</time>
      </trkpt>
      <trkpt lat="43.94035" lon="1.85188">
        <ele>261.4</ele>
        <time>2022-09-08T17:46:40Z</time>
      </trkpt>
      <trkpt lat="43.94037" lon="1.85188">
        <ele>261.4</ele>
        <time>2022-09-08T17:46:41Z</time>
      </trkpt>
      <trkpt lat="43.94039" lon="1.85187">
        <ele>261.6</ele>
        <time>2022-09-08T17:46:42Z</time>
      </trkpt>
      <trkpt lat="43.9404" lon="1.85186">
        <ele>261.8</ele>
        <time>2022-09-08T17:46:43Z</time>
      </trkpt>
      <trkpt lat="43.94042" lon="1.85186">
        <ele>261.8</ele>
        <time>2022-09-08T17:46:44Z</time>
      </trkpt>
      <trkpt lat="43.94044" lon="1.85185">
        <ele>262.2</ele>
        <time>2022-09-08T17:46:45Z</time>
      </trkpt>
      <trkpt lat="43.94046" lon="1.85186">
        <ele>262.2</ele>
        <time>2022-09-08T17:46:46Z</time>
      </trkpt>
      <trkpt lat="43.94048" lon="1.85185">
        <ele>262.4</ele>
        <time>2022-09-08T17:46:47Z</time>
      </trkpt>
      <trkpt lat="43.9405" lon="1.85185">
        <ele>262.8</ele>
        <time>2022-09-08T17:46:48Z</time>
      </trkpt>
      <trkpt lat="43.94053" lon="1.85184">
        <ele>263</ele>
        <time>2022-09-08T17:46:49Z</time>
      </trkpt>
      <trkpt lat="43.94056" lon="1.85183">
        <ele>263.4</ele>
        <time>2022-09-08T17:46:50Z</time>
      </trkpt>
      <trkpt lat="43.94057" lon="1.85183">
        <ele>263.4</ele>
        <time>2022-09-08T17:46:51Z</time>
      </trkpt>
      <trkpt lat="43.94058" lon="1.85181">
        <ele>263.8</ele>
        <time>2022-09-08T17:46:52Z</time>
      </trkpt>
      <trkpt lat="43.9406" lon="1.85181">
        <ele>263.8</ele>
        <time>2022-09-08T17:46:53Z</time>
      </trkpt>
      <trkpt lat="43.94061" lon="1.85181">
        <ele>264.2</ele>
        <time>2022-09-08T17:46:54Z</time>
      </trkpt>
      <trkpt lat="43.94063" lon="1.85181">
        <ele>264.6</ele>
        <time>2022-09-08T17:46:55Z</time>
      </trkpt>
      <trkpt lat="43.94065" lon="1.85181">
        <ele>265</ele>
        <time>2022-09-08T17:46:56Z</time>
      </trkpt>
      <trkpt lat="43.94067" lon="1.8518">
        <ele>265.2</ele>
        <time>2022-09-08T17:46:57Z</time>
      </trkpt>
      <trkpt lat="43.94068" lon="1.8518">
        <ele>265.2</ele>
        <time>2022-09-08T17:46:58Z</time>
      </trkpt>
      <trkpt lat="43.9407" lon="1.8518">
        <ele>265.4</ele>
        <time>2022-09-08T17:46:59Z</time>
      </trkpt>
      <trkpt lat="43.94072" lon="1.85179">
        <ele>265.6</ele>
        <time>2022-09-08T17:47:00Z</time>
      </trkpt>
      <trkpt lat="43.94074" lon="1.85179">
        <ele>266</ele>
        <time>2022-09-08T17:47:01Z</time>
      </trkpt>
      <trkpt lat="43.94076" lon="1.85179">
        <ele>266.2</ele>
        <time>2022-09-08T17:47:02Z</time>
      </trkpt>
      <trkpt lat="43.94077" lon="1.85179">
        <ele>266.8</ele>
        <time>2022-09-08T17:47:03Z</time>
      </trkpt>
      <trkpt lat="43.94078" lon="1.85178">
        <ele>267.2</ele>
        <time>2022-09-08T17:47:04Z</time>
      </trkpt>
      <trkpt lat="43.9408" lon="1.85178">
        <ele>267.4</ele>
        <time>2022-09-08T17:47:05Z</time>
      </trkpt>
      <trkpt lat="43.94081" lon="1.85177">
        <ele>267.8</ele>
        <time>2022-09-08T17:47:06Z</time>
      </trkpt>
      <trkpt lat="43.94083" lon="1.85177">
        <ele>267.8</ele>
        <time>2022-09-08T17:47:07Z</time>
      </trkpt>
      <trkpt lat="43.94084" lon="1.85177">
        <ele>268.2</ele>
        <time>2022-09-08T17:47:08Z</time>
      </trkpt>
      <trkpt lat="43.94086" lon="1.85176">
        <ele>268.4</ele>
        <time>2022-09-08T17:47:09Z</time>
      </trkpt>
      <trkpt lat="43.94087" lon="1.85176">
        <ele>269</ele>
        <time>2022-09-08T17:47:10Z</time>
      </trkpt>
      <trkpt lat="43.94089" lon="1.85176">
        <ele>269.2</ele>
        <time>2022-09-08T17:47:11Z</time>
      </trkpt>
      <trkpt lat="43.94089" lon="1.85176">
        <ele>269.6</ele>
        <time>2022-09-08T17:47:12Z</time>
      </trkpt>
      <trkpt lat="43.94092" lon="1.85174">
        <ele>269.8</ele>
        <time>2022-09-08T17:47:13Z</time>
      </trkpt>
      <trkpt lat="43.94093" lon="1.85173">
        <ele>270</ele>
        <time>2022-09-08T17:47:14Z</time>
      </trkpt>
      <trkpt lat="43.94095" lon="1.85173">
        <ele>270.4</ele>
        <time>2022-09-08T17:47:15Z</time>
      </trkpt>
      <trkpt lat="43.94096" lon="1.85172">
        <ele>270.6</ele>
        <time>2022-09-08T17:47:16Z</time>
      </trkpt>
      <trkpt lat="43.94098" lon="1.85172">
        <ele>271</ele>
        <time>2022-09-08T17:47:17Z</time>
      </trkpt>
      <trkpt lat="43.941" lon="1.85172">
        <ele>271</ele>
        <time>2022-09-08T17:47:18Z</time>
      </trkpt>
      <trkpt lat="43.94103" lon="1.85171">
        <ele>271.2</ele>
        <time>2022-09-08T17:47:19Z</time>
      </trkpt>
      <trkpt lat="43.94106" lon="1.85171">
        <ele>271.4</ele>
        <time>2022-09-08T17:47:20Z</time>
      </trkpt>
      <trkpt lat="43.94108" lon="1.85171">
        <ele>271.6</ele>
        <time>2022-09-08T17:47:21Z</time>
      </trkpt>
      <trkpt lat="43.94111" lon="1.85171">
        <ele>271.8</ele>
        <time>2022-09-08T17:47:22Z</time>
      </trkpt>
      <trkpt lat="43.94114" lon="1.85171">
        <ele>272</ele>
        <time>2022-09-08T17:47:23Z</time>
      </trkpt>
      <trkpt lat="43.94117" lon="1.8517">
        <ele>272.2</ele>
        <time>2022-09-08T17:47:24Z</time>
      </trkpt>
      <trkpt lat="43.9412" lon="1.85169">
        <ele>272.2</ele>
        <time>2022-09-08T17:47:25Z</time>
      </trkpt>
      <trkpt lat="43.94122" lon="1.85168">
        <ele>272.4</ele>
        <time>2022-09-08T17:47:26Z</time>
      </trkpt>
      <trkpt lat="43.94122" lon="1.85168">
        <ele>272.4</ele>
        <time>2022-09-08T17:47:27Z</time>
      </trkpt>
      <trkpt lat="43.94126" lon="1.85166">
        <ele>272.4</ele>
        <time>2022-09-08T17:47:28Z</time>
      </trkpt>
      <trkpt lat="43.94128" lon="1.85165">
        <ele>272.4</ele>
        <time>2022-09-08T17:47:29Z</time>
      </trkpt>
      <trkpt lat="43.9413" lon="1.85164">
        <ele>272.4</ele>
        <time>2022-09-08T17:47:30Z</time>
      </trkpt>
      <trkpt lat="43.94131" lon="1.85163">
        <ele>272.4</ele>
        <time>2022-09-08T17:47:31Z</time>
      </trkpt>
      <trkpt lat="43.94133" lon="1.85162">
        <ele>272.4</ele>
        <time>2022-09-08T17:47:32Z</time>
      </trkpt>
      <trkpt lat="43.94133" lon="1.85161">
        <ele>272.4</ele>
        <time>2022-09-08T17:47:33Z</time>
      </trkpt>
      <trkpt lat="43.94135" lon="1.85157">
        <ele>272</ele>
        <time>2022-09-08T17:47:58Z</time>
      </trkpt>
      <trkpt lat="43.94138" lon="1.85156">
        <ele>272.2</ele>
        <time>2022-09-08T17:47:59Z</time>
      </trkpt>
      <trkpt lat="43.94151" lon="1.85152">
        <ele>272.2</ele>
        <time>2022-09-08T17:48:03Z</time>
      </trkpt>
      <trkpt lat="43.94159" lon="1.85144">
        <ele>272</ele>
        <time>2022-09-08T17:48:05Z</time>
      </trkpt>
      <trkpt lat="43.94164" lon="1.85139">
        <ele>272</ele>
        <time>2022-09-08T17:48:06Z</time>
      </trkpt>
      <trkpt lat="43.94168" lon="1.85134">
        <ele>271.8</ele>
        <time>2022-09-08T17:48:07Z</time>
      </trkpt>
      <trkpt lat="43.94173" lon="1.8513">
        <ele>271.4</ele>
        <time>2022-09-08T17:48:08Z</time>
      </trkpt>
      <trkpt lat="43.94189" lon="1.85112">
        <ele>270.8</ele>
        <time>2022-09-08T17:48:11Z</time>
      </trkpt>
      <trkpt lat="43.942" lon="1.85101">
        <ele>270.2</ele>
        <time>2022-09-08T17:48:13Z</time>
      </trkpt>
      <trkpt lat="43.94206" lon="1.85095">
        <ele>270</ele>
        <time>2022-09-08T17:48:14Z</time>
      </trkpt>
      <trkpt lat="43.94212" lon="1.8509">
        <ele>269.6</ele>
        <time>2022-09-08T17:48:15Z</time>
      </trkpt>
      <trkpt lat="43.94218" lon="1.85085">
        <ele>269.2</ele>
        <time>2022-09-08T17:48:16Z</time>
      </trkpt>
      <trkpt lat="43.94223" lon="1.85081">
        <ele>268.6</ele>
        <time>2022-09-08T17:48:17Z</time>
      </trkpt>
      <trkpt lat="43.94226" lon="1.85075">
        <ele>268.4</ele>
        <time>2022-09-08T17:48:18Z</time>
      </trkpt>
      <trkpt lat="43.94228" lon="1.85069">
        <ele>267.8</ele>
        <time>2022-09-08T17:48:19Z</time>
      </trkpt>
      <trkpt lat="43.94227" lon="1.85062">
        <ele>267.6</ele>
        <time>2022-09-08T17:48:20Z</time>
      </trkpt>
      <trkpt lat="43.94226" lon="1.85055">
        <ele>267</ele>
        <time>2022-09-08T17:48:21Z</time>
      </trkpt>
      <trkpt lat="43.94225" lon="1.85038">
        <ele>266.4</ele>
        <time>2022-09-08T17:48:23Z</time>
      </trkpt>
      <trkpt lat="43.94227" lon="1.85031">
        <ele>266</ele>
        <time>2022-09-08T17:48:24Z</time>
      </trkpt>
      <trkpt lat="43.9423" lon="1.85023">
        <ele>265.6</ele>
        <time>2022-09-08T17:48:25Z</time>
      </trkpt>
      <trkpt lat="43.94233" lon="1.85013">
        <ele>264.6</ele>
        <time>2022-09-08T17:48:26Z</time>
      </trkpt>
      <trkpt lat="43.94236" lon="1.85003">
        <ele>264.2</ele>
        <time>2022-09-08T17:48:27Z</time>
      </trkpt>
      <trkpt lat="43.94239" lon="1.84993">
        <ele>263.8</ele>
        <time>2022-09-08T17:48:28Z</time>
      </trkpt>
      <trkpt lat="43.94244" lon="1.84973">
        <ele>263.2</ele>
        <time>2022-09-08T17:48:30Z</time>
      </trkpt>
      <trkpt lat="43.94246" lon="1.84963">
        <ele>262.8</ele>
        <time>2022-09-08T17:48:31Z</time>
      </trkpt>
      <trkpt lat="43.9425" lon="1.84942">
        <ele>261.4</ele>
        <time>2022-09-08T17:48:33Z</time>
      </trkpt>
      <trkpt lat="43.94252" lon="1.84934">
        <ele>261.2</ele>
        <time>2022-09-08T17:48:34Z</time>
      </trkpt>
      <trkpt lat="43.94256" lon="1.84921">
        <ele>260.8</ele>
        <time>2022-09-08T17:48:35Z</time>
      </trkpt>
      <trkpt lat="43.94259" lon="1.8491">
        <ele>260.6</ele>
        <time>2022-09-08T17:48:36Z</time>
      </trkpt>
      <trkpt lat="43.94262" lon="1.84897">
        <ele>260.2</ele>
        <time>2022-09-08T17:48:37Z</time>
      </trkpt>
      <trkpt lat="43.94266" lon="1.84872">
        <ele>259.6</ele>
        <time>2022-09-08T17:48:39Z</time>
      </trkpt>
      <trkpt lat="43.94272" lon="1.84846">
        <ele>259</ele>
        <time>2022-09-08T17:48:41Z</time>
      </trkpt>
      <trkpt lat="43.94276" lon="1.84818">
        <ele>257.8</ele>
        <time>2022-09-08T17:48:43Z</time>
      </trkpt>
      <trkpt lat="43.94278" lon="1.84804">
        <ele>257</ele>
        <time>2022-09-08T17:48:44Z</time>
      </trkpt>
      <trkpt lat="43.9428" lon="1.8479">
        <ele>256.4</ele>
        <time>2022-09-08T17:48:45Z</time>
      </trkpt>
      <trkpt lat="43.94281" lon="1.84778">
        <ele>255</ele>
        <time>2022-09-08T17:48:46Z</time>
      </trkpt>
      <trkpt lat="43.94284" lon="1.84764">
        <ele>253.4</ele>
        <time>2022-09-08T17:48:47Z</time>
      </trkpt>
      <trkpt lat="43.94286" lon="1.84749">
        <ele>252.8</ele>
        <time>2022-09-08T17:48:48Z</time>
      </trkpt>
      <trkpt lat="43.94288" lon="1.84738">
        <ele>251.6</ele>
        <time>2022-09-08T17:48:49Z</time>
      </trkpt>
      <trkpt lat="43.94292" lon="1.84722">
        <ele>251.2</ele>
        <time>2022-09-08T17:48:50Z</time>
      </trkpt>
      <trkpt lat="43.94293" lon="1.84708">
        <ele>250.4</ele>
        <time>2022-09-08T17:48:51Z</time>
      </trkpt>
      <trkpt lat="43.94294" lon="1.84695">
        <ele>250</ele>
        <time>2022-09-08T17:48:52Z</time>
      </trkpt>
      <trkpt lat="43.94291" lon="1.84668">
        <ele>248.4</ele>
        <time>2022-09-08T17:48:54Z</time>
      </trkpt>
      <trkpt lat="43.94289" lon="1.84655">
        <ele>247.2</ele>
        <time>2022-09-08T17:48:55Z</time>
      </trkpt>
      <trkpt lat="43.94286" lon="1.84644">
        <ele>245.2</ele>
        <time>2022-09-08T17:48:56Z</time>
      </trkpt>
      <trkpt lat="43.9428" lon="1.84622">
        <ele>243.8</ele>
        <time>2022-09-08T17:48:58Z</time>
      </trkpt>
      <trkpt lat="43.94276" lon="1.846">
        <ele>242.2</ele>
        <time>2022-09-08T17:49:00Z</time>
      </trkpt>
      <trkpt lat="43.9427" lon="1.84577">
        <ele>241.4</ele>
        <time>2022-09-08T17:49:02Z</time>
      </trkpt>
      <trkpt lat="43.94267" lon="1.84566">
        <ele>240.6</ele>
        <time>2022-09-08T17:49:03Z</time>
      </trkpt>
      <trkpt lat="43.94264" lon="1.84554">
        <ele>240.4</ele>
        <time>2022-09-08T17:49:04Z</time>
      </trkpt>
      <trkpt lat="43.94263" lon="1.84543">
        <ele>239.6</ele>
        <time>2022-09-08T17:49:05Z</time>
      </trkpt>
      <trkpt lat="43.94261" lon="1.84533">
        <ele>239.2</ele>
        <time>2022-09-08T17:49:06Z</time>
      </trkpt>
      <trkpt lat="43.9426" lon="1.84523">
        <ele>238.6</ele>
        <time>2022-09-08T17:49:07Z</time>
      </trkpt>
      <trkpt lat="43.94258" lon="1.84505">
        <ele>237.8</ele>
        <time>2022-09-08T17:49:09Z</time>
      </trkpt>
      <trkpt lat="43.94257" lon="1.84495">
        <ele>237.2</ele>
        <time>2022-09-08T17:49:10Z</time>
      </trkpt>
      <trkpt lat="43.94257" lon="1.84485">
        <ele>236.8</ele>
        <time>2022-09-08T17:49:11Z</time>
      </trkpt>
      <trkpt lat="43.94258" lon="1.84476">
        <ele>236.4</ele>
        <time>2022-09-08T17:49:12Z</time>
      </trkpt>
      <trkpt lat="43.94258" lon="1.84467">
        <ele>236.2</ele>
        <time>2022-09-08T17:49:13Z</time>
      </trkpt>
      <trkpt lat="43.94258" lon="1.84458">
        <ele>236</ele>
        <time>2022-09-08T17:49:14Z</time>
      </trkpt>
      <trkpt lat="43.94258" lon="1.8445">
        <ele>236</ele>
        <time>2022-09-08T17:49:15Z</time>
      </trkpt>
      <trkpt lat="43.94258" lon="1.84441">
        <ele>235.6</ele>
        <time>2022-09-08T17:49:16Z</time>
      </trkpt>
      <trkpt lat="43.94258" lon="1.84433">
        <ele>235.2</ele>
        <time>2022-09-08T17:49:17Z</time>
      </trkpt>
      <trkpt lat="43.94258" lon="1.84425">
        <ele>234.8</ele>
        <time>2022-09-08T17:49:18Z</time>
      </trkpt>
      <trkpt lat="43.94258" lon="1.84417">
        <ele>234.2</ele>
        <time>2022-09-08T17:49:19Z</time>
      </trkpt>
      <trkpt lat="43.94261" lon="1.84395">
        <ele>233.8</ele>
        <time>2022-09-08T17:49:22Z</time>
      </trkpt>
      <trkpt lat="43.94263" lon="1.84388">
        <ele>233.4</ele>
        <time>2022-09-08T17:49:23Z</time>
      </trkpt>
      <trkpt lat="43.94265" lon="1.84381">
        <ele>233.4</ele>
        <time>2022-09-08T17:49:24Z</time>
      </trkpt>
      <trkpt lat="43.94267" lon="1.84368">
        <ele>233</ele>
        <time>2022-09-08T17:49:26Z</time>
      </trkpt>
      <trkpt lat="43.94269" lon="1.84361">
        <ele>233</ele>
        <time>2022-09-08T17:49:27Z</time>
      </trkpt>
      <trkpt lat="43.9427" lon="1.84354">
        <ele>232.8</ele>
        <time>2022-09-08T17:49:28Z</time>
      </trkpt>
      <trkpt lat="43.94271" lon="1.84347">
        <ele>232.6</ele>
        <time>2022-09-08T17:49:29Z</time>
      </trkpt>
      <trkpt lat="43.94273" lon="1.8434">
        <ele>232.2</ele>
        <time>2022-09-08T17:49:30Z</time>
      </trkpt>
      <trkpt lat="43.94274" lon="1.84333">
        <ele>232</ele>
        <time>2022-09-08T17:49:31Z</time>
      </trkpt>
      <trkpt lat="43.94277" lon="1.84311">
        <ele>231</ele>
        <time>2022-09-08T17:49:34Z</time>
      </trkpt>
      <trkpt lat="43.94278" lon="1.84295">
        <ele>230.2</ele>
        <time>2022-09-08T17:49:36Z</time>
      </trkpt>
      <trkpt lat="43.94278" lon="1.84286">
        <ele>229.8</ele>
        <time>2022-09-08T17:49:37Z</time>
      </trkpt>
      <trkpt lat="43.94277" lon="1.8426">
        <ele>229</ele>
        <time>2022-09-08T17:49:40Z</time>
      </trkpt>
      <trkpt lat="43.94276" lon="1.84251">
        <ele>228.8</ele>
        <time>2022-09-08T17:49:41Z</time>
      </trkpt>
      <trkpt lat="43.94276" lon="1.84243">
        <ele>228.4</ele>
        <time>2022-09-08T17:49:42Z</time>
      </trkpt>
      <trkpt lat="43.94275" lon="1.84236">
        <ele>228.2</ele>
        <time>2022-09-08T17:49:43Z</time>
      </trkpt>
      <trkpt lat="43.94274" lon="1.8423">
        <ele>228</ele>
        <time>2022-09-08T17:49:44Z</time>
      </trkpt>
      <trkpt lat="43.94274" lon="1.84225">
        <ele>227.8</ele>
        <time>2022-09-08T17:49:45Z</time>
      </trkpt>
      <trkpt lat="43.94274" lon="1.84222">
        <ele>227.6</ele>
        <time>2022-09-08T17:49:46Z</time>
      </trkpt>
      <trkpt lat="43.94273" lon="1.84218">
        <ele>227.4</ele>
        <time>2022-09-08T17:49:47Z</time>
      </trkpt>
      <trkpt lat="43.94273" lon="1.84214">
        <ele>227.2</ele>
        <time>2022-09-08T17:49:48Z</time>
      </trkpt>
      <trkpt lat="43.94273" lon="1.8421">
        <ele>227</ele>
        <time>2022-09-08T17:49:49Z</time>
      </trkpt>
      <trkpt lat="43.94273" lon="1.84206">
        <ele>227</ele>
        <time>2022-09-08T17:49:50Z</time>
      </trkpt>
      <trkpt lat="43.94274" lon="1.84192">
        <ele>226.6</ele>
        <time>2022-09-08T17:49:54Z</time>
      </trkpt>
      <trkpt lat="43.94274" lon="1.84189">
        <ele>226.6</ele>
        <time>2022-09-08T17:49:55Z</time>
      </trkpt>
      <trkpt lat="43.94274" lon="1.84186">
        <ele>226.6</ele>
        <time>2022-09-08T17:49:56Z</time>
      </trkpt>
      <trkpt lat="43.94275" lon="1.84183">
        <ele>226.6</ele>
        <time>2022-09-08T17:49:57Z</time>
      </trkpt>
      <trkpt lat="43.94275" lon="1.84177">
        <ele>226.6</ele>
        <time>2022-09-08T17:49:59Z</time>
      </trkpt>
      <trkpt lat="43.94276" lon="1.84174">
        <ele>226.6</ele>
        <time>2022-09-08T17:50:00Z</time>
      </trkpt>
      <trkpt lat="43.94276" lon="1.84171">
        <ele>226.6</ele>
        <time>2022-09-08T17:50:01Z</time>
      </trkpt>
      <trkpt lat="43.94277" lon="1.84169">
        <ele>226.6</ele>
        <time>2022-09-08T17:50:02Z</time>
      </trkpt>
      <trkpt lat="43.94277" lon="1.84166">
        <ele>226.6</ele>
        <time>2022-09-08T17:50:03Z</time>
      </trkpt>
      <trkpt lat="43.94278" lon="1.84163">
        <ele>226.4</ele>
        <time>2022-09-08T17:50:04Z</time>
      </trkpt>
      <trkpt lat="43.94278" lon="1.84159">
        <ele>226.4</ele>
        <time>2022-09-08T17:50:05Z</time>
      </trkpt>
      <trkpt lat="43.94279" lon="1.84156">
        <ele>226.4</ele>
        <time>2022-09-08T17:50:06Z</time>
      </trkpt>
      <trkpt lat="43.94279" lon="1.84151">
        <ele>226.2</ele>
        <time>2022-09-08T17:50:08Z</time>
      </trkpt>
      <trkpt lat="43.9428" lon="1.84148">
        <ele>226</ele>
        <time>2022-09-08T17:50:09Z</time>
      </trkpt>
      <trkpt lat="43.9428" lon="1.84146">
        <ele>226</ele>
        <time>2022-09-08T17:50:10Z</time>
      </trkpt>
      <trkpt lat="43.9428" lon="1.84143">
        <ele>226</ele>
        <time>2022-09-08T17:50:11Z</time>
      </trkpt>
      <trkpt lat="43.94281" lon="1.84141">
        <ele>225.8</ele>
        <time>2022-09-08T17:50:12Z</time>
      </trkpt>
      <trkpt lat="43.94282" lon="1.84136">
        <ele>225.8</ele>
        <time>2022-09-08T17:50:14Z</time>
      </trkpt>
      <trkpt lat="43.94282" lon="1.84132">
        <ele>225.8</ele>
        <time>2022-09-08T17:50:16Z</time>
      </trkpt>
      <trkpt lat="43.94282" lon="1.8413">
        <ele>225.8</ele>
        <time>2022-09-08T17:50:17Z</time>
      </trkpt>
      <trkpt lat="43.94282" lon="1.84129">
        <ele>225.8</ele>
        <time>2022-09-08T17:50:18Z</time>
      </trkpt>
      <trkpt lat="43.94281" lon="1.84127">
        <ele>225.8</ele>
        <time>2022-09-08T17:50:19Z</time>
      </trkpt>
      <trkpt lat="43.9428" lon="1.84126">
        <ele>225.8</ele>
        <time>2022-09-08T17:50:20Z</time>
      </trkpt>
      <trkpt lat="43.94279" lon="1.84125">
        <ele>226</ele>
        <time>2022-09-08T17:50:21Z</time>
      </trkpt>
      <trkpt lat="43.94277" lon="1.84124">
        <ele>226</ele>
        <time>2022-09-08T17:50:22Z</time>
      </trkpt>
      <trkpt lat="43.94276" lon="1.84125">
        <ele>226</ele>
        <time>2022-09-08T17:50:23Z</time>
      </trkpt>
      <trkpt lat="43.94275" lon="1.84126">
        <ele>226</ele>
        <time>2022-09-08T17:50:24Z</time>
      </trkpt>
      <trkpt lat="43.94274" lon="1.84127">
        <ele>226</ele>
        <time>2022-09-08T17:50:25Z</time>
      </trkpt>
      <trkpt lat="43.94273" lon="1.84128">
        <ele>226.2</ele>
        <time>2022-09-08T17:50:26Z</time>
      </trkpt>
      <trkpt lat="43.94269" lon="1.84134">
        <ele>227.2</ele>
        <time>2022-09-08T17:50:29Z</time>
      </trkpt>
      <trkpt lat="43.94268" lon="1.84137">
        <ele>227.4</ele>
        <time>2022-09-08T17:50:31Z</time>
      </trkpt>
      <trkpt lat="43.94269" lon="1.84139">
        <ele>227.6</ele>
        <time>2022-09-08T17:50:32Z</time>
      </trkpt>
      <trkpt lat="43.9427" lon="1.8414">
        <ele>227.6</ele>
        <time>2022-09-08T17:50:33Z</time>
      </trkpt>
      <trkpt lat="43.94272" lon="1.84141">
        <ele>227.6</ele>
        <time>2022-09-08T17:50:34Z</time>
      </trkpt>
      <trkpt lat="43.94273" lon="1.8414">
        <ele>227.8</ele>
        <time>2022-09-08T17:50:35Z</time>
      </trkpt>
      <trkpt lat="43.94274" lon="1.84139">
        <ele>227.8</ele>
        <time>2022-09-08T17:50:36Z</time>
      </trkpt>
      <trkpt lat="43.94274" lon="1.84138">
        <ele>228</ele>
        <time>2022-09-08T17:50:37Z</time>
      </trkpt>
      <trkpt lat="43.94275" lon="1.84138">
        <ele>228</ele>
        <time>2022-09-08T17:50:38Z</time>
      </trkpt>
      <trkpt lat="43.94275" lon="1.84138">
        <ele>228.2</ele>
        <time>2022-09-08T17:50:39Z</time>
      </trkpt>
      <trkpt lat="43.94275" lon="1.84138">
        <ele>228.2</ele>
        <time>2022-09-08T17:51:58Z</time>
      </trkpt>
      <trkpt lat="43.94275" lon="1.84138">
        <ele>228.2</ele>
        <time>2022-09-08T17:51:59Z</time>
      </trkpt>
      <trkpt lat="43.94272" lon="1.84137">
        <ele>228</ele>
        <time>2022-09-08T17:52:03Z</time>
      </trkpt>
      <trkpt lat="43.9427" lon="1.84137">
        <ele>228</ele>
        <time>2022-09-08T17:52:04Z</time>
      </trkpt>
      <trkpt lat="43.94267" lon="1.8414">
        <ele>228</ele>
        <time>2022-09-08T17:52:07Z</time>
      </trkpt>
      <trkpt lat="43.94265" lon="1.84142">
        <ele>228</ele>
        <time>2022-09-08T17:52:08Z</time>
      </trkpt>
      <trkpt lat="43.94264" lon="1.84143">
        <ele>228</ele>
        <time>2022-09-08T17:52:09Z</time>
      </trkpt>
      <trkpt lat="43.94262" lon="1.84144">
        <ele>228</ele>
        <time>2022-09-08T17:52:10Z</time>
      </trkpt>
      <trkpt lat="43.94259" lon="1.84147">
        <ele>228</ele>
        <time>2022-09-08T17:52:12Z</time>
      </trkpt>
      <trkpt lat="43.94253" lon="1.84154">
        <ele>228.2</ele>
        <time>2022-09-08T17:52:16Z</time>
      </trkpt>
      <trkpt lat="43.94252" lon="1.84157">
        <ele>228.4</ele>
        <time>2022-09-08T17:52:17Z</time>
      </trkpt>
      <trkpt lat="43.9424" lon="1.84166">
        <ele>229</ele>
        <time>2022-09-08T17:52:22Z</time>
      </trkpt>
      <trkpt lat="43.94234" lon="1.84169">
        <ele>229.2</ele>
        <time>2022-09-08T17:52:24Z</time>
      </trkpt>
      <trkpt lat="43.94231" lon="1.8417">
        <ele>229.4</ele>
        <time>2022-09-08T17:52:25Z</time>
      </trkpt>
      <trkpt lat="43.94219" lon="1.84174">
        <ele>230.4</ele>
        <time>2022-09-08T17:52:29Z</time>
      </trkpt>
      <trkpt lat="43.94216" lon="1.84175">
        <ele>230.8</ele>
        <time>2022-09-08T17:52:30Z</time>
      </trkpt>
      <trkpt lat="43.94207" lon="1.84178">
        <ele>231.4</ele>
        <time>2022-09-08T17:52:33Z</time>
      </trkpt>
      <trkpt lat="43.94204" lon="1.84179">
        <ele>231.8</ele>
        <time>2022-09-08T17:52:34Z</time>
      </trkpt>
      <trkpt lat="43.94201" lon="1.84179">
        <ele>232</ele>
        <time>2022-09-08T17:52:35Z</time>
      </trkpt>
      <trkpt lat="43.94198" lon="1.8418">
        <ele>232.2</ele>
        <time>2022-09-08T17:52:36Z</time>
      </trkpt>
      <trkpt lat="43.94196" lon="1.84182">
        <ele>232.4</ele>
        <time>2022-09-08T17:52:37Z</time>
      </trkpt>
      <trkpt lat="43.94192" lon="1.84182">
        <ele>232.4</ele>
        <time>2022-09-08T17:52:38Z</time>
      </trkpt>
      <trkpt lat="43.94189" lon="1.84182">
        <ele>232.6</ele>
        <time>2022-09-08T17:52:39Z</time>
      </trkpt>
      <trkpt lat="43.94187" lon="1.84183">
        <ele>232.8</ele>
        <time>2022-09-08T17:52:40Z</time>
      </trkpt>
      <trkpt lat="43.94184" lon="1.84184">
        <ele>233</ele>
        <time>2022-09-08T17:52:41Z</time>
      </trkpt>
      <trkpt lat="43.94183" lon="1.84185">
        <ele>233.4</ele>
        <time>2022-09-08T17:52:42Z</time>
      </trkpt>
      <trkpt lat="43.94181" lon="1.84185">
        <ele>233.6</ele>
        <time>2022-09-08T17:52:43Z</time>
      </trkpt>
      <trkpt lat="43.94179" lon="1.84186">
        <ele>233.8</ele>
        <time>2022-09-08T17:52:44Z</time>
      </trkpt>
      <trkpt lat="43.94177" lon="1.84187">
        <ele>234.2</ele>
        <time>2022-09-08T17:52:45Z</time>
      </trkpt>
      <trkpt lat="43.94175" lon="1.84187">
        <ele>234.4</ele>
        <time>2022-09-08T17:52:46Z</time>
      </trkpt>
      <trkpt lat="43.94174" lon="1.84188">
        <ele>234.6</ele>
        <time>2022-09-08T17:52:47Z</time>
      </trkpt>
      <trkpt lat="43.94172" lon="1.84189">
        <ele>234.8</ele>
        <time>2022-09-08T17:52:48Z</time>
      </trkpt>
      <trkpt lat="43.9417" lon="1.84189">
        <ele>235</ele>
        <time>2022-09-08T17:52:49Z</time>
      </trkpt>
      <trkpt lat="43.94168" lon="1.8419">
        <ele>235.4</ele>
        <time>2022-09-08T17:52:50Z</time>
      </trkpt>
      <trkpt lat="43.94167" lon="1.8419">
        <ele>235.4</ele>
        <time>2022-09-08T17:52:51Z</time>
      </trkpt>
      <trkpt lat="43.94165" lon="1.84191">
        <ele>235.6</ele>
        <time>2022-09-08T17:52:52Z</time>
      </trkpt>
      <trkpt lat="43.94164" lon="1.84192">
        <ele>235.6</ele>
        <time>2022-09-08T17:52:53Z</time>
      </trkpt>
      <trkpt lat="43.94162" lon="1.84192">
        <ele>236</ele>
        <time>2022-09-08T17:52:54Z</time>
      </trkpt>
      <trkpt lat="43.9416" lon="1.84193">
        <ele>236</ele>
        <time>2022-09-08T17:52:55Z</time>
      </trkpt>
      <trkpt lat="43.94159" lon="1.84193">
        <ele>236.4</ele>
        <time>2022-09-08T17:52:56Z</time>
      </trkpt>
      <trkpt lat="43.94158" lon="1.84194">
        <ele>236.6</ele>
        <time>2022-09-08T17:52:57Z</time>
      </trkpt>
      <trkpt lat="43.94156" lon="1.84194">
        <ele>236.6</ele>
        <time>2022-09-08T17:52:58Z</time>
      </trkpt>
      <trkpt lat="43.94155" lon="1.84195">
        <ele>237</ele>
        <time>2022-09-08T17:52:59Z</time>
      </trkpt>
      <trkpt lat="43.94154" lon="1.84196">
        <ele>237</ele>
        <time>2022-09-08T17:53:00Z</time>
      </trkpt>
      <trkpt lat="43.94153" lon="1.84197">
        <ele>237.4</ele>
        <time>2022-09-08T17:53:01Z</time>
      </trkpt>
      <trkpt lat="43.94152" lon="1.84197">
        <ele>237.4</ele>
        <time>2022-09-08T17:53:02Z</time>
      </trkpt>
      <trkpt lat="43.94151" lon="1.84197">
        <ele>237.4</ele>
        <time>2022-09-08T17:53:03Z</time>
      </trkpt>
      <trkpt lat="43.9415" lon="1.84197">
        <ele>237.6</ele>
        <time>2022-09-08T17:53:04Z</time>
      </trkpt>
      <trkpt lat="43.94149" lon="1.84197">
        <ele>237.8</ele>
        <time>2022-09-08T17:53:05Z</time>
      </trkpt>
      <trkpt lat="43.94148" lon="1.84197">
        <ele>238</ele>
        <time>2022-09-08T17:53:06Z</time>
      </trkpt>
      <trkpt lat="43.94146" lon="1.84197">
        <ele>238</ele>
        <time>2022-09-08T17:53:07Z</time>
      </trkpt>
      <trkpt lat="43.94144" lon="1.84197">
        <ele>238</ele>
        <time>2022-09-08T17:53:08Z</time>
      </trkpt>
      <trkpt lat="43.94143" lon="1.84198">
        <ele>238.2</ele>
        <time>2022-09-08T17:53:09Z</time>
      </trkpt>
      <trkpt lat="43.94142" lon="1.84198">
        <ele>238.2</ele>
        <time>2022-09-08T17:53:10Z</time>
      </trkpt>
      <trkpt lat="43.9414" lon="1.84198">
        <ele>238.2</ele>
        <time>2022-09-08T17:53:11Z</time>
      </trkpt>
      <trkpt lat="43.94139" lon="1.84199">
        <ele>238.4</ele>
        <time>2022-09-08T17:53:12Z</time>
      </trkpt>
      <trkpt lat="43.94138" lon="1.84199">
        <ele>238.6</ele>
        <time>2022-09-08T17:53:13Z</time>
      </trkpt>
      <trkpt lat="43.94136" lon="1.84199">
        <ele>238.8</ele>
        <time>2022-09-08T17:53:14Z</time>
      </trkpt>
      <trkpt lat="43.94136" lon="1.84199">
        <ele>238.8</ele>
        <time>2022-09-08T17:53:15Z</time>
      </trkpt>
      <trkpt lat="43.94135" lon="1.84199">
        <ele>239</ele>
        <time>2022-09-08T17:53:16Z</time>
      </trkpt>
      <trkpt lat="43.94134" lon="1.842">
        <ele>239</ele>
        <time>2022-09-08T17:53:17Z</time>
      </trkpt>
      <trkpt lat="43.94133" lon="1.842">
        <ele>239.2</ele>
        <time>2022-09-08T17:53:18Z</time>
      </trkpt>
      <trkpt lat="43.94131" lon="1.84201">
        <ele>239.2</ele>
        <time>2022-09-08T17:53:19Z</time>
      </trkpt>
      <trkpt lat="43.9413" lon="1.84201">
        <ele>239.4</ele>
        <time>2022-09-08T17:53:20Z</time>
      </trkpt>
      <trkpt lat="43.94129" lon="1.84202">
        <ele>239.4</ele>
        <time>2022-09-08T17:53:21Z</time>
      </trkpt>
      <trkpt lat="43.94128" lon="1.84202">
        <ele>239.6</ele>
        <time>2022-09-08T17:53:22Z</time>
      </trkpt>
      <trkpt lat="43.94127" lon="1.84203">
        <ele>239.6</ele>
        <time>2022-09-08T17:53:23Z</time>
      </trkpt>
      <trkpt lat="43.94126" lon="1.84203">
        <ele>239.8</ele>
        <time>2022-09-08T17:53:24Z</time>
      </trkpt>
      <trkpt lat="43.94125" lon="1.84204">
        <ele>240</ele>
        <time>2022-09-08T17:53:25Z</time>
      </trkpt>
      <trkpt lat="43.94124" lon="1.84204">
        <ele>240.4</ele>
        <time>2022-09-08T17:53:26Z</time>
      </trkpt>
      <trkpt lat="43.94122" lon="1.84205">
        <ele>240.4</ele>
        <time>2022-09-08T17:53:27Z</time>
      </trkpt>
      <trkpt lat="43.94121" lon="1.84205">
        <ele>240.6</ele>
        <time>2022-09-08T17:53:28Z</time>
      </trkpt>
      <trkpt lat="43.9412" lon="1.84206">
        <ele>240.8</ele>
        <time>2022-09-08T17:53:29Z</time>
      </trkpt>
      <trkpt lat="43.94119" lon="1.84206">
        <ele>240.8</ele>
        <time>2022-09-08T17:53:30Z</time>
      </trkpt>
      <trkpt lat="43.94117" lon="1.84206">
        <ele>241</ele>
        <time>2022-09-08T17:53:31Z</time>
      </trkpt>
      <trkpt lat="43.94116" lon="1.84206">
        <ele>241</ele>
        <time>2022-09-08T17:53:32Z</time>
      </trkpt>
      <trkpt lat="43.94115" lon="1.84207">
        <ele>241.2</ele>
        <time>2022-09-08T17:53:33Z</time>
      </trkpt>
      <trkpt lat="43.94114" lon="1.84207">
        <ele>241.2</ele>
        <time>2022-09-08T17:53:34Z</time>
      </trkpt>
      <trkpt lat="43.94113" lon="1.84208">
        <ele>241.4</ele>
        <time>2022-09-08T17:53:35Z</time>
      </trkpt>
      <trkpt lat="43.94111" lon="1.84208">
        <ele>241.8</ele>
        <time>2022-09-08T17:53:36Z</time>
      </trkpt>
      <trkpt lat="43.9411" lon="1.84209">
        <ele>241.8</ele>
        <time>2022-09-08T17:53:37Z</time>
      </trkpt>
      <trkpt lat="43.94108" lon="1.8421">
        <ele>242</ele>
        <time>2022-09-08T17:53:38Z</time>
      </trkpt>
      <trkpt lat="43.94107" lon="1.8421">
        <ele>242.2</ele>
        <time>2022-09-08T17:53:39Z</time>
      </trkpt>
      <trkpt lat="43.94105" lon="1.84211">
        <ele>242.4</ele>
        <time>2022-09-08T17:53:40Z</time>
      </trkpt>
      <trkpt lat="43.94104" lon="1.84212">
        <ele>242.4</ele>
        <time>2022-09-08T17:53:41Z</time>
      </trkpt>
      <trkpt lat="43.94102" lon="1.84212">
        <ele>242.8</ele>
        <time>2022-09-08T17:53:42Z</time>
      </trkpt>
      <trkpt lat="43.94101" lon="1.84212">
        <ele>242.8</ele>
        <time>2022-09-08T17:53:43Z</time>
      </trkpt>
      <trkpt lat="43.941" lon="1.84212">
        <ele>243.2</ele>
        <time>2022-09-08T17:53:44Z</time>
      </trkpt>
      <trkpt lat="43.94099" lon="1.84212">
        <ele>243.6</ele>
        <time>2022-09-08T17:53:45Z</time>
      </trkpt>
      <trkpt lat="43.94098" lon="1.84212">
        <ele>243.8</ele>
        <time>2022-09-08T17:53:46Z</time>
      </trkpt>
      <trkpt lat="43.94098" lon="1.84213">
        <ele>244</ele>
        <time>2022-09-08T17:53:47Z</time>
      </trkpt>
      <trkpt lat="43.94097" lon="1.84214">
        <ele>244.2</ele>
        <time>2022-09-08T17:53:48Z</time>
      </trkpt>
      <trkpt lat="43.94095" lon="1.84215">
        <ele>244.2</ele>
        <time>2022-09-08T17:53:49Z</time>
      </trkpt>
      <trkpt lat="43.94094" lon="1.84215">
        <ele>244.2</ele>
        <time>2022-09-08T17:53:50Z</time>
      </trkpt>
      <trkpt lat="43.94093" lon="1.84216">
        <ele>244.4</ele>
        <time>2022-09-08T17:53:51Z</time>
      </trkpt>
      <trkpt lat="43.94092" lon="1.84216">
        <ele>244.6</ele>
        <time>2022-09-08T17:53:52Z</time>
      </trkpt>
      <trkpt lat="43.94091" lon="1.84217">
        <ele>244.8</ele>
        <time>2022-09-08T17:53:53Z</time>
      </trkpt>
      <trkpt lat="43.9409" lon="1.84217">
        <ele>245.2</ele>
        <time>2022-09-08T17:53:54Z</time>
      </trkpt>
      <trkpt lat="43.94089" lon="1.84218">
        <ele>245.4</ele>
        <time>2022-09-08T17:53:55Z</time>
      </trkpt>
      <trkpt lat="43.94089" lon="1.84219">
        <ele>245.8</ele>
        <time>2022-09-08T17:53:56Z</time>
      </trkpt>
      <trkpt lat="43.94088" lon="1.84219">
        <ele>245.8</ele>
        <time>2022-09-08T17:53:57Z</time>
      </trkpt>
      <trkpt lat="43.94086" lon="1.8422">
        <ele>246.2</ele>
        <time>2022-09-08T17:53:58Z</time>
      </trkpt>
      <trkpt lat="43.94085" lon="1.8422">
        <ele>246.4</ele>
        <time>2022-09-08T17:53:59Z</time>
      </trkpt>
      <trkpt lat="43.94084" lon="1.84221">
        <ele>246.6</ele>
        <time>2022-09-08T17:54:00Z</time>
      </trkpt>
      <trkpt lat="43.94082" lon="1.84221">
        <ele>246.6</ele>
        <time>2022-09-08T17:54:01Z</time>
      </trkpt>
      <trkpt lat="43.94081" lon="1.84221">
        <ele>246.8</ele>
        <time>2022-09-08T17:54:02Z</time>
      </trkpt>
      <trkpt lat="43.9408" lon="1.84221">
        <ele>246.8</ele>
        <time>2022-09-08T17:54:03Z</time>
      </trkpt>
      <trkpt lat="43.94079" lon="1.84222">
        <ele>247</ele>
        <time>2022-09-08T17:54:04Z</time>
      </trkpt>
      <trkpt lat="43.94078" lon="1.84222">
        <ele>247.4</ele>
        <time>2022-09-08T17:54:05Z</time>
      </trkpt>
      <trkpt lat="43.94077" lon="1.84222">
        <ele>247.8</ele>
        <time>2022-09-08T17:54:06Z</time>
      </trkpt>
      <trkpt lat="43.94075" lon="1.84223">
        <ele>248</ele>
        <time>2022-09-08T17:54:07Z</time>
      </trkpt>
      <trkpt lat="43.94074" lon="1.84223">
        <ele>248.2</ele>
        <time>2022-09-08T17:54:08Z</time>
      </trkpt>
      <trkpt lat="43.94072" lon="1.84223">
        <ele>248.4</ele>
        <time>2022-09-08T17:54:09Z</time>
      </trkpt>
      <trkpt lat="43.94071" lon="1.84223">
        <ele>248.8</ele>
        <time>2022-09-08T17:54:10Z</time>
      </trkpt>
      <trkpt lat="43.9407" lon="1.84224">
        <ele>249</ele>
        <time>2022-09-08T17:54:11Z</time>
      </trkpt>
      <trkpt lat="43.94068" lon="1.84224">
        <ele>249.2</ele>
        <time>2022-09-08T17:54:12Z</time>
      </trkpt>
      <trkpt lat="43.94066" lon="1.84224">
        <ele>249.4</ele>
        <time>2022-09-08T17:54:13Z</time>
      </trkpt>
      <trkpt lat="43.94065" lon="1.84224">
        <ele>249.6</ele>
        <time>2022-09-08T17:54:14Z</time>
      </trkpt>
      <trkpt lat="43.94063" lon="1.84225">
        <ele>249.6</ele>
        <time>2022-09-08T17:54:15Z</time>
      </trkpt>
      <trkpt lat="43.94061" lon="1.84225">
        <ele>250</ele>
        <time>2022-09-08T17:54:16Z</time>
      </trkpt>
      <trkpt lat="43.9406" lon="1.84226">
        <ele>250.4</ele>
        <time>2022-09-08T17:54:17Z</time>
      </trkpt>
      <trkpt lat="43.94058" lon="1.84227">
        <ele>250.4</ele>
        <time>2022-09-08T17:54:18Z</time>
      </trkpt>
      <trkpt lat="43.94056" lon="1.84228">
        <ele>250.8</ele>
        <time>2022-09-08T17:54:19Z</time>
      </trkpt>
      <trkpt lat="43.94055" lon="1.84229">
        <ele>250.8</ele>
        <time>2022-09-08T17:54:20Z</time>
      </trkpt>
      <trkpt lat="43.94054" lon="1.8423">
        <ele>251</ele>
        <time>2022-09-08T17:54:21Z</time>
      </trkpt>
      <trkpt lat="43.94053" lon="1.84231">
        <ele>251</ele>
        <time>2022-09-08T17:54:22Z</time>
      </trkpt>
      <trkpt lat="43.94051" lon="1.84232">
        <ele>251.4</ele>
        <time>2022-09-08T17:54:23Z</time>
      </trkpt>
      <trkpt lat="43.94049" lon="1.84233">
        <ele>251.6</ele>
        <time>2022-09-08T17:54:24Z</time>
      </trkpt>
      <trkpt lat="43.94048" lon="1.84233">
        <ele>251.8</ele>
        <time>2022-09-08T17:54:25Z</time>
      </trkpt>
      <trkpt lat="43.94048" lon="1.84234">
        <ele>252</ele>
        <time>2022-09-08T17:54:26Z</time>
      </trkpt>
      <trkpt lat="43.94047" lon="1.84235">
        <ele>252</ele>
        <time>2022-09-08T17:54:27Z</time>
      </trkpt>
      <trkpt lat="43.94046" lon="1.84235">
        <ele>252.2</ele>
        <time>2022-09-08T17:54:28Z</time>
      </trkpt>
      <trkpt lat="43.94045" lon="1.84236">
        <ele>252.4</ele>
        <time>2022-09-08T17:54:29Z</time>
      </trkpt>
      <trkpt lat="43.94044" lon="1.84236">
        <ele>252.6</ele>
        <time>2022-09-08T17:54:30Z</time>
      </trkpt>
      <trkpt lat="43.94043" lon="1.84236">
        <ele>252.6</ele>
        <time>2022-09-08T17:54:31Z</time>
      </trkpt>
      <trkpt lat="43.94041" lon="1.84237">
        <ele>252.8</ele>
        <time>2022-09-08T17:54:32Z</time>
      </trkpt>
      <trkpt lat="43.9404" lon="1.84237">
        <ele>253</ele>
        <time>2022-09-08T17:54:33Z</time>
      </trkpt>
      <trkpt lat="43.9404" lon="1.84237">
        <ele>253</ele>
        <time>2022-09-08T17:54:34Z</time>
      </trkpt>
      <trkpt lat="43.94038" lon="1.84238">
        <ele>253.4</ele>
        <time>2022-09-08T17:54:35Z</time>
      </trkpt>
      <trkpt lat="43.94037" lon="1.84238">
        <ele>253.6</ele>
        <time>2022-09-08T17:54:36Z</time>
      </trkpt>
      <trkpt lat="43.94036" lon="1.84239">
        <ele>253.8</ele>
        <time>2022-09-08T17:54:37Z</time>
      </trkpt>
      <trkpt lat="43.94035" lon="1.84239">
        <ele>253.8</ele>
        <time>2022-09-08T17:54:38Z</time>
      </trkpt>
      <trkpt lat="43.94035" lon="1.84239">
        <ele>254</ele>
        <time>2022-09-08T17:54:39Z</time>
      </trkpt>
      <trkpt lat="43.94034" lon="1.8424">
        <ele>254.2</ele>
        <time>2022-09-08T17:54:40Z</time>
      </trkpt>
      <trkpt lat="43.94032" lon="1.84241">
        <ele>254.4</ele>
        <time>2022-09-08T17:54:41Z</time>
      </trkpt>
      <trkpt lat="43.94031" lon="1.84242">
        <ele>254.6</ele>
        <time>2022-09-08T17:54:42Z</time>
      </trkpt>
      <trkpt lat="43.9403" lon="1.84242">
        <ele>254.4</ele>
        <time>2022-09-08T17:54:43Z</time>
      </trkpt>
      <trkpt lat="43.94029" lon="1.84242">
        <ele>254.6</ele>
        <time>2022-09-08T17:54:44Z</time>
      </trkpt>
      <trkpt lat="43.94029" lon="1.84242">
        <ele>254.8</ele>
        <time>2022-09-08T17:54:45Z</time>
      </trkpt>
      <trkpt lat="43.94028" lon="1.84242">
        <ele>255.2</ele>
        <time>2022-09-08T17:54:46Z</time>
      </trkpt>
      <trkpt lat="43.94027" lon="1.84243">
        <ele>255.4</ele>
        <time>2022-09-08T17:54:47Z</time>
      </trkpt>
      <trkpt lat="43.94027" lon="1.84243">
        <ele>255.6</ele>
        <time>2022-09-08T17:54:48Z</time>
      </trkpt>
      <trkpt lat="43.94027" lon="1.84243">
        <ele>255.8</ele>
        <time>2022-09-08T17:54:49Z</time>
      </trkpt>
      <trkpt lat="43.94027" lon="1.84243">
        <ele>256</ele>
        <time>2022-09-08T17:54:50Z</time>
      </trkpt>
      <trkpt lat="43.94027" lon="1.84243">
        <ele>256</ele>
        <time>2022-09-08T17:54:51Z</time>
      </trkpt>
      <trkpt lat="43.94026" lon="1.84245">
        <ele>256.2</ele>
        <time>2022-09-08T17:54:52Z</time>
      </trkpt>
      <trkpt lat="43.94025" lon="1.84246">
        <ele>256.4</ele>
        <time>2022-09-08T17:54:53Z</time>
      </trkpt>
      <trkpt lat="43.94023" lon="1.84249">
        <ele>256.4</ele>
        <time>2022-09-08T17:54:54Z</time>
      </trkpt>
      <trkpt lat="43.94022" lon="1.84249">
        <ele>256.8</ele>
        <time>2022-09-08T17:54:55Z</time>
      </trkpt>
      <trkpt lat="43.94021" lon="1.84251">
        <ele>256.8</ele>
        <time>2022-09-08T17:54:56Z</time>
      </trkpt>
      <trkpt lat="43.9402" lon="1.84253">
        <ele>257</ele>
        <time>2022-09-08T17:54:57Z</time>
      </trkpt>
      <trkpt lat="43.94019" lon="1.84255">
        <ele>257.2</ele>
        <time>2022-09-08T17:54:58Z</time>
      </trkpt>
      <trkpt lat="43.94017" lon="1.84257">
        <ele>257.2</ele>
        <time>2022-09-08T17:54:59Z</time>
      </trkpt>
      <trkpt lat="43.94016" lon="1.84258">
        <ele>257.4</ele>
        <time>2022-09-08T17:55:00Z</time>
      </trkpt>
      <trkpt lat="43.94015" lon="1.8426">
        <ele>257.4</ele>
        <time>2022-09-08T17:55:01Z</time>
      </trkpt>
      <trkpt lat="43.94013" lon="1.84262">
        <ele>257.6</ele>
        <time>2022-09-08T17:55:02Z</time>
      </trkpt>
      <trkpt lat="43.94013" lon="1.84262">
        <ele>257.8</ele>
        <time>2022-09-08T17:55:03Z</time>
      </trkpt>
      <trkpt lat="43.94013" lon="1.84263">
        <ele>258</ele>
        <time>2022-09-08T17:55:04Z</time>
      </trkpt>
      <trkpt lat="43.94011" lon="1.84267">
        <ele>258.2</ele>
        <time>2022-09-08T17:55:05Z</time>
      </trkpt>
      <trkpt lat="43.94009" lon="1.84269">
        <ele>258.4</ele>
        <time>2022-09-08T17:55:06Z</time>
      </trkpt>
      <trkpt lat="43.94008" lon="1.84271">
        <ele>258.4</ele>
        <time>2022-09-08T17:55:07Z</time>
      </trkpt>
      <trkpt lat="43.94006" lon="1.84272">
        <ele>258.4</ele>
        <time>2022-09-08T17:55:08Z</time>
      </trkpt>
      <trkpt lat="43.94005" lon="1.84275">
        <ele>258.6</ele>
        <time>2022-09-08T17:55:09Z</time>
      </trkpt>
      <trkpt lat="43.94004" lon="1.84277">
        <ele>258.6</ele>
        <time>2022-09-08T17:55:10Z</time>
      </trkpt>
      <trkpt lat="43.94002" lon="1.84278">
        <ele>258.8</ele>
        <time>2022-09-08T17:55:11Z</time>
      </trkpt>
      <trkpt lat="43.94" lon="1.84279">
        <ele>259</ele>
        <time>2022-09-08T17:55:12Z</time>
      </trkpt>
      <trkpt lat="43.93999" lon="1.84282">
        <ele>259</ele>
        <time>2022-09-08T17:55:13Z</time>
      </trkpt>
      <trkpt lat="43.93998" lon="1.84285">
        <ele>259.4</ele>
        <time>2022-09-08T17:55:14Z</time>
      </trkpt>
      <trkpt lat="43.93997" lon="1.84287">
        <ele>259.4</ele>
        <time>2022-09-08T17:55:15Z</time>
      </trkpt>
      <trkpt lat="43.93996" lon="1.84289">
        <ele>259.6</ele>
        <time>2022-09-08T17:55:16Z</time>
      </trkpt>
      <trkpt lat="43.93994" lon="1.84292">
        <ele>259.8</ele>
        <time>2022-09-08T17:55:17Z</time>
      </trkpt>
      <trkpt lat="43.93994" lon="1.84292">
        <ele>260</ele>
        <time>2022-09-08T17:55:18Z</time>
      </trkpt>
      <trkpt lat="43.93994" lon="1.84292">
        <ele>260.2</ele>
        <time>2022-09-08T17:55:19Z</time>
      </trkpt>
      <trkpt lat="43.93993" lon="1.84294">
        <ele>260.2</ele>
        <time>2022-09-08T17:55:20Z</time>
      </trkpt>
      <trkpt lat="43.93993" lon="1.84294">
        <ele>260.2</ele>
        <time>2022-09-08T17:55:21Z</time>
      </trkpt>
      <trkpt lat="43.93992" lon="1.84294">
        <ele>260.4</ele>
        <time>2022-09-08T17:55:22Z</time>
      </trkpt>
      <trkpt lat="43.93992" lon="1.84296">
        <ele>260.6</ele>
        <time>2022-09-08T17:55:23Z</time>
      </trkpt>
      <trkpt lat="43.9399" lon="1.84298">
        <ele>260.6</ele>
        <time>2022-09-08T17:55:24Z</time>
      </trkpt>
      <trkpt lat="43.9399" lon="1.843">
        <ele>260.8</ele>
        <time>2022-09-08T17:55:25Z</time>
      </trkpt>
      <trkpt lat="43.93988" lon="1.84301">
        <ele>260.8</ele>
        <time>2022-09-08T17:55:26Z</time>
      </trkpt>
      <trkpt lat="43.93988" lon="1.84302">
        <ele>261.2</ele>
        <time>2022-09-08T17:55:27Z</time>
      </trkpt>
      <trkpt lat="43.93987" lon="1.84303">
        <ele>261.6</ele>
        <time>2022-09-08T17:55:28Z</time>
      </trkpt>
      <trkpt lat="43.93985" lon="1.84305">
        <ele>261.8</ele>
        <time>2022-09-08T17:55:29Z</time>
      </trkpt>
      <trkpt lat="43.93984" lon="1.84306">
        <ele>262.2</ele>
        <time>2022-09-08T17:55:30Z</time>
      </trkpt>
      <trkpt lat="43.93982" lon="1.84307">
        <ele>262.4</ele>
        <time>2022-09-08T17:55:31Z</time>
      </trkpt>
      <trkpt lat="43.93981" lon="1.8431">
        <ele>262.6</ele>
        <time>2022-09-08T17:55:32Z</time>
      </trkpt>
      <trkpt lat="43.93979" lon="1.84312">
        <ele>262.8</ele>
        <time>2022-09-08T17:55:33Z</time>
      </trkpt>
      <trkpt lat="43.93978" lon="1.84313">
        <ele>263.2</ele>
        <time>2022-09-08T17:55:34Z</time>
      </trkpt>
      <trkpt lat="43.93978" lon="1.84314">
        <ele>263.4</ele>
        <time>2022-09-08T17:55:35Z</time>
      </trkpt>
      <trkpt lat="43.93978" lon="1.84315">
        <ele>263.6</ele>
        <time>2022-09-08T17:55:36Z</time>
      </trkpt>
      <trkpt lat="43.93978" lon="1.84315">
        <ele>263.8</ele>
        <time>2022-09-08T17:55:37Z</time>
      </trkpt>
      <trkpt lat="43.93978" lon="1.84316">
        <ele>264</ele>
        <time>2022-09-08T17:55:38Z</time>
      </trkpt>
      <trkpt lat="43.93977" lon="1.84316">
        <ele>264.4</ele>
        <time>2022-09-08T17:55:39Z</time>
      </trkpt>
      <trkpt lat="43.93976" lon="1.84317">
        <ele>264.6</ele>
        <time>2022-09-08T17:55:40Z</time>
      </trkpt>
      <trkpt lat="43.93976" lon="1.84318">
        <ele>264.8</ele>
        <time>2022-09-08T17:55:41Z</time>
      </trkpt>
      <trkpt lat="43.93975" lon="1.8432">
        <ele>264.8</ele>
        <time>2022-09-08T17:55:42Z</time>
      </trkpt>
      <trkpt lat="43.93974" lon="1.84321">
        <ele>265</ele>
        <time>2022-09-08T17:55:43Z</time>
      </trkpt>
      <trkpt lat="43.93973" lon="1.84322">
        <ele>265.2</ele>
        <time>2022-09-08T17:55:44Z</time>
      </trkpt>
      <trkpt lat="43.93973" lon="1.84322">
        <ele>265.4</ele>
        <time>2022-09-08T17:55:45Z</time>
      </trkpt>
      <trkpt lat="43.93973" lon="1.84322">
        <ele>265.8</ele>
        <time>2022-09-08T17:55:46Z</time>
      </trkpt>
      <trkpt lat="43.93972" lon="1.84323">
        <ele>266</ele>
        <time>2022-09-08T17:55:47Z</time>
      </trkpt>
      <trkpt lat="43.93971" lon="1.84324">
        <ele>266.2</ele>
        <time>2022-09-08T17:55:48Z</time>
      </trkpt>
      <trkpt lat="43.93971" lon="1.84326">
        <ele>266.4</ele>
        <time>2022-09-08T17:55:49Z</time>
      </trkpt>
      <trkpt lat="43.9397" lon="1.84326">
        <ele>266.4</ele>
        <time>2022-09-08T17:55:50Z</time>
      </trkpt>
      <trkpt lat="43.93968" lon="1.84329">
        <ele>266.6</ele>
        <time>2022-09-08T17:55:51Z</time>
      </trkpt>
      <trkpt lat="43.93967" lon="1.8433">
        <ele>266.8</ele>
        <time>2022-09-08T17:55:52Z</time>
      </trkpt>
      <trkpt lat="43.93966" lon="1.84331">
        <ele>267</ele>
        <time>2022-09-08T17:55:53Z</time>
      </trkpt>
      <trkpt lat="43.93965" lon="1.84332">
        <ele>267</ele>
        <time>2022-09-08T17:55:54Z</time>
      </trkpt>
      <trkpt lat="43.93964" lon="1.84333">
        <ele>267.2</ele>
        <time>2022-09-08T17:55:55Z</time>
      </trkpt>
      <trkpt lat="43.93964" lon="1.84334">
        <ele>267.2</ele>
        <time>2022-09-08T17:55:56Z</time>
      </trkpt>
      <trkpt lat="43.93962" lon="1.84336">
        <ele>267.4</ele>
        <time>2022-09-08T17:55:57Z</time>
      </trkpt>
      <trkpt lat="43.93961" lon="1.84337">
        <ele>267.6</ele>
        <time>2022-09-08T17:55:58Z</time>
      </trkpt>
      <trkpt lat="43.9396" lon="1.84339">
        <ele>267.8</ele>
        <time>2022-09-08T17:55:59Z</time>
      </trkpt>
      <trkpt lat="43.93959" lon="1.8434">
        <ele>268</ele>
        <time>2022-09-08T17:56:00Z</time>
      </trkpt>
      <trkpt lat="43.93957" lon="1.84342">
        <ele>268</ele>
        <time>2022-09-08T17:56:01Z</time>
      </trkpt>
      <trkpt lat="43.93956" lon="1.84343">
        <ele>268.4</ele>
        <time>2022-09-08T17:56:02Z</time>
      </trkpt>
      <trkpt lat="43.93954" lon="1.84345">
        <ele>268.6</ele>
        <time>2022-09-08T17:56:03Z</time>
      </trkpt>
      <trkpt lat="43.93953" lon="1.84347">
        <ele>268.6</ele>
        <time>2022-09-08T17:56:04Z</time>
      </trkpt>
      <trkpt lat="43.93952" lon="1.84347">
        <ele>268.8</ele>
        <time>2022-09-08T17:56:05Z</time>
      </trkpt>
      <trkpt lat="43.93951" lon="1.84349">
        <ele>269</ele>
        <time>2022-09-08T17:56:06Z</time>
      </trkpt>
      <trkpt lat="43.9395" lon="1.8435">
        <ele>269.2</ele>
        <time>2022-09-08T17:56:07Z</time>
      </trkpt>
      <trkpt lat="43.93948" lon="1.84352">
        <ele>269.4</ele>
        <time>2022-09-08T17:56:08Z</time>
      </trkpt>
      <trkpt lat="43.93947" lon="1.84354">
        <ele>269.4</ele>
        <time>2022-09-08T17:56:09Z</time>
      </trkpt>
      <trkpt lat="43.93946" lon="1.84357">
        <ele>269.6</ele>
        <time>2022-09-08T17:56:10Z</time>
      </trkpt>
      <trkpt lat="43.93945" lon="1.8436">
        <ele>269.6</ele>
        <time>2022-09-08T17:56:11Z</time>
      </trkpt>
      <trkpt lat="43.93943" lon="1.84364">
        <ele>269.6</ele>
        <time>2022-09-08T17:56:12Z</time>
      </trkpt>
      <trkpt lat="43.93941" lon="1.84367">
        <ele>269.8</ele>
        <time>2022-09-08T17:56:13Z</time>
      </trkpt>
      <trkpt lat="43.93941" lon="1.8437">
        <ele>269.8</ele>
        <time>2022-09-08T17:56:14Z</time>
      </trkpt>
      <trkpt lat="43.93941" lon="1.84373">
        <ele>270</ele>
        <time>2022-09-08T17:56:15Z</time>
      </trkpt>
      <trkpt lat="43.93939" lon="1.84375">
        <ele>270</ele>
        <time>2022-09-08T17:56:16Z</time>
      </trkpt>
      <trkpt lat="43.93937" lon="1.84376">
        <ele>270</ele>
        <time>2022-09-08T17:56:17Z</time>
      </trkpt>
      <trkpt lat="43.93935" lon="1.84378">
        <ele>270.4</ele>
        <time>2022-09-08T17:56:18Z</time>
      </trkpt>
      <trkpt lat="43.93934" lon="1.84379">
        <ele>270.6</ele>
        <time>2022-09-08T17:56:19Z</time>
      </trkpt>
      <trkpt lat="43.93932" lon="1.8438">
        <ele>270.8</ele>
        <time>2022-09-08T17:56:20Z</time>
      </trkpt>
      <trkpt lat="43.9393" lon="1.84381">
        <ele>271</ele>
        <time>2022-09-08T17:56:21Z</time>
      </trkpt>
      <trkpt lat="43.93928" lon="1.84382">
        <ele>271.4</ele>
        <time>2022-09-08T17:56:22Z</time>
      </trkpt>
      <trkpt lat="43.93927" lon="1.84383">
        <ele>271.6</ele>
        <time>2022-09-08T17:56:23Z</time>
      </trkpt>
      <trkpt lat="43.93926" lon="1.84385">
        <ele>271.6</ele>
        <time>2022-09-08T17:56:24Z</time>
      </trkpt>
      <trkpt lat="43.93925" lon="1.84386">
        <ele>271.8</ele>
        <time>2022-09-08T17:56:25Z</time>
      </trkpt>
      <trkpt lat="43.93924" lon="1.84386">
        <ele>272</ele>
        <time>2022-09-08T17:56:26Z</time>
      </trkpt>
      <trkpt lat="43.93922" lon="1.84387">
        <ele>272.2</ele>
        <time>2022-09-08T17:56:27Z</time>
      </trkpt>
      <trkpt lat="43.93921" lon="1.84388">
        <ele>272.2</ele>
        <time>2022-09-08T17:56:28Z</time>
      </trkpt>
      <trkpt lat="43.9392" lon="1.84389">
        <ele>272.6</ele>
        <time>2022-09-08T17:56:29Z</time>
      </trkpt>
      <trkpt lat="43.93919" lon="1.8439">
        <ele>272.6</ele>
        <time>2022-09-08T17:56:30Z</time>
      </trkpt>
      <trkpt lat="43.93917" lon="1.84391">
        <ele>272.8</ele>
        <time>2022-09-08T17:56:31Z</time>
      </trkpt>
      <trkpt lat="43.93915" lon="1.84391">
        <ele>273</ele>
        <time>2022-09-08T17:56:32Z</time>
      </trkpt>
      <trkpt lat="43.93913" lon="1.84392">
        <ele>273</ele>
        <time>2022-09-08T17:56:33Z</time>
      </trkpt>
      <trkpt lat="43.93911" lon="1.84392">
        <ele>273</ele>
        <time>2022-09-08T17:56:34Z</time>
      </trkpt>
      <trkpt lat="43.93909" lon="1.84393">
        <ele>273</ele>
        <time>2022-09-08T17:56:35Z</time>
      </trkpt>
      <trkpt lat="43.93907" lon="1.84394">
        <ele>273.2</ele>
        <time>2022-09-08T17:56:36Z</time>
      </trkpt>
      <trkpt lat="43.93905" lon="1.84396">
        <ele>273.2</ele>
        <time>2022-09-08T17:56:37Z</time>
      </trkpt>
      <trkpt lat="43.93902" lon="1.84397">
        <ele>273.2</ele>
        <time>2022-09-08T17:56:38Z</time>
      </trkpt>
      <trkpt lat="43.939" lon="1.84399">
        <ele>273.2</ele>
        <time>2022-09-08T17:56:39Z</time>
      </trkpt>
      <trkpt lat="43.93898" lon="1.844">
        <ele>273.2</ele>
        <time>2022-09-08T17:56:40Z</time>
      </trkpt>
      <trkpt lat="43.93895" lon="1.84402">
        <ele>273.4</ele>
        <time>2022-09-08T17:56:41Z</time>
      </trkpt>
      <trkpt lat="43.93892" lon="1.84404">
        <ele>273.4</ele>
        <time>2022-09-08T17:56:42Z</time>
      </trkpt>
      <trkpt lat="43.9389" lon="1.84406">
        <ele>273.4</ele>
        <time>2022-09-08T17:56:43Z</time>
      </trkpt>
      <trkpt lat="43.93887" lon="1.84407">
        <ele>273.4</ele>
        <time>2022-09-08T17:56:44Z</time>
      </trkpt>
      <trkpt lat="43.93885" lon="1.84409">
        <ele>273.4</ele>
        <time>2022-09-08T17:56:45Z</time>
      </trkpt>
      <trkpt lat="43.93882" lon="1.84411">
        <ele>273.4</ele>
        <time>2022-09-08T17:56:46Z</time>
      </trkpt>
      <trkpt lat="43.9388" lon="1.84413">
        <ele>273.4</ele>
        <time>2022-09-08T17:56:47Z</time>
      </trkpt>
      <trkpt lat="43.93878" lon="1.84416">
        <ele>273.6</ele>
        <time>2022-09-08T17:56:48Z</time>
      </trkpt>
      <trkpt lat="43.93875" lon="1.84419">
        <ele>273.6</ele>
        <time>2022-09-08T17:56:49Z</time>
      </trkpt>
      <trkpt lat="43.93872" lon="1.84427">
        <ele>273.8</ele>
        <time>2022-09-08T17:56:51Z</time>
      </trkpt>
      <trkpt lat="43.93869" lon="1.84431">
        <ele>274</ele>
        <time>2022-09-08T17:56:52Z</time>
      </trkpt>
      <trkpt lat="43.93867" lon="1.84436">
        <ele>274</ele>
        <time>2022-09-08T17:56:53Z</time>
      </trkpt>
      <trkpt lat="43.93865" lon="1.8444">
        <ele>274.2</ele>
        <time>2022-09-08T17:56:54Z</time>
      </trkpt>
      <trkpt lat="43.93854" lon="1.8446">
        <ele>274.6</ele>
        <time>2022-09-08T17:56:58Z</time>
      </trkpt>
      <trkpt lat="43.93851" lon="1.84467">
        <ele>274.8</ele>
        <time>2022-09-08T17:57:00Z</time>
      </trkpt>
      <trkpt lat="43.93848" lon="1.8447">
        <ele>275</ele>
        <time>2022-09-08T17:57:01Z</time>
      </trkpt>
      <trkpt lat="43.93846" lon="1.84473">
        <ele>275</ele>
        <time>2022-09-08T17:57:02Z</time>
      </trkpt>
      <trkpt lat="43.93842" lon="1.84479">
        <ele>275.2</ele>
        <time>2022-09-08T17:57:04Z</time>
      </trkpt>
      <trkpt lat="43.93835" lon="1.84491">
        <ele>275.2</ele>
        <time>2022-09-08T17:57:06Z</time>
      </trkpt>
      <trkpt lat="43.93828" lon="1.84503">
        <ele>275.2</ele>
        <time>2022-09-08T17:57:08Z</time>
      </trkpt>
      <trkpt lat="43.93821" lon="1.84512">
        <ele>275.2</ele>
        <time>2022-09-08T17:57:10Z</time>
      </trkpt>
      <trkpt lat="43.93806" lon="1.8453">
        <ele>275.2</ele>
        <time>2022-09-08T17:57:13Z</time>
      </trkpt>
      <trkpt lat="43.93802" lon="1.84536">
        <ele>275.2</ele>
        <time>2022-09-08T17:57:14Z</time>
      </trkpt>
      <trkpt lat="43.93799" lon="1.84541">
        <ele>275.2</ele>
        <time>2022-09-08T17:57:15Z</time>
      </trkpt>
      <trkpt lat="43.93796" lon="1.84547">
        <ele>275</ele>
        <time>2022-09-08T17:57:16Z</time>
      </trkpt>
      <trkpt lat="43.93794" lon="1.84553">
        <ele>275</ele>
        <time>2022-09-08T17:57:17Z</time>
      </trkpt>
      <trkpt lat="43.93792" lon="1.84557">
        <ele>275</ele>
        <time>2022-09-08T17:57:18Z</time>
      </trkpt>
      <trkpt lat="43.93788" lon="1.84562">
        <ele>275</ele>
        <time>2022-09-08T17:57:19Z</time>
      </trkpt>
      <trkpt lat="43.93785" lon="1.84568">
        <ele>275</ele>
        <time>2022-09-08T17:57:20Z</time>
      </trkpt>
      <trkpt lat="43.93783" lon="1.84573">
        <ele>275</ele>
        <time>2022-09-08T17:57:21Z</time>
      </trkpt>
      <trkpt lat="43.93781" lon="1.84577">
        <ele>275</ele>
        <time>2022-09-08T17:57:22Z</time>
      </trkpt>
      <trkpt lat="43.93775" lon="1.84589">
        <ele>275</ele>
        <time>2022-09-08T17:57:24Z</time>
      </trkpt>
      <trkpt lat="43.93771" lon="1.84594">
        <ele>275</ele>
        <time>2022-09-08T17:57:25Z</time>
      </trkpt>
      <trkpt lat="43.93763" lon="1.84605">
        <ele>275.2</ele>
        <time>2022-09-08T17:57:28Z</time>
      </trkpt>
      <trkpt lat="43.9376" lon="1.84613">
        <ele>275.2</ele>
        <time>2022-09-08T17:57:29Z</time>
      </trkpt>
      <trkpt lat="43.93757" lon="1.84619">
        <ele>275.2</ele>
        <time>2022-09-08T17:57:30Z</time>
      </trkpt>
      <trkpt lat="43.93755" lon="1.84624">
        <ele>275.2</ele>
        <time>2022-09-08T17:57:31Z</time>
      </trkpt>
      <trkpt lat="43.93753" lon="1.84628">
        <ele>275.2</ele>
        <time>2022-09-08T17:57:32Z</time>
      </trkpt>
      <trkpt lat="43.9375" lon="1.84631">
        <ele>275.2</ele>
        <time>2022-09-08T17:57:33Z</time>
      </trkpt>
      <trkpt lat="43.93744" lon="1.8464">
        <ele>275.2</ele>
        <time>2022-09-08T17:57:36Z</time>
      </trkpt>
      <trkpt lat="43.93741" lon="1.84644">
        <ele>275.2</ele>
        <time>2022-09-08T17:57:37Z</time>
      </trkpt>
      <trkpt lat="43.93738" lon="1.84654">
        <ele>275</ele>
        <time>2022-09-08T17:57:39Z</time>
      </trkpt>
      <trkpt lat="43.93736" lon="1.84658">
        <ele>275</ele>
        <time>2022-09-08T17:57:40Z</time>
      </trkpt>
      <trkpt lat="43.93729" lon="1.84673">
        <ele>274.6</ele>
        <time>2022-09-08T17:57:43Z</time>
      </trkpt>
      <trkpt lat="43.93722" lon="1.84683">
        <ele>274.2</ele>
        <time>2022-09-08T17:57:45Z</time>
      </trkpt>
      <trkpt lat="43.93715" lon="1.84693">
        <ele>274</ele>
        <time>2022-09-08T17:57:47Z</time>
      </trkpt>
      <trkpt lat="43.93712" lon="1.84696">
        <ele>274</ele>
        <time>2022-09-08T17:57:48Z</time>
      </trkpt>
      <trkpt lat="43.93697" lon="1.84713">
        <ele>273.8</ele>
        <time>2022-09-08T17:57:52Z</time>
      </trkpt>
      <trkpt lat="43.93685" lon="1.84729">
        <ele>273.8</ele>
        <time>2022-09-08T17:57:55Z</time>
      </trkpt>
      <trkpt lat="43.93683" lon="1.84734">
        <ele>273.8</ele>
        <time>2022-09-08T17:57:56Z</time>
      </trkpt>
      <trkpt lat="43.9368" lon="1.8474">
        <ele>273.8</ele>
        <time>2022-09-08T17:57:57Z</time>
      </trkpt>
      <trkpt lat="43.93679" lon="1.84745">
        <ele>273.8</ele>
        <time>2022-09-08T17:57:58Z</time>
      </trkpt>
      <trkpt lat="43.93677" lon="1.8475">
        <ele>273.8</ele>
        <time>2022-09-08T17:57:59Z</time>
      </trkpt>
      <trkpt lat="43.93672" lon="1.84762">
        <ele>274</ele>
        <time>2022-09-08T17:58:01Z</time>
      </trkpt>
      <trkpt lat="43.93656" lon="1.8481">
        <ele>274.6</ele>
        <time>2022-09-08T17:58:09Z</time>
      </trkpt>
      <trkpt lat="43.93653" lon="1.84821">
        <ele>274.6</ele>
        <time>2022-09-08T17:58:11Z</time>
      </trkpt>
      <trkpt lat="43.93649" lon="1.84832">
        <ele>274.8</ele>
        <time>2022-09-08T17:58:13Z</time>
      </trkpt>
      <trkpt lat="43.93645" lon="1.84844">
        <ele>275</ele>
        <time>2022-09-08T17:58:15Z</time>
      </trkpt>
      <trkpt lat="43.93637" lon="1.84869">
        <ele>275.2</ele>
        <time>2022-09-08T17:58:19Z</time>
      </trkpt>
      <trkpt lat="43.93634" lon="1.84874">
        <ele>275.4</ele>
        <time>2022-09-08T17:58:20Z</time>
      </trkpt>
      <trkpt lat="43.93632" lon="1.8488">
        <ele>275.4</ele>
        <time>2022-09-08T17:58:21Z</time>
      </trkpt>
      <trkpt lat="43.93628" lon="1.84892">
        <ele>275.6</ele>
        <time>2022-09-08T17:58:23Z</time>
      </trkpt>
      <trkpt lat="43.93625" lon="1.84898">
        <ele>275.6</ele>
        <time>2022-09-08T17:58:24Z</time>
      </trkpt>
      <trkpt lat="43.93623" lon="1.84904">
        <ele>275.8</ele>
        <time>2022-09-08T17:58:25Z</time>
      </trkpt>
      <trkpt lat="43.93618" lon="1.84923">
        <ele>276</ele>
        <time>2022-09-08T17:58:28Z</time>
      </trkpt>
      <trkpt lat="43.93615" lon="1.84936">
        <ele>276.2</ele>
        <time>2022-09-08T17:58:30Z</time>
      </trkpt>
      <trkpt lat="43.93613" lon="1.84942">
        <ele>276.2</ele>
        <time>2022-09-08T17:58:31Z</time>
      </trkpt>
      <trkpt lat="43.93611" lon="1.84948">
        <ele>276.2</ele>
        <time>2022-09-08T17:58:32Z</time>
      </trkpt>
      <trkpt lat="43.93609" lon="1.84953">
        <ele>276.2</ele>
        <time>2022-09-08T17:58:33Z</time>
      </trkpt>
      <trkpt lat="43.93605" lon="1.84957">
        <ele>276.2</ele>
        <time>2022-09-08T17:58:34Z</time>
      </trkpt>
      <trkpt lat="43.93601" lon="1.84959">
        <ele>276.2</ele>
        <time>2022-09-08T17:58:35Z</time>
      </trkpt>
      <trkpt lat="43.93597" lon="1.84958">
        <ele>276.2</ele>
        <time>2022-09-08T17:58:36Z</time>
      </trkpt>
      <trkpt lat="43.93593" lon="1.84956">
        <ele>276.4</ele>
        <time>2022-09-08T17:58:37Z</time>
      </trkpt>
      <trkpt lat="43.93589" lon="1.84954">
        <ele>276.4</ele>
        <time>2022-09-08T17:58:38Z</time>
      </trkpt>
      <trkpt lat="43.93585" lon="1.84953">
        <ele>276.4</ele>
        <time>2022-09-08T17:58:39Z</time>
      </trkpt>
      <trkpt lat="43.93581" lon="1.84952">
        <ele>276.4</ele>
        <time>2022-09-08T17:58:40Z</time>
      </trkpt>
      <trkpt lat="43.93573" lon="1.84951">
        <ele>276.4</ele>
        <time>2022-09-08T17:58:42Z</time>
      </trkpt>
      <trkpt lat="43.93564" lon="1.84949">
        <ele>276.4</ele>
        <time>2022-09-08T17:58:44Z</time>
      </trkpt>
      <trkpt lat="43.93523" lon="1.84936">
        <ele>276.8</ele>
        <time>2022-09-08T17:58:53Z</time>
      </trkpt>
      <trkpt lat="43.93476" lon="1.8492">
        <ele>276</ele>
        <time>2022-09-08T17:59:02Z</time>
      </trkpt>
      <trkpt lat="43.93438" lon="1.84907">
        <ele>275.6</ele>
        <time>2022-09-08T17:59:08Z</time>
      </trkpt>
      <trkpt lat="43.93432" lon="1.84904">
        <ele>275.4</ele>
        <time>2022-09-08T17:59:09Z</time>
      </trkpt>
      <trkpt lat="43.93426" lon="1.84901">
        <ele>275.2</ele>
        <time>2022-09-08T17:59:10Z</time>
      </trkpt>
      <trkpt lat="43.9342" lon="1.84898">
        <ele>275.2</ele>
        <time>2022-09-08T17:59:11Z</time>
      </trkpt>
      <trkpt lat="43.93414" lon="1.84894">
        <ele>275</ele>
        <time>2022-09-08T17:59:12Z</time>
      </trkpt>
      <trkpt lat="43.93408" lon="1.8489">
        <ele>274.8</ele>
        <time>2022-09-08T17:59:13Z</time>
      </trkpt>
      <trkpt lat="43.93402" lon="1.84887">
        <ele>274.8</ele>
        <time>2022-09-08T17:59:14Z</time>
      </trkpt>
      <trkpt lat="43.93396" lon="1.84883">
        <ele>274.8</ele>
        <time>2022-09-08T17:59:15Z</time>
      </trkpt>
      <trkpt lat="43.93391" lon="1.8488">
        <ele>274.8</ele>
        <time>2022-09-08T17:59:16Z</time>
      </trkpt>
      <trkpt lat="43.93366" lon="1.8487">
        <ele>274.4</ele>
        <time>2022-09-08T17:59:20Z</time>
      </trkpt>
      <trkpt lat="43.93347" lon="1.84859">
        <ele>274.4</ele>
        <time>2022-09-08T17:59:23Z</time>
      </trkpt>
      <trkpt lat="43.93341" lon="1.84855">
        <ele>274.4</ele>
        <time>2022-09-08T17:59:24Z</time>
      </trkpt>
      <trkpt lat="43.93336" lon="1.84851">
        <ele>274.6</ele>
        <time>2022-09-08T17:59:25Z</time>
      </trkpt>
      <trkpt lat="43.9333" lon="1.84847">
        <ele>274.6</ele>
        <time>2022-09-08T17:59:26Z</time>
      </trkpt>
      <trkpt lat="43.93324" lon="1.84844">
        <ele>274.6</ele>
        <time>2022-09-08T17:59:27Z</time>
      </trkpt>
      <trkpt lat="43.93319" lon="1.8484">
        <ele>274.6</ele>
        <time>2022-09-08T17:59:28Z</time>
      </trkpt>
      <trkpt lat="43.93308" lon="1.84831">
        <ele>274.6</ele>
        <time>2022-09-08T17:59:30Z</time>
      </trkpt>
      <trkpt lat="43.93297" lon="1.84823">
        <ele>274.6</ele>
        <time>2022-09-08T17:59:32Z</time>
      </trkpt>
      <trkpt lat="43.93291" lon="1.84819">
        <ele>274.8</ele>
        <time>2022-09-08T17:59:33Z</time>
      </trkpt>
      <trkpt lat="43.9328" lon="1.84812">
        <ele>275</ele>
        <time>2022-09-08T17:59:35Z</time>
      </trkpt>
      <trkpt lat="43.93274" lon="1.84809">
        <ele>275.2</ele>
        <time>2022-09-08T17:59:36Z</time>
      </trkpt>
      <trkpt lat="43.93257" lon="1.84802">
        <ele>275.6</ele>
        <time>2022-09-08T17:59:39Z</time>
      </trkpt>
      <trkpt lat="43.93251" lon="1.84799">
        <ele>275.6</ele>
        <time>2022-09-08T17:59:40Z</time>
      </trkpt>
      <trkpt lat="43.93246" lon="1.84797">
        <ele>275.8</ele>
        <time>2022-09-08T17:59:41Z</time>
      </trkpt>
      <trkpt lat="43.9324" lon="1.84794">
        <ele>276</ele>
        <time>2022-09-08T17:59:42Z</time>
      </trkpt>
      <trkpt lat="43.93234" lon="1.84792">
        <ele>276.2</ele>
        <time>2022-09-08T17:59:43Z</time>
      </trkpt>
      <trkpt lat="43.93229" lon="1.8479">
        <ele>276.8</ele>
        <time>2022-09-08T17:59:44Z</time>
      </trkpt>
      <trkpt lat="43.93223" lon="1.84787">
        <ele>277</ele>
        <time>2022-09-08T17:59:45Z</time>
      </trkpt>
      <trkpt lat="43.93218" lon="1.84785">
        <ele>277.6</ele>
        <time>2022-09-08T17:59:46Z</time>
      </trkpt>
      <trkpt lat="43.93213" lon="1.84783">
        <ele>277.8</ele>
        <time>2022-09-08T17:59:47Z</time>
      </trkpt>
      <trkpt lat="43.93202" lon="1.84779">
        <ele>279</ele>
        <time>2022-09-08T17:59:49Z</time>
      </trkpt>
      <trkpt lat="43.93197" lon="1.84777">
        <ele>279.4</ele>
        <time>2022-09-08T17:59:50Z</time>
      </trkpt>
      <trkpt lat="43.93192" lon="1.84776">
        <ele>279.6</ele>
        <time>2022-09-08T17:59:51Z</time>
      </trkpt>
      <trkpt lat="43.93186" lon="1.84774">
        <ele>279.6</ele>
        <time>2022-09-08T17:59:52Z</time>
      </trkpt>
      <trkpt lat="43.93181" lon="1.84773">
        <ele>279.8</ele>
        <time>2022-09-08T17:59:53Z</time>
      </trkpt>
      <trkpt lat="43.93175" lon="1.84771">
        <ele>280</ele>
        <time>2022-09-08T17:59:54Z</time>
      </trkpt>
      <trkpt lat="43.93169" lon="1.84769">
        <ele>280.2</ele>
        <time>2022-09-08T17:59:55Z</time>
      </trkpt>
      <trkpt lat="43.93163" lon="1.84766">
        <ele>280.4</ele>
        <time>2022-09-08T17:59:56Z</time>
      </trkpt>
      <trkpt lat="43.93156" lon="1.84763">
        <ele>280.6</ele>
        <time>2022-09-08T17:59:57Z</time>
      </trkpt>
      <trkpt lat="43.9315" lon="1.84761">
        <ele>280.6</ele>
        <time>2022-09-08T17:59:58Z</time>
      </trkpt>
      <trkpt lat="43.93144" lon="1.84757">
        <ele>280.6</ele>
        <time>2022-09-08T17:59:59Z</time>
      </trkpt>
      <trkpt lat="43.93137" lon="1.84754">
        <ele>280.4</ele>
        <time>2022-09-08T18:00:00Z</time>
      </trkpt>
      <trkpt lat="43.93131" lon="1.8475">
        <ele>280.4</ele>
        <time>2022-09-08T18:00:01Z</time>
      </trkpt>
      <trkpt lat="43.93125" lon="1.84747">
        <ele>280.2</ele>
        <time>2022-09-08T18:00:02Z</time>
      </trkpt>
      <trkpt lat="43.93119" lon="1.84743">
        <ele>280</ele>
        <time>2022-09-08T18:00:03Z</time>
      </trkpt>
      <trkpt lat="43.93112" lon="1.8474">
        <ele>279.8</ele>
        <time>2022-09-08T18:00:04Z</time>
      </trkpt>
      <trkpt lat="43.93105" lon="1.84737">
        <ele>279.2</ele>
        <time>2022-09-08T18:00:05Z</time>
      </trkpt>
      <trkpt lat="43.93098" lon="1.84735">
        <ele>279</ele>
        <time>2022-09-08T18:00:06Z</time>
      </trkpt>
      <trkpt lat="43.93092" lon="1.84734">
        <ele>278.2</ele>
        <time>2022-09-08T18:00:07Z</time>
      </trkpt>
      <trkpt lat="43.93086" lon="1.84732">
        <ele>277.8</ele>
        <time>2022-09-08T18:00:08Z</time>
      </trkpt>
      <trkpt lat="43.9308" lon="1.8473">
        <ele>277.2</ele>
        <time>2022-09-08T18:00:09Z</time>
      </trkpt>
      <trkpt lat="43.93075" lon="1.84727">
        <ele>276.8</ele>
        <time>2022-09-08T18:00:10Z</time>
      </trkpt>
      <trkpt lat="43.9307" lon="1.84725">
        <ele>276.2</ele>
        <time>2022-09-08T18:00:11Z</time>
      </trkpt>
      <trkpt lat="43.93064" lon="1.84723">
        <ele>275.6</ele>
        <time>2022-09-08T18:00:12Z</time>
      </trkpt>
      <trkpt lat="43.93058" lon="1.84721">
        <ele>275.4</ele>
        <time>2022-09-08T18:00:13Z</time>
      </trkpt>
      <trkpt lat="43.93052" lon="1.8472">
        <ele>274.4</ele>
        <time>2022-09-08T18:00:14Z</time>
      </trkpt>
      <trkpt lat="43.93046" lon="1.84719">
        <ele>274</ele>
        <time>2022-09-08T18:00:15Z</time>
      </trkpt>
      <trkpt lat="43.93033" lon="1.84719">
        <ele>273.2</ele>
        <time>2022-09-08T18:00:17Z</time>
      </trkpt>
      <trkpt lat="43.93027" lon="1.84718">
        <ele>273</ele>
        <time>2022-09-08T18:00:18Z</time>
      </trkpt>
      <trkpt lat="43.93021" lon="1.84717">
        <ele>272.8</ele>
        <time>2022-09-08T18:00:19Z</time>
      </trkpt>
      <trkpt lat="43.9299" lon="1.84708">
        <ele>272.2</ele>
        <time>2022-09-08T18:00:24Z</time>
      </trkpt>
      <trkpt lat="43.92984" lon="1.84706">
        <ele>272</ele>
        <time>2022-09-08T18:00:25Z</time>
      </trkpt>
      <trkpt lat="43.92966" lon="1.84707">
        <ele>270.8</ele>
        <time>2022-09-08T18:00:28Z</time>
      </trkpt>
      <trkpt lat="43.92952" lon="1.84707">
        <ele>270.4</ele>
        <time>2022-09-08T18:00:30Z</time>
      </trkpt>
      <trkpt lat="43.92937" lon="1.84707">
        <ele>270</ele>
        <time>2022-09-08T18:00:32Z</time>
      </trkpt>
      <trkpt lat="43.92931" lon="1.84706">
        <ele>270</ele>
        <time>2022-09-08T18:00:33Z</time>
      </trkpt>
      <trkpt lat="43.92926" lon="1.84705">
        <ele>269.4</ele>
        <time>2022-09-08T18:00:34Z</time>
      </trkpt>
      <trkpt lat="43.92921" lon="1.84706">
        <ele>269</ele>
        <time>2022-09-08T18:00:35Z</time>
      </trkpt>
      <trkpt lat="43.92918" lon="1.84707">
        <ele>268.6</ele>
        <time>2022-09-08T18:00:36Z</time>
      </trkpt>
      <trkpt lat="43.92916" lon="1.84709">
        <ele>268</ele>
        <time>2022-09-08T18:00:37Z</time>
      </trkpt>
      <trkpt lat="43.92915" lon="1.84711">
        <ele>267.8</ele>
        <time>2022-09-08T18:00:38Z</time>
      </trkpt>
      <trkpt lat="43.92914" lon="1.84712">
        <ele>267.4</ele>
        <time>2022-09-08T18:00:39Z</time>
      </trkpt>
      <trkpt lat="43.92914" lon="1.84712">
        <ele>265.6</ele>
        <time>2022-09-08T18:01:47Z</time>
      </trkpt>
      <trkpt lat="43.92913" lon="1.84714">
        <ele>265.6</ele>
        <time>2022-09-08T18:01:48Z</time>
      </trkpt>
      <trkpt lat="43.92911" lon="1.84715">
        <ele>265.6</ele>
        <time>2022-09-08T18:01:49Z</time>
      </trkpt>
      <trkpt lat="43.92908" lon="1.84718">
        <ele>265.6</ele>
        <time>2022-09-08T18:01:50Z</time>
      </trkpt>
      <trkpt lat="43.92906" lon="1.84721">
        <ele>265.6</ele>
        <time>2022-09-08T18:01:51Z</time>
      </trkpt>
      <trkpt lat="43.92903" lon="1.84725">
        <ele>265.6</ele>
        <time>2022-09-08T18:01:52Z</time>
      </trkpt>
      <trkpt lat="43.92898" lon="1.84732">
        <ele>265.6</ele>
        <time>2022-09-08T18:01:54Z</time>
      </trkpt>
      <trkpt lat="43.92896" lon="1.84735">
        <ele>265.6</ele>
        <time>2022-09-08T18:01:55Z</time>
      </trkpt>
      <trkpt lat="43.92889" lon="1.84747">
        <ele>266</ele>
        <time>2022-09-08T18:01:58Z</time>
      </trkpt>
      <trkpt lat="43.92885" lon="1.84757">
        <ele>266</ele>
        <time>2022-09-08T18:02:00Z</time>
      </trkpt>
      <trkpt lat="43.92881" lon="1.84769">
        <ele>266</ele>
        <time>2022-09-08T18:02:02Z</time>
      </trkpt>
      <trkpt lat="43.9288" lon="1.84774">
        <ele>266</ele>
        <time>2022-09-08T18:02:03Z</time>
      </trkpt>
      <trkpt lat="43.92879" lon="1.8478">
        <ele>266</ele>
        <time>2022-09-08T18:02:04Z</time>
      </trkpt>
      <trkpt lat="43.92878" lon="1.84786">
        <ele>266.2</ele>
        <time>2022-09-08T18:02:05Z</time>
      </trkpt>
      <trkpt lat="43.92877" lon="1.84792">
        <ele>266.2</ele>
        <time>2022-09-08T18:02:06Z</time>
      </trkpt>
      <trkpt lat="43.9287" lon="1.84825">
        <ele>266.4</ele>
        <time>2022-09-08T18:02:11Z</time>
      </trkpt>
      <trkpt lat="43.92866" lon="1.84845">
        <ele>266.4</ele>
        <time>2022-09-08T18:02:14Z</time>
      </trkpt>
      <trkpt lat="43.92865" lon="1.84851">
        <ele>266.4</ele>
        <time>2022-09-08T18:02:15Z</time>
      </trkpt>
      <trkpt lat="43.92863" lon="1.84858">
        <ele>266.4</ele>
        <time>2022-09-08T18:02:16Z</time>
      </trkpt>
      <trkpt lat="43.92862" lon="1.84863">
        <ele>266.4</ele>
        <time>2022-09-08T18:02:17Z</time>
      </trkpt>
      <trkpt lat="43.9286" lon="1.84869">
        <ele>266.4</ele>
        <time>2022-09-08T18:02:18Z</time>
      </trkpt>
      <trkpt lat="43.92854" lon="1.8489">
        <ele>266.4</ele>
        <time>2022-09-08T18:02:21Z</time>
      </trkpt>
      <trkpt lat="43.92843" lon="1.84922">
        <ele>266.4</ele>
        <time>2022-09-08T18:02:26Z</time>
      </trkpt>
      <trkpt lat="43.92838" lon="1.84934">
        <ele>266.4</ele>
        <time>2022-09-08T18:02:28Z</time>
      </trkpt>
      <trkpt lat="43.92833" lon="1.84947">
        <ele>266.4</ele>
        <time>2022-09-08T18:02:30Z</time>
      </trkpt>
      <trkpt lat="43.92832" lon="1.84953">
        <ele>266.4</ele>
        <time>2022-09-08T18:02:31Z</time>
      </trkpt>
      <trkpt lat="43.9283" lon="1.84959">
        <ele>266.4</ele>
        <time>2022-09-08T18:02:32Z</time>
      </trkpt>
      <trkpt lat="43.92821" lon="1.84983">
        <ele>266.4</ele>
        <time>2022-09-08T18:02:36Z</time>
      </trkpt>
      <trkpt lat="43.92819" lon="1.84988">
        <ele>266.4</ele>
        <time>2022-09-08T18:02:37Z</time>
      </trkpt>
      <trkpt lat="43.92817" lon="1.84994">
        <ele>266.4</ele>
        <time>2022-09-08T18:02:38Z</time>
      </trkpt>
      <trkpt lat="43.9281" lon="1.8501">
        <ele>266.6</ele>
        <time>2022-09-08T18:02:41Z</time>
      </trkpt>
      <trkpt lat="43.92808" lon="1.85015">
        <ele>266.6</ele>
        <time>2022-09-08T18:02:42Z</time>
      </trkpt>
      <trkpt lat="43.92805" lon="1.8502">
        <ele>266.6</ele>
        <time>2022-09-08T18:02:43Z</time>
      </trkpt>
      <trkpt lat="43.928" lon="1.85029">
        <ele>266.6</ele>
        <time>2022-09-08T18:02:45Z</time>
      </trkpt>
      <trkpt lat="43.92779" lon="1.85052">
        <ele>266.8</ele>
        <time>2022-09-08T18:02:51Z</time>
      </trkpt>
      <trkpt lat="43.92776" lon="1.85056">
        <ele>266.6</ele>
        <time>2022-09-08T18:02:52Z</time>
      </trkpt>
      <trkpt lat="43.92773" lon="1.85059">
        <ele>266.6</ele>
        <time>2022-09-08T18:02:53Z</time>
      </trkpt>
      <trkpt lat="43.92771" lon="1.85062">
        <ele>267</ele>
        <time>2022-09-08T18:02:54Z</time>
      </trkpt>
      <trkpt lat="43.92769" lon="1.85065">
        <ele>267</ele>
        <time>2022-09-08T18:02:55Z</time>
      </trkpt>
      <trkpt lat="43.92766" lon="1.85068">
        <ele>267</ele>
        <time>2022-09-08T18:02:56Z</time>
      </trkpt>
      <trkpt lat="43.92761" lon="1.85074">
        <ele>266.8</ele>
        <time>2022-09-08T18:02:58Z</time>
      </trkpt>
      <trkpt lat="43.92756" lon="1.85081">
        <ele>267.2</ele>
        <time>2022-09-08T18:03:01Z</time>
      </trkpt>
      <trkpt lat="43.9275" lon="1.85087">
        <ele>267.2</ele>
        <time>2022-09-08T18:03:03Z</time>
      </trkpt>
      <trkpt lat="43.92745" lon="1.85095">
        <ele>267.4</ele>
        <time>2022-09-08T18:03:05Z</time>
      </trkpt>
      <trkpt lat="43.92739" lon="1.85104">
        <ele>267.6</ele>
        <time>2022-09-08T18:03:07Z</time>
      </trkpt>
      <trkpt lat="43.92736" lon="1.85108">
        <ele>267.6</ele>
        <time>2022-09-08T18:03:08Z</time>
      </trkpt>
      <trkpt lat="43.92733" lon="1.85112">
        <ele>267.6</ele>
        <time>2022-09-08T18:03:09Z</time>
      </trkpt>
      <trkpt lat="43.9273" lon="1.85116">
        <ele>267.6</ele>
        <time>2022-09-08T18:03:10Z</time>
      </trkpt>
      <trkpt lat="43.92729" lon="1.8512">
        <ele>267.8</ele>
        <time>2022-09-08T18:03:11Z</time>
      </trkpt>
      <trkpt lat="43.92727" lon="1.85124">
        <ele>268.2</ele>
        <time>2022-09-08T18:03:12Z</time>
      </trkpt>
      <trkpt lat="43.92725" lon="1.85127">
        <ele>268.2</ele>
        <time>2022-09-08T18:03:13Z</time>
      </trkpt>
      <trkpt lat="43.92723" lon="1.85131">
        <ele>268.4</ele>
        <time>2022-09-08T18:03:14Z</time>
      </trkpt>
      <trkpt lat="43.92721" lon="1.85134">
        <ele>268.6</ele>
        <time>2022-09-08T18:03:15Z</time>
      </trkpt>
      <trkpt lat="43.92719" lon="1.85136">
        <ele>268.6</ele>
        <time>2022-09-08T18:03:16Z</time>
      </trkpt>
      <trkpt lat="43.92714" lon="1.85142">
        <ele>268.6</ele>
        <time>2022-09-08T18:03:18Z</time>
      </trkpt>
      <trkpt lat="43.92706" lon="1.85153">
        <ele>269.2</ele>
        <time>2022-09-08T18:03:22Z</time>
      </trkpt>
      <trkpt lat="43.92704" lon="1.85155">
        <ele>269.4</ele>
        <time>2022-09-08T18:03:23Z</time>
      </trkpt>
      <trkpt lat="43.92701" lon="1.85158">
        <ele>269.4</ele>
        <time>2022-09-08T18:03:24Z</time>
      </trkpt>
      <trkpt lat="43.92699" lon="1.8516">
        <ele>269.6</ele>
        <time>2022-09-08T18:03:25Z</time>
      </trkpt>
      <trkpt lat="43.92696" lon="1.85163">
        <ele>269.6</ele>
        <time>2022-09-08T18:03:26Z</time>
      </trkpt>
      <trkpt lat="43.92694" lon="1.85165">
        <ele>269.8</ele>
        <time>2022-09-08T18:03:27Z</time>
      </trkpt>
      <trkpt lat="43.92692" lon="1.85171">
        <ele>270</ele>
        <time>2022-09-08T18:03:29Z</time>
      </trkpt>
      <trkpt lat="43.92691" lon="1.85176">
        <ele>270.2</ele>
        <time>2022-09-08T18:03:30Z</time>
      </trkpt>
      <trkpt lat="43.92692" lon="1.85179">
        <ele>270.2</ele>
        <time>2022-09-08T18:03:31Z</time>
      </trkpt>
      <trkpt lat="43.92693" lon="1.85182">
        <ele>270.2</ele>
        <time>2022-09-08T18:03:32Z</time>
      </trkpt>
      <trkpt lat="43.92695" lon="1.85183">
        <ele>270.2</ele>
        <time>2022-09-08T18:03:33Z</time>
      </trkpt>
      <trkpt lat="43.92698" lon="1.85183">
        <ele>270</ele>
        <time>2022-09-08T18:03:41Z</time>
      </trkpt>
      <trkpt lat="43.92705" lon="1.85183">
        <ele>269.8</ele>
        <time>2022-09-08T18:03:44Z</time>
      </trkpt>
      <trkpt lat="43.9272" lon="1.85185">
        <ele>269.4</ele>
        <time>2022-09-08T18:03:50Z</time>
      </trkpt>
      <trkpt lat="43.92731" lon="1.85183">
        <ele>269.4</ele>
        <time>2022-09-08T18:03:54Z</time>
      </trkpt>
      <trkpt lat="43.92742" lon="1.85182">
        <ele>269.2</ele>
        <time>2022-09-08T18:03:57Z</time>
      </trkpt>
      <trkpt lat="43.92746" lon="1.85182">
        <ele>269</ele>
        <time>2022-09-08T18:03:58Z</time>
      </trkpt>
      <trkpt lat="43.92751" lon="1.85182">
        <ele>269</ele>
        <time>2022-09-08T18:03:59Z</time>
      </trkpt>
      <trkpt lat="43.92766" lon="1.85179">
        <ele>269</ele>
        <time>2022-09-08T18:04:02Z</time>
      </trkpt>
      <trkpt lat="43.92775" lon="1.85176">
        <ele>269</ele>
        <time>2022-09-08T18:04:04Z</time>
      </trkpt>
      <trkpt lat="43.92779" lon="1.85174">
        <ele>269</ele>
        <time>2022-09-08T18:04:05Z</time>
      </trkpt>
      <trkpt lat="43.92783" lon="1.85172">
        <ele>269</ele>
        <time>2022-09-08T18:04:06Z</time>
      </trkpt>
      <trkpt lat="43.92787" lon="1.8517">
        <ele>269.2</ele>
        <time>2022-09-08T18:04:07Z</time>
      </trkpt>
      <trkpt lat="43.92792" lon="1.85167">
        <ele>269.2</ele>
        <time>2022-09-08T18:04:08Z</time>
      </trkpt>
      <trkpt lat="43.92796" lon="1.85164">
        <ele>269.4</ele>
        <time>2022-09-08T18:04:09Z</time>
      </trkpt>
      <trkpt lat="43.928" lon="1.85161">
        <ele>269.6</ele>
        <time>2022-09-08T18:04:10Z</time>
      </trkpt>
      <trkpt lat="43.92803" lon="1.85159">
        <ele>269.8</ele>
        <time>2022-09-08T18:04:11Z</time>
      </trkpt>
      <trkpt lat="43.92806" lon="1.85157">
        <ele>270</ele>
        <time>2022-09-08T18:04:12Z</time>
      </trkpt>
      <trkpt lat="43.9281" lon="1.85155">
        <ele>270.2</ele>
        <time>2022-09-08T18:04:13Z</time>
      </trkpt>
      <trkpt lat="43.92813" lon="1.85153">
        <ele>270.4</ele>
        <time>2022-09-08T18:04:14Z</time>
      </trkpt>
      <trkpt lat="43.92819" lon="1.85147">
        <ele>270.6</ele>
        <time>2022-09-08T18:04:16Z</time>
      </trkpt>
      <trkpt lat="43.92825" lon="1.85142">
        <ele>271</ele>
        <time>2022-09-08T18:04:18Z</time>
      </trkpt>
      <trkpt lat="43.9283" lon="1.8514">
        <ele>271.4</ele>
        <time>2022-09-08T18:04:20Z</time>
      </trkpt>
      <trkpt lat="43.92832" lon="1.85139">
        <ele>271.8</ele>
        <time>2022-09-08T18:04:21Z</time>
      </trkpt>
      <trkpt lat="43.92835" lon="1.85137">
        <ele>271.8</ele>
        <time>2022-09-08T18:04:22Z</time>
      </trkpt>
      <trkpt lat="43.92837" lon="1.85136">
        <ele>272</ele>
        <time>2022-09-08T18:04:23Z</time>
      </trkpt>
      <trkpt lat="43.9284" lon="1.85135">
        <ele>272</ele>
        <time>2022-09-08T18:04:24Z</time>
      </trkpt>
      <trkpt lat="43.92842" lon="1.85133">
        <ele>272.2</ele>
        <time>2022-09-08T18:04:25Z</time>
      </trkpt>
      <trkpt lat="43.92844" lon="1.85132">
        <ele>272.4</ele>
        <time>2022-09-08T18:04:26Z</time>
      </trkpt>
      <trkpt lat="43.92845" lon="1.85131">
        <ele>272.6</ele>
        <time>2022-09-08T18:04:27Z</time>
      </trkpt>
      <trkpt lat="43.92847" lon="1.8513">
        <ele>273</ele>
        <time>2022-09-08T18:04:28Z</time>
      </trkpt>
      <trkpt lat="43.92849" lon="1.85129">
        <ele>273.2</ele>
        <time>2022-09-08T18:04:29Z</time>
      </trkpt>
      <trkpt lat="43.92851" lon="1.85127">
        <ele>273.6</ele>
        <time>2022-09-08T18:04:30Z</time>
      </trkpt>
      <trkpt lat="43.92853" lon="1.85126">
        <ele>273.8</ele>
        <time>2022-09-08T18:04:31Z</time>
      </trkpt>
      <trkpt lat="43.92855" lon="1.85124">
        <ele>274</ele>
        <time>2022-09-08T18:04:32Z</time>
      </trkpt>
      <trkpt lat="43.92857" lon="1.85122">
        <ele>274</ele>
        <time>2022-09-08T18:04:33Z</time>
      </trkpt>
      <trkpt lat="43.9286" lon="1.8512">
        <ele>274.2</ele>
        <time>2022-09-08T18:04:34Z</time>
      </trkpt>
      <trkpt lat="43.92862" lon="1.85118">
        <ele>274.6</ele>
        <time>2022-09-08T18:04:35Z</time>
      </trkpt>
      <trkpt lat="43.92865" lon="1.85116">
        <ele>274.8</ele>
        <time>2022-09-08T18:04:36Z</time>
      </trkpt>
      <trkpt lat="43.92868" lon="1.85115">
        <ele>275</ele>
        <time>2022-09-08T18:04:37Z</time>
      </trkpt>
      <trkpt lat="43.92871" lon="1.85113">
        <ele>275.2</ele>
        <time>2022-09-08T18:04:38Z</time>
      </trkpt>
      <trkpt lat="43.92874" lon="1.85111">
        <ele>275.2</ele>
        <time>2022-09-08T18:04:39Z</time>
      </trkpt>
      <trkpt lat="43.92877" lon="1.8511">
        <ele>275.4</ele>
        <time>2022-09-08T18:04:40Z</time>
      </trkpt>
      <trkpt lat="43.9288" lon="1.85108">
        <ele>275.4</ele>
        <time>2022-09-08T18:04:41Z</time>
      </trkpt>
      <trkpt lat="43.92883" lon="1.85107">
        <ele>275.6</ele>
        <time>2022-09-08T18:04:42Z</time>
      </trkpt>
      <trkpt lat="43.92885" lon="1.85106">
        <ele>275.6</ele>
        <time>2022-09-08T18:04:43Z</time>
      </trkpt>
      <trkpt lat="43.92887" lon="1.85105">
        <ele>275.8</ele>
        <time>2022-09-08T18:04:44Z</time>
      </trkpt>
      <trkpt lat="43.92888" lon="1.85104">
        <ele>275.8</ele>
        <time>2022-09-08T18:04:45Z</time>
      </trkpt>
      <trkpt lat="43.92889" lon="1.85104">
        <ele>276</ele>
        <time>2022-09-08T18:04:46Z</time>
      </trkpt>
      <trkpt lat="43.92889" lon="1.85104">
        <ele>276</ele>
        <time>2022-09-08T18:04:47Z</time>
      </trkpt>
      <trkpt lat="43.9289" lon="1.85103">
        <ele>276</ele>
        <time>2022-09-08T18:04:48Z</time>
      </trkpt>
      <trkpt lat="43.92891" lon="1.85103">
        <ele>276</ele>
        <time>2022-09-08T18:04:49Z</time>
      </trkpt>
      <trkpt lat="43.92893" lon="1.85103">
        <ele>276.2</ele>
        <time>2022-09-08T18:04:50Z</time>
      </trkpt>
      <trkpt lat="43.92894" lon="1.85102">
        <ele>276.2</ele>
        <time>2022-09-08T18:04:51Z</time>
      </trkpt>
      <trkpt lat="43.92896" lon="1.85102">
        <ele>276.4</ele>
        <time>2022-09-08T18:04:52Z</time>
      </trkpt>
      <trkpt lat="43.92896" lon="1.85104">
        <ele>276.4</ele>
        <time>2022-09-08T18:04:53Z</time>
      </trkpt>
      <trkpt lat="43.92896" lon="1.85106">
        <ele>276.4</ele>
        <time>2022-09-08T18:04:54Z</time>
      </trkpt>
      <trkpt lat="43.92894" lon="1.85108">
        <ele>276.4</ele>
        <time>2022-09-08T18:04:55Z</time>
      </trkpt>
      <trkpt lat="43.92891" lon="1.85111">
        <ele>276.4</ele>
        <time>2022-09-08T18:04:56Z</time>
      </trkpt>
      <trkpt lat="43.92888" lon="1.85114">
        <ele>276.4</ele>
        <time>2022-09-08T18:04:57Z</time>
      </trkpt>
      <trkpt lat="43.92885" lon="1.85117">
        <ele>276.4</ele>
        <time>2022-09-08T18:04:58Z</time>
      </trkpt>
      <trkpt lat="43.92882" lon="1.85121">
        <ele>276.4</ele>
        <time>2022-09-08T18:04:59Z</time>
      </trkpt>
      <trkpt lat="43.92877" lon="1.85124">
        <ele>276.2</ele>
        <time>2022-09-08T18:05:00Z</time>
      </trkpt>
      <trkpt lat="43.92873" lon="1.85129">
        <ele>276</ele>
        <time>2022-09-08T18:05:01Z</time>
      </trkpt>
      <trkpt lat="43.92869" lon="1.85134">
        <ele>275.4</ele>
        <time>2022-09-08T18:05:02Z</time>
      </trkpt>
      <trkpt lat="43.92864" lon="1.8514">
        <ele>275.2</ele>
        <time>2022-09-08T18:05:03Z</time>
      </trkpt>
      <trkpt lat="43.9286" lon="1.85147">
        <ele>274.2</ele>
        <time>2022-09-08T18:05:04Z</time>
      </trkpt>
      <trkpt lat="43.92858" lon="1.85154">
        <ele>273.8</ele>
        <time>2022-09-08T18:05:05Z</time>
      </trkpt>
      <trkpt lat="43.92854" lon="1.8517">
        <ele>272.2</ele>
        <time>2022-09-08T18:05:07Z</time>
      </trkpt>
      <trkpt lat="43.92853" lon="1.85179">
        <ele>271.8</ele>
        <time>2022-09-08T18:05:08Z</time>
      </trkpt>
      <trkpt lat="43.92854" lon="1.85187">
        <ele>271</ele>
        <time>2022-09-08T18:05:09Z</time>
      </trkpt>
      <trkpt lat="43.92854" lon="1.85196">
        <ele>270.4</ele>
        <time>2022-09-08T18:05:10Z</time>
      </trkpt>
      <trkpt lat="43.92855" lon="1.85204">
        <ele>269.4</ele>
        <time>2022-09-08T18:05:11Z</time>
      </trkpt>
      <trkpt lat="43.92858" lon="1.85221">
        <ele>268.4</ele>
        <time>2022-09-08T18:05:13Z</time>
      </trkpt>
      <trkpt lat="43.92861" lon="1.85231">
        <ele>266.8</ele>
        <time>2022-09-08T18:05:14Z</time>
      </trkpt>
      <trkpt lat="43.92869" lon="1.85254">
        <ele>264.8</ele>
        <time>2022-09-08T18:05:16Z</time>
      </trkpt>
      <trkpt lat="43.92877" lon="1.85279">
        <ele>263</ele>
        <time>2022-09-08T18:05:18Z</time>
      </trkpt>
      <trkpt lat="43.9288" lon="1.85289">
        <ele>262.4</ele>
        <time>2022-09-08T18:05:19Z</time>
      </trkpt>
      <trkpt lat="43.9288" lon="1.85298">
        <ele>260.8</ele>
        <time>2022-09-08T18:05:20Z</time>
      </trkpt>
      <trkpt lat="43.92879" lon="1.8531">
        <ele>260.2</ele>
        <time>2022-09-08T18:05:21Z</time>
      </trkpt>
      <trkpt lat="43.92875" lon="1.85322">
        <ele>259.2</ele>
        <time>2022-09-08T18:05:22Z</time>
      </trkpt>
      <trkpt lat="43.92871" lon="1.85336">
        <ele>258.2</ele>
        <time>2022-09-08T18:05:23Z</time>
      </trkpt>
      <trkpt lat="43.92867" lon="1.85352">
        <ele>257.8</ele>
        <time>2022-09-08T18:05:24Z</time>
      </trkpt>
      <trkpt lat="43.92862" lon="1.8537">
        <ele>256.2</ele>
        <time>2022-09-08T18:05:25Z</time>
      </trkpt>
      <trkpt lat="43.92853" lon="1.85404">
        <ele>253.8</ele>
        <time>2022-09-08T18:05:27Z</time>
      </trkpt>
      <trkpt lat="43.92849" lon="1.85421">
        <ele>253.2</ele>
        <time>2022-09-08T18:05:28Z</time>
      </trkpt>
      <trkpt lat="43.92845" lon="1.85438">
        <ele>251.6</ele>
        <time>2022-09-08T18:05:29Z</time>
      </trkpt>
      <trkpt lat="43.92841" lon="1.85455">
        <ele>249.6</ele>
        <time>2022-09-08T18:05:30Z</time>
      </trkpt>
      <trkpt lat="43.92839" lon="1.85469">
        <ele>248.2</ele>
        <time>2022-09-08T18:05:31Z</time>
      </trkpt>
      <trkpt lat="43.92838" lon="1.85483">
        <ele>245.8</ele>
        <time>2022-09-08T18:05:32Z</time>
      </trkpt>
      <trkpt lat="43.92835" lon="1.85495">
        <ele>245</ele>
        <time>2022-09-08T18:05:33Z</time>
      </trkpt>
      <trkpt lat="43.92834" lon="1.85507">
        <ele>244</ele>
        <time>2022-09-08T18:05:34Z</time>
      </trkpt>
      <trkpt lat="43.92834" lon="1.85521">
        <ele>243</ele>
        <time>2022-09-08T18:05:35Z</time>
      </trkpt>
      <trkpt lat="43.92833" lon="1.85536">
        <ele>241.2</ele>
        <time>2022-09-08T18:05:36Z</time>
      </trkpt>
      <trkpt lat="43.92833" lon="1.85553">
        <ele>240.4</ele>
        <time>2022-09-08T18:05:37Z</time>
      </trkpt>
      <trkpt lat="43.92836" lon="1.85569">
        <ele>238.6</ele>
        <time>2022-09-08T18:05:38Z</time>
      </trkpt>
      <trkpt lat="43.92839" lon="1.85583">
        <ele>236.2</ele>
        <time>2022-09-08T18:05:39Z</time>
      </trkpt>
      <trkpt lat="43.92841" lon="1.85596">
        <ele>234.8</ele>
        <time>2022-09-08T18:05:40Z</time>
      </trkpt>
      <trkpt lat="43.92842" lon="1.85608">
        <ele>232.6</ele>
        <time>2022-09-08T18:05:41Z</time>
      </trkpt>
      <trkpt lat="43.92843" lon="1.85617">
        <ele>231.8</ele>
        <time>2022-09-08T18:05:42Z</time>
      </trkpt>
      <trkpt lat="43.92844" lon="1.85625">
        <ele>228.8</ele>
        <time>2022-09-08T18:05:43Z</time>
      </trkpt>
      <trkpt lat="43.92845" lon="1.85631">
        <ele>228</ele>
        <time>2022-09-08T18:05:44Z</time>
      </trkpt>
      <trkpt lat="43.92846" lon="1.85636">
        <ele>226.4</ele>
        <time>2022-09-08T18:05:45Z</time>
      </trkpt>
      <trkpt lat="43.92847" lon="1.85641">
        <ele>225</ele>
        <time>2022-09-08T18:05:46Z</time>
      </trkpt>
      <trkpt lat="43.92847" lon="1.85644">
        <ele>223.6</ele>
        <time>2022-09-08T18:05:47Z</time>
      </trkpt>
      <trkpt lat="43.92846" lon="1.85647">
        <ele>221.8</ele>
        <time>2022-09-08T18:05:48Z</time>
      </trkpt>
      <trkpt lat="43.92844" lon="1.85651">
        <ele>221</ele>
        <time>2022-09-08T18:05:49Z</time>
      </trkpt>
      <trkpt lat="43.92843" lon="1.85654">
        <ele>219.6</ele>
        <time>2022-09-08T18:05:50Z</time>
      </trkpt>
      <trkpt lat="43.92842" lon="1.85656">
        <ele>219</ele>
        <time>2022-09-08T18:05:51Z</time>
      </trkpt>
      <trkpt lat="43.9284" lon="1.8566">
        <ele>217.8</ele>
        <time>2022-09-08T18:05:52Z</time>
      </trkpt>
      <trkpt lat="43.92837" lon="1.85666">
        <ele>216.4</ele>
        <time>2022-09-08T18:05:54Z</time>
      </trkpt>
      <trkpt lat="43.92832" lon="1.85673">
        <ele>214.8</ele>
        <time>2022-09-08T18:05:57Z</time>
      </trkpt>
      <trkpt lat="43.92821" lon="1.85686">
        <ele>213.6</ele>
        <time>2022-09-08T18:06:00Z</time>
      </trkpt>
      <trkpt lat="43.92818" lon="1.85695">
        <ele>212.6</ele>
        <time>2022-09-08T18:06:02Z</time>
      </trkpt>
      <trkpt lat="43.92817" lon="1.85702">
        <ele>212.4</ele>
        <time>2022-09-08T18:06:03Z</time>
      </trkpt>
      <trkpt lat="43.92816" lon="1.85708">
        <ele>212.2</ele>
        <time>2022-09-08T18:06:04Z</time>
      </trkpt>
      <trkpt lat="43.92815" lon="1.85714">
        <ele>212</ele>
        <time>2022-09-08T18:06:05Z</time>
      </trkpt>
      <trkpt lat="43.92812" lon="1.85719">
        <ele>211.4</ele>
        <time>2022-09-08T18:06:06Z</time>
      </trkpt>
      <trkpt lat="43.9281" lon="1.85725">
        <ele>211.2</ele>
        <time>2022-09-08T18:06:07Z</time>
      </trkpt>
      <trkpt lat="43.92801" lon="1.85746">
        <ele>210</ele>
        <time>2022-09-08T18:06:10Z</time>
      </trkpt>
      <trkpt lat="43.92797" lon="1.85756">
        <ele>209.6</ele>
        <time>2022-09-08T18:06:11Z</time>
      </trkpt>
      <trkpt lat="43.92795" lon="1.85762">
        <ele>209.6</ele>
        <time>2022-09-08T18:06:12Z</time>
      </trkpt>
      <trkpt lat="43.92793" lon="1.85769">
        <ele>209.2</ele>
        <time>2022-09-08T18:06:13Z</time>
      </trkpt>
      <trkpt lat="43.92791" lon="1.85776">
        <ele>208.8</ele>
        <time>2022-09-08T18:06:14Z</time>
      </trkpt>
      <trkpt lat="43.92789" lon="1.85782">
        <ele>208.2</ele>
        <time>2022-09-08T18:06:15Z</time>
      </trkpt>
      <trkpt lat="43.92787" lon="1.85789">
        <ele>208</ele>
        <time>2022-09-08T18:06:16Z</time>
      </trkpt>
      <trkpt lat="43.92785" lon="1.85795">
        <ele>207.2</ele>
        <time>2022-09-08T18:06:17Z</time>
      </trkpt>
      <trkpt lat="43.92781" lon="1.85816">
        <ele>206</ele>
        <time>2022-09-08T18:06:20Z</time>
      </trkpt>
      <trkpt lat="43.92772" lon="1.85849">
        <ele>204.8</ele>
        <time>2022-09-08T18:06:24Z</time>
      </trkpt>
      <trkpt lat="43.92764" lon="1.85885">
        <ele>203.6</ele>
        <time>2022-09-08T18:06:28Z</time>
      </trkpt>
      <trkpt lat="43.92757" lon="1.85913">
        <ele>202.8</ele>
        <time>2022-09-08T18:06:31Z</time>
      </trkpt>
      <trkpt lat="43.92755" lon="1.85922">
        <ele>202.6</ele>
        <time>2022-09-08T18:06:32Z</time>
      </trkpt>
      <trkpt lat="43.92753" lon="1.8593">
        <ele>202</ele>
        <time>2022-09-08T18:06:33Z</time>
      </trkpt>
      <trkpt lat="43.92752" lon="1.85937">
        <ele>201.8</ele>
        <time>2022-09-08T18:06:34Z</time>
      </trkpt>
      <trkpt lat="43.9275" lon="1.85942">
        <ele>201.6</ele>
        <time>2022-09-08T18:06:35Z</time>
      </trkpt>
      <trkpt lat="43.92748" lon="1.85947">
        <ele>201.4</ele>
        <time>2022-09-08T18:06:36Z</time>
      </trkpt>
      <trkpt lat="43.92745" lon="1.8595">
        <ele>201.2</ele>
        <time>2022-09-08T18:06:37Z</time>
      </trkpt>
      <trkpt lat="43.92743" lon="1.85952">
        <ele>200.8</ele>
        <time>2022-09-08T18:06:38Z</time>
      </trkpt>
      <trkpt lat="43.92741" lon="1.85951">
        <ele>200.4</ele>
        <time>2022-09-08T18:06:39Z</time>
      </trkpt>
      <trkpt lat="43.92739" lon="1.85948">
        <ele>200</ele>
        <time>2022-09-08T18:06:40Z</time>
      </trkpt>
      <trkpt lat="43.92738" lon="1.85944">
        <ele>199.8</ele>
        <time>2022-09-08T18:06:41Z</time>
      </trkpt>
      <trkpt lat="43.92737" lon="1.85941">
        <ele>199.6</ele>
        <time>2022-09-08T18:06:42Z</time>
      </trkpt>
      <trkpt lat="43.92735" lon="1.85938">
        <ele>199.2</ele>
        <time>2022-09-08T18:06:43Z</time>
      </trkpt>
      <trkpt lat="43.92734" lon="1.85935">
        <ele>199.2</ele>
        <time>2022-09-08T18:06:44Z</time>
      </trkpt>
      <trkpt lat="43.92732" lon="1.85934">
        <ele>199</ele>
        <time>2022-09-08T18:06:45Z</time>
      </trkpt>
      <trkpt lat="43.92731" lon="1.85933">
        <ele>199</ele>
        <time>2022-09-08T18:06:46Z</time>
      </trkpt>
      <trkpt lat="43.92729" lon="1.85933">
        <ele>199</ele>
        <time>2022-09-08T18:06:47Z</time>
      </trkpt>
      <trkpt lat="43.92726" lon="1.85932">
        <ele>199</ele>
        <time>2022-09-08T18:06:48Z</time>
      </trkpt>
      <trkpt lat="43.92724" lon="1.85931">
        <ele>198.8</ele>
        <time>2022-09-08T18:06:49Z</time>
      </trkpt>
      <trkpt lat="43.92723" lon="1.85931">
        <ele>198.8</ele>
        <time>2022-09-08T18:06:50Z</time>
      </trkpt>
      <trkpt lat="43.92722" lon="1.85931">
        <ele>198.8</ele>
        <time>2022-09-08T18:06:51Z</time>
      </trkpt>
      <trkpt lat="43.92719" lon="1.85932">
        <ele>198</ele>
        <time>2022-09-08T18:07:13Z</time>
      </trkpt>
      <trkpt lat="43.92717" lon="1.85932">
        <ele>198.4</ele>
        <time>2022-09-08T18:07:14Z</time>
      </trkpt>
      <trkpt lat="43.92699" lon="1.85931">
        <ele>198.4</ele>
        <time>2022-09-08T18:07:21Z</time>
      </trkpt>
      <trkpt lat="43.92693" lon="1.8593">
        <ele>198.4</ele>
        <time>2022-09-08T18:07:23Z</time>
      </trkpt>
      <trkpt lat="43.92691" lon="1.8593">
        <ele>198.4</ele>
        <time>2022-09-08T18:07:24Z</time>
      </trkpt>
      <trkpt lat="43.92688" lon="1.8593">
        <ele>198.4</ele>
        <time>2022-09-08T18:07:25Z</time>
      </trkpt>
      <trkpt lat="43.92686" lon="1.8593">
        <ele>198.6</ele>
        <time>2022-09-08T18:07:26Z</time>
      </trkpt>
      <trkpt lat="43.92684" lon="1.85929">
        <ele>198.6</ele>
        <time>2022-09-08T18:07:27Z</time>
      </trkpt>
      <trkpt lat="43.92682" lon="1.85929">
        <ele>198.8</ele>
        <time>2022-09-08T18:07:28Z</time>
      </trkpt>
      <trkpt lat="43.9268" lon="1.85928">
        <ele>198.8</ele>
        <time>2022-09-08T18:07:29Z</time>
      </trkpt>
      <trkpt lat="43.92678" lon="1.85928">
        <ele>198.8</ele>
        <time>2022-09-08T18:07:30Z</time>
      </trkpt>
      <trkpt lat="43.92668" lon="1.85924">
        <ele>200</ele>
        <time>2022-09-08T18:07:35Z</time>
      </trkpt>
      <trkpt lat="43.92666" lon="1.85923">
        <ele>200.2</ele>
        <time>2022-09-08T18:07:36Z</time>
      </trkpt>
      <trkpt lat="43.92664" lon="1.85922">
        <ele>200.4</ele>
        <time>2022-09-08T18:07:37Z</time>
      </trkpt>
      <trkpt lat="43.92658" lon="1.8592">
        <ele>201</ele>
        <time>2022-09-08T18:07:40Z</time>
      </trkpt>
      <trkpt lat="43.92656" lon="1.85919">
        <ele>201.2</ele>
        <time>2022-09-08T18:07:41Z</time>
      </trkpt>
      <trkpt lat="43.92654" lon="1.85919">
        <ele>201.4</ele>
        <time>2022-09-08T18:07:42Z</time>
      </trkpt>
      <trkpt lat="43.92653" lon="1.85918">
        <ele>201.6</ele>
        <time>2022-09-08T18:07:43Z</time>
      </trkpt>
      <trkpt lat="43.92651" lon="1.85917">
        <ele>202</ele>
        <time>2022-09-08T18:07:44Z</time>
      </trkpt>
      <trkpt lat="43.9265" lon="1.85916">
        <ele>202.2</ele>
        <time>2022-09-08T18:07:45Z</time>
      </trkpt>
      <trkpt lat="43.92648" lon="1.85915">
        <ele>202.4</ele>
        <time>2022-09-08T18:07:46Z</time>
      </trkpt>
      <trkpt lat="43.92647" lon="1.85915">
        <ele>202.8</ele>
        <time>2022-09-08T18:07:47Z</time>
      </trkpt>
      <trkpt lat="43.92645" lon="1.85914">
        <ele>202.8</ele>
        <time>2022-09-08T18:07:48Z</time>
      </trkpt>
      <trkpt lat="43.92644" lon="1.85913">
        <ele>203.2</ele>
        <time>2022-09-08T18:07:49Z</time>
      </trkpt>
      <trkpt lat="43.92643" lon="1.85912">
        <ele>203.4</ele>
        <time>2022-09-08T18:07:50Z</time>
      </trkpt>
      <trkpt lat="43.92641" lon="1.85911">
        <ele>203.6</ele>
        <time>2022-09-08T18:07:51Z</time>
      </trkpt>
      <trkpt lat="43.9264" lon="1.8591">
        <ele>203.8</ele>
        <time>2022-09-08T18:07:52Z</time>
      </trkpt>
      <trkpt lat="43.92639" lon="1.85909">
        <ele>204</ele>
        <time>2022-09-08T18:07:53Z</time>
      </trkpt>
      <trkpt lat="43.92639" lon="1.85909">
        <ele>204.4</ele>
        <time>2022-09-08T18:07:54Z</time>
      </trkpt>
      <trkpt lat="43.92638" lon="1.85908">
        <ele>204.6</ele>
        <time>2022-09-08T18:07:55Z</time>
      </trkpt>
      <trkpt lat="43.92636" lon="1.85909">
        <ele>204.8</ele>
        <time>2022-09-08T18:07:56Z</time>
      </trkpt>
      <trkpt lat="43.92635" lon="1.8591">
        <ele>204.8</ele>
        <time>2022-09-08T18:07:57Z</time>
      </trkpt>
      <trkpt lat="43.92633" lon="1.85911">
        <ele>205.2</ele>
        <time>2022-09-08T18:07:58Z</time>
      </trkpt>
      <trkpt lat="43.92632" lon="1.85911">
        <ele>205.4</ele>
        <time>2022-09-08T18:07:59Z</time>
      </trkpt>
      <trkpt lat="43.92631" lon="1.85912">
        <ele>205.8</ele>
        <time>2022-09-08T18:08:00Z</time>
      </trkpt>
      <trkpt lat="43.92629" lon="1.85912">
        <ele>205.8</ele>
        <time>2022-09-08T18:08:01Z</time>
      </trkpt>
      <trkpt lat="43.92628" lon="1.85913">
        <ele>206</ele>
        <time>2022-09-08T18:08:02Z</time>
      </trkpt>
      <trkpt lat="43.92626" lon="1.85913">
        <ele>206.2</ele>
        <time>2022-09-08T18:08:03Z</time>
      </trkpt>
      <trkpt lat="43.92625" lon="1.85913">
        <ele>206.2</ele>
        <time>2022-09-08T18:08:04Z</time>
      </trkpt>
      <trkpt lat="43.92623" lon="1.85913">
        <ele>206.4</ele>
        <time>2022-09-08T18:08:05Z</time>
      </trkpt>
      <trkpt lat="43.92622" lon="1.85913">
        <ele>206.6</ele>
        <time>2022-09-08T18:08:06Z</time>
      </trkpt>
      <trkpt lat="43.9262" lon="1.85913">
        <ele>206.8</ele>
        <time>2022-09-08T18:08:07Z</time>
      </trkpt>
      <trkpt lat="43.92619" lon="1.85913">
        <ele>207</ele>
        <time>2022-09-08T18:08:08Z</time>
      </trkpt>
      <trkpt lat="43.92618" lon="1.85913">
        <ele>207.4</ele>
        <time>2022-09-08T18:08:09Z</time>
      </trkpt>
      <trkpt lat="43.92616" lon="1.85913">
        <ele>207.4</ele>
        <time>2022-09-08T18:08:10Z</time>
      </trkpt>
      <trkpt lat="43.92615" lon="1.85913">
        <ele>207.6</ele>
        <time>2022-09-08T18:08:11Z</time>
      </trkpt>
      <trkpt lat="43.92614" lon="1.85913">
        <ele>207.8</ele>
        <time>2022-09-08T18:08:12Z</time>
      </trkpt>
      <trkpt lat="43.92613" lon="1.85913">
        <ele>208</ele>
        <time>2022-09-08T18:08:13Z</time>
      </trkpt>
      <trkpt lat="43.92611" lon="1.85913">
        <ele>208.4</ele>
        <time>2022-09-08T18:08:14Z</time>
      </trkpt>
      <trkpt lat="43.9261" lon="1.85913">
        <ele>208.6</ele>
        <time>2022-09-08T18:08:15Z</time>
      </trkpt>
      <trkpt lat="43.92609" lon="1.85913">
        <ele>208.8</ele>
        <time>2022-09-08T18:08:16Z</time>
      </trkpt>
      <trkpt lat="43.92607" lon="1.85914">
        <ele>209</ele>
        <time>2022-09-08T18:08:17Z</time>
      </trkpt>
      <trkpt lat="43.92606" lon="1.85914">
        <ele>209.2</ele>
        <time>2022-09-08T18:08:18Z</time>
      </trkpt>
      <trkpt lat="43.92605" lon="1.85915">
        <ele>209.6</ele>
        <time>2022-09-08T18:08:19Z</time>
      </trkpt>
      <trkpt lat="43.92603" lon="1.85915">
        <ele>209.6</ele>
        <time>2022-09-08T18:08:20Z</time>
      </trkpt>
      <trkpt lat="43.92602" lon="1.85915">
        <ele>210</ele>
        <time>2022-09-08T18:08:21Z</time>
      </trkpt>
      <trkpt lat="43.92601" lon="1.85915">
        <ele>210.2</ele>
        <time>2022-09-08T18:08:22Z</time>
      </trkpt>
      <trkpt lat="43.92599" lon="1.85916">
        <ele>210.4</ele>
        <time>2022-09-08T18:08:23Z</time>
      </trkpt>
      <trkpt lat="43.92598" lon="1.85916">
        <ele>210.6</ele>
        <time>2022-09-08T18:08:24Z</time>
      </trkpt>
      <trkpt lat="43.92597" lon="1.85917">
        <ele>210.8</ele>
        <time>2022-09-08T18:08:25Z</time>
      </trkpt>
      <trkpt lat="43.92595" lon="1.85917">
        <ele>211</ele>
        <time>2022-09-08T18:08:26Z</time>
      </trkpt>
      <trkpt lat="43.92594" lon="1.85917">
        <ele>211.2</ele>
        <time>2022-09-08T18:08:27Z</time>
      </trkpt>
      <trkpt lat="43.92592" lon="1.85917">
        <ele>211.8</ele>
        <time>2022-09-08T18:08:28Z</time>
      </trkpt>
      <trkpt lat="43.9259" lon="1.85918">
        <ele>212</ele>
        <time>2022-09-08T18:08:29Z</time>
      </trkpt>
      <trkpt lat="43.92588" lon="1.85918">
        <ele>212.4</ele>
        <time>2022-09-08T18:08:30Z</time>
      </trkpt>
      <trkpt lat="43.92587" lon="1.85918">
        <ele>212.6</ele>
        <time>2022-09-08T18:08:31Z</time>
      </trkpt>
      <trkpt lat="43.92586" lon="1.85918">
        <ele>212.8</ele>
        <time>2022-09-08T18:08:32Z</time>
      </trkpt>
      <trkpt lat="43.92584" lon="1.85918">
        <ele>213</ele>
        <time>2022-09-08T18:08:33Z</time>
      </trkpt>
      <trkpt lat="43.92582" lon="1.85918">
        <ele>213.4</ele>
        <time>2022-09-08T18:08:34Z</time>
      </trkpt>
      <trkpt lat="43.92581" lon="1.85919">
        <ele>213.8</ele>
        <time>2022-09-08T18:08:35Z</time>
      </trkpt>
      <trkpt lat="43.92579" lon="1.85919">
        <ele>213.8</ele>
        <time>2022-09-08T18:08:36Z</time>
      </trkpt>
      <trkpt lat="43.92578" lon="1.8592">
        <ele>214.4</ele>
        <time>2022-09-08T18:08:37Z</time>
      </trkpt>
      <trkpt lat="43.92576" lon="1.8592">
        <ele>214.4</ele>
        <time>2022-09-08T18:08:38Z</time>
      </trkpt>
      <trkpt lat="43.92575" lon="1.85921">
        <ele>214.6</ele>
        <time>2022-09-08T18:08:39Z</time>
      </trkpt>
      <trkpt lat="43.92574" lon="1.85922">
        <ele>214.8</ele>
        <time>2022-09-08T18:08:40Z</time>
      </trkpt>
      <trkpt lat="43.92572" lon="1.85922">
        <ele>215.2</ele>
        <time>2022-09-08T18:08:41Z</time>
      </trkpt>
      <trkpt lat="43.92571" lon="1.85923">
        <ele>215.6</ele>
        <time>2022-09-08T18:08:42Z</time>
      </trkpt>
      <trkpt lat="43.9257" lon="1.85923">
        <ele>216</ele>
        <time>2022-09-08T18:08:43Z</time>
      </trkpt>
      <trkpt lat="43.92568" lon="1.85924">
        <ele>216.4</ele>
        <time>2022-09-08T18:08:44Z</time>
      </trkpt>
      <trkpt lat="43.92567" lon="1.85925">
        <ele>216.6</ele>
        <time>2022-09-08T18:08:45Z</time>
      </trkpt>
      <trkpt lat="43.92565" lon="1.85926">
        <ele>217</ele>
        <time>2022-09-08T18:08:46Z</time>
      </trkpt>
      <trkpt lat="43.92564" lon="1.85927">
        <ele>217.2</ele>
        <time>2022-09-08T18:08:47Z</time>
      </trkpt>
      <trkpt lat="43.92564" lon="1.85929">
        <ele>217.6</ele>
        <time>2022-09-08T18:08:48Z</time>
      </trkpt>
      <trkpt lat="43.92563" lon="1.85931">
        <ele>218</ele>
        <time>2022-09-08T18:08:49Z</time>
      </trkpt>
      <trkpt lat="43.92562" lon="1.85933">
        <ele>218</ele>
        <time>2022-09-08T18:08:50Z</time>
      </trkpt>
      <trkpt lat="43.92562" lon="1.85935">
        <ele>218.6</ele>
        <time>2022-09-08T18:08:51Z</time>
      </trkpt>
      <trkpt lat="43.92561" lon="1.85937">
        <ele>218.8</ele>
        <time>2022-09-08T18:08:52Z</time>
      </trkpt>
      <trkpt lat="43.9256" lon="1.8594">
        <ele>219</ele>
        <time>2022-09-08T18:08:53Z</time>
      </trkpt>
      <trkpt lat="43.9256" lon="1.85942">
        <ele>219.2</ele>
        <time>2022-09-08T18:08:54Z</time>
      </trkpt>
      <trkpt lat="43.9256" lon="1.85945">
        <ele>219.4</ele>
        <time>2022-09-08T18:08:55Z</time>
      </trkpt>
      <trkpt lat="43.92559" lon="1.85947">
        <ele>219.4</ele>
        <time>2022-09-08T18:08:56Z</time>
      </trkpt>
      <trkpt lat="43.92559" lon="1.8595">
        <ele>219.6</ele>
        <time>2022-09-08T18:08:57Z</time>
      </trkpt>
      <trkpt lat="43.92558" lon="1.85953">
        <ele>219.6</ele>
        <time>2022-09-08T18:08:58Z</time>
      </trkpt>
      <trkpt lat="43.92557" lon="1.85956">
        <ele>219.8</ele>
        <time>2022-09-08T18:08:59Z</time>
      </trkpt>
      <trkpt lat="43.92557" lon="1.8596">
        <ele>219.8</ele>
        <time>2022-09-08T18:09:00Z</time>
      </trkpt>
      <trkpt lat="43.92557" lon="1.85964">
        <ele>219.8</ele>
        <time>2022-09-08T18:09:01Z</time>
      </trkpt>
      <trkpt lat="43.92556" lon="1.85968">
        <ele>219.8</ele>
        <time>2022-09-08T18:09:02Z</time>
      </trkpt>
      <trkpt lat="43.92555" lon="1.85973">
        <ele>219.8</ele>
        <time>2022-09-08T18:09:03Z</time>
      </trkpt>
      <trkpt lat="43.92555" lon="1.85976">
        <ele>219.8</ele>
        <time>2022-09-08T18:09:04Z</time>
      </trkpt>
      <trkpt lat="43.92554" lon="1.8598">
        <ele>219.8</ele>
        <time>2022-09-08T18:09:05Z</time>
      </trkpt>
      <trkpt lat="43.92552" lon="1.85985">
        <ele>219.8</ele>
        <time>2022-09-08T18:09:06Z</time>
      </trkpt>
      <trkpt lat="43.92551" lon="1.8599">
        <ele>219.6</ele>
        <time>2022-09-08T18:09:07Z</time>
      </trkpt>
      <trkpt lat="43.92549" lon="1.85997">
        <ele>219.6</ele>
        <time>2022-09-08T18:09:08Z</time>
      </trkpt>
      <trkpt lat="43.92547" lon="1.86005">
        <ele>219.4</ele>
        <time>2022-09-08T18:09:09Z</time>
      </trkpt>
      <trkpt lat="43.92545" lon="1.86013">
        <ele>219.2</ele>
        <time>2022-09-08T18:09:10Z</time>
      </trkpt>
      <trkpt lat="43.92542" lon="1.86021">
        <ele>219</ele>
        <time>2022-09-08T18:09:11Z</time>
      </trkpt>
      <trkpt lat="43.92539" lon="1.8603">
        <ele>218.8</ele>
        <time>2022-09-08T18:09:12Z</time>
      </trkpt>
      <trkpt lat="43.92537" lon="1.86039">
        <ele>218.2</ele>
        <time>2022-09-08T18:09:13Z</time>
      </trkpt>
      <trkpt lat="43.92534" lon="1.86048">
        <ele>217.8</ele>
        <time>2022-09-08T18:09:14Z</time>
      </trkpt>
      <trkpt lat="43.92531" lon="1.86057">
        <ele>217.2</ele>
        <time>2022-09-08T18:09:15Z</time>
      </trkpt>
      <trkpt lat="43.92528" lon="1.86066">
        <ele>216.6</ele>
        <time>2022-09-08T18:09:16Z</time>
      </trkpt>
      <trkpt lat="43.9252" lon="1.86083">
        <ele>215.6</ele>
        <time>2022-09-08T18:09:18Z</time>
      </trkpt>
      <trkpt lat="43.92518" lon="1.86091">
        <ele>215.4</ele>
        <time>2022-09-08T18:09:19Z</time>
      </trkpt>
      <trkpt lat="43.92516" lon="1.86097">
        <ele>215</ele>
        <time>2022-09-08T18:09:20Z</time>
      </trkpt>
      <trkpt lat="43.92514" lon="1.86101">
        <ele>214.4</ele>
        <time>2022-09-08T18:09:21Z</time>
      </trkpt>
      <trkpt lat="43.92514" lon="1.86103">
        <ele>214.2</ele>
        <time>2022-09-08T18:09:22Z</time>
      </trkpt>
      <trkpt lat="43.92513" lon="1.86104">
        <ele>213.4</ele>
        <time>2022-09-08T18:09:23Z</time>
      </trkpt>
      <trkpt lat="43.92512" lon="1.86105">
        <ele>213</ele>
        <time>2022-09-08T18:09:24Z</time>
      </trkpt>
      <trkpt lat="43.92512" lon="1.86106">
        <ele>212.6</ele>
        <time>2022-09-08T18:09:25Z</time>
      </trkpt>
      <trkpt lat="43.92511" lon="1.86106">
        <ele>210.4</ele>
        <time>2022-09-08T18:10:18Z</time>
      </trkpt>
      <trkpt lat="43.92508" lon="1.86117">
        <ele>210.4</ele>
        <time>2022-09-08T18:10:23Z</time>
      </trkpt>
      <trkpt lat="43.92501" lon="1.86143">
        <ele>210.4</ele>
        <time>2022-09-08T18:10:29Z</time>
      </trkpt>
      <trkpt lat="43.92494" lon="1.86171">
        <ele>210.2</ele>
        <time>2022-09-08T18:10:34Z</time>
      </trkpt>
      <trkpt lat="43.92489" lon="1.86184">
        <ele>209.8</ele>
        <time>2022-09-08T18:10:36Z</time>
      </trkpt>
      <trkpt lat="43.92483" lon="1.86197">
        <ele>209.8</ele>
        <time>2022-09-08T18:10:38Z</time>
      </trkpt>
      <trkpt lat="43.9248" lon="1.86202">
        <ele>209.4</ele>
        <time>2022-09-08T18:10:39Z</time>
      </trkpt>
      <trkpt lat="43.92479" lon="1.86206">
        <ele>209.2</ele>
        <time>2022-09-08T18:10:40Z</time>
      </trkpt>
      <trkpt lat="43.92477" lon="1.8621">
        <ele>209</ele>
        <time>2022-09-08T18:10:41Z</time>
      </trkpt>
      <trkpt lat="43.92474" lon="1.86215">
        <ele>209</ele>
        <time>2022-09-08T18:10:42Z</time>
      </trkpt>
      <trkpt lat="43.92471" lon="1.86221">
        <ele>208.8</ele>
        <time>2022-09-08T18:10:43Z</time>
      </trkpt>
      <trkpt lat="43.92461" lon="1.86239">
        <ele>208.6</ele>
        <time>2022-09-08T18:10:46Z</time>
      </trkpt>
      <trkpt lat="43.92457" lon="1.86244">
        <ele>208.2</ele>
        <time>2022-09-08T18:10:47Z</time>
      </trkpt>
      <trkpt lat="43.92454" lon="1.86249">
        <ele>208</ele>
        <time>2022-09-08T18:10:48Z</time>
      </trkpt>
      <trkpt lat="43.92448" lon="1.86261">
        <ele>207.8</ele>
        <time>2022-09-08T18:10:50Z</time>
      </trkpt>
      <trkpt lat="43.92444" lon="1.86268">
        <ele>207.8</ele>
        <time>2022-09-08T18:10:51Z</time>
      </trkpt>
      <trkpt lat="43.9244" lon="1.86273">
        <ele>207.8</ele>
        <time>2022-09-08T18:10:52Z</time>
      </trkpt>
      <trkpt lat="43.92437" lon="1.86278">
        <ele>207.8</ele>
        <time>2022-09-08T18:10:53Z</time>
      </trkpt>
      <trkpt lat="43.92427" lon="1.86291">
        <ele>207.6</ele>
        <time>2022-09-08T18:10:56Z</time>
      </trkpt>
      <trkpt lat="43.92423" lon="1.86295">
        <ele>207.6</ele>
        <time>2022-09-08T18:10:57Z</time>
      </trkpt>
      <trkpt lat="43.92419" lon="1.86301">
        <ele>207.6</ele>
        <time>2022-09-08T18:10:58Z</time>
      </trkpt>
      <trkpt lat="43.92415" lon="1.86306">
        <ele>207.6</ele>
        <time>2022-09-08T18:10:59Z</time>
      </trkpt>
      <trkpt lat="43.92408" lon="1.86313">
        <ele>207.6</ele>
        <time>2022-09-08T18:11:01Z</time>
      </trkpt>
      <trkpt lat="43.92404" lon="1.86317">
        <ele>207.6</ele>
        <time>2022-09-08T18:11:02Z</time>
      </trkpt>
      <trkpt lat="43.924" lon="1.86319">
        <ele>207.6</ele>
        <time>2022-09-08T18:11:03Z</time>
      </trkpt>
      <trkpt lat="43.92396" lon="1.86323">
        <ele>207.6</ele>
        <time>2022-09-08T18:11:04Z</time>
      </trkpt>
      <trkpt lat="43.92393" lon="1.86327">
        <ele>207.8</ele>
        <time>2022-09-08T18:11:05Z</time>
      </trkpt>
      <trkpt lat="43.92389" lon="1.86332">
        <ele>207.8</ele>
        <time>2022-09-08T18:11:06Z</time>
      </trkpt>
      <trkpt lat="43.92385" lon="1.86337">
        <ele>207.8</ele>
        <time>2022-09-08T18:11:07Z</time>
      </trkpt>
      <trkpt lat="43.92383" lon="1.8634">
        <ele>207.8</ele>
        <time>2022-09-08T18:11:08Z</time>
      </trkpt>
      <trkpt lat="43.92381" lon="1.86346">
        <ele>207.8</ele>
        <time>2022-09-08T18:11:09Z</time>
      </trkpt>
      <trkpt lat="43.92374" lon="1.86356">
        <ele>208</ele>
        <time>2022-09-08T18:11:11Z</time>
      </trkpt>
      <trkpt lat="43.92371" lon="1.8636">
        <ele>208</ele>
        <time>2022-09-08T18:11:12Z</time>
      </trkpt>
      <trkpt lat="43.92368" lon="1.86365">
        <ele>208</ele>
        <time>2022-09-08T18:11:13Z</time>
      </trkpt>
      <trkpt lat="43.92366" lon="1.86368">
        <ele>208</ele>
        <time>2022-09-08T18:11:14Z</time>
      </trkpt>
      <trkpt lat="43.92365" lon="1.8637">
        <ele>208.2</ele>
        <time>2022-09-08T18:11:15Z</time>
      </trkpt>
      <trkpt lat="43.9236" lon="1.86375">
        <ele>208.2</ele>
        <time>2022-09-08T18:11:16Z</time>
      </trkpt>
      <trkpt lat="43.92353" lon="1.86382">
        <ele>208.2</ele>
        <time>2022-09-08T18:11:18Z</time>
      </trkpt>
      <trkpt lat="43.92351" lon="1.86385">
        <ele>208.2</ele>
        <time>2022-09-08T18:11:19Z</time>
      </trkpt>
      <trkpt lat="43.9235" lon="1.86387">
        <ele>208.2</ele>
        <time>2022-09-08T18:11:20Z</time>
      </trkpt>
      <trkpt lat="43.92348" lon="1.86389">
        <ele>208.4</ele>
        <time>2022-09-08T18:11:21Z</time>
      </trkpt>
      <trkpt lat="43.92342" lon="1.864">
        <ele>208.4</ele>
        <time>2022-09-08T18:11:24Z</time>
      </trkpt>
      <trkpt lat="43.92334" lon="1.86409">
        <ele>208.6</ele>
        <time>2022-09-08T18:11:27Z</time>
      </trkpt>
      <trkpt lat="43.92312" lon="1.86428">
        <ele>208</ele>
        <time>2022-09-08T18:11:33Z</time>
      </trkpt>
      <trkpt lat="43.92308" lon="1.86431">
        <ele>208</ele>
        <time>2022-09-08T18:11:34Z</time>
      </trkpt>
      <trkpt lat="43.92297" lon="1.86438">
        <ele>207.6</ele>
        <time>2022-09-08T18:11:36Z</time>
      </trkpt>
      <trkpt lat="43.92291" lon="1.86442">
        <ele>207.6</ele>
        <time>2022-09-08T18:11:37Z</time>
      </trkpt>
      <trkpt lat="43.92284" lon="1.86446">
        <ele>207.4</ele>
        <time>2022-09-08T18:11:38Z</time>
      </trkpt>
      <trkpt lat="43.92279" lon="1.86449">
        <ele>207.4</ele>
        <time>2022-09-08T18:11:39Z</time>
      </trkpt>
      <trkpt lat="43.92274" lon="1.86452">
        <ele>207.2</ele>
        <time>2022-09-08T18:11:40Z</time>
      </trkpt>
      <trkpt lat="43.92268" lon="1.86456">
        <ele>207</ele>
        <time>2022-09-08T18:11:41Z</time>
      </trkpt>
      <trkpt lat="43.92264" lon="1.86459">
        <ele>206.6</ele>
        <time>2022-09-08T18:11:42Z</time>
      </trkpt>
      <trkpt lat="43.9226" lon="1.86462">
        <ele>206.6</ele>
        <time>2022-09-08T18:11:43Z</time>
      </trkpt>
      <trkpt lat="43.92256" lon="1.86466">
        <ele>206.2</ele>
        <time>2022-09-08T18:11:44Z</time>
      </trkpt>
      <trkpt lat="43.92252" lon="1.86468">
        <ele>206</ele>
        <time>2022-09-08T18:11:45Z</time>
      </trkpt>
      <trkpt lat="43.92249" lon="1.8647">
        <ele>206</ele>
        <time>2022-09-08T18:11:46Z</time>
      </trkpt>
      <trkpt lat="43.92244" lon="1.86473">
        <ele>205.8</ele>
        <time>2022-09-08T18:11:47Z</time>
      </trkpt>
      <trkpt lat="43.92237" lon="1.86482">
        <ele>205.4</ele>
        <time>2022-09-08T18:11:49Z</time>
      </trkpt>
      <trkpt lat="43.92234" lon="1.86487">
        <ele>205.2</ele>
        <time>2022-09-08T18:11:50Z</time>
      </trkpt>
      <trkpt lat="43.92231" lon="1.86494">
        <ele>205</ele>
        <time>2022-09-08T18:11:51Z</time>
      </trkpt>
      <trkpt lat="43.92228" lon="1.86502">
        <ele>204.8</ele>
        <time>2022-09-08T18:11:52Z</time>
      </trkpt>
      <trkpt lat="43.92225" lon="1.86508">
        <ele>204.8</ele>
        <time>2022-09-08T18:11:53Z</time>
      </trkpt>
      <trkpt lat="43.92222" lon="1.86515">
        <ele>204.8</ele>
        <time>2022-09-08T18:11:54Z</time>
      </trkpt>
      <trkpt lat="43.9222" lon="1.86522">
        <ele>204.8</ele>
        <time>2022-09-08T18:11:55Z</time>
      </trkpt>
      <trkpt lat="43.92218" lon="1.86528">
        <ele>204.8</ele>
        <time>2022-09-08T18:11:56Z</time>
      </trkpt>
      <trkpt lat="43.92216" lon="1.86532">
        <ele>204.8</ele>
        <time>2022-09-08T18:11:57Z</time>
      </trkpt>
      <trkpt lat="43.92214" lon="1.86537">
        <ele>204.8</ele>
        <time>2022-09-08T18:11:58Z</time>
      </trkpt>
      <trkpt lat="43.92212" lon="1.86542">
        <ele>205</ele>
        <time>2022-09-08T18:11:59Z</time>
      </trkpt>
      <trkpt lat="43.92204" lon="1.86556">
        <ele>205.4</ele>
        <time>2022-09-08T18:12:02Z</time>
      </trkpt>
      <trkpt lat="43.92196" lon="1.86574">
        <ele>205.6</ele>
        <time>2022-09-08T18:12:05Z</time>
      </trkpt>
      <trkpt lat="43.92194" lon="1.8658">
        <ele>206</ele>
        <time>2022-09-08T18:12:06Z</time>
      </trkpt>
      <trkpt lat="43.92192" lon="1.86584">
        <ele>206.2</ele>
        <time>2022-09-08T18:12:07Z</time>
      </trkpt>
      <trkpt lat="43.92191" lon="1.86589">
        <ele>206.2</ele>
        <time>2022-09-08T18:12:08Z</time>
      </trkpt>
      <trkpt lat="43.9219" lon="1.86594">
        <ele>206.2</ele>
        <time>2022-09-08T18:12:09Z</time>
      </trkpt>
      <trkpt lat="43.92189" lon="1.86599">
        <ele>206.2</ele>
        <time>2022-09-08T18:12:10Z</time>
      </trkpt>
      <trkpt lat="43.92188" lon="1.86603">
        <ele>206.4</ele>
        <time>2022-09-08T18:12:11Z</time>
      </trkpt>
      <trkpt lat="43.92187" lon="1.86607">
        <ele>206.4</ele>
        <time>2022-09-08T18:12:12Z</time>
      </trkpt>
      <trkpt lat="43.92186" lon="1.8661">
        <ele>206.4</ele>
        <time>2022-09-08T18:12:13Z</time>
      </trkpt>
      <trkpt lat="43.92185" lon="1.86613">
        <ele>206.4</ele>
        <time>2022-09-08T18:12:14Z</time>
      </trkpt>
      <trkpt lat="43.92178" lon="1.86629">
        <ele>206.6</ele>
        <time>2022-09-08T18:12:19Z</time>
      </trkpt>
      <trkpt lat="43.92175" lon="1.86633">
        <ele>206.6</ele>
        <time>2022-09-08T18:12:20Z</time>
      </trkpt>
      <trkpt lat="43.92173" lon="1.86638">
        <ele>206.8</ele>
        <time>2022-09-08T18:12:21Z</time>
      </trkpt>
      <trkpt lat="43.92171" lon="1.86642">
        <ele>206.8</ele>
        <time>2022-09-08T18:12:22Z</time>
      </trkpt>
      <trkpt lat="43.92166" lon="1.86654">
        <ele>207</ele>
        <time>2022-09-08T18:12:25Z</time>
      </trkpt>
      <trkpt lat="43.92164" lon="1.86657">
        <ele>207</ele>
        <time>2022-09-08T18:12:26Z</time>
      </trkpt>
      <trkpt lat="43.92163" lon="1.86661">
        <ele>207</ele>
        <time>2022-09-08T18:12:27Z</time>
      </trkpt>
      <trkpt lat="43.92161" lon="1.86665">
        <ele>207.2</ele>
        <time>2022-09-08T18:12:28Z</time>
      </trkpt>
      <trkpt lat="43.92159" lon="1.86669">
        <ele>207.2</ele>
        <time>2022-09-08T18:12:29Z</time>
      </trkpt>
      <trkpt lat="43.92158" lon="1.86673">
        <ele>207.2</ele>
        <time>2022-09-08T18:12:30Z</time>
      </trkpt>
      <trkpt lat="43.92152" lon="1.86694">
        <ele>207.6</ele>
        <time>2022-09-08T18:12:35Z</time>
      </trkpt>
      <trkpt lat="43.9215" lon="1.86699">
        <ele>207.6</ele>
        <time>2022-09-08T18:12:36Z</time>
      </trkpt>
      <trkpt lat="43.9214" lon="1.86721">
        <ele>207.6</ele>
        <time>2022-09-08T18:12:40Z</time>
      </trkpt>
      <trkpt lat="43.92138" lon="1.86726">
        <ele>207.6</ele>
        <time>2022-09-08T18:12:41Z</time>
      </trkpt>
      <trkpt lat="43.92137" lon="1.86733">
        <ele>207.6</ele>
        <time>2022-09-08T18:12:42Z</time>
      </trkpt>
      <trkpt lat="43.92135" lon="1.86739">
        <ele>207.6</ele>
        <time>2022-09-08T18:12:43Z</time>
      </trkpt>
      <trkpt lat="43.92134" lon="1.86744">
        <ele>207.6</ele>
        <time>2022-09-08T18:12:44Z</time>
      </trkpt>
      <trkpt lat="43.92133" lon="1.86748">
        <ele>207.6</ele>
        <time>2022-09-08T18:12:45Z</time>
      </trkpt>
      <trkpt lat="43.92129" lon="1.86771">
        <ele>207.4</ele>
        <time>2022-09-08T18:12:49Z</time>
      </trkpt>
      <trkpt lat="43.92128" lon="1.86776">
        <ele>207.4</ele>
        <time>2022-09-08T18:12:50Z</time>
      </trkpt>
      <trkpt lat="43.92128" lon="1.8678">
        <ele>207.2</ele>
        <time>2022-09-08T18:12:51Z</time>
      </trkpt>
      <trkpt lat="43.92123" lon="1.86796">
        <ele>206.8</ele>
        <time>2022-09-08T18:12:55Z</time>
      </trkpt>
      <trkpt lat="43.92123" lon="1.86798">
        <ele>206.6</ele>
        <time>2022-09-08T18:12:56Z</time>
      </trkpt>
      <trkpt lat="43.92122" lon="1.86802">
        <ele>206.6</ele>
        <time>2022-09-08T18:12:57Z</time>
      </trkpt>
      <trkpt lat="43.92118" lon="1.86822">
        <ele>206.6</ele>
        <time>2022-09-08T18:13:01Z</time>
      </trkpt>
      <trkpt lat="43.92117" lon="1.86827">
        <ele>206.6</ele>
        <time>2022-09-08T18:13:02Z</time>
      </trkpt>
      <trkpt lat="43.92118" lon="1.86833">
        <ele>206.6</ele>
        <time>2022-09-08T18:13:03Z</time>
      </trkpt>
      <trkpt lat="43.92118" lon="1.86843">
        <ele>206.8</ele>
        <time>2022-09-08T18:13:05Z</time>
      </trkpt>
      <trkpt lat="43.92118" lon="1.86847">
        <ele>206.8</ele>
        <time>2022-09-08T18:13:06Z</time>
      </trkpt>
      <trkpt lat="43.92117" lon="1.86853">
        <ele>206.8</ele>
        <time>2022-09-08T18:13:07Z</time>
      </trkpt>
      <trkpt lat="43.92116" lon="1.86866">
        <ele>206.8</ele>
        <time>2022-09-08T18:13:09Z</time>
      </trkpt>
      <trkpt lat="43.92117" lon="1.86886">
        <ele>206.6</ele>
        <time>2022-09-08T18:13:13Z</time>
      </trkpt>
      <trkpt lat="43.92116" lon="1.86893">
        <ele>206.6</ele>
        <time>2022-09-08T18:13:14Z</time>
      </trkpt>
      <trkpt lat="43.9211" lon="1.86915">
        <ele>206.6</ele>
        <time>2022-09-08T18:13:17Z</time>
      </trkpt>
      <trkpt lat="43.92108" lon="1.86923">
        <ele>206.4</ele>
        <time>2022-09-08T18:13:18Z</time>
      </trkpt>
      <trkpt lat="43.92106" lon="1.8693">
        <ele>206.2</ele>
        <time>2022-09-08T18:13:19Z</time>
      </trkpt>
      <trkpt lat="43.92104" lon="1.86936">
        <ele>206.2</ele>
        <time>2022-09-08T18:13:20Z</time>
      </trkpt>
      <trkpt lat="43.92104" lon="1.86941">
        <ele>206</ele>
        <time>2022-09-08T18:13:21Z</time>
      </trkpt>
      <trkpt lat="43.92102" lon="1.86946">
        <ele>206</ele>
        <time>2022-09-08T18:13:22Z</time>
      </trkpt>
      <trkpt lat="43.92101" lon="1.8695">
        <ele>205.8</ele>
        <time>2022-09-08T18:13:23Z</time>
      </trkpt>
      <trkpt lat="43.92099" lon="1.86953">
        <ele>205.6</ele>
        <time>2022-09-08T18:13:24Z</time>
      </trkpt>
      <trkpt lat="43.92098" lon="1.86956">
        <ele>205.4</ele>
        <time>2022-09-08T18:13:25Z</time>
      </trkpt>
      <trkpt lat="43.92098" lon="1.86958">
        <ele>205.2</ele>
        <time>2022-09-08T18:13:26Z</time>
      </trkpt>
      <trkpt lat="43.92097" lon="1.8696">
        <ele>205</ele>
        <time>2022-09-08T18:13:27Z</time>
      </trkpt>
      <trkpt lat="43.92098" lon="1.86967">
        <ele>204</ele>
        <time>2022-09-08T18:13:38Z</time>
      </trkpt>
      <trkpt lat="43.921" lon="1.86966">
        <ele>203.8</ele>
        <time>2022-09-08T18:13:39Z</time>
      </trkpt>
      <trkpt lat="43.92102" lon="1.86966">
        <ele>203.8</ele>
        <time>2022-09-08T18:13:40Z</time>
      </trkpt>
      <trkpt lat="43.92114" lon="1.86968">
        <ele>203.4</ele>
        <time>2022-09-08T18:13:44Z</time>
      </trkpt>
      <trkpt lat="43.9212" lon="1.86966">
        <ele>203.2</ele>
        <time>2022-09-08T18:13:46Z</time>
      </trkpt>
      <trkpt lat="43.92123" lon="1.86966">
        <ele>202.8</ele>
        <time>2022-09-08T18:13:47Z</time>
      </trkpt>
      <trkpt lat="43.92132" lon="1.86966">
        <ele>201.8</ele>
        <time>2022-09-08T18:13:49Z</time>
      </trkpt>
      <trkpt lat="43.92136" lon="1.86966">
        <ele>201.4</ele>
        <time>2022-09-08T18:13:50Z</time>
      </trkpt>
      <trkpt lat="43.9214" lon="1.86967">
        <ele>200.8</ele>
        <time>2022-09-08T18:13:51Z</time>
      </trkpt>
      <trkpt lat="43.92144" lon="1.86967">
        <ele>200</ele>
        <time>2022-09-08T18:13:52Z</time>
      </trkpt>
      <trkpt lat="43.92148" lon="1.86968">
        <ele>199.2</ele>
        <time>2022-09-08T18:13:53Z</time>
      </trkpt>
      <trkpt lat="43.92157" lon="1.86969">
        <ele>197.2</ele>
        <time>2022-09-08T18:13:55Z</time>
      </trkpt>
      <trkpt lat="43.92162" lon="1.86969">
        <ele>196.8</ele>
        <time>2022-09-08T18:13:56Z</time>
      </trkpt>
      <trkpt lat="43.92167" lon="1.86969">
        <ele>195.6</ele>
        <time>2022-09-08T18:13:57Z</time>
      </trkpt>
      <trkpt lat="43.92176" lon="1.8697">
        <ele>194</ele>
        <time>2022-09-08T18:13:59Z</time>
      </trkpt>
      <trkpt lat="43.92182" lon="1.86971">
        <ele>193.4</ele>
        <time>2022-09-08T18:14:00Z</time>
      </trkpt>
      <trkpt lat="43.92194" lon="1.86973">
        <ele>192</ele>
        <time>2022-09-08T18:14:02Z</time>
      </trkpt>
      <trkpt lat="43.92201" lon="1.86975">
        <ele>191.6</ele>
        <time>2022-09-08T18:14:03Z</time>
      </trkpt>
      <trkpt lat="43.92207" lon="1.86977">
        <ele>190.4</ele>
        <time>2022-09-08T18:14:04Z</time>
      </trkpt>
      <trkpt lat="43.92215" lon="1.86979">
        <ele>189.8</ele>
        <time>2022-09-08T18:14:05Z</time>
      </trkpt>
      <trkpt lat="43.92224" lon="1.8698">
        <ele>188.2</ele>
        <time>2022-09-08T18:14:06Z</time>
      </trkpt>
      <trkpt lat="43.92234" lon="1.86979">
        <ele>187.2</ele>
        <time>2022-09-08T18:14:07Z</time>
      </trkpt>
      <trkpt lat="43.92243" lon="1.8698">
        <ele>186.4</ele>
        <time>2022-09-08T18:14:08Z</time>
      </trkpt>
      <trkpt lat="43.92251" lon="1.86982">
        <ele>185.2</ele>
        <time>2022-09-08T18:14:09Z</time>
      </trkpt>
      <trkpt lat="43.92259" lon="1.86983">
        <ele>184.4</ele>
        <time>2022-09-08T18:14:10Z</time>
      </trkpt>
      <trkpt lat="43.92265" lon="1.86985">
        <ele>183.4</ele>
        <time>2022-09-08T18:14:11Z</time>
      </trkpt>
      <trkpt lat="43.92271" lon="1.86986">
        <ele>182.8</ele>
        <time>2022-09-08T18:14:12Z</time>
      </trkpt>
      <trkpt lat="43.92275" lon="1.86988">
        <ele>180.8</ele>
        <time>2022-09-08T18:14:13Z</time>
      </trkpt>
      <trkpt lat="43.92279" lon="1.86989">
        <ele>179.4</ele>
        <time>2022-09-08T18:14:14Z</time>
      </trkpt>
      <trkpt lat="43.92282" lon="1.86989">
        <ele>178.8</ele>
        <time>2022-09-08T18:14:15Z</time>
      </trkpt>
      <trkpt lat="43.92287" lon="1.86988">
        <ele>177.8</ele>
        <time>2022-09-08T18:14:16Z</time>
      </trkpt>
      <trkpt lat="43.92289" lon="1.86984">
        <ele>177.4</ele>
        <time>2022-09-08T18:14:17Z</time>
      </trkpt>
      <trkpt lat="43.9229" lon="1.8698">
        <ele>177</ele>
        <time>2022-09-08T18:14:18Z</time>
      </trkpt>
      <trkpt lat="43.9229" lon="1.86977">
        <ele>176.8</ele>
        <time>2022-09-08T18:14:19Z</time>
      </trkpt>
      <trkpt lat="43.92291" lon="1.86974">
        <ele>176.2</ele>
        <time>2022-09-08T18:14:20Z</time>
      </trkpt>
      <trkpt lat="43.92298" lon="1.86964">
        <ele>175.4</ele>
        <time>2022-09-08T18:14:23Z</time>
      </trkpt>
      <trkpt lat="43.92301" lon="1.86963">
        <ele>175.4</ele>
        <time>2022-09-08T18:14:24Z</time>
      </trkpt>
      <trkpt lat="43.92304" lon="1.86964">
        <ele>175.2</ele>
        <time>2022-09-08T18:14:25Z</time>
      </trkpt>
      <trkpt lat="43.92307" lon="1.86965">
        <ele>175.2</ele>
        <time>2022-09-08T18:14:26Z</time>
      </trkpt>
      <trkpt lat="43.92314" lon="1.86968">
        <ele>175</ele>
        <time>2022-09-08T18:14:28Z</time>
      </trkpt>
      <trkpt lat="43.92317" lon="1.86969">
        <ele>175</ele>
        <time>2022-09-08T18:14:29Z</time>
      </trkpt>
      <trkpt lat="43.92326" lon="1.86973">
        <ele>174.8</ele>
        <time>2022-09-08T18:14:32Z</time>
      </trkpt>
      <trkpt lat="43.92329" lon="1.86973">
        <ele>174.8</ele>
        <time>2022-09-08T18:14:33Z</time>
      </trkpt>
      <trkpt lat="43.92332" lon="1.86974">
        <ele>175.2</ele>
        <time>2022-09-08T18:14:34Z</time>
      </trkpt>
      <trkpt lat="43.92335" lon="1.86975">
        <ele>175.2</ele>
        <time>2022-09-08T18:14:35Z</time>
      </trkpt>
      <trkpt lat="43.92337" lon="1.86976">
        <ele>175.2</ele>
        <time>2022-09-08T18:14:36Z</time>
      </trkpt>
      <trkpt lat="43.9234" lon="1.86977">
        <ele>175.2</ele>
        <time>2022-09-08T18:14:37Z</time>
      </trkpt>
      <trkpt lat="43.92343" lon="1.86978">
        <ele>175.2</ele>
        <time>2022-09-08T18:14:38Z</time>
      </trkpt>
      <trkpt lat="43.92349" lon="1.86981">
        <ele>175.2</ele>
        <time>2022-09-08T18:14:40Z</time>
      </trkpt>
      <trkpt lat="43.92351" lon="1.86982">
        <ele>175.4</ele>
        <time>2022-09-08T18:14:41Z</time>
      </trkpt>
      <trkpt lat="43.92354" lon="1.86984">
        <ele>175.6</ele>
        <time>2022-09-08T18:14:42Z</time>
      </trkpt>
      <trkpt lat="43.92357" lon="1.86985">
        <ele>175.8</ele>
        <time>2022-09-08T18:14:43Z</time>
      </trkpt>
      <trkpt lat="43.92369" lon="1.86995">
        <ele>176.2</ele>
        <time>2022-09-08T18:14:48Z</time>
      </trkpt>
      <trkpt lat="43.92371" lon="1.86997">
        <ele>176.4</ele>
        <time>2022-09-08T18:14:49Z</time>
      </trkpt>
      <trkpt lat="43.92374" lon="1.86999">
        <ele>176.4</ele>
        <time>2022-09-08T18:14:50Z</time>
      </trkpt>
      <trkpt lat="43.92379" lon="1.87003">
        <ele>176.6</ele>
        <time>2022-09-08T18:14:52Z</time>
      </trkpt>
      <trkpt lat="43.92381" lon="1.87005">
        <ele>176.6</ele>
        <time>2022-09-08T18:14:53Z</time>
      </trkpt>
      <trkpt lat="43.92384" lon="1.87008">
        <ele>176.8</ele>
        <time>2022-09-08T18:14:54Z</time>
      </trkpt>
      <trkpt lat="43.92388" lon="1.87012">
        <ele>177</ele>
        <time>2022-09-08T18:14:56Z</time>
      </trkpt>
      <trkpt lat="43.92391" lon="1.87014">
        <ele>177.2</ele>
        <time>2022-09-08T18:14:57Z</time>
      </trkpt>
      <trkpt lat="43.92398" lon="1.87019">
        <ele>177.4</ele>
        <time>2022-09-08T18:15:00Z</time>
      </trkpt>
      <trkpt lat="43.924" lon="1.87021">
        <ele>177.6</ele>
        <time>2022-09-08T18:15:01Z</time>
      </trkpt>
      <trkpt lat="43.92402" lon="1.87023">
        <ele>177.8</ele>
        <time>2022-09-08T18:15:02Z</time>
      </trkpt>
      <trkpt lat="43.92404" lon="1.87025">
        <ele>177.8</ele>
        <time>2022-09-08T18:15:03Z</time>
      </trkpt>
      <trkpt lat="43.92406" lon="1.87027">
        <ele>178</ele>
        <time>2022-09-08T18:15:04Z</time>
      </trkpt>
      <trkpt lat="43.92407" lon="1.87028">
        <ele>178</ele>
        <time>2022-09-08T18:15:05Z</time>
      </trkpt>
      <trkpt lat="43.9241" lon="1.87032">
        <ele>178.4</ele>
        <time>2022-09-08T18:15:07Z</time>
      </trkpt>
      <trkpt lat="43.92412" lon="1.87033">
        <ele>178.6</ele>
        <time>2022-09-08T18:15:08Z</time>
      </trkpt>
      <trkpt lat="43.92414" lon="1.87035">
        <ele>178.6</ele>
        <time>2022-09-08T18:15:09Z</time>
      </trkpt>
      <trkpt lat="43.92422" lon="1.87041">
        <ele>179.4</ele>
        <time>2022-09-08T18:15:13Z</time>
      </trkpt>
      <trkpt lat="43.92424" lon="1.87042">
        <ele>179.6</ele>
        <time>2022-09-08T18:15:14Z</time>
      </trkpt>
      <trkpt lat="43.92426" lon="1.87043">
        <ele>179.8</ele>
        <time>2022-09-08T18:15:15Z</time>
      </trkpt>
      <trkpt lat="43.92428" lon="1.87044">
        <ele>179.8</ele>
        <time>2022-09-08T18:15:16Z</time>
      </trkpt>
      <trkpt lat="43.92429" lon="1.87045">
        <ele>180</ele>
        <time>2022-09-08T18:15:17Z</time>
      </trkpt>
      <trkpt lat="43.92431" lon="1.87045">
        <ele>180.2</ele>
        <time>2022-09-08T18:15:18Z</time>
      </trkpt>
      <trkpt lat="43.92432" lon="1.87046">
        <ele>180.4</ele>
        <time>2022-09-08T18:15:19Z</time>
      </trkpt>
      <trkpt lat="43.92434" lon="1.87046">
        <ele>180.8</ele>
        <time>2022-09-08T18:15:20Z</time>
      </trkpt>
      <trkpt lat="43.92435" lon="1.87047">
        <ele>181</ele>
        <time>2022-09-08T18:15:21Z</time>
      </trkpt>
      <trkpt lat="43.92436" lon="1.87047">
        <ele>181.2</ele>
        <time>2022-09-08T18:15:22Z</time>
      </trkpt>
      <trkpt lat="43.92437" lon="1.87047">
        <ele>181.4</ele>
        <time>2022-09-08T18:15:23Z</time>
      </trkpt>
      <trkpt lat="43.92438" lon="1.87048">
        <ele>181.6</ele>
        <time>2022-09-08T18:15:24Z</time>
      </trkpt>
      <trkpt lat="43.92439" lon="1.87049">
        <ele>181.8</ele>
        <time>2022-09-08T18:15:25Z</time>
      </trkpt>
      <trkpt lat="43.92441" lon="1.8705">
        <ele>182</ele>
        <time>2022-09-08T18:15:26Z</time>
      </trkpt>
      <trkpt lat="43.92442" lon="1.87051">
        <ele>182.2</ele>
        <time>2022-09-08T18:15:27Z</time>
      </trkpt>
      <trkpt lat="43.92443" lon="1.87051">
        <ele>182.2</ele>
        <time>2022-09-08T18:15:28Z</time>
      </trkpt>
      <trkpt lat="43.92445" lon="1.87052">
        <ele>182.6</ele>
        <time>2022-09-08T18:15:29Z</time>
      </trkpt>
      <trkpt lat="43.92446" lon="1.87052">
        <ele>182.6</ele>
        <time>2022-09-08T18:15:30Z</time>
      </trkpt>
      <trkpt lat="43.92447" lon="1.87053">
        <ele>183</ele>
        <time>2022-09-08T18:15:31Z</time>
      </trkpt>
      <trkpt lat="43.92449" lon="1.87054">
        <ele>183.2</ele>
        <time>2022-09-08T18:15:32Z</time>
      </trkpt>
      <trkpt lat="43.9245" lon="1.87054">
        <ele>183.4</ele>
        <time>2022-09-08T18:15:33Z</time>
      </trkpt>
      <trkpt lat="43.92451" lon="1.87055">
        <ele>183.6</ele>
        <time>2022-09-08T18:15:34Z</time>
      </trkpt>
      <trkpt lat="43.92453" lon="1.87056">
        <ele>183.8</ele>
        <time>2022-09-08T18:15:35Z</time>
      </trkpt>
      <trkpt lat="43.92454" lon="1.87057">
        <ele>184</ele>
        <time>2022-09-08T18:15:36Z</time>
      </trkpt>
      <trkpt lat="43.92455" lon="1.87057">
        <ele>184</ele>
        <time>2022-09-08T18:15:37Z</time>
      </trkpt>
      <trkpt lat="43.92456" lon="1.87058">
        <ele>184.2</ele>
        <time>2022-09-08T18:15:38Z</time>
      </trkpt>
      <trkpt lat="43.92458" lon="1.87059">
        <ele>184.4</ele>
        <time>2022-09-08T18:15:39Z</time>
      </trkpt>
      <trkpt lat="43.92459" lon="1.87059">
        <ele>184.6</ele>
        <time>2022-09-08T18:15:40Z</time>
      </trkpt>
      <trkpt lat="43.9246" lon="1.8706">
        <ele>184.8</ele>
        <time>2022-09-08T18:15:41Z</time>
      </trkpt>
      <trkpt lat="43.92461" lon="1.87061">
        <ele>185.2</ele>
        <time>2022-09-08T18:15:42Z</time>
      </trkpt>
      <trkpt lat="43.92462" lon="1.87062">
        <ele>185.4</ele>
        <time>2022-09-08T18:15:43Z</time>
      </trkpt>
      <trkpt lat="43.92464" lon="1.87063">
        <ele>185.4</ele>
        <time>2022-09-08T18:15:44Z</time>
      </trkpt>
      <trkpt lat="43.92465" lon="1.87064">
        <ele>185.8</ele>
        <time>2022-09-08T18:15:45Z</time>
      </trkpt>
      <trkpt lat="43.92466" lon="1.87064">
        <ele>185.8</ele>
        <time>2022-09-08T18:15:46Z</time>
      </trkpt>
      <trkpt lat="43.92467" lon="1.87065">
        <ele>186.4</ele>
        <time>2022-09-08T18:15:47Z</time>
      </trkpt>
      <trkpt lat="43.92468" lon="1.87066">
        <ele>186.6</ele>
        <time>2022-09-08T18:15:48Z</time>
      </trkpt>
      <trkpt lat="43.92469" lon="1.87067">
        <ele>187</ele>
        <time>2022-09-08T18:15:49Z</time>
      </trkpt>
      <trkpt lat="43.92471" lon="1.87068">
        <ele>187.4</ele>
        <time>2022-09-08T18:15:50Z</time>
      </trkpt>
      <trkpt lat="43.92472" lon="1.87069">
        <ele>187.6</ele>
        <time>2022-09-08T18:15:51Z</time>
      </trkpt>
      <trkpt lat="43.92473" lon="1.87069">
        <ele>187.8</ele>
        <time>2022-09-08T18:15:52Z</time>
      </trkpt>
      <trkpt lat="43.92474" lon="1.8707">
        <ele>188</ele>
        <time>2022-09-08T18:15:53Z</time>
      </trkpt>
      <trkpt lat="43.92475" lon="1.87071">
        <ele>188.6</ele>
        <time>2022-09-08T18:15:54Z</time>
      </trkpt>
      <trkpt lat="43.92476" lon="1.87072">
        <ele>188.8</ele>
        <time>2022-09-08T18:15:55Z</time>
      </trkpt>
      <trkpt lat="43.92477" lon="1.87073">
        <ele>189</ele>
        <time>2022-09-08T18:15:56Z</time>
      </trkpt>
      <trkpt lat="43.92479" lon="1.87074">
        <ele>189.2</ele>
        <time>2022-09-08T18:15:57Z</time>
      </trkpt>
      <trkpt lat="43.9248" lon="1.87074">
        <ele>189.4</ele>
        <time>2022-09-08T18:15:58Z</time>
      </trkpt>
      <trkpt lat="43.92481" lon="1.87075">
        <ele>189.6</ele>
        <time>2022-09-08T18:15:59Z</time>
      </trkpt>
      <trkpt lat="43.92482" lon="1.87075">
        <ele>189.8</ele>
        <time>2022-09-08T18:16:00Z</time>
      </trkpt>
      <trkpt lat="43.92483" lon="1.87076">
        <ele>190.2</ele>
        <time>2022-09-08T18:16:01Z</time>
      </trkpt>
      <trkpt lat="43.92484" lon="1.87076">
        <ele>190.6</ele>
        <time>2022-09-08T18:16:02Z</time>
      </trkpt>
      <trkpt lat="43.92485" lon="1.87076">
        <ele>191</ele>
        <time>2022-09-08T18:16:03Z</time>
      </trkpt>
      <trkpt lat="43.92486" lon="1.87077">
        <ele>191</ele>
        <time>2022-09-08T18:16:04Z</time>
      </trkpt>
      <trkpt lat="43.92488" lon="1.87078">
        <ele>191.4</ele>
        <time>2022-09-08T18:16:05Z</time>
      </trkpt>
      <trkpt lat="43.92489" lon="1.87078">
        <ele>191.8</ele>
        <time>2022-09-08T18:16:06Z</time>
      </trkpt>
      <trkpt lat="43.9249" lon="1.87079">
        <ele>192</ele>
        <time>2022-09-08T18:16:07Z</time>
      </trkpt>
      <trkpt lat="43.92491" lon="1.8708">
        <ele>192.2</ele>
        <time>2022-09-08T18:16:08Z</time>
      </trkpt>
      <trkpt lat="43.92492" lon="1.8708">
        <ele>192.2</ele>
        <time>2022-09-08T18:16:09Z</time>
      </trkpt>
      <trkpt lat="43.92493" lon="1.87081">
        <ele>192.6</ele>
        <time>2022-09-08T18:16:10Z</time>
      </trkpt>
      <trkpt lat="43.92494" lon="1.87082">
        <ele>192.8</ele>
        <time>2022-09-08T18:16:11Z</time>
      </trkpt>
      <trkpt lat="43.92494" lon="1.87083">
        <ele>193</ele>
        <time>2022-09-08T18:16:12Z</time>
      </trkpt>
      <trkpt lat="43.92495" lon="1.87084">
        <ele>193.2</ele>
        <time>2022-09-08T18:16:13Z</time>
      </trkpt>
      <trkpt lat="43.92496" lon="1.87085">
        <ele>193.6</ele>
        <time>2022-09-08T18:16:14Z</time>
      </trkpt>
      <trkpt lat="43.92497" lon="1.87086">
        <ele>193.8</ele>
        <time>2022-09-08T18:16:15Z</time>
      </trkpt>
      <trkpt lat="43.92498" lon="1.87088">
        <ele>194</ele>
        <time>2022-09-08T18:16:16Z</time>
      </trkpt>
      <trkpt lat="43.92499" lon="1.87089">
        <ele>194.4</ele>
        <time>2022-09-08T18:16:17Z</time>
      </trkpt>
      <trkpt lat="43.925" lon="1.87091">
        <ele>194.4</ele>
        <time>2022-09-08T18:16:18Z</time>
      </trkpt>
      <trkpt lat="43.925" lon="1.87092">
        <ele>194.6</ele>
        <time>2022-09-08T18:16:19Z</time>
      </trkpt>
      <trkpt lat="43.92501" lon="1.87094">
        <ele>194.6</ele>
        <time>2022-09-08T18:16:20Z</time>
      </trkpt>
      <trkpt lat="43.92501" lon="1.87096">
        <ele>195</ele>
        <time>2022-09-08T18:16:21Z</time>
      </trkpt>
      <trkpt lat="43.92502" lon="1.87097">
        <ele>195.2</ele>
        <time>2022-09-08T18:16:22Z</time>
      </trkpt>
      <trkpt lat="43.92503" lon="1.871">
        <ele>195.4</ele>
        <time>2022-09-08T18:16:23Z</time>
      </trkpt>
      <trkpt lat="43.92503" lon="1.87102">
        <ele>195.6</ele>
        <time>2022-09-08T18:16:24Z</time>
      </trkpt>
      <trkpt lat="43.92504" lon="1.87104">
        <ele>195.6</ele>
        <time>2022-09-08T18:16:25Z</time>
      </trkpt>
      <trkpt lat="43.92505" lon="1.87106">
        <ele>195.6</ele>
        <time>2022-09-08T18:16:26Z</time>
      </trkpt>
      <trkpt lat="43.92506" lon="1.87108">
        <ele>195.8</ele>
        <time>2022-09-08T18:16:27Z</time>
      </trkpt>
      <trkpt lat="43.92506" lon="1.8711">
        <ele>196.2</ele>
        <time>2022-09-08T18:16:28Z</time>
      </trkpt>
      <trkpt lat="43.92507" lon="1.87112">
        <ele>196.8</ele>
        <time>2022-09-08T18:16:29Z</time>
      </trkpt>
      <trkpt lat="43.92508" lon="1.87114">
        <ele>197</ele>
        <time>2022-09-08T18:16:30Z</time>
      </trkpt>
      <trkpt lat="43.92509" lon="1.87116">
        <ele>197.4</ele>
        <time>2022-09-08T18:16:31Z</time>
      </trkpt>
      <trkpt lat="43.92511" lon="1.87118">
        <ele>197.4</ele>
        <time>2022-09-08T18:16:32Z</time>
      </trkpt>
      <trkpt lat="43.92512" lon="1.87119">
        <ele>197.8</ele>
        <time>2022-09-08T18:16:33Z</time>
      </trkpt>
      <trkpt lat="43.92513" lon="1.8712">
        <ele>197.8</ele>
        <time>2022-09-08T18:16:34Z</time>
      </trkpt>
      <trkpt lat="43.92515" lon="1.8712">
        <ele>198.2</ele>
        <time>2022-09-08T18:16:35Z</time>
      </trkpt>
      <trkpt lat="43.92516" lon="1.87119">
        <ele>198.2</ele>
        <time>2022-09-08T18:16:36Z</time>
      </trkpt>
      <trkpt lat="43.92518" lon="1.87118">
        <ele>199</ele>
        <time>2022-09-08T18:16:37Z</time>
      </trkpt>
      <trkpt lat="43.92519" lon="1.87116">
        <ele>199.4</ele>
        <time>2022-09-08T18:16:38Z</time>
      </trkpt>
      <trkpt lat="43.9252" lon="1.87115">
        <ele>199.6</ele>
        <time>2022-09-08T18:16:39Z</time>
      </trkpt>
      <trkpt lat="43.92522" lon="1.87113">
        <ele>199.8</ele>
        <time>2022-09-08T18:16:40Z</time>
      </trkpt>
      <trkpt lat="43.92523" lon="1.87112">
        <ele>200</ele>
        <time>2022-09-08T18:16:41Z</time>
      </trkpt>
      <trkpt lat="43.92524" lon="1.8711">
        <ele>200.2</ele>
        <time>2022-09-08T18:16:42Z</time>
      </trkpt>
      <trkpt lat="43.92525" lon="1.87109">
        <ele>200.4</ele>
        <time>2022-09-08T18:16:43Z</time>
      </trkpt>
      <trkpt lat="43.92525" lon="1.87108">
        <ele>201</ele>
        <time>2022-09-08T18:16:44Z</time>
      </trkpt>
      <trkpt lat="43.92527" lon="1.87107">
        <ele>201.4</ele>
        <time>2022-09-08T18:16:45Z</time>
      </trkpt>
      <trkpt lat="43.92527" lon="1.87106">
        <ele>201.8</ele>
        <time>2022-09-08T18:16:46Z</time>
      </trkpt>
      <trkpt lat="43.92528" lon="1.87105">
        <ele>202.2</ele>
        <time>2022-09-08T18:16:47Z</time>
      </trkpt>
      <trkpt lat="43.92529" lon="1.87104">
        <ele>202.6</ele>
        <time>2022-09-08T18:16:48Z</time>
      </trkpt>
      <trkpt lat="43.9253" lon="1.87103">
        <ele>202.8</ele>
        <time>2022-09-08T18:16:49Z</time>
      </trkpt>
      <trkpt lat="43.92531" lon="1.87102">
        <ele>203</ele>
        <time>2022-09-08T18:16:50Z</time>
      </trkpt>
      <trkpt lat="43.92533" lon="1.87101">
        <ele>203.4</ele>
        <time>2022-09-08T18:16:51Z</time>
      </trkpt>
      <trkpt lat="43.92534" lon="1.871">
        <ele>203.6</ele>
        <time>2022-09-08T18:16:52Z</time>
      </trkpt>
      <trkpt lat="43.92536" lon="1.87099">
        <ele>203.8</ele>
        <time>2022-09-08T18:16:53Z</time>
      </trkpt>
      <trkpt lat="43.92537" lon="1.87098">
        <ele>204.2</ele>
        <time>2022-09-08T18:16:54Z</time>
      </trkpt>
      <trkpt lat="43.92538" lon="1.87097">
        <ele>204.2</ele>
        <time>2022-09-08T18:16:55Z</time>
      </trkpt>
      <trkpt lat="43.9254" lon="1.87096">
        <ele>204.6</ele>
        <time>2022-09-08T18:16:56Z</time>
      </trkpt>
      <trkpt lat="43.92541" lon="1.87095">
        <ele>204.8</ele>
        <time>2022-09-08T18:16:57Z</time>
      </trkpt>
      <trkpt lat="43.92542" lon="1.87094">
        <ele>205</ele>
        <time>2022-09-08T18:16:58Z</time>
      </trkpt>
      <trkpt lat="43.92543" lon="1.87093">
        <ele>205.2</ele>
        <time>2022-09-08T18:16:59Z</time>
      </trkpt>
      <trkpt lat="43.92545" lon="1.87092">
        <ele>205.8</ele>
        <time>2022-09-08T18:17:00Z</time>
      </trkpt>
      <trkpt lat="43.92546" lon="1.87091">
        <ele>206</ele>
        <time>2022-09-08T18:17:01Z</time>
      </trkpt>
      <trkpt lat="43.92548" lon="1.8709">
        <ele>206.2</ele>
        <time>2022-09-08T18:17:02Z</time>
      </trkpt>
      <trkpt lat="43.92549" lon="1.87089">
        <ele>206.6</ele>
        <time>2022-09-08T18:17:03Z</time>
      </trkpt>
      <trkpt lat="43.9255" lon="1.87089">
        <ele>206.6</ele>
        <time>2022-09-08T18:17:04Z</time>
      </trkpt>
      <trkpt lat="43.92551" lon="1.87088">
        <ele>206.8</ele>
        <time>2022-09-08T18:17:05Z</time>
      </trkpt>
      <trkpt lat="43.92553" lon="1.87087">
        <ele>207</ele>
        <time>2022-09-08T18:17:06Z</time>
      </trkpt>
      <trkpt lat="43.92555" lon="1.87086">
        <ele>207.4</ele>
        <time>2022-09-08T18:17:07Z</time>
      </trkpt>
      <trkpt lat="43.92555" lon="1.87085">
        <ele>207.4</ele>
        <time>2022-09-08T18:17:08Z</time>
      </trkpt>
      <trkpt lat="43.92557" lon="1.87085">
        <ele>207.6</ele>
        <time>2022-09-08T18:17:09Z</time>
      </trkpt>
      <trkpt lat="43.92558" lon="1.87084">
        <ele>207.8</ele>
        <time>2022-09-08T18:17:10Z</time>
      </trkpt>
      <trkpt lat="43.9256" lon="1.87084">
        <ele>208</ele>
        <time>2022-09-08T18:17:11Z</time>
      </trkpt>
      <trkpt lat="43.92562" lon="1.87083">
        <ele>208.2</ele>
        <time>2022-09-08T18:17:12Z</time>
      </trkpt>
      <trkpt lat="43.92563" lon="1.87082">
        <ele>208.4</ele>
        <time>2022-09-08T18:17:13Z</time>
      </trkpt>
      <trkpt lat="43.92564" lon="1.87081">
        <ele>208.8</ele>
        <time>2022-09-08T18:17:14Z</time>
      </trkpt>
      <trkpt lat="43.92566" lon="1.87081">
        <ele>209</ele>
        <time>2022-09-08T18:17:15Z</time>
      </trkpt>
      <trkpt lat="43.92567" lon="1.87081">
        <ele>209.2</ele>
        <time>2022-09-08T18:17:16Z</time>
      </trkpt>
      <trkpt lat="43.92569" lon="1.8708">
        <ele>209.6</ele>
        <time>2022-09-08T18:17:17Z</time>
      </trkpt>
      <trkpt lat="43.9257" lon="1.8708">
        <ele>209.8</ele>
        <time>2022-09-08T18:17:18Z</time>
      </trkpt>
      <trkpt lat="43.92572" lon="1.8708">
        <ele>210</ele>
        <time>2022-09-08T18:17:19Z</time>
      </trkpt>
      <trkpt lat="43.92573" lon="1.8708">
        <ele>210.2</ele>
        <time>2022-09-08T18:17:20Z</time>
      </trkpt>
      <trkpt lat="43.92575" lon="1.87081">
        <ele>210.4</ele>
        <time>2022-09-08T18:17:21Z</time>
      </trkpt>
      <trkpt lat="43.92577" lon="1.8708">
        <ele>210.6</ele>
        <time>2022-09-08T18:17:22Z</time>
      </trkpt>
      <trkpt lat="43.92578" lon="1.8708">
        <ele>211.2</ele>
        <time>2022-09-08T18:17:23Z</time>
      </trkpt>
      <trkpt lat="43.9258" lon="1.8708">
        <ele>211.4</ele>
        <time>2022-09-08T18:17:24Z</time>
      </trkpt>
      <trkpt lat="43.92582" lon="1.87079">
        <ele>211.8</ele>
        <time>2022-09-08T18:17:25Z</time>
      </trkpt>
      <trkpt lat="43.92584" lon="1.87078">
        <ele>212.2</ele>
        <time>2022-09-08T18:17:26Z</time>
      </trkpt>
      <trkpt lat="43.92585" lon="1.87078">
        <ele>212.4</ele>
        <time>2022-09-08T18:17:27Z</time>
      </trkpt>
      <trkpt lat="43.92587" lon="1.87077">
        <ele>212.8</ele>
        <time>2022-09-08T18:17:28Z</time>
      </trkpt>
      <trkpt lat="43.92589" lon="1.87076">
        <ele>213</ele>
        <time>2022-09-08T18:17:29Z</time>
      </trkpt>
      <trkpt lat="43.92591" lon="1.87076">
        <ele>213.2</ele>
        <time>2022-09-08T18:17:30Z</time>
      </trkpt>
      <trkpt lat="43.92593" lon="1.87075">
        <ele>213.4</ele>
        <time>2022-09-08T18:17:31Z</time>
      </trkpt>
      <trkpt lat="43.92594" lon="1.87075">
        <ele>213.8</ele>
        <time>2022-09-08T18:17:32Z</time>
      </trkpt>
      <trkpt lat="43.92597" lon="1.87074">
        <ele>214</ele>
        <time>2022-09-08T18:17:33Z</time>
      </trkpt>
      <trkpt lat="43.92598" lon="1.87074">
        <ele>214.6</ele>
        <time>2022-09-08T18:17:34Z</time>
      </trkpt>
      <trkpt lat="43.926" lon="1.87074">
        <ele>215</ele>
        <time>2022-09-08T18:17:35Z</time>
      </trkpt>
      <trkpt lat="43.92602" lon="1.87074">
        <ele>215.2</ele>
        <time>2022-09-08T18:17:36Z</time>
      </trkpt>
      <trkpt lat="43.92605" lon="1.87074">
        <ele>215.6</ele>
        <time>2022-09-08T18:17:37Z</time>
      </trkpt>
      <trkpt lat="43.92607" lon="1.87074">
        <ele>215.6</ele>
        <time>2022-09-08T18:17:38Z</time>
      </trkpt>
      <trkpt lat="43.92609" lon="1.87074">
        <ele>216</ele>
        <time>2022-09-08T18:17:39Z</time>
      </trkpt>
      <trkpt lat="43.92611" lon="1.87074">
        <ele>216</ele>
        <time>2022-09-08T18:17:40Z</time>
      </trkpt>
      <trkpt lat="43.92613" lon="1.87075">
        <ele>216.2</ele>
        <time>2022-09-08T18:17:41Z</time>
      </trkpt>
      <trkpt lat="43.92615" lon="1.87075">
        <ele>216.4</ele>
        <time>2022-09-08T18:17:42Z</time>
      </trkpt>
      <trkpt lat="43.92617" lon="1.87076">
        <ele>216.6</ele>
        <time>2022-09-08T18:17:43Z</time>
      </trkpt>
      <trkpt lat="43.92619" lon="1.87076">
        <ele>217</ele>
        <time>2022-09-08T18:17:44Z</time>
      </trkpt>
      <trkpt lat="43.92621" lon="1.87077">
        <ele>217.2</ele>
        <time>2022-09-08T18:17:45Z</time>
      </trkpt>
      <trkpt lat="43.92623" lon="1.87077">
        <ele>217.6</ele>
        <time>2022-09-08T18:17:46Z</time>
      </trkpt>
      <trkpt lat="43.92625" lon="1.87078">
        <ele>217.8</ele>
        <time>2022-09-08T18:17:47Z</time>
      </trkpt>
      <trkpt lat="43.92628" lon="1.87078">
        <ele>218.2</ele>
        <time>2022-09-08T18:17:48Z</time>
      </trkpt>
      <trkpt lat="43.9263" lon="1.87078">
        <ele>218.2</ele>
        <time>2022-09-08T18:17:49Z</time>
      </trkpt>
      <trkpt lat="43.92633" lon="1.87077">
        <ele>218.4</ele>
        <time>2022-09-08T18:17:50Z</time>
      </trkpt>
      <trkpt lat="43.92635" lon="1.87077">
        <ele>218.6</ele>
        <time>2022-09-08T18:17:51Z</time>
      </trkpt>
      <trkpt lat="43.92638" lon="1.87076">
        <ele>218.8</ele>
        <time>2022-09-08T18:17:52Z</time>
      </trkpt>
      <trkpt lat="43.9264" lon="1.87075">
        <ele>219</ele>
        <time>2022-09-08T18:17:53Z</time>
      </trkpt>
      <trkpt lat="43.92642" lon="1.87074">
        <ele>219</ele>
        <time>2022-09-08T18:17:54Z</time>
      </trkpt>
      <trkpt lat="43.92643" lon="1.87073">
        <ele>219.4</ele>
        <time>2022-09-08T18:17:55Z</time>
      </trkpt>
      <trkpt lat="43.92645" lon="1.87073">
        <ele>219.4</ele>
        <time>2022-09-08T18:17:56Z</time>
      </trkpt>
      <trkpt lat="43.92646" lon="1.87072">
        <ele>219.6</ele>
        <time>2022-09-08T18:17:57Z</time>
      </trkpt>
      <trkpt lat="43.92648" lon="1.87071">
        <ele>219.8</ele>
        <time>2022-09-08T18:17:58Z</time>
      </trkpt>
      <trkpt lat="43.92649" lon="1.8707">
        <ele>219.8</ele>
        <time>2022-09-08T18:17:59Z</time>
      </trkpt>
      <trkpt lat="43.9265" lon="1.87069">
        <ele>220</ele>
        <time>2022-09-08T18:18:00Z</time>
      </trkpt>
      <trkpt lat="43.92652" lon="1.87068">
        <ele>220</ele>
        <time>2022-09-08T18:18:01Z</time>
      </trkpt>
      <trkpt lat="43.92653" lon="1.87067">
        <ele>220.2</ele>
        <time>2022-09-08T18:18:02Z</time>
      </trkpt>
      <trkpt lat="43.92654" lon="1.87066">
        <ele>220.2</ele>
        <time>2022-09-08T18:18:03Z</time>
      </trkpt>
      <trkpt lat="43.92656" lon="1.87064">
        <ele>220.4</ele>
        <time>2022-09-08T18:18:04Z</time>
      </trkpt>
      <trkpt lat="43.92657" lon="1.87063">
        <ele>220.4</ele>
        <time>2022-09-08T18:18:05Z</time>
      </trkpt>
      <trkpt lat="43.92659" lon="1.87062">
        <ele>220.6</ele>
        <time>2022-09-08T18:18:06Z</time>
      </trkpt>
      <trkpt lat="43.92661" lon="1.87061">
        <ele>220.6</ele>
        <time>2022-09-08T18:18:07Z</time>
      </trkpt>
      <trkpt lat="43.92663" lon="1.87059">
        <ele>220.8</ele>
        <time>2022-09-08T18:18:08Z</time>
      </trkpt>
      <trkpt lat="43.92665" lon="1.87058">
        <ele>220.8</ele>
        <time>2022-09-08T18:18:09Z</time>
      </trkpt>
      <trkpt lat="43.92666" lon="1.87057">
        <ele>221</ele>
        <time>2022-09-08T18:18:10Z</time>
      </trkpt>
      <trkpt lat="43.92668" lon="1.87055">
        <ele>221</ele>
        <time>2022-09-08T18:18:11Z</time>
      </trkpt>
      <trkpt lat="43.9267" lon="1.87054">
        <ele>221.2</ele>
        <time>2022-09-08T18:18:12Z</time>
      </trkpt>
      <trkpt lat="43.92672" lon="1.87052">
        <ele>221.2</ele>
        <time>2022-09-08T18:18:13Z</time>
      </trkpt>
      <trkpt lat="43.92673" lon="1.8705">
        <ele>221.4</ele>
        <time>2022-09-08T18:18:14Z</time>
      </trkpt>
      <trkpt lat="43.92675" lon="1.87049">
        <ele>221.4</ele>
        <time>2022-09-08T18:18:15Z</time>
      </trkpt>
      <trkpt lat="43.92677" lon="1.87047">
        <ele>221.4</ele>
        <time>2022-09-08T18:18:16Z</time>
      </trkpt>
      <trkpt lat="43.92679" lon="1.87046">
        <ele>221.6</ele>
        <time>2022-09-08T18:18:17Z</time>
      </trkpt>
      <trkpt lat="43.92681" lon="1.87045">
        <ele>221.8</ele>
        <time>2022-09-08T18:18:18Z</time>
      </trkpt>
      <trkpt lat="43.92682" lon="1.87044">
        <ele>221.8</ele>
        <time>2022-09-08T18:18:19Z</time>
      </trkpt>
      <trkpt lat="43.92684" lon="1.87043">
        <ele>222</ele>
        <time>2022-09-08T18:18:20Z</time>
      </trkpt>
      <trkpt lat="43.92686" lon="1.87042">
        <ele>222.2</ele>
        <time>2022-09-08T18:18:21Z</time>
      </trkpt>
      <trkpt lat="43.92687" lon="1.8704">
        <ele>222.2</ele>
        <time>2022-09-08T18:18:22Z</time>
      </trkpt>
      <trkpt lat="43.92689" lon="1.87039">
        <ele>222.2</ele>
        <time>2022-09-08T18:18:23Z</time>
      </trkpt>
      <trkpt lat="43.9269" lon="1.87038">
        <ele>222.4</ele>
        <time>2022-09-08T18:18:24Z</time>
      </trkpt>
      <trkpt lat="43.92692" lon="1.87036">
        <ele>222.4</ele>
        <time>2022-09-08T18:18:25Z</time>
      </trkpt>
      <trkpt lat="43.92693" lon="1.87035">
        <ele>222.4</ele>
        <time>2022-09-08T18:18:26Z</time>
      </trkpt>
      <trkpt lat="43.92695" lon="1.87034">
        <ele>222.4</ele>
        <time>2022-09-08T18:18:27Z</time>
      </trkpt>
      <trkpt lat="43.92696" lon="1.87033">
        <ele>222.6</ele>
        <time>2022-09-08T18:18:28Z</time>
      </trkpt>
      <trkpt lat="43.92698" lon="1.87032">
        <ele>222.6</ele>
        <time>2022-09-08T18:18:29Z</time>
      </trkpt>
      <trkpt lat="43.92699" lon="1.87031">
        <ele>222.8</ele>
        <time>2022-09-08T18:18:30Z</time>
      </trkpt>
      <trkpt lat="43.92701" lon="1.8703">
        <ele>222.8</ele>
        <time>2022-09-08T18:18:31Z</time>
      </trkpt>
      <trkpt lat="43.92703" lon="1.87029">
        <ele>223</ele>
        <time>2022-09-08T18:18:32Z</time>
      </trkpt>
      <trkpt lat="43.92709" lon="1.87028">
        <ele>223.6</ele>
        <time>2022-09-08T18:18:35Z</time>
      </trkpt>
      <trkpt lat="43.92713" lon="1.87026">
        <ele>224</ele>
        <time>2022-09-08T18:18:37Z</time>
      </trkpt>
      <trkpt lat="43.92715" lon="1.87025">
        <ele>224</ele>
        <time>2022-09-08T18:18:38Z</time>
      </trkpt>
      <trkpt lat="43.92718" lon="1.87024">
        <ele>224.2</ele>
        <time>2022-09-08T18:18:39Z</time>
      </trkpt>
      <trkpt lat="43.9272" lon="1.87024">
        <ele>224.4</ele>
        <time>2022-09-08T18:18:40Z</time>
      </trkpt>
      <trkpt lat="43.92722" lon="1.87023">
        <ele>224.6</ele>
        <time>2022-09-08T18:18:41Z</time>
      </trkpt>
      <trkpt lat="43.92724" lon="1.87023">
        <ele>224.6</ele>
        <time>2022-09-08T18:18:42Z</time>
      </trkpt>
      <trkpt lat="43.92726" lon="1.87022">
        <ele>225</ele>
        <time>2022-09-08T18:18:43Z</time>
      </trkpt>
      <trkpt lat="43.92728" lon="1.87021">
        <ele>225.2</ele>
        <time>2022-09-08T18:18:44Z</time>
      </trkpt>
      <trkpt lat="43.92731" lon="1.8702">
        <ele>225.4</ele>
        <time>2022-09-08T18:18:45Z</time>
      </trkpt>
      <trkpt lat="43.92733" lon="1.87019">
        <ele>225.6</ele>
        <time>2022-09-08T18:18:46Z</time>
      </trkpt>
      <trkpt lat="43.92736" lon="1.87018">
        <ele>225.8</ele>
        <time>2022-09-08T18:18:47Z</time>
      </trkpt>
      <trkpt lat="43.92738" lon="1.87017">
        <ele>226</ele>
        <time>2022-09-08T18:18:48Z</time>
      </trkpt>
      <trkpt lat="43.9274" lon="1.87016">
        <ele>226.2</ele>
        <time>2022-09-08T18:18:49Z</time>
      </trkpt>
      <trkpt lat="43.92742" lon="1.87015">
        <ele>226.4</ele>
        <time>2022-09-08T18:18:50Z</time>
      </trkpt>
      <trkpt lat="43.92745" lon="1.87014">
        <ele>226.6</ele>
        <time>2022-09-08T18:18:51Z</time>
      </trkpt>
      <trkpt lat="43.92747" lon="1.87016">
        <ele>226.8</ele>
        <time>2022-09-08T18:18:52Z</time>
      </trkpt>
      <trkpt lat="43.92748" lon="1.87015">
        <ele>227</ele>
        <time>2022-09-08T18:18:53Z</time>
      </trkpt>
      <trkpt lat="43.92751" lon="1.87015">
        <ele>227.4</ele>
        <time>2022-09-08T18:18:54Z</time>
      </trkpt>
      <trkpt lat="43.92753" lon="1.87014">
        <ele>227.8</ele>
        <time>2022-09-08T18:18:55Z</time>
      </trkpt>
      <trkpt lat="43.92757" lon="1.87013">
        <ele>228</ele>
        <time>2022-09-08T18:18:56Z</time>
      </trkpt>
      <trkpt lat="43.9276" lon="1.87011">
        <ele>228.2</ele>
        <time>2022-09-08T18:18:57Z</time>
      </trkpt>
      <trkpt lat="43.92763" lon="1.8701">
        <ele>228.4</ele>
        <time>2022-09-08T18:18:58Z</time>
      </trkpt>
      <trkpt lat="43.92766" lon="1.87009">
        <ele>228.8</ele>
        <time>2022-09-08T18:18:59Z</time>
      </trkpt>
      <trkpt lat="43.92768" lon="1.87009">
        <ele>228.8</ele>
        <time>2022-09-08T18:19:00Z</time>
      </trkpt>
      <trkpt lat="43.92771" lon="1.87009">
        <ele>229</ele>
        <time>2022-09-08T18:19:01Z</time>
      </trkpt>
      <trkpt lat="43.92773" lon="1.87008">
        <ele>229.4</ele>
        <time>2022-09-08T18:19:02Z</time>
      </trkpt>
      <trkpt lat="43.92775" lon="1.87008">
        <ele>229.6</ele>
        <time>2022-09-08T18:19:03Z</time>
      </trkpt>
      <trkpt lat="43.92777" lon="1.87008">
        <ele>229.8</ele>
        <time>2022-09-08T18:19:04Z</time>
      </trkpt>
      <trkpt lat="43.92779" lon="1.87007">
        <ele>230</ele>
        <time>2022-09-08T18:19:05Z</time>
      </trkpt>
      <trkpt lat="43.92782" lon="1.87007">
        <ele>230.2</ele>
        <time>2022-09-08T18:19:06Z</time>
      </trkpt>
      <trkpt lat="43.92785" lon="1.87006">
        <ele>230.2</ele>
        <time>2022-09-08T18:19:07Z</time>
      </trkpt>
      <trkpt lat="43.92787" lon="1.87005">
        <ele>230.4</ele>
        <time>2022-09-08T18:19:08Z</time>
      </trkpt>
      <trkpt lat="43.92789" lon="1.87005">
        <ele>230.4</ele>
        <time>2022-09-08T18:19:09Z</time>
      </trkpt>
      <trkpt lat="43.92791" lon="1.87004">
        <ele>230.6</ele>
        <time>2022-09-08T18:19:10Z</time>
      </trkpt>
      <trkpt lat="43.92794" lon="1.87004">
        <ele>230.6</ele>
        <time>2022-09-08T18:19:11Z</time>
      </trkpt>
      <trkpt lat="43.92796" lon="1.87003">
        <ele>230.6</ele>
        <time>2022-09-08T18:19:12Z</time>
      </trkpt>
      <trkpt lat="43.92799" lon="1.87002">
        <ele>230.6</ele>
        <time>2022-09-08T18:19:13Z</time>
      </trkpt>
      <trkpt lat="43.92801" lon="1.87001">
        <ele>230.6</ele>
        <time>2022-09-08T18:19:14Z</time>
      </trkpt>
      <trkpt lat="43.92803" lon="1.87">
        <ele>230.8</ele>
        <time>2022-09-08T18:19:15Z</time>
      </trkpt>
      <trkpt lat="43.92806" lon="1.87">
        <ele>230.8</ele>
        <time>2022-09-08T18:19:16Z</time>
      </trkpt>
      <trkpt lat="43.92808" lon="1.86999">
        <ele>230.8</ele>
        <time>2022-09-08T18:19:17Z</time>
      </trkpt>
      <trkpt lat="43.92811" lon="1.86998">
        <ele>230.8</ele>
        <time>2022-09-08T18:19:18Z</time>
      </trkpt>
      <trkpt lat="43.92813" lon="1.86998">
        <ele>230.8</ele>
        <time>2022-09-08T18:19:19Z</time>
      </trkpt>
      <trkpt lat="43.92815" lon="1.86997">
        <ele>230.8</ele>
        <time>2022-09-08T18:19:20Z</time>
      </trkpt>
      <trkpt lat="43.92817" lon="1.86996">
        <ele>230.8</ele>
        <time>2022-09-08T18:19:21Z</time>
      </trkpt>
      <trkpt lat="43.92818" lon="1.86995">
        <ele>230.8</ele>
        <time>2022-09-08T18:19:22Z</time>
      </trkpt>
      <trkpt lat="43.92821" lon="1.86994">
        <ele>230.8</ele>
        <time>2022-09-08T18:19:23Z</time>
      </trkpt>
      <trkpt lat="43.92823" lon="1.86994">
        <ele>230.8</ele>
        <time>2022-09-08T18:19:24Z</time>
      </trkpt>
      <trkpt lat="43.92824" lon="1.86994">
        <ele>230.8</ele>
        <time>2022-09-08T18:19:25Z</time>
      </trkpt>
      <trkpt lat="43.92825" lon="1.86994">
        <ele>230.8</ele>
        <time>2022-09-08T18:19:26Z</time>
      </trkpt>
      <trkpt lat="43.92826" lon="1.86994">
        <ele>230.8</ele>
        <time>2022-09-08T18:19:27Z</time>
      </trkpt>
      <trkpt lat="43.92827" lon="1.86993">
        <ele>230.8</ele>
        <time>2022-09-08T18:19:28Z</time>
      </trkpt>
      <trkpt lat="43.92827" lon="1.86993">
        <ele>230.8</ele>
        <time>2022-09-08T18:19:29Z</time>
      </trkpt>
      <trkpt lat="43.9283" lon="1.86992">
        <ele>231.2</ele>
        <time>2022-09-08T18:22:03Z</time>
      </trkpt>
      <trkpt lat="43.92843" lon="1.86988">
        <ele>231.2</ele>
        <time>2022-09-08T18:22:08Z</time>
      </trkpt>
      <trkpt lat="43.9285" lon="1.86986">
        <ele>231.4</ele>
        <time>2022-09-08T18:22:10Z</time>
      </trkpt>
      <trkpt lat="43.92866" lon="1.86981">
        <ele>231.8</ele>
        <time>2022-09-08T18:22:15Z</time>
      </trkpt>
      <trkpt lat="43.92869" lon="1.86981">
        <ele>232</ele>
        <time>2022-09-08T18:22:16Z</time>
      </trkpt>
      <trkpt lat="43.92871" lon="1.8698">
        <ele>232</ele>
        <time>2022-09-08T18:22:17Z</time>
      </trkpt>
      <trkpt lat="43.92874" lon="1.86979">
        <ele>232.2</ele>
        <time>2022-09-08T18:22:18Z</time>
      </trkpt>
      <trkpt lat="43.9288" lon="1.86977">
        <ele>232.4</ele>
        <time>2022-09-08T18:22:20Z</time>
      </trkpt>
      <trkpt lat="43.92882" lon="1.86977">
        <ele>232.8</ele>
        <time>2022-09-08T18:22:21Z</time>
      </trkpt>
      <trkpt lat="43.92886" lon="1.86976">
        <ele>233</ele>
        <time>2022-09-08T18:22:22Z</time>
      </trkpt>
      <trkpt lat="43.92888" lon="1.86975">
        <ele>233.2</ele>
        <time>2022-09-08T18:22:23Z</time>
      </trkpt>
      <trkpt lat="43.92891" lon="1.86974">
        <ele>233</ele>
        <time>2022-09-08T18:22:24Z</time>
      </trkpt>
      <trkpt lat="43.92894" lon="1.86973">
        <ele>233.6</ele>
        <time>2022-09-08T18:22:25Z</time>
      </trkpt>
      <trkpt lat="43.92896" lon="1.86973">
        <ele>233.8</ele>
        <time>2022-09-08T18:22:26Z</time>
      </trkpt>
      <trkpt lat="43.92899" lon="1.86973">
        <ele>234</ele>
        <time>2022-09-08T18:22:27Z</time>
      </trkpt>
      <trkpt lat="43.92901" lon="1.86974">
        <ele>234.2</ele>
        <time>2022-09-08T18:22:28Z</time>
      </trkpt>
      <trkpt lat="43.92902" lon="1.86977">
        <ele>234.4</ele>
        <time>2022-09-08T18:22:29Z</time>
      </trkpt>
      <trkpt lat="43.92904" lon="1.86981">
        <ele>234.6</ele>
        <time>2022-09-08T18:22:30Z</time>
      </trkpt>
      <trkpt lat="43.92904" lon="1.86986">
        <ele>234.6</ele>
        <time>2022-09-08T18:22:31Z</time>
      </trkpt>
      <trkpt lat="43.92904" lon="1.8699">
        <ele>234.8</ele>
        <time>2022-09-08T18:22:32Z</time>
      </trkpt>
      <trkpt lat="43.92904" lon="1.86994">
        <ele>234.8</ele>
        <time>2022-09-08T18:22:33Z</time>
      </trkpt>
      <trkpt lat="43.92904" lon="1.87">
        <ele>234.8</ele>
        <time>2022-09-08T18:22:34Z</time>
      </trkpt>
      <trkpt lat="43.92905" lon="1.87004">
        <ele>234.4</ele>
        <time>2022-09-08T18:22:35Z</time>
      </trkpt>
      <trkpt lat="43.92905" lon="1.87008">
        <ele>234.4</ele>
        <time>2022-09-08T18:22:36Z</time>
      </trkpt>
      <trkpt lat="43.92906" lon="1.87013">
        <ele>234.2</ele>
        <time>2022-09-08T18:22:37Z</time>
      </trkpt>
      <trkpt lat="43.92907" lon="1.87018">
        <ele>234.2</ele>
        <time>2022-09-08T18:22:38Z</time>
      </trkpt>
      <trkpt lat="43.92908" lon="1.87024">
        <ele>234.2</ele>
        <time>2022-09-08T18:22:39Z</time>
      </trkpt>
      <trkpt lat="43.9291" lon="1.8703">
        <ele>233.8</ele>
        <time>2022-09-08T18:22:40Z</time>
      </trkpt>
      <trkpt lat="43.92911" lon="1.87036">
        <ele>233.6</ele>
        <time>2022-09-08T18:22:41Z</time>
      </trkpt>
      <trkpt lat="43.92912" lon="1.8704">
        <ele>233</ele>
        <time>2022-09-08T18:22:42Z</time>
      </trkpt>
      <trkpt lat="43.92913" lon="1.87047">
        <ele>232.8</ele>
        <time>2022-09-08T18:22:43Z</time>
      </trkpt>
      <trkpt lat="43.92915" lon="1.87053">
        <ele>232.4</ele>
        <time>2022-09-08T18:22:44Z</time>
      </trkpt>
      <trkpt lat="43.92917" lon="1.87064">
        <ele>231.6</ele>
        <time>2022-09-08T18:22:46Z</time>
      </trkpt>
      <trkpt lat="43.92921" lon="1.87076">
        <ele>230.4</ele>
        <time>2022-09-08T18:22:48Z</time>
      </trkpt>
      <trkpt lat="43.92924" lon="1.87083">
        <ele>229.8</ele>
        <time>2022-09-08T18:22:49Z</time>
      </trkpt>
      <trkpt lat="43.92928" lon="1.87093">
        <ele>228.8</ele>
        <time>2022-09-08T18:22:51Z</time>
      </trkpt>
      <trkpt lat="43.92932" lon="1.87107">
        <ele>227.4</ele>
        <time>2022-09-08T18:22:53Z</time>
      </trkpt>
      <trkpt lat="43.92936" lon="1.87118">
        <ele>225.8</ele>
        <time>2022-09-08T18:22:55Z</time>
      </trkpt>
      <trkpt lat="43.92937" lon="1.87123">
        <ele>225.4</ele>
        <time>2022-09-08T18:22:56Z</time>
      </trkpt>
      <trkpt lat="43.92938" lon="1.87128">
        <ele>224.8</ele>
        <time>2022-09-08T18:22:57Z</time>
      </trkpt>
      <trkpt lat="43.9294" lon="1.87131">
        <ele>224.2</ele>
        <time>2022-09-08T18:22:58Z</time>
      </trkpt>
      <trkpt lat="43.92942" lon="1.87132">
        <ele>223.8</ele>
        <time>2022-09-08T18:22:59Z</time>
      </trkpt>
      <trkpt lat="43.92944" lon="1.87133">
        <ele>223.4</ele>
        <time>2022-09-08T18:23:00Z</time>
      </trkpt>
      <trkpt lat="43.92948" lon="1.87128">
        <ele>221.6</ele>
        <time>2022-09-08T18:23:02Z</time>
      </trkpt>
      <trkpt lat="43.92949" lon="1.87126">
        <ele>221</ele>
        <time>2022-09-08T18:23:03Z</time>
      </trkpt>
      <trkpt lat="43.92949" lon="1.87123">
        <ele>220.6</ele>
        <time>2022-09-08T18:23:04Z</time>
      </trkpt>
      <trkpt lat="43.92949" lon="1.87119">
        <ele>220.2</ele>
        <time>2022-09-08T18:23:05Z</time>
      </trkpt>
      <trkpt lat="43.9295" lon="1.87116">
        <ele>220</ele>
        <time>2022-09-08T18:23:06Z</time>
      </trkpt>
      <trkpt lat="43.9295" lon="1.87112">
        <ele>219.8</ele>
        <time>2022-09-08T18:23:07Z</time>
      </trkpt>
      <trkpt lat="43.9295" lon="1.87105">
        <ele>219.6</ele>
        <time>2022-09-08T18:23:09Z</time>
      </trkpt>
      <trkpt lat="43.92954" lon="1.87067">
        <ele>219.6</ele>
        <time>2022-09-08T18:23:18Z</time>
      </trkpt>
      <trkpt lat="43.92956" lon="1.87053">
        <ele>220</ele>
        <time>2022-09-08T18:23:21Z</time>
      </trkpt>
      <trkpt lat="43.9296" lon="1.87018">
        <ele>220.6</ele>
        <time>2022-09-08T18:23:28Z</time>
      </trkpt>
      <trkpt lat="43.92968" lon="1.86971">
        <ele>221.4</ele>
        <time>2022-09-08T18:23:37Z</time>
      </trkpt>
      <trkpt lat="43.92969" lon="1.86966">
        <ele>221.6</ele>
        <time>2022-09-08T18:23:38Z</time>
      </trkpt>
      <trkpt lat="43.9297" lon="1.86961">
        <ele>221.6</ele>
        <time>2022-09-08T18:23:39Z</time>
      </trkpt>
      <trkpt lat="43.92978" lon="1.86924">
        <ele>222</ele>
        <time>2022-09-08T18:23:46Z</time>
      </trkpt>
      <trkpt lat="43.92979" lon="1.86918">
        <ele>222</ele>
        <time>2022-09-08T18:23:47Z</time>
      </trkpt>
      <trkpt lat="43.92983" lon="1.86896">
        <ele>222</ele>
        <time>2022-09-08T18:23:51Z</time>
      </trkpt>
      <trkpt lat="43.92987" lon="1.8688">
        <ele>222</ele>
        <time>2022-09-08T18:23:54Z</time>
      </trkpt>
      <trkpt lat="43.92997" lon="1.86846">
        <ele>222</ele>
        <time>2022-09-08T18:24:00Z</time>
      </trkpt>
      <trkpt lat="43.92998" lon="1.86841">
        <ele>222</ele>
        <time>2022-09-08T18:24:01Z</time>
      </trkpt>
      <trkpt lat="43.93" lon="1.86836">
        <ele>222</ele>
        <time>2022-09-08T18:24:02Z</time>
      </trkpt>
      <trkpt lat="43.93002" lon="1.8683">
        <ele>221.8</ele>
        <time>2022-09-08T18:24:03Z</time>
      </trkpt>
      <trkpt lat="43.93003" lon="1.86826">
        <ele>221.8</ele>
        <time>2022-09-08T18:24:04Z</time>
      </trkpt>
      <trkpt lat="43.93004" lon="1.8682">
        <ele>221.8</ele>
        <time>2022-09-08T18:24:05Z</time>
      </trkpt>
      <trkpt lat="43.93006" lon="1.86816">
        <ele>221.8</ele>
        <time>2022-09-08T18:24:06Z</time>
      </trkpt>
      <trkpt lat="43.93008" lon="1.86801">
        <ele>221.8</ele>
        <time>2022-09-08T18:24:09Z</time>
      </trkpt>
      <trkpt lat="43.93008" lon="1.86779">
        <ele>221.8</ele>
        <time>2022-09-08T18:24:13Z</time>
      </trkpt>
      <trkpt lat="43.93008" lon="1.86774">
        <ele>221.8</ele>
        <time>2022-09-08T18:24:14Z</time>
      </trkpt>
      <trkpt lat="43.93007" lon="1.86768">
        <ele>221.8</ele>
        <time>2022-09-08T18:24:15Z</time>
      </trkpt>
      <trkpt lat="43.93004" lon="1.86747">
        <ele>222</ele>
        <time>2022-09-08T18:24:19Z</time>
      </trkpt>
      <trkpt lat="43.93003" lon="1.86742">
        <ele>222</ele>
        <time>2022-09-08T18:24:20Z</time>
      </trkpt>
      <trkpt lat="43.93002" lon="1.86736">
        <ele>222</ele>
        <time>2022-09-08T18:24:21Z</time>
      </trkpt>
      <trkpt lat="43.93002" lon="1.86732">
        <ele>222.2</ele>
        <time>2022-09-08T18:24:22Z</time>
      </trkpt>
      <trkpt lat="43.93001" lon="1.86727">
        <ele>222.4</ele>
        <time>2022-09-08T18:24:23Z</time>
      </trkpt>
      <trkpt lat="43.93" lon="1.86721">
        <ele>222.4</ele>
        <time>2022-09-08T18:24:24Z</time>
      </trkpt>
      <trkpt lat="43.93" lon="1.86717">
        <ele>222.6</ele>
        <time>2022-09-08T18:24:25Z</time>
      </trkpt>
      <trkpt lat="43.93" lon="1.86714">
        <ele>222.8</ele>
        <time>2022-09-08T18:24:26Z</time>
      </trkpt>
      <trkpt lat="43.92999" lon="1.8671">
        <ele>223</ele>
        <time>2022-09-08T18:24:27Z</time>
      </trkpt>
      <trkpt lat="43.92999" lon="1.86706">
        <ele>223.2</ele>
        <time>2022-09-08T18:24:28Z</time>
      </trkpt>
      <trkpt lat="43.92999" lon="1.86703">
        <ele>223.6</ele>
        <time>2022-09-08T18:24:29Z</time>
      </trkpt>
      <trkpt lat="43.93" lon="1.86701">
        <ele>223.6</ele>
        <time>2022-09-08T18:24:30Z</time>
      </trkpt>
      <trkpt lat="43.93001" lon="1.86699">
        <ele>223.8</ele>
        <time>2022-09-08T18:24:31Z</time>
      </trkpt>
      <trkpt lat="43.93001" lon="1.86699">
        <ele>224.8</ele>
        <time>2022-09-08T18:24:48Z</time>
      </trkpt>
      <trkpt lat="43.93003" lon="1.86698">
        <ele>224.8</ele>
        <time>2022-09-08T18:24:49Z</time>
      </trkpt>
      <trkpt lat="43.93006" lon="1.86696">
        <ele>224.8</ele>
        <time>2022-09-08T18:24:50Z</time>
      </trkpt>
      <trkpt lat="43.9301" lon="1.86693">
        <ele>224.8</ele>
        <time>2022-09-08T18:24:51Z</time>
      </trkpt>
      <trkpt lat="43.93018" lon="1.86694">
        <ele>224.6</ele>
        <time>2022-09-08T18:24:53Z</time>
      </trkpt>
      <trkpt lat="43.93022" lon="1.86697">
        <ele>224.4</ele>
        <time>2022-09-08T18:24:54Z</time>
      </trkpt>
      <trkpt lat="43.93025" lon="1.867">
        <ele>224.2</ele>
        <time>2022-09-08T18:24:55Z</time>
      </trkpt>
      <trkpt lat="43.93032" lon="1.86708">
        <ele>223.4</ele>
        <time>2022-09-08T18:24:57Z</time>
      </trkpt>
      <trkpt lat="43.93034" lon="1.86712">
        <ele>223</ele>
        <time>2022-09-08T18:24:58Z</time>
      </trkpt>
      <trkpt lat="43.93037" lon="1.86716">
        <ele>222.4</ele>
        <time>2022-09-08T18:24:59Z</time>
      </trkpt>
      <trkpt lat="43.9304" lon="1.86719">
        <ele>222</ele>
        <time>2022-09-08T18:25:00Z</time>
      </trkpt>
      <trkpt lat="43.93043" lon="1.86722">
        <ele>221.4</ele>
        <time>2022-09-08T18:25:01Z</time>
      </trkpt>
      <trkpt lat="43.93045" lon="1.86725">
        <ele>220.6</ele>
        <time>2022-09-08T18:25:02Z</time>
      </trkpt>
      <trkpt lat="43.93048" lon="1.86726">
        <ele>220.2</ele>
        <time>2022-09-08T18:25:03Z</time>
      </trkpt>
      <trkpt lat="43.9305" lon="1.86728">
        <ele>219.4</ele>
        <time>2022-09-08T18:25:04Z</time>
      </trkpt>
      <trkpt lat="43.93053" lon="1.86729">
        <ele>219.2</ele>
        <time>2022-09-08T18:25:05Z</time>
      </trkpt>
      <trkpt lat="43.93055" lon="1.8673">
        <ele>218.4</ele>
        <time>2022-09-08T18:25:06Z</time>
      </trkpt>
      <trkpt lat="43.93065" lon="1.86734">
        <ele>217.2</ele>
        <time>2022-09-08T18:25:09Z</time>
      </trkpt>
      <trkpt lat="43.93073" lon="1.86738">
        <ele>216.2</ele>
        <time>2022-09-08T18:25:11Z</time>
      </trkpt>
      <trkpt lat="43.93081" lon="1.86742">
        <ele>215</ele>
        <time>2022-09-08T18:25:13Z</time>
      </trkpt>
      <trkpt lat="43.93085" lon="1.86744">
        <ele>214.6</ele>
        <time>2022-09-08T18:25:14Z</time>
      </trkpt>
      <trkpt lat="43.93089" lon="1.86746">
        <ele>213.6</ele>
        <time>2022-09-08T18:25:15Z</time>
      </trkpt>
      <trkpt lat="43.93097" lon="1.86751">
        <ele>212.4</ele>
        <time>2022-09-08T18:25:17Z</time>
      </trkpt>
      <trkpt lat="43.9311" lon="1.86759">
        <ele>211.2</ele>
        <time>2022-09-08T18:25:20Z</time>
      </trkpt>
      <trkpt lat="43.93115" lon="1.86761">
        <ele>211</ele>
        <time>2022-09-08T18:25:21Z</time>
      </trkpt>
      <trkpt lat="43.93119" lon="1.86764">
        <ele>210.2</ele>
        <time>2022-09-08T18:25:22Z</time>
      </trkpt>
      <trkpt lat="43.93122" lon="1.86766">
        <ele>209.8</ele>
        <time>2022-09-08T18:25:23Z</time>
      </trkpt>
      <trkpt lat="43.93126" lon="1.86768">
        <ele>208.8</ele>
        <time>2022-09-08T18:25:24Z</time>
      </trkpt>
      <trkpt lat="43.93129" lon="1.8677">
        <ele>208.4</ele>
        <time>2022-09-08T18:25:25Z</time>
      </trkpt>
      <trkpt lat="43.93132" lon="1.86772">
        <ele>207.8</ele>
        <time>2022-09-08T18:25:26Z</time>
      </trkpt>
      <trkpt lat="43.93135" lon="1.86773">
        <ele>206.8</ele>
        <time>2022-09-08T18:25:27Z</time>
      </trkpt>
      <trkpt lat="43.93141" lon="1.86774">
        <ele>206</ele>
        <time>2022-09-08T18:25:29Z</time>
      </trkpt>
      <trkpt lat="43.93146" lon="1.86774">
        <ele>205.6</ele>
        <time>2022-09-08T18:25:31Z</time>
      </trkpt>
      <trkpt lat="43.93152" lon="1.86775">
        <ele>204.8</ele>
        <time>2022-09-08T18:25:33Z</time>
      </trkpt>
      <trkpt lat="43.93155" lon="1.86775">
        <ele>204.6</ele>
        <time>2022-09-08T18:25:34Z</time>
      </trkpt>
      <trkpt lat="43.93161" lon="1.86774">
        <ele>204.4</ele>
        <time>2022-09-08T18:25:36Z</time>
      </trkpt>
      <trkpt lat="43.93164" lon="1.86776">
        <ele>204.4</ele>
        <time>2022-09-08T18:25:37Z</time>
      </trkpt>
      <trkpt lat="43.93168" lon="1.8678">
        <ele>204.4</ele>
        <time>2022-09-08T18:25:38Z</time>
      </trkpt>
      <trkpt lat="43.93172" lon="1.86783">
        <ele>204.4</ele>
        <time>2022-09-08T18:25:39Z</time>
      </trkpt>
      <trkpt lat="43.93175" lon="1.86786">
        <ele>204.2</ele>
        <time>2022-09-08T18:25:40Z</time>
      </trkpt>
      <trkpt lat="43.93178" lon="1.86789">
        <ele>204.2</ele>
        <time>2022-09-08T18:25:41Z</time>
      </trkpt>
      <trkpt lat="43.9318" lon="1.86791">
        <ele>204.2</ele>
        <time>2022-09-08T18:25:42Z</time>
      </trkpt>
      <trkpt lat="43.93182" lon="1.86793">
        <ele>204.2</ele>
        <time>2022-09-08T18:25:43Z</time>
      </trkpt>
      <trkpt lat="43.93183" lon="1.86795">
        <ele>204.2</ele>
        <time>2022-09-08T18:25:44Z</time>
      </trkpt>
      <trkpt lat="43.93185" lon="1.86797">
        <ele>204.2</ele>
        <time>2022-09-08T18:25:45Z</time>
      </trkpt>
      <trkpt lat="43.93187" lon="1.86798">
        <ele>204.2</ele>
        <time>2022-09-08T18:25:46Z</time>
      </trkpt>
      <trkpt lat="43.93191" lon="1.86804">
        <ele>204.6</ele>
        <time>2022-09-08T18:25:49Z</time>
      </trkpt>
      <trkpt lat="43.93193" lon="1.86805">
        <ele>204.8</ele>
        <time>2022-09-08T18:25:50Z</time>
      </trkpt>
      <trkpt lat="43.93194" lon="1.86806">
        <ele>204.8</ele>
        <time>2022-09-08T18:25:51Z</time>
      </trkpt>
      <trkpt lat="43.93195" lon="1.86807">
        <ele>205.2</ele>
        <time>2022-09-08T18:25:52Z</time>
      </trkpt>
      <trkpt lat="43.93196" lon="1.86809">
        <ele>205.2</ele>
        <time>2022-09-08T18:25:53Z</time>
      </trkpt>
      <trkpt lat="43.93197" lon="1.86811">
        <ele>205.4</ele>
        <time>2022-09-08T18:25:54Z</time>
      </trkpt>
      <trkpt lat="43.93201" lon="1.86816">
        <ele>206.2</ele>
        <time>2022-09-08T18:25:57Z</time>
      </trkpt>
      <trkpt lat="43.93203" lon="1.8682">
        <ele>206.6</ele>
        <time>2022-09-08T18:25:59Z</time>
      </trkpt>
      <trkpt lat="43.93214" lon="1.8683">
        <ele>207.6</ele>
        <time>2022-09-08T18:26:05Z</time>
      </trkpt>
      <trkpt lat="43.93217" lon="1.86831">
        <ele>208.2</ele>
        <time>2022-09-08T18:26:06Z</time>
      </trkpt>
      <trkpt lat="43.93221" lon="1.86832">
        <ele>209</ele>
        <time>2022-09-08T18:26:08Z</time>
      </trkpt>
      <trkpt lat="43.93223" lon="1.86833">
        <ele>209.2</ele>
        <time>2022-09-08T18:26:09Z</time>
      </trkpt>
      <trkpt lat="43.93225" lon="1.86833">
        <ele>209.6</ele>
        <time>2022-09-08T18:26:10Z</time>
      </trkpt>
      <trkpt lat="43.93227" lon="1.86833">
        <ele>209.8</ele>
        <time>2022-09-08T18:26:11Z</time>
      </trkpt>
      <trkpt lat="43.9323" lon="1.86833">
        <ele>209.8</ele>
        <time>2022-09-08T18:26:12Z</time>
      </trkpt>
      <trkpt lat="43.93232" lon="1.86833">
        <ele>210</ele>
        <time>2022-09-08T18:26:13Z</time>
      </trkpt>
      <trkpt lat="43.93235" lon="1.86833">
        <ele>210</ele>
        <time>2022-09-08T18:26:14Z</time>
      </trkpt>
      <trkpt lat="43.93237" lon="1.86833">
        <ele>210.2</ele>
        <time>2022-09-08T18:26:15Z</time>
      </trkpt>
      <trkpt lat="43.9324" lon="1.86833">
        <ele>210.8</ele>
        <time>2022-09-08T18:26:16Z</time>
      </trkpt>
      <trkpt lat="43.93242" lon="1.86834">
        <ele>211.4</ele>
        <time>2022-09-08T18:26:17Z</time>
      </trkpt>
      <trkpt lat="43.93244" lon="1.86834">
        <ele>211.4</ele>
        <time>2022-09-08T18:26:18Z</time>
      </trkpt>
      <trkpt lat="43.93247" lon="1.86833">
        <ele>211.8</ele>
        <time>2022-09-08T18:26:19Z</time>
      </trkpt>
      <trkpt lat="43.93249" lon="1.86833">
        <ele>212.8</ele>
        <time>2022-09-08T18:26:20Z</time>
      </trkpt>
      <trkpt lat="43.93252" lon="1.86832">
        <ele>213.2</ele>
        <time>2022-09-08T18:26:21Z</time>
      </trkpt>
      <trkpt lat="43.93254" lon="1.86831">
        <ele>214</ele>
        <time>2022-09-08T18:26:22Z</time>
      </trkpt>
      <trkpt lat="43.93256" lon="1.86831">
        <ele>214.2</ele>
        <time>2022-09-08T18:26:23Z</time>
      </trkpt>
      <trkpt lat="43.93258" lon="1.86831">
        <ele>214.6</ele>
        <time>2022-09-08T18:26:24Z</time>
      </trkpt>
      <trkpt lat="43.9326" lon="1.86832">
        <ele>214.8</ele>
        <time>2022-09-08T18:26:25Z</time>
      </trkpt>
      <trkpt lat="43.93262" lon="1.86832">
        <ele>215</ele>
        <time>2022-09-08T18:26:26Z</time>
      </trkpt>
      <trkpt lat="43.93264" lon="1.86831">
        <ele>215.4</ele>
        <time>2022-09-08T18:26:27Z</time>
      </trkpt>
      <trkpt lat="43.93266" lon="1.86831">
        <ele>216.2</ele>
        <time>2022-09-08T18:26:28Z</time>
      </trkpt>
      <trkpt lat="43.93267" lon="1.86832">
        <ele>216.6</ele>
        <time>2022-09-08T18:26:29Z</time>
      </trkpt>
      <trkpt lat="43.93269" lon="1.86833">
        <ele>217</ele>
        <time>2022-09-08T18:26:30Z</time>
      </trkpt>
      <trkpt lat="43.9327" lon="1.86833">
        <ele>217.8</ele>
        <time>2022-09-08T18:26:31Z</time>
      </trkpt>
      <trkpt lat="43.93272" lon="1.86833">
        <ele>218.2</ele>
        <time>2022-09-08T18:26:32Z</time>
      </trkpt>
      <trkpt lat="43.93274" lon="1.86833">
        <ele>218.8</ele>
        <time>2022-09-08T18:26:33Z</time>
      </trkpt>
      <trkpt lat="43.93275" lon="1.86833">
        <ele>218.8</ele>
        <time>2022-09-08T18:26:34Z</time>
      </trkpt>
      <trkpt lat="43.93277" lon="1.86833">
        <ele>219.2</ele>
        <time>2022-09-08T18:26:35Z</time>
      </trkpt>
      <trkpt lat="43.93279" lon="1.86833">
        <ele>219.8</ele>
        <time>2022-09-08T18:26:36Z</time>
      </trkpt>
      <trkpt lat="43.93281" lon="1.86833">
        <ele>220</ele>
        <time>2022-09-08T18:26:37Z</time>
      </trkpt>
      <trkpt lat="43.93283" lon="1.86833">
        <ele>220.4</ele>
        <time>2022-09-08T18:26:38Z</time>
      </trkpt>
      <trkpt lat="43.93284" lon="1.86833">
        <ele>220.6</ele>
        <time>2022-09-08T18:26:39Z</time>
      </trkpt>
      <trkpt lat="43.93286" lon="1.86833">
        <ele>221</ele>
        <time>2022-09-08T18:26:40Z</time>
      </trkpt>
      <trkpt lat="43.93287" lon="1.86833">
        <ele>221.6</ele>
        <time>2022-09-08T18:26:41Z</time>
      </trkpt>
      <trkpt lat="43.93289" lon="1.86833">
        <ele>222.2</ele>
        <time>2022-09-08T18:26:42Z</time>
      </trkpt>
      <trkpt lat="43.9329" lon="1.86833">
        <ele>222.8</ele>
        <time>2022-09-08T18:26:43Z</time>
      </trkpt>
      <trkpt lat="43.93291" lon="1.86834">
        <ele>223</ele>
        <time>2022-09-08T18:26:44Z</time>
      </trkpt>
      <trkpt lat="43.93293" lon="1.86834">
        <ele>223.4</ele>
        <time>2022-09-08T18:26:45Z</time>
      </trkpt>
      <trkpt lat="43.93295" lon="1.86834">
        <ele>223.6</ele>
        <time>2022-09-08T18:26:46Z</time>
      </trkpt>
      <trkpt lat="43.93295" lon="1.86834">
        <ele>224</ele>
        <time>2022-09-08T18:26:47Z</time>
      </trkpt>
      <trkpt lat="43.93296" lon="1.86835">
        <ele>224.2</ele>
        <time>2022-09-08T18:26:48Z</time>
      </trkpt>
      <trkpt lat="43.93297" lon="1.86836">
        <ele>224.6</ele>
        <time>2022-09-08T18:26:49Z</time>
      </trkpt>
      <trkpt lat="43.93298" lon="1.86837">
        <ele>224.8</ele>
        <time>2022-09-08T18:26:50Z</time>
      </trkpt>
      <trkpt lat="43.93298" lon="1.86838">
        <ele>225.2</ele>
        <time>2022-09-08T18:26:51Z</time>
      </trkpt>
      <trkpt lat="43.93299" lon="1.86839">
        <ele>225.4</ele>
        <time>2022-09-08T18:26:52Z</time>
      </trkpt>
      <trkpt lat="43.933" lon="1.86841">
        <ele>225.6</ele>
        <time>2022-09-08T18:26:53Z</time>
      </trkpt>
      <trkpt lat="43.93301" lon="1.86843">
        <ele>225.8</ele>
        <time>2022-09-08T18:26:54Z</time>
      </trkpt>
      <trkpt lat="43.93301" lon="1.86845">
        <ele>225.8</ele>
        <time>2022-09-08T18:26:55Z</time>
      </trkpt>
      <trkpt lat="43.93301" lon="1.86848">
        <ele>226</ele>
        <time>2022-09-08T18:26:56Z</time>
      </trkpt>
      <trkpt lat="43.93301" lon="1.86851">
        <ele>226</ele>
        <time>2022-09-08T18:26:57Z</time>
      </trkpt>
      <trkpt lat="43.933" lon="1.86854">
        <ele>226</ele>
        <time>2022-09-08T18:26:58Z</time>
      </trkpt>
      <trkpt lat="43.93299" lon="1.86857">
        <ele>226</ele>
        <time>2022-09-08T18:26:59Z</time>
      </trkpt>
      <trkpt lat="43.93299" lon="1.8686">
        <ele>226</ele>
        <time>2022-09-08T18:27:00Z</time>
      </trkpt>
      <trkpt lat="43.93299" lon="1.86863">
        <ele>226</ele>
        <time>2022-09-08T18:27:01Z</time>
      </trkpt>
      <trkpt lat="43.93299" lon="1.86866">
        <ele>226</ele>
        <time>2022-09-08T18:27:02Z</time>
      </trkpt>
      <trkpt lat="43.93299" lon="1.86869">
        <ele>226</ele>
        <time>2022-09-08T18:27:03Z</time>
      </trkpt>
      <trkpt lat="43.93299" lon="1.86872">
        <ele>225.8</ele>
        <time>2022-09-08T18:27:04Z</time>
      </trkpt>
      <trkpt lat="43.933" lon="1.86874">
        <ele>225.8</ele>
        <time>2022-09-08T18:27:05Z</time>
      </trkpt>
      <trkpt lat="43.933" lon="1.86877">
        <ele>225.6</ele>
        <time>2022-09-08T18:27:06Z</time>
      </trkpt>
      <trkpt lat="43.93301" lon="1.86879">
        <ele>225.4</ele>
        <time>2022-09-08T18:27:07Z</time>
      </trkpt>
      <trkpt lat="43.93301" lon="1.86881">
        <ele>225.4</ele>
        <time>2022-09-08T18:27:08Z</time>
      </trkpt>
      <trkpt lat="43.93301" lon="1.86883">
        <ele>225.4</ele>
        <time>2022-09-08T18:27:09Z</time>
      </trkpt>
      <trkpt lat="43.93302" lon="1.86885">
        <ele>225.2</ele>
        <time>2022-09-08T18:27:10Z</time>
      </trkpt>
      <trkpt lat="43.93302" lon="1.86887">
        <ele>225.2</ele>
        <time>2022-09-08T18:27:11Z</time>
      </trkpt>
      <trkpt lat="43.93303" lon="1.86889">
        <ele>225</ele>
        <time>2022-09-08T18:27:12Z</time>
      </trkpt>
      <trkpt lat="43.93303" lon="1.86889">
        <ele>225</ele>
        <time>2022-09-08T18:27:13Z</time>
      </trkpt>
      <trkpt lat="43.93305" lon="1.86892">
        <ele>224.8</ele>
        <time>2022-09-08T18:27:47Z</time>
      </trkpt>
      <trkpt lat="43.93306" lon="1.86895">
        <ele>224.8</ele>
        <time>2022-09-08T18:27:48Z</time>
      </trkpt>
      <trkpt lat="43.93307" lon="1.86899">
        <ele>224.8</ele>
        <time>2022-09-08T18:27:49Z</time>
      </trkpt>
      <trkpt lat="43.93307" lon="1.86904">
        <ele>224.8</ele>
        <time>2022-09-08T18:27:50Z</time>
      </trkpt>
      <trkpt lat="43.93307" lon="1.86909">
        <ele>224.8</ele>
        <time>2022-09-08T18:27:51Z</time>
      </trkpt>
      <trkpt lat="43.93307" lon="1.86914">
        <ele>224.6</ele>
        <time>2022-09-08T18:27:52Z</time>
      </trkpt>
      <trkpt lat="43.93307" lon="1.8692">
        <ele>224.6</ele>
        <time>2022-09-08T18:27:53Z</time>
      </trkpt>
      <trkpt lat="43.93307" lon="1.8694">
        <ele>223.6</ele>
        <time>2022-09-08T18:27:56Z</time>
      </trkpt>
      <trkpt lat="43.93307" lon="1.86971">
        <ele>222.4</ele>
        <time>2022-09-08T18:28:00Z</time>
      </trkpt>
      <trkpt lat="43.93307" lon="1.86989">
        <ele>221</ele>
        <time>2022-09-08T18:28:02Z</time>
      </trkpt>
      <trkpt lat="43.93307" lon="1.86997">
        <ele>220.4</ele>
        <time>2022-09-08T18:28:03Z</time>
      </trkpt>
      <trkpt lat="43.93306" lon="1.87004">
        <ele>219.8</ele>
        <time>2022-09-08T18:28:04Z</time>
      </trkpt>
      <trkpt lat="43.93306" lon="1.87011">
        <ele>218.8</ele>
        <time>2022-09-08T18:28:05Z</time>
      </trkpt>
      <trkpt lat="43.93305" lon="1.87018">
        <ele>218.2</ele>
        <time>2022-09-08T18:28:06Z</time>
      </trkpt>
      <trkpt lat="43.93305" lon="1.87025">
        <ele>217.4</ele>
        <time>2022-09-08T18:28:07Z</time>
      </trkpt>
      <trkpt lat="43.93305" lon="1.87033">
        <ele>216.8</ele>
        <time>2022-09-08T18:28:08Z</time>
      </trkpt>
      <trkpt lat="43.93304" lon="1.87049">
        <ele>215.6</ele>
        <time>2022-09-08T18:28:10Z</time>
      </trkpt>
      <trkpt lat="43.93305" lon="1.87064">
        <ele>214.4</ele>
        <time>2022-09-08T18:28:12Z</time>
      </trkpt>
      <trkpt lat="43.93306" lon="1.87084">
        <ele>213.4</ele>
        <time>2022-09-08T18:28:14Z</time>
      </trkpt>
      <trkpt lat="43.93308" lon="1.87115">
        <ele>211.4</ele>
        <time>2022-09-08T18:28:17Z</time>
      </trkpt>
      <trkpt lat="43.93311" lon="1.87136">
        <ele>209.8</ele>
        <time>2022-09-08T18:28:19Z</time>
      </trkpt>
      <trkpt lat="43.93313" lon="1.87158">
        <ele>208.6</ele>
        <time>2022-09-08T18:28:21Z</time>
      </trkpt>
      <trkpt lat="43.93315" lon="1.87193">
        <ele>207.2</ele>
        <time>2022-09-08T18:28:24Z</time>
      </trkpt>
      <trkpt lat="43.93317" lon="1.87217">
        <ele>206.2</ele>
        <time>2022-09-08T18:28:26Z</time>
      </trkpt>
      <trkpt lat="43.93318" lon="1.87229">
        <ele>206</ele>
        <time>2022-09-08T18:28:27Z</time>
      </trkpt>
      <trkpt lat="43.93321" lon="1.87264">
        <ele>204.8</ele>
        <time>2022-09-08T18:28:30Z</time>
      </trkpt>
      <trkpt lat="43.93322" lon="1.87275">
        <ele>204.6</ele>
        <time>2022-09-08T18:28:31Z</time>
      </trkpt>
      <trkpt lat="43.93322" lon="1.87286">
        <ele>203.4</ele>
        <time>2022-09-08T18:28:32Z</time>
      </trkpt>
      <trkpt lat="43.93321" lon="1.87297">
        <ele>202.6</ele>
        <time>2022-09-08T18:28:33Z</time>
      </trkpt>
      <trkpt lat="43.9332" lon="1.87308">
        <ele>202.2</ele>
        <time>2022-09-08T18:28:34Z</time>
      </trkpt>
      <trkpt lat="43.93315" lon="1.87342">
        <ele>201.2</ele>
        <time>2022-09-08T18:28:37Z</time>
      </trkpt>
      <trkpt lat="43.93313" lon="1.87352">
        <ele>201.2</ele>
        <time>2022-09-08T18:28:38Z</time>
      </trkpt>
      <trkpt lat="43.93311" lon="1.87362">
        <ele>200.8</ele>
        <time>2022-09-08T18:28:39Z</time>
      </trkpt>
      <trkpt lat="43.9331" lon="1.8737">
        <ele>200.2</ele>
        <time>2022-09-08T18:28:40Z</time>
      </trkpt>
      <trkpt lat="43.93311" lon="1.87379">
        <ele>200</ele>
        <time>2022-09-08T18:28:41Z</time>
      </trkpt>
      <trkpt lat="43.93312" lon="1.87387">
        <ele>199.4</ele>
        <time>2022-09-08T18:28:42Z</time>
      </trkpt>
      <trkpt lat="43.93313" lon="1.87395">
        <ele>199.2</ele>
        <time>2022-09-08T18:28:43Z</time>
      </trkpt>
      <trkpt lat="43.93315" lon="1.87402">
        <ele>198.6</ele>
        <time>2022-09-08T18:28:44Z</time>
      </trkpt>
      <trkpt lat="43.93318" lon="1.8741">
        <ele>198.2</ele>
        <time>2022-09-08T18:28:45Z</time>
      </trkpt>
      <trkpt lat="43.93324" lon="1.87426">
        <ele>196.4</ele>
        <time>2022-09-08T18:28:47Z</time>
      </trkpt>
      <trkpt lat="43.93328" lon="1.87435">
        <ele>195.8</ele>
        <time>2022-09-08T18:28:48Z</time>
      </trkpt>
      <trkpt lat="43.93331" lon="1.87443">
        <ele>195</ele>
        <time>2022-09-08T18:28:49Z</time>
      </trkpt>
      <trkpt lat="43.93334" lon="1.8745">
        <ele>194.6</ele>
        <time>2022-09-08T18:28:50Z</time>
      </trkpt>
      <trkpt lat="43.93337" lon="1.87456">
        <ele>193.8</ele>
        <time>2022-09-08T18:28:51Z</time>
      </trkpt>
      <trkpt lat="43.93346" lon="1.87466">
        <ele>192.2</ele>
        <time>2022-09-08T18:28:53Z</time>
      </trkpt>
      <trkpt lat="43.93352" lon="1.87469">
        <ele>191.2</ele>
        <time>2022-09-08T18:28:54Z</time>
      </trkpt>
      <trkpt lat="43.93356" lon="1.87473">
        <ele>189.8</ele>
        <time>2022-09-08T18:28:55Z</time>
      </trkpt>
      <trkpt lat="43.9336" lon="1.87479">
        <ele>188.4</ele>
        <time>2022-09-08T18:28:56Z</time>
      </trkpt>
      <trkpt lat="43.93362" lon="1.87487">
        <ele>187.8</ele>
        <time>2022-09-08T18:28:57Z</time>
      </trkpt>
      <trkpt lat="43.93363" lon="1.87495">
        <ele>186.8</ele>
        <time>2022-09-08T18:28:58Z</time>
      </trkpt>
      <trkpt lat="43.93364" lon="1.87505">
        <ele>186.2</ele>
        <time>2022-09-08T18:28:59Z</time>
      </trkpt>
      <trkpt lat="43.93365" lon="1.87517">
        <ele>185.8</ele>
        <time>2022-09-08T18:29:00Z</time>
      </trkpt>
      <trkpt lat="43.93366" lon="1.87528">
        <ele>185.4</ele>
        <time>2022-09-08T18:29:01Z</time>
      </trkpt>
      <trkpt lat="43.93368" lon="1.87538">
        <ele>184</ele>
        <time>2022-09-08T18:29:02Z</time>
      </trkpt>
      <trkpt lat="43.93369" lon="1.87546">
        <ele>183</ele>
        <time>2022-09-08T18:29:03Z</time>
      </trkpt>
      <trkpt lat="43.93369" lon="1.87553">
        <ele>182.6</ele>
        <time>2022-09-08T18:29:04Z</time>
      </trkpt>
      <trkpt lat="43.93368" lon="1.8756">
        <ele>181.8</ele>
        <time>2022-09-08T18:29:05Z</time>
      </trkpt>
      <trkpt lat="43.93365" lon="1.87564">
        <ele>181.4</ele>
        <time>2022-09-08T18:29:06Z</time>
      </trkpt>
      <trkpt lat="43.93361" lon="1.87565">
        <ele>181</ele>
        <time>2022-09-08T18:29:07Z</time>
      </trkpt>
      <trkpt lat="43.93357" lon="1.87565">
        <ele>180.8</ele>
        <time>2022-09-08T18:29:08Z</time>
      </trkpt>
      <trkpt lat="43.93353" lon="1.87563">
        <ele>179.4</ele>
        <time>2022-09-08T18:29:09Z</time>
      </trkpt>
      <trkpt lat="43.93349" lon="1.87563">
        <ele>178.2</ele>
        <time>2022-09-08T18:29:10Z</time>
      </trkpt>
      <trkpt lat="43.93345" lon="1.87562">
        <ele>178</ele>
        <time>2022-09-08T18:29:11Z</time>
      </trkpt>
      <trkpt lat="43.93342" lon="1.87563">
        <ele>177.4</ele>
        <time>2022-09-08T18:29:12Z</time>
      </trkpt>
      <trkpt lat="43.93338" lon="1.87564">
        <ele>177.4</ele>
        <time>2022-09-08T18:29:13Z</time>
      </trkpt>
      <trkpt lat="43.93335" lon="1.87565">
        <ele>177</ele>
        <time>2022-09-08T18:29:14Z</time>
      </trkpt>
      <trkpt lat="43.93328" lon="1.87568">
        <ele>176.6</ele>
        <time>2022-09-08T18:29:16Z</time>
      </trkpt>
      <trkpt lat="43.93325" lon="1.8757">
        <ele>176.6</ele>
        <time>2022-09-08T18:29:17Z</time>
      </trkpt>
      <trkpt lat="43.93319" lon="1.87575">
        <ele>176.4</ele>
        <time>2022-09-08T18:29:19Z</time>
      </trkpt>
      <trkpt lat="43.93316" lon="1.87577">
        <ele>176.4</ele>
        <time>2022-09-08T18:29:20Z</time>
      </trkpt>
      <trkpt lat="43.93314" lon="1.87579">
        <ele>176.4</ele>
        <time>2022-09-08T18:29:21Z</time>
      </trkpt>
      <trkpt lat="43.93309" lon="1.87585">
        <ele>176.4</ele>
        <time>2022-09-08T18:29:23Z</time>
      </trkpt>
      <trkpt lat="43.93307" lon="1.87589">
        <ele>176.4</ele>
        <time>2022-09-08T18:29:24Z</time>
      </trkpt>
      <trkpt lat="43.93305" lon="1.87592">
        <ele>176.4</ele>
        <time>2022-09-08T18:29:25Z</time>
      </trkpt>
      <trkpt lat="43.93303" lon="1.87595">
        <ele>176.4</ele>
        <time>2022-09-08T18:29:26Z</time>
      </trkpt>
      <trkpt lat="43.93301" lon="1.87598">
        <ele>176.4</ele>
        <time>2022-09-08T18:29:27Z</time>
      </trkpt>
      <trkpt lat="43.933" lon="1.87601">
        <ele>176.6</ele>
        <time>2022-09-08T18:29:28Z</time>
      </trkpt>
      <trkpt lat="43.93298" lon="1.87604">
        <ele>176.6</ele>
        <time>2022-09-08T18:29:29Z</time>
      </trkpt>
      <trkpt lat="43.93297" lon="1.87607">
        <ele>176.8</ele>
        <time>2022-09-08T18:29:30Z</time>
      </trkpt>
      <trkpt lat="43.93296" lon="1.8761">
        <ele>176.8</ele>
        <time>2022-09-08T18:29:31Z</time>
      </trkpt>
      <trkpt lat="43.93295" lon="1.87613">
        <ele>177</ele>
        <time>2022-09-08T18:29:32Z</time>
      </trkpt>
      <trkpt lat="43.93295" lon="1.87616">
        <ele>177</ele>
        <time>2022-09-08T18:29:33Z</time>
      </trkpt>
      <trkpt lat="43.93296" lon="1.87619">
        <ele>177.2</ele>
        <time>2022-09-08T18:29:34Z</time>
      </trkpt>
      <trkpt lat="43.93297" lon="1.87622">
        <ele>177.4</ele>
        <time>2022-09-08T18:29:35Z</time>
      </trkpt>
      <trkpt lat="43.93298" lon="1.87624">
        <ele>177.6</ele>
        <time>2022-09-08T18:29:36Z</time>
      </trkpt>
      <trkpt lat="43.93299" lon="1.87625">
        <ele>177.8</ele>
        <time>2022-09-08T18:29:37Z</time>
      </trkpt>
      <trkpt lat="43.93302" lon="1.87626">
        <ele>178</ele>
        <time>2022-09-08T18:29:39Z</time>
      </trkpt>
      <trkpt lat="43.93304" lon="1.87627">
        <ele>178</ele>
        <time>2022-09-08T18:29:40Z</time>
      </trkpt>
      <trkpt lat="43.93305" lon="1.87628">
        <ele>178</ele>
        <time>2022-09-08T18:29:41Z</time>
      </trkpt>
      <trkpt lat="43.93309" lon="1.87631">
        <ele>178</ele>
        <time>2022-09-08T18:29:43Z</time>
      </trkpt>
      <trkpt lat="43.93318" lon="1.87639">
        <ele>177</ele>
        <time>2022-09-08T18:29:48Z</time>
      </trkpt>
      <trkpt lat="43.9332" lon="1.87641">
        <ele>176.6</ele>
        <time>2022-09-08T18:29:49Z</time>
      </trkpt>
      <trkpt lat="43.93321" lon="1.87642">
        <ele>176.6</ele>
        <time>2022-09-08T18:29:50Z</time>
      </trkpt>
      <trkpt lat="43.93322" lon="1.87644">
        <ele>176.2</ele>
        <time>2022-09-08T18:29:51Z</time>
      </trkpt>
      <trkpt lat="43.93324" lon="1.87645">
        <ele>176.2</ele>
        <time>2022-09-08T18:29:52Z</time>
      </trkpt>
      <trkpt lat="43.93325" lon="1.87647">
        <ele>176</ele>
        <time>2022-09-08T18:29:53Z</time>
      </trkpt>
      <trkpt lat="43.93325" lon="1.87648">
        <ele>176</ele>
        <time>2022-09-08T18:29:54Z</time>
      </trkpt>
      <trkpt lat="43.93326" lon="1.8765">
        <ele>175.8</ele>
        <time>2022-09-08T18:29:55Z</time>
      </trkpt>
      <trkpt lat="43.93327" lon="1.87651">
        <ele>175.6</ele>
        <time>2022-09-08T18:29:56Z</time>
      </trkpt>
      <trkpt lat="43.93328" lon="1.87652">
        <ele>175.4</ele>
        <time>2022-09-08T18:29:57Z</time>
      </trkpt>
      <trkpt lat="43.93329" lon="1.87653">
        <ele>175.4</ele>
        <time>2022-09-08T18:29:58Z</time>
      </trkpt>
      <trkpt lat="43.9333" lon="1.87654">
        <ele>175.2</ele>
        <time>2022-09-08T18:29:59Z</time>
      </trkpt>
      <trkpt lat="43.93331" lon="1.87655">
        <ele>175</ele>
        <time>2022-09-08T18:30:00Z</time>
      </trkpt>
      <trkpt lat="43.93332" lon="1.87657">
        <ele>174.4</ele>
        <time>2022-09-08T18:30:22Z</time>
      </trkpt>
      <trkpt lat="43.93333" lon="1.8766">
        <ele>174.4</ele>
        <time>2022-09-08T18:30:23Z</time>
      </trkpt>
      <trkpt lat="43.93334" lon="1.87662">
        <ele>174.4</ele>
        <time>2022-09-08T18:30:24Z</time>
      </trkpt>
      <trkpt lat="43.93335" lon="1.87665">
        <ele>174.4</ele>
        <time>2022-09-08T18:30:25Z</time>
      </trkpt>
      <trkpt lat="43.93337" lon="1.87668">
        <ele>174.4</ele>
        <time>2022-09-08T18:30:26Z</time>
      </trkpt>
      <trkpt lat="43.93345" lon="1.87684">
        <ele>174.2</ele>
        <time>2022-09-08T18:30:30Z</time>
      </trkpt>
      <trkpt lat="43.9335" lon="1.87691">
        <ele>174.2</ele>
        <time>2022-09-08T18:30:32Z</time>
      </trkpt>
      <trkpt lat="43.93352" lon="1.87694">
        <ele>174</ele>
        <time>2022-09-08T18:30:33Z</time>
      </trkpt>
      <trkpt lat="43.93354" lon="1.87697">
        <ele>173.8</ele>
        <time>2022-09-08T18:30:34Z</time>
      </trkpt>
      <trkpt lat="43.93356" lon="1.877">
        <ele>173.6</ele>
        <time>2022-09-08T18:30:35Z</time>
      </trkpt>
      <trkpt lat="43.93357" lon="1.87703">
        <ele>173.4</ele>
        <time>2022-09-08T18:30:36Z</time>
      </trkpt>
      <trkpt lat="43.93359" lon="1.87706">
        <ele>173.4</ele>
        <time>2022-09-08T18:30:37Z</time>
      </trkpt>
      <trkpt lat="43.9336" lon="1.87709">
        <ele>173.2</ele>
        <time>2022-09-08T18:30:38Z</time>
      </trkpt>
      <trkpt lat="43.93361" lon="1.87712">
        <ele>173</ele>
        <time>2022-09-08T18:30:39Z</time>
      </trkpt>
      <trkpt lat="43.93361" lon="1.87715">
        <ele>173</ele>
        <time>2022-09-08T18:30:40Z</time>
      </trkpt>
      <trkpt lat="43.93362" lon="1.87718">
        <ele>172.8</ele>
        <time>2022-09-08T18:30:41Z</time>
      </trkpt>
      <trkpt lat="43.93362" lon="1.87721">
        <ele>172.8</ele>
        <time>2022-09-08T18:30:42Z</time>
      </trkpt>
      <trkpt lat="43.93363" lon="1.87723">
        <ele>172.6</ele>
        <time>2022-09-08T18:30:43Z</time>
      </trkpt>
      <trkpt lat="43.93361" lon="1.87743">
        <ele>172.6</ele>
        <time>2022-09-08T18:30:49Z</time>
      </trkpt>
      <trkpt lat="43.93361" lon="1.87746">
        <ele>172.6</ele>
        <time>2022-09-08T18:30:50Z</time>
      </trkpt>
      <trkpt lat="43.93359" lon="1.8776">
        <ele>172.8</ele>
        <time>2022-09-08T18:30:54Z</time>
      </trkpt>
      <trkpt lat="43.93359" lon="1.87764">
        <ele>172.8</ele>
        <time>2022-09-08T18:30:55Z</time>
      </trkpt>
      <trkpt lat="43.93359" lon="1.87767">
        <ele>172.8</ele>
        <time>2022-09-08T18:30:56Z</time>
      </trkpt>
      <trkpt lat="43.93359" lon="1.8777">
        <ele>172.8</ele>
        <time>2022-09-08T18:30:57Z</time>
      </trkpt>
      <trkpt lat="43.93359" lon="1.87774">
        <ele>172.8</ele>
        <time>2022-09-08T18:30:58Z</time>
      </trkpt>
      <trkpt lat="43.9336" lon="1.8778">
        <ele>173</ele>
        <time>2022-09-08T18:31:00Z</time>
      </trkpt>
      <trkpt lat="43.93361" lon="1.87787">
        <ele>173.2</ele>
        <time>2022-09-08T18:31:02Z</time>
      </trkpt>
      <trkpt lat="43.93369" lon="1.87832">
        <ele>173.8</ele>
        <time>2022-09-08T18:31:13Z</time>
      </trkpt>
      <trkpt lat="43.93379" lon="1.8787">
        <ele>173.4</ele>
        <time>2022-09-08T18:31:20Z</time>
      </trkpt>
      <trkpt lat="43.93385" lon="1.87909">
        <ele>172.8</ele>
        <time>2022-09-08T18:31:26Z</time>
      </trkpt>
      <trkpt lat="43.93387" lon="1.87923">
        <ele>172.4</ele>
        <time>2022-09-08T18:31:28Z</time>
      </trkpt>
      <trkpt lat="43.93388" lon="1.87936">
        <ele>171.6</ele>
        <time>2022-09-08T18:31:30Z</time>
      </trkpt>
      <trkpt lat="43.93389" lon="1.87943">
        <ele>171.6</ele>
        <time>2022-09-08T18:31:31Z</time>
      </trkpt>
      <trkpt lat="43.9339" lon="1.87949">
        <ele>171.4</ele>
        <time>2022-09-08T18:31:32Z</time>
      </trkpt>
      <trkpt lat="43.93392" lon="1.87955">
        <ele>171.2</ele>
        <time>2022-09-08T18:31:33Z</time>
      </trkpt>
      <trkpt lat="43.93393" lon="1.87962">
        <ele>171</ele>
        <time>2022-09-08T18:31:34Z</time>
      </trkpt>
      <trkpt lat="43.93394" lon="1.87968">
        <ele>171</ele>
        <time>2022-09-08T18:31:35Z</time>
      </trkpt>
      <trkpt lat="43.93393" lon="1.87974">
        <ele>170.8</ele>
        <time>2022-09-08T18:31:36Z</time>
      </trkpt>
      <trkpt lat="43.93392" lon="1.87979">
        <ele>170.6</ele>
        <time>2022-09-08T18:31:37Z</time>
      </trkpt>
      <trkpt lat="43.93391" lon="1.87984">
        <ele>170.6</ele>
        <time>2022-09-08T18:31:38Z</time>
      </trkpt>
      <trkpt lat="43.93391" lon="1.87989">
        <ele>170.4</ele>
        <time>2022-09-08T18:31:39Z</time>
      </trkpt>
      <trkpt lat="43.9339" lon="1.87993">
        <ele>170.4</ele>
        <time>2022-09-08T18:31:40Z</time>
      </trkpt>
      <trkpt lat="43.93389" lon="1.87998">
        <ele>170.2</ele>
        <time>2022-09-08T18:31:41Z</time>
      </trkpt>
      <trkpt lat="43.93383" lon="1.88026">
        <ele>170</ele>
        <time>2022-09-08T18:31:47Z</time>
      </trkpt>
      <trkpt lat="43.93381" lon="1.88035">
        <ele>170</ele>
        <time>2022-09-08T18:31:49Z</time>
      </trkpt>
      <trkpt lat="43.93381" lon="1.88039">
        <ele>170.2</ele>
        <time>2022-09-08T18:31:50Z</time>
      </trkpt>
      <trkpt lat="43.9338" lon="1.88044">
        <ele>170.2</ele>
        <time>2022-09-08T18:31:51Z</time>
      </trkpt>
      <trkpt lat="43.93379" lon="1.88047">
        <ele>170.6</ele>
        <time>2022-09-08T18:31:52Z</time>
      </trkpt>
      <trkpt lat="43.93376" lon="1.88064">
        <ele>171.4</ele>
        <time>2022-09-08T18:31:56Z</time>
      </trkpt>
      <trkpt lat="43.93375" lon="1.88068">
        <ele>171.6</ele>
        <time>2022-09-08T18:31:57Z</time>
      </trkpt>
      <trkpt lat="43.93374" lon="1.88072">
        <ele>171.8</ele>
        <time>2022-09-08T18:31:58Z</time>
      </trkpt>
      <trkpt lat="43.93374" lon="1.88076">
        <ele>172</ele>
        <time>2022-09-08T18:31:59Z</time>
      </trkpt>
      <trkpt lat="43.93373" lon="1.8808">
        <ele>172.4</ele>
        <time>2022-09-08T18:32:00Z</time>
      </trkpt>
      <trkpt lat="43.93373" lon="1.88084">
        <ele>172.6</ele>
        <time>2022-09-08T18:32:01Z</time>
      </trkpt>
      <trkpt lat="43.93373" lon="1.88091">
        <ele>173</ele>
        <time>2022-09-08T18:32:03Z</time>
      </trkpt>
      <trkpt lat="43.93373" lon="1.88096">
        <ele>173.2</ele>
        <time>2022-09-08T18:32:04Z</time>
      </trkpt>
      <trkpt lat="43.93375" lon="1.88121">
        <ele>173.4</ele>
        <time>2022-09-08T18:32:09Z</time>
      </trkpt>
      <trkpt lat="43.93376" lon="1.88126">
        <ele>173.4</ele>
        <time>2022-09-08T18:32:10Z</time>
      </trkpt>
      <trkpt lat="43.93377" lon="1.88131">
        <ele>173.2</ele>
        <time>2022-09-08T18:32:11Z</time>
      </trkpt>
      <trkpt lat="43.93377" lon="1.88137">
        <ele>173.2</ele>
        <time>2022-09-08T18:32:12Z</time>
      </trkpt>
      <trkpt lat="43.93378" lon="1.88143">
        <ele>173</ele>
        <time>2022-09-08T18:32:13Z</time>
      </trkpt>
      <trkpt lat="43.93379" lon="1.88149">
        <ele>172.8</ele>
        <time>2022-09-08T18:32:14Z</time>
      </trkpt>
      <trkpt lat="43.93379" lon="1.88154">
        <ele>172.6</ele>
        <time>2022-09-08T18:32:15Z</time>
      </trkpt>
      <trkpt lat="43.93379" lon="1.8816">
        <ele>172.2</ele>
        <time>2022-09-08T18:32:16Z</time>
      </trkpt>
      <trkpt lat="43.93379" lon="1.88167">
        <ele>172</ele>
        <time>2022-09-08T18:32:17Z</time>
      </trkpt>
      <trkpt lat="43.93378" lon="1.88179">
        <ele>171.4</ele>
        <time>2022-09-08T18:32:19Z</time>
      </trkpt>
      <trkpt lat="43.93375" lon="1.88199">
        <ele>170</ele>
        <time>2022-09-08T18:32:22Z</time>
      </trkpt>
      <trkpt lat="43.93372" lon="1.88219">
        <ele>168.8</ele>
        <time>2022-09-08T18:32:25Z</time>
      </trkpt>
      <trkpt lat="43.93368" lon="1.88239">
        <ele>168</ele>
        <time>2022-09-08T18:32:28Z</time>
      </trkpt>
      <trkpt lat="43.93366" lon="1.88245">
        <ele>167.6</ele>
        <time>2022-09-08T18:32:29Z</time>
      </trkpt>
      <trkpt lat="43.93365" lon="1.88251">
        <ele>167.4</ele>
        <time>2022-09-08T18:32:30Z</time>
      </trkpt>
      <trkpt lat="43.93363" lon="1.88262">
        <ele>167</ele>
        <time>2022-09-08T18:32:32Z</time>
      </trkpt>
      <trkpt lat="43.93362" lon="1.88267">
        <ele>166.8</ele>
        <time>2022-09-08T18:32:33Z</time>
      </trkpt>
      <trkpt lat="43.93361" lon="1.88272">
        <ele>166.6</ele>
        <time>2022-09-08T18:32:34Z</time>
      </trkpt>
      <trkpt lat="43.93359" lon="1.88281">
        <ele>166.6</ele>
        <time>2022-09-08T18:32:35Z</time>
      </trkpt>
      <trkpt lat="43.93352" lon="1.8831">
        <ele>166.4</ele>
        <time>2022-09-08T18:32:39Z</time>
      </trkpt>
      <trkpt lat="43.9335" lon="1.88317">
        <ele>166.4</ele>
        <time>2022-09-08T18:32:40Z</time>
      </trkpt>
      <trkpt lat="43.93337" lon="1.8836">
        <ele>165.6</ele>
        <time>2022-09-08T18:32:46Z</time>
      </trkpt>
      <trkpt lat="43.93334" lon="1.88367">
        <ele>165.6</ele>
        <time>2022-09-08T18:32:47Z</time>
      </trkpt>
      <trkpt lat="43.93332" lon="1.88374">
        <ele>165.4</ele>
        <time>2022-09-08T18:32:48Z</time>
      </trkpt>
      <trkpt lat="43.93325" lon="1.88395">
        <ele>165.4</ele>
        <time>2022-09-08T18:32:51Z</time>
      </trkpt>
      <trkpt lat="43.93305" lon="1.88451">
        <ele>165</ele>
        <time>2022-09-08T18:32:59Z</time>
      </trkpt>
      <trkpt lat="43.93302" lon="1.88457">
        <ele>164.8</ele>
        <time>2022-09-08T18:33:00Z</time>
      </trkpt>
      <trkpt lat="43.93298" lon="1.88463">
        <ele>164.6</ele>
        <time>2022-09-08T18:33:01Z</time>
      </trkpt>
      <trkpt lat="43.93294" lon="1.88469">
        <ele>164.4</ele>
        <time>2022-09-08T18:33:02Z</time>
      </trkpt>
      <trkpt lat="43.93288" lon="1.88479">
        <ele>164.4</ele>
        <time>2022-09-08T18:33:04Z</time>
      </trkpt>
      <trkpt lat="43.9327" lon="1.88508">
        <ele>163.8</ele>
        <time>2022-09-08T18:33:09Z</time>
      </trkpt>
      <trkpt lat="43.93266" lon="1.88515">
        <ele>163.8</ele>
        <time>2022-09-08T18:33:10Z</time>
      </trkpt>
      <trkpt lat="43.93263" lon="1.88521">
        <ele>163.8</ele>
        <time>2022-09-08T18:33:11Z</time>
      </trkpt>
      <trkpt lat="43.93247" lon="1.88549">
        <ele>163.6</ele>
        <time>2022-09-08T18:33:16Z</time>
      </trkpt>
      <trkpt lat="43.93245" lon="1.88554">
        <ele>163.6</ele>
        <time>2022-09-08T18:33:17Z</time>
      </trkpt>
      <trkpt lat="43.93243" lon="1.88558">
        <ele>163.6</ele>
        <time>2022-09-08T18:33:18Z</time>
      </trkpt>
      <trkpt lat="43.93241" lon="1.88562">
        <ele>163.4</ele>
        <time>2022-09-08T18:33:19Z</time>
      </trkpt>
      <trkpt lat="43.93239" lon="1.88566">
        <ele>163.2</ele>
        <time>2022-09-08T18:33:20Z</time>
      </trkpt>
      <trkpt lat="43.93237" lon="1.88569">
        <ele>163</ele>
        <time>2022-09-08T18:33:21Z</time>
      </trkpt>
      <trkpt lat="43.93235" lon="1.8857">
        <ele>163</ele>
        <time>2022-09-08T18:33:22Z</time>
      </trkpt>
      <trkpt lat="43.93233" lon="1.88569">
        <ele>162.8</ele>
        <time>2022-09-08T18:33:23Z</time>
      </trkpt>
      <trkpt lat="43.93232" lon="1.88567">
        <ele>162.8</ele>
        <time>2022-09-08T18:33:24Z</time>
      </trkpt>
      <trkpt lat="43.93229" lon="1.88563">
        <ele>162.6</ele>
        <time>2022-09-08T18:33:26Z</time>
      </trkpt>
      <trkpt lat="43.93221" lon="1.88558">
        <ele>162.8</ele>
        <time>2022-09-08T18:33:29Z</time>
      </trkpt>
      <trkpt lat="43.93218" lon="1.88557">
        <ele>162.8</ele>
        <time>2022-09-08T18:33:30Z</time>
      </trkpt>
      <trkpt lat="43.93214" lon="1.88555">
        <ele>162.8</ele>
        <time>2022-09-08T18:33:31Z</time>
      </trkpt>
      <trkpt lat="43.93211" lon="1.88553">
        <ele>162.8</ele>
        <time>2022-09-08T18:33:32Z</time>
      </trkpt>
      <trkpt lat="43.93207" lon="1.8855">
        <ele>163.2</ele>
        <time>2022-09-08T18:33:33Z</time>
      </trkpt>
      <trkpt lat="43.93199" lon="1.88543">
        <ele>163.8</ele>
        <time>2022-09-08T18:33:36Z</time>
      </trkpt>
      <trkpt lat="43.93196" lon="1.88542">
        <ele>164</ele>
        <time>2022-09-08T18:33:37Z</time>
      </trkpt>
      <trkpt lat="43.93193" lon="1.88539">
        <ele>164.4</ele>
        <time>2022-09-08T18:33:38Z</time>
      </trkpt>
      <trkpt lat="43.93189" lon="1.88537">
        <ele>164.8</ele>
        <time>2022-09-08T18:33:39Z</time>
      </trkpt>
      <trkpt lat="43.93186" lon="1.88535">
        <ele>165.6</ele>
        <time>2022-09-08T18:33:40Z</time>
      </trkpt>
      <trkpt lat="43.93183" lon="1.88534">
        <ele>165.8</ele>
        <time>2022-09-08T18:33:41Z</time>
      </trkpt>
      <trkpt lat="43.93181" lon="1.88531">
        <ele>166</ele>
        <time>2022-09-08T18:33:42Z</time>
      </trkpt>
      <trkpt lat="43.9318" lon="1.88527">
        <ele>166.4</ele>
        <time>2022-09-08T18:33:43Z</time>
      </trkpt>
      <trkpt lat="43.93179" lon="1.88525">
        <ele>166.6</ele>
        <time>2022-09-08T18:33:44Z</time>
      </trkpt>
      <trkpt lat="43.93179" lon="1.88521">
        <ele>167.6</ele>
        <time>2022-09-08T18:33:45Z</time>
      </trkpt>
      <trkpt lat="43.9318" lon="1.88517">
        <ele>167.8</ele>
        <time>2022-09-08T18:33:46Z</time>
      </trkpt>
      <trkpt lat="43.93179" lon="1.88513">
        <ele>168.2</ele>
        <time>2022-09-08T18:33:47Z</time>
      </trkpt>
      <trkpt lat="43.93178" lon="1.88508">
        <ele>168.8</ele>
        <time>2022-09-08T18:33:48Z</time>
      </trkpt>
      <trkpt lat="43.93175" lon="1.88505">
        <ele>169</ele>
        <time>2022-09-08T18:33:49Z</time>
      </trkpt>
      <trkpt lat="43.93173" lon="1.88502">
        <ele>169.4</ele>
        <time>2022-09-08T18:33:50Z</time>
      </trkpt>
      <trkpt lat="43.93171" lon="1.885">
        <ele>169.6</ele>
        <time>2022-09-08T18:33:51Z</time>
      </trkpt>
      <trkpt lat="43.93168" lon="1.88498">
        <ele>170</ele>
        <time>2022-09-08T18:33:52Z</time>
      </trkpt>
      <trkpt lat="43.93166" lon="1.88498">
        <ele>170</ele>
        <time>2022-09-08T18:33:53Z</time>
      </trkpt>
      <trkpt lat="43.93163" lon="1.88498">
        <ele>170.2</ele>
        <time>2022-09-08T18:33:54Z</time>
      </trkpt>
      <trkpt lat="43.93162" lon="1.88497">
        <ele>170.4</ele>
        <time>2022-09-08T18:33:55Z</time>
      </trkpt>
      <trkpt lat="43.9316" lon="1.88497">
        <ele>170.6</ele>
        <time>2022-09-08T18:33:56Z</time>
      </trkpt>
      <trkpt lat="43.93158" lon="1.88496">
        <ele>171</ele>
        <time>2022-09-08T18:33:57Z</time>
      </trkpt>
      <trkpt lat="43.93156" lon="1.88494">
        <ele>171</ele>
        <time>2022-09-08T18:33:58Z</time>
      </trkpt>
      <trkpt lat="43.93154" lon="1.88493">
        <ele>171.4</ele>
        <time>2022-09-08T18:33:59Z</time>
      </trkpt>
      <trkpt lat="43.93153" lon="1.88492">
        <ele>171.4</ele>
        <time>2022-09-08T18:34:00Z</time>
      </trkpt>
      <trkpt lat="43.93151" lon="1.8849">
        <ele>171.8</ele>
        <time>2022-09-08T18:34:01Z</time>
      </trkpt>
      <trkpt lat="43.93149" lon="1.88489">
        <ele>172</ele>
        <time>2022-09-08T18:34:02Z</time>
      </trkpt>
      <trkpt lat="43.93147" lon="1.88488">
        <ele>172.2</ele>
        <time>2022-09-08T18:34:03Z</time>
      </trkpt>
      <trkpt lat="43.93145" lon="1.88487">
        <ele>172.4</ele>
        <time>2022-09-08T18:34:04Z</time>
      </trkpt>
      <trkpt lat="43.93144" lon="1.88487">
        <ele>172.4</ele>
        <time>2022-09-08T18:34:05Z</time>
      </trkpt>
      <trkpt lat="43.93142" lon="1.88486">
        <ele>172.6</ele>
        <time>2022-09-08T18:34:06Z</time>
      </trkpt>
      <trkpt lat="43.93138" lon="1.88486">
        <ele>172.8</ele>
        <time>2022-09-08T18:34:07Z</time>
      </trkpt>
      <trkpt lat="43.93136" lon="1.88485">
        <ele>173</ele>
        <time>2022-09-08T18:34:08Z</time>
      </trkpt>
      <trkpt lat="43.93134" lon="1.88484">
        <ele>173</ele>
        <time>2022-09-08T18:34:09Z</time>
      </trkpt>
      <trkpt lat="43.93132" lon="1.88482">
        <ele>173.2</ele>
        <time>2022-09-08T18:34:10Z</time>
      </trkpt>
      <trkpt lat="43.9313" lon="1.88481">
        <ele>173.6</ele>
        <time>2022-09-08T18:34:11Z</time>
      </trkpt>
      <trkpt lat="43.93128" lon="1.8848">
        <ele>173.6</ele>
        <time>2022-09-08T18:34:12Z</time>
      </trkpt>
      <trkpt lat="43.93126" lon="1.88479">
        <ele>173.8</ele>
        <time>2022-09-08T18:34:13Z</time>
      </trkpt>
      <trkpt lat="43.93123" lon="1.88478">
        <ele>173.8</ele>
        <time>2022-09-08T18:34:14Z</time>
      </trkpt>
      <trkpt lat="43.93121" lon="1.88477">
        <ele>174</ele>
        <time>2022-09-08T18:34:15Z</time>
      </trkpt>
      <trkpt lat="43.93119" lon="1.88477">
        <ele>174.2</ele>
        <time>2022-09-08T18:34:16Z</time>
      </trkpt>
      <trkpt lat="43.93116" lon="1.88476">
        <ele>174.2</ele>
        <time>2022-09-08T18:34:17Z</time>
      </trkpt>
      <trkpt lat="43.93114" lon="1.88477">
        <ele>174.4</ele>
        <time>2022-09-08T18:34:18Z</time>
      </trkpt>
      <trkpt lat="43.93112" lon="1.88478">
        <ele>174.6</ele>
        <time>2022-09-08T18:34:19Z</time>
      </trkpt>
      <trkpt lat="43.93112" lon="1.8848">
        <ele>174.8</ele>
        <time>2022-09-08T18:34:20Z</time>
      </trkpt>
      <trkpt lat="43.93111" lon="1.88481">
        <ele>175</ele>
        <time>2022-09-08T18:34:21Z</time>
      </trkpt>
      <trkpt lat="43.9311" lon="1.88483">
        <ele>175</ele>
        <time>2022-09-08T18:34:22Z</time>
      </trkpt>
      <trkpt lat="43.93109" lon="1.88484">
        <ele>175.2</ele>
        <time>2022-09-08T18:34:23Z</time>
      </trkpt>
      <trkpt lat="43.93108" lon="1.88487">
        <ele>175.2</ele>
        <time>2022-09-08T18:34:24Z</time>
      </trkpt>
      <trkpt lat="43.93107" lon="1.88488">
        <ele>175.4</ele>
        <time>2022-09-08T18:34:25Z</time>
      </trkpt>
      <trkpt lat="43.93105" lon="1.8849">
        <ele>175.4</ele>
        <time>2022-09-08T18:34:26Z</time>
      </trkpt>
      <trkpt lat="43.93104" lon="1.88492">
        <ele>175.6</ele>
        <time>2022-09-08T18:34:27Z</time>
      </trkpt>
      <trkpt lat="43.93104" lon="1.88493">
        <ele>175.6</ele>
        <time>2022-09-08T18:34:28Z</time>
      </trkpt>
      <trkpt lat="43.93102" lon="1.88495">
        <ele>175.8</ele>
        <time>2022-09-08T18:34:29Z</time>
      </trkpt>
      <trkpt lat="43.93101" lon="1.88497">
        <ele>175.8</ele>
        <time>2022-09-08T18:34:30Z</time>
      </trkpt>
      <trkpt lat="43.93099" lon="1.88499">
        <ele>176</ele>
        <time>2022-09-08T18:34:31Z</time>
      </trkpt>
      <trkpt lat="43.93098" lon="1.88501">
        <ele>176</ele>
        <time>2022-09-08T18:34:32Z</time>
      </trkpt>
      <trkpt lat="43.93096" lon="1.88503">
        <ele>176.2</ele>
        <time>2022-09-08T18:34:33Z</time>
      </trkpt>
      <trkpt lat="43.93095" lon="1.88505">
        <ele>176.2</ele>
        <time>2022-09-08T18:34:34Z</time>
      </trkpt>
      <trkpt lat="43.93095" lon="1.88508">
        <ele>176.2</ele>
        <time>2022-09-08T18:34:35Z</time>
      </trkpt>
      <trkpt lat="43.93093" lon="1.8851">
        <ele>176.4</ele>
        <time>2022-09-08T18:34:36Z</time>
      </trkpt>
      <trkpt lat="43.93092" lon="1.88513">
        <ele>176.4</ele>
        <time>2022-09-08T18:34:37Z</time>
      </trkpt>
      <trkpt lat="43.93091" lon="1.88514">
        <ele>176.6</ele>
        <time>2022-09-08T18:34:38Z</time>
      </trkpt>
      <trkpt lat="43.9309" lon="1.88518">
        <ele>176.6</ele>
        <time>2022-09-08T18:34:39Z</time>
      </trkpt>
      <trkpt lat="43.93087" lon="1.8852">
        <ele>176.6</ele>
        <time>2022-09-08T18:34:40Z</time>
      </trkpt>
      <trkpt lat="43.93084" lon="1.88522">
        <ele>176.8</ele>
        <time>2022-09-08T18:34:41Z</time>
      </trkpt>
      <trkpt lat="43.9308" lon="1.88523">
        <ele>176.8</ele>
        <time>2022-09-08T18:34:42Z</time>
      </trkpt>
      <trkpt lat="43.93078" lon="1.88523">
        <ele>177</ele>
        <time>2022-09-08T18:34:43Z</time>
      </trkpt>
      <trkpt lat="43.93075" lon="1.88525">
        <ele>177</ele>
        <time>2022-09-08T18:34:44Z</time>
      </trkpt>
      <trkpt lat="43.93074" lon="1.88526">
        <ele>177.2</ele>
        <time>2022-09-08T18:34:45Z</time>
      </trkpt>
      <trkpt lat="43.93073" lon="1.88528">
        <ele>177.2</ele>
        <time>2022-09-08T18:34:46Z</time>
      </trkpt>
      <trkpt lat="43.93071" lon="1.88531">
        <ele>177.4</ele>
        <time>2022-09-08T18:34:47Z</time>
      </trkpt>
      <trkpt lat="43.93071" lon="1.88532">
        <ele>177.4</ele>
        <time>2022-09-08T18:34:48Z</time>
      </trkpt>
      <trkpt lat="43.9307" lon="1.88532">
        <ele>177.4</ele>
        <time>2022-09-08T18:34:49Z</time>
      </trkpt>
      <trkpt lat="43.9307" lon="1.88533">
        <ele>177.4</ele>
        <time>2022-09-08T18:34:50Z</time>
      </trkpt>
      <trkpt lat="43.93069" lon="1.88534">
        <ele>177.4</ele>
        <time>2022-09-08T18:34:51Z</time>
      </trkpt>
      <trkpt lat="43.93068" lon="1.88535">
        <ele>177.4</ele>
        <time>2022-09-08T18:34:52Z</time>
      </trkpt>
      <trkpt lat="43.93065" lon="1.88539">
        <ele>177.4</ele>
        <time>2022-09-08T18:34:54Z</time>
      </trkpt>
      <trkpt lat="43.93064" lon="1.88541">
        <ele>177.4</ele>
        <time>2022-09-08T18:34:55Z</time>
      </trkpt>
      <trkpt lat="43.93054" lon="1.88558">
        <ele>177</ele>
        <time>2022-09-08T18:35:02Z</time>
      </trkpt>
      <trkpt lat="43.93053" lon="1.8856">
        <ele>177</ele>
        <time>2022-09-08T18:35:03Z</time>
      </trkpt>
      <trkpt lat="43.93051" lon="1.88562">
        <ele>177</ele>
        <time>2022-09-08T18:35:04Z</time>
      </trkpt>
      <trkpt lat="43.93049" lon="1.88564">
        <ele>177</ele>
        <time>2022-09-08T18:35:05Z</time>
      </trkpt>
      <trkpt lat="43.93048" lon="1.88566">
        <ele>176.8</ele>
        <time>2022-09-08T18:35:06Z</time>
      </trkpt>
      <trkpt lat="43.93047" lon="1.88569">
        <ele>176.8</ele>
        <time>2022-09-08T18:35:07Z</time>
      </trkpt>
      <trkpt lat="43.93046" lon="1.8857">
        <ele>176.8</ele>
        <time>2022-09-08T18:35:08Z</time>
      </trkpt>
      <trkpt lat="43.93044" lon="1.88572">
        <ele>176.8</ele>
        <time>2022-09-08T18:35:09Z</time>
      </trkpt>
      <trkpt lat="43.93041" lon="1.88575">
        <ele>176.8</ele>
        <time>2022-09-08T18:35:10Z</time>
      </trkpt>
      <trkpt lat="43.9304" lon="1.88576">
        <ele>176.6</ele>
        <time>2022-09-08T18:35:11Z</time>
      </trkpt>
      <trkpt lat="43.93039" lon="1.88578">
        <ele>176.6</ele>
        <time>2022-09-08T18:35:12Z</time>
      </trkpt>
      <trkpt lat="43.93035" lon="1.88584">
        <ele>176.6</ele>
        <time>2022-09-08T18:35:15Z</time>
      </trkpt>
      <trkpt lat="43.9302" lon="1.88604">
        <ele>176.2</ele>
        <time>2022-09-08T18:35:23Z</time>
      </trkpt>
      <trkpt lat="43.9301" lon="1.88618">
        <ele>176.2</ele>
        <time>2022-09-08T18:35:27Z</time>
      </trkpt>
      <trkpt lat="43.93" lon="1.88632">
        <ele>176</ele>
        <time>2022-09-08T18:35:31Z</time>
      </trkpt>
      <trkpt lat="43.92989" lon="1.88649">
        <ele>175.4</ele>
        <time>2022-09-08T18:35:35Z</time>
      </trkpt>
      <trkpt lat="43.92982" lon="1.88658">
        <ele>175.2</ele>
        <time>2022-09-08T18:35:37Z</time>
      </trkpt>
      <trkpt lat="43.92965" lon="1.88678">
        <ele>174.6</ele>
        <time>2022-09-08T18:35:42Z</time>
      </trkpt>
      <trkpt lat="43.92961" lon="1.88683">
        <ele>174.6</ele>
        <time>2022-09-08T18:35:43Z</time>
      </trkpt>
      <trkpt lat="43.92954" lon="1.88691">
        <ele>174.2</ele>
        <time>2022-09-08T18:35:45Z</time>
      </trkpt>
      <trkpt lat="43.92951" lon="1.88695">
        <ele>174.2</ele>
        <time>2022-09-08T18:35:46Z</time>
      </trkpt>
      <trkpt lat="43.92947" lon="1.88698">
        <ele>174</ele>
        <time>2022-09-08T18:35:47Z</time>
      </trkpt>
      <trkpt lat="43.92944" lon="1.88702">
        <ele>173.8</ele>
        <time>2022-09-08T18:35:48Z</time>
      </trkpt>
      <trkpt lat="43.92941" lon="1.88705">
        <ele>173.8</ele>
        <time>2022-09-08T18:35:49Z</time>
      </trkpt>
      <trkpt lat="43.92938" lon="1.88709">
        <ele>173.6</ele>
        <time>2022-09-08T18:35:50Z</time>
      </trkpt>
      <trkpt lat="43.92937" lon="1.88713">
        <ele>173.4</ele>
        <time>2022-09-08T18:35:51Z</time>
      </trkpt>
      <trkpt lat="43.92936" lon="1.88718">
        <ele>173.4</ele>
        <time>2022-09-08T18:35:52Z</time>
      </trkpt>
      <trkpt lat="43.92936" lon="1.88722">
        <ele>173.2</ele>
        <time>2022-09-08T18:35:53Z</time>
      </trkpt>
      <trkpt lat="43.92938" lon="1.88725">
        <ele>173.2</ele>
        <time>2022-09-08T18:35:54Z</time>
      </trkpt>
      <trkpt lat="43.92942" lon="1.88727">
        <ele>173</ele>
        <time>2022-09-08T18:35:55Z</time>
      </trkpt>
      <trkpt lat="43.9295" lon="1.88724">
        <ele>172.6</ele>
        <time>2022-09-08T18:35:57Z</time>
      </trkpt>
      <trkpt lat="43.92954" lon="1.8872">
        <ele>172.6</ele>
        <time>2022-09-08T18:35:58Z</time>
      </trkpt>
      <trkpt lat="43.92957" lon="1.88718">
        <ele>172.4</ele>
        <time>2022-09-08T18:35:59Z</time>
      </trkpt>
      <trkpt lat="43.92963" lon="1.88714">
        <ele>172</ele>
        <time>2022-09-08T18:36:00Z</time>
      </trkpt>
      <trkpt lat="43.92966" lon="1.88711">
        <ele>171.6</ele>
        <time>2022-09-08T18:36:01Z</time>
      </trkpt>
      <trkpt lat="43.9297" lon="1.88708">
        <ele>171.4</ele>
        <time>2022-09-08T18:36:02Z</time>
      </trkpt>
      <trkpt lat="43.92973" lon="1.88707">
        <ele>171</ele>
        <time>2022-09-08T18:36:03Z</time>
      </trkpt>
      <trkpt lat="43.92978" lon="1.88707">
        <ele>170.8</ele>
        <time>2022-09-08T18:36:04Z</time>
      </trkpt>
      <trkpt lat="43.92982" lon="1.88708">
        <ele>170.6</ele>
        <time>2022-09-08T18:36:05Z</time>
      </trkpt>
      <trkpt lat="43.92985" lon="1.88712">
        <ele>170.4</ele>
        <time>2022-09-08T18:36:06Z</time>
      </trkpt>
      <trkpt lat="43.92992" lon="1.88723">
        <ele>170.2</ele>
        <time>2022-09-08T18:36:08Z</time>
      </trkpt>
      <trkpt lat="43.92997" lon="1.88736">
        <ele>169.8</ele>
        <time>2022-09-08T18:36:10Z</time>
      </trkpt>
      <trkpt lat="43.93" lon="1.88742">
        <ele>169.8</ele>
        <time>2022-09-08T18:36:11Z</time>
      </trkpt>
      <trkpt lat="43.9301" lon="1.8877">
        <ele>168.4</ele>
        <time>2022-09-08T18:36:15Z</time>
      </trkpt>
      <trkpt lat="43.93015" lon="1.88784">
        <ele>167.2</ele>
        <time>2022-09-08T18:36:17Z</time>
      </trkpt>
      <trkpt lat="43.93017" lon="1.88789">
        <ele>166.8</ele>
        <time>2022-09-08T18:36:18Z</time>
      </trkpt>
      <trkpt lat="43.93018" lon="1.88795">
        <ele>166.4</ele>
        <time>2022-09-08T18:36:19Z</time>
      </trkpt>
      <trkpt lat="43.93019" lon="1.888">
        <ele>166.4</ele>
        <time>2022-09-08T18:36:20Z</time>
      </trkpt>
      <trkpt lat="43.93021" lon="1.88803">
        <ele>166.2</ele>
        <time>2022-09-08T18:36:21Z</time>
      </trkpt>
      <trkpt lat="43.93022" lon="1.88805">
        <ele>166.2</ele>
        <time>2022-09-08T18:36:22Z</time>
      </trkpt>
      <trkpt lat="43.93021" lon="1.88807">
        <ele>165.8</ele>
        <time>2022-09-08T18:36:23Z</time>
      </trkpt>
      <trkpt lat="43.9302" lon="1.88808">
        <ele>165.4</ele>
        <time>2022-09-08T18:36:24Z</time>
      </trkpt>
      <trkpt lat="43.93019" lon="1.88808">
        <ele>165.2</ele>
        <time>2022-09-08T18:36:25Z</time>
      </trkpt>
      <trkpt lat="43.93017" lon="1.88809">
        <ele>165</ele>
        <time>2022-09-08T18:36:26Z</time>
      </trkpt>
      <trkpt lat="43.93015" lon="1.88809">
        <ele>165</ele>
        <time>2022-09-08T18:36:27Z</time>
      </trkpt>
      <trkpt lat="43.93014" lon="1.8881">
        <ele>164.8</ele>
        <time>2022-09-08T18:36:28Z</time>
      </trkpt>
      <trkpt lat="43.93012" lon="1.8881">
        <ele>164.8</ele>
        <time>2022-09-08T18:36:29Z</time>
      </trkpt>
      <trkpt lat="43.93011" lon="1.88811">
        <ele>164.6</ele>
        <time>2022-09-08T18:36:30Z</time>
      </trkpt>
      <trkpt lat="43.93008" lon="1.88813">
        <ele>164.6</ele>
        <time>2022-09-08T18:36:32Z</time>
      </trkpt>
      <trkpt lat="43.93006" lon="1.88813">
        <ele>164.4</ele>
        <time>2022-09-08T18:36:33Z</time>
      </trkpt>
      <trkpt lat="43.93006" lon="1.88813">
        <ele>164.4</ele>
        <time>2022-09-08T18:36:34Z</time>
      </trkpt>
      <trkpt lat="43.93004" lon="1.88813">
        <ele>163.8</ele>
        <time>2022-09-08T18:37:27Z</time>
      </trkpt>
      <trkpt lat="43.93002" lon="1.88814">
        <ele>163.8</ele>
        <time>2022-09-08T18:37:28Z</time>
      </trkpt>
      <trkpt lat="43.92987" lon="1.88821">
        <ele>163.8</ele>
        <time>2022-09-08T18:37:36Z</time>
      </trkpt>
      <trkpt lat="43.92977" lon="1.88827">
        <ele>163.6</ele>
        <time>2022-09-08T18:37:40Z</time>
      </trkpt>
      <trkpt lat="43.92975" lon="1.8883">
        <ele>163.6</ele>
        <time>2022-09-08T18:37:41Z</time>
      </trkpt>
      <trkpt lat="43.92973" lon="1.88832">
        <ele>163.6</ele>
        <time>2022-09-08T18:37:42Z</time>
      </trkpt>
      <trkpt lat="43.92961" lon="1.88839">
        <ele>163.4</ele>
        <time>2022-09-08T18:37:46Z</time>
      </trkpt>
      <trkpt lat="43.92958" lon="1.88841">
        <ele>163.4</ele>
        <time>2022-09-08T18:37:47Z</time>
      </trkpt>
      <trkpt lat="43.92949" lon="1.88845">
        <ele>163.4</ele>
        <time>2022-09-08T18:37:50Z</time>
      </trkpt>
      <trkpt lat="43.92924" lon="1.8886">
        <ele>163.6</ele>
        <time>2022-09-08T18:37:58Z</time>
      </trkpt>
      <trkpt lat="43.92903" lon="1.88874">
        <ele>163.4</ele>
        <time>2022-09-08T18:38:04Z</time>
      </trkpt>
      <trkpt lat="43.929" lon="1.88875">
        <ele>163.2</ele>
        <time>2022-09-08T18:38:05Z</time>
      </trkpt>
      <trkpt lat="43.92897" lon="1.88877">
        <ele>163.2</ele>
        <time>2022-09-08T18:38:06Z</time>
      </trkpt>
      <trkpt lat="43.92894" lon="1.88879">
        <ele>162.8</ele>
        <time>2022-09-08T18:38:07Z</time>
      </trkpt>
      <trkpt lat="43.92891" lon="1.88881">
        <ele>162.8</ele>
        <time>2022-09-08T18:38:08Z</time>
      </trkpt>
      <trkpt lat="43.92888" lon="1.88883">
        <ele>162.2</ele>
        <time>2022-09-08T18:38:09Z</time>
      </trkpt>
      <trkpt lat="43.92878" lon="1.88889">
        <ele>161.6</ele>
        <time>2022-09-08T18:38:12Z</time>
      </trkpt>
      <trkpt lat="43.92874" lon="1.88891">
        <ele>161.4</ele>
        <time>2022-09-08T18:38:13Z</time>
      </trkpt>
      <trkpt lat="43.92871" lon="1.88893">
        <ele>161</ele>
        <time>2022-09-08T18:38:14Z</time>
      </trkpt>
      <trkpt lat="43.92868" lon="1.88894">
        <ele>160.6</ele>
        <time>2022-09-08T18:38:15Z</time>
      </trkpt>
      <trkpt lat="43.92867" lon="1.88896">
        <ele>159.8</ele>
        <time>2022-09-08T18:38:16Z</time>
      </trkpt>
      <trkpt lat="43.92866" lon="1.88899">
        <ele>159.4</ele>
        <time>2022-09-08T18:38:17Z</time>
      </trkpt>
      <trkpt lat="43.92866" lon="1.88901">
        <ele>159</ele>
        <time>2022-09-08T18:38:18Z</time>
      </trkpt>
      <trkpt lat="43.92868" lon="1.88902">
        <ele>158.6</ele>
        <time>2022-09-08T18:38:19Z</time>
      </trkpt>
      <trkpt lat="43.9287" lon="1.88903">
        <ele>158.4</ele>
        <time>2022-09-08T18:38:20Z</time>
      </trkpt>
      <trkpt lat="43.92871" lon="1.88903">
        <ele>158</ele>
        <time>2022-09-08T18:38:21Z</time>
      </trkpt>
      <trkpt lat="43.92886" lon="1.88907">
        <ele>157.8</ele>
        <time>2022-09-08T18:38:28Z</time>
      </trkpt>
      <trkpt lat="43.92905" lon="1.88905">
        <ele>158.8</ele>
        <time>2022-09-08T18:38:35Z</time>
      </trkpt>
      <trkpt lat="43.92914" lon="1.88905">
        <ele>159.4</ele>
        <time>2022-09-08T18:38:38Z</time>
      </trkpt>
      <trkpt lat="43.92917" lon="1.88905">
        <ele>159.6</ele>
        <time>2022-09-08T18:38:39Z</time>
      </trkpt>
      <trkpt lat="43.92924" lon="1.88905">
        <ele>159.8</ele>
        <time>2022-09-08T18:38:41Z</time>
      </trkpt>
      <trkpt lat="43.92927" lon="1.88905">
        <ele>160.2</ele>
        <time>2022-09-08T18:38:42Z</time>
      </trkpt>
      <trkpt lat="43.9293" lon="1.88905">
        <ele>160.4</ele>
        <time>2022-09-08T18:38:43Z</time>
      </trkpt>
      <trkpt lat="43.92936" lon="1.88905">
        <ele>160.6</ele>
        <time>2022-09-08T18:38:45Z</time>
      </trkpt>
      <trkpt lat="43.92953" lon="1.88905">
        <ele>161</ele>
        <time>2022-09-08T18:38:50Z</time>
      </trkpt>
      <trkpt lat="43.9298" lon="1.88906">
        <ele>161</ele>
        <time>2022-09-08T18:38:57Z</time>
      </trkpt>
      <trkpt lat="43.92984" lon="1.88905">
        <ele>161</ele>
        <time>2022-09-08T18:38:58Z</time>
      </trkpt>
      <trkpt lat="43.92988" lon="1.88905">
        <ele>160.8</ele>
        <time>2022-09-08T18:38:59Z</time>
      </trkpt>
      <trkpt lat="43.92991" lon="1.88905">
        <ele>160.8</ele>
        <time>2022-09-08T18:39:00Z</time>
      </trkpt>
      <trkpt lat="43.93012" lon="1.88904">
        <ele>160</ele>
        <time>2022-09-08T18:39:05Z</time>
      </trkpt>
      <trkpt lat="43.93025" lon="1.88904">
        <ele>160</ele>
        <time>2022-09-08T18:39:08Z</time>
      </trkpt>
      <trkpt lat="43.9303" lon="1.88904">
        <ele>160</ele>
        <time>2022-09-08T18:39:09Z</time>
      </trkpt>
      <trkpt lat="43.93034" lon="1.88904">
        <ele>160</ele>
        <time>2022-09-08T18:39:10Z</time>
      </trkpt>
      <trkpt lat="43.93043" lon="1.88903">
        <ele>159.8</ele>
        <time>2022-09-08T18:39:12Z</time>
      </trkpt>
      <trkpt lat="43.93052" lon="1.88902">
        <ele>159.6</ele>
        <time>2022-09-08T18:39:14Z</time>
      </trkpt>
      <trkpt lat="43.93061" lon="1.889">
        <ele>159.6</ele>
        <time>2022-09-08T18:39:16Z</time>
      </trkpt>
      <trkpt lat="43.93081" lon="1.88895">
        <ele>159.2</ele>
        <time>2022-09-08T18:39:20Z</time>
      </trkpt>
      <trkpt lat="43.93109" lon="1.8889">
        <ele>158.4</ele>
        <time>2022-09-08T18:39:25Z</time>
      </trkpt>
      <trkpt lat="43.93114" lon="1.88891">
        <ele>158.2</ele>
        <time>2022-09-08T18:39:26Z</time>
      </trkpt>
      <trkpt lat="43.93119" lon="1.88891">
        <ele>158</ele>
        <time>2022-09-08T18:39:27Z</time>
      </trkpt>
      <trkpt lat="43.93123" lon="1.88893">
        <ele>157.8</ele>
        <time>2022-09-08T18:39:28Z</time>
      </trkpt>
      <trkpt lat="43.93127" lon="1.88896">
        <ele>157.8</ele>
        <time>2022-09-08T18:39:29Z</time>
      </trkpt>
      <trkpt lat="43.93131" lon="1.88898">
        <ele>157.8</ele>
        <time>2022-09-08T18:39:30Z</time>
      </trkpt>
      <trkpt lat="43.93135" lon="1.88899">
        <ele>157.8</ele>
        <time>2022-09-08T18:39:31Z</time>
      </trkpt>
      <trkpt lat="43.93138" lon="1.88898">
        <ele>157.8</ele>
        <time>2022-09-08T18:39:32Z</time>
      </trkpt>
      <trkpt lat="43.9314" lon="1.88896">
        <ele>157.6</ele>
        <time>2022-09-08T18:39:33Z</time>
      </trkpt>
      <trkpt lat="43.93141" lon="1.88892">
        <ele>157.6</ele>
        <time>2022-09-08T18:39:34Z</time>
      </trkpt>
      <trkpt lat="43.93142" lon="1.88889">
        <ele>157.6</ele>
        <time>2022-09-08T18:39:35Z</time>
      </trkpt>
      <trkpt lat="43.93143" lon="1.88886">
        <ele>157.4</ele>
        <time>2022-09-08T18:39:36Z</time>
      </trkpt>
      <trkpt lat="43.93144" lon="1.88884">
        <ele>157.4</ele>
        <time>2022-09-08T18:39:37Z</time>
      </trkpt>
      <trkpt lat="43.93145" lon="1.88882">
        <ele>157.4</ele>
        <time>2022-09-08T18:39:38Z</time>
      </trkpt>
      <trkpt lat="43.93145" lon="1.8888">
        <ele>157.4</ele>
        <time>2022-09-08T18:39:39Z</time>
      </trkpt>
      <trkpt lat="43.93146" lon="1.88878">
        <ele>157.4</ele>
        <time>2022-09-08T18:39:40Z</time>
      </trkpt>
      <trkpt lat="43.93147" lon="1.88877">
        <ele>157.4</ele>
        <time>2022-09-08T18:39:41Z</time>
      </trkpt>
      <trkpt lat="43.93148" lon="1.88875">
        <ele>157.2</ele>
        <time>2022-09-08T18:40:07Z</time>
      </trkpt>
      <trkpt lat="43.93149" lon="1.88872">
        <ele>157.2</ele>
        <time>2022-09-08T18:40:08Z</time>
      </trkpt>
      <trkpt lat="43.93157" lon="1.88855">
        <ele>157.2</ele>
        <time>2022-09-08T18:40:12Z</time>
      </trkpt>
      <trkpt lat="43.93164" lon="1.88845">
        <ele>157.4</ele>
        <time>2022-09-08T18:40:14Z</time>
      </trkpt>
      <trkpt lat="43.93169" lon="1.88833">
        <ele>157.4</ele>
        <time>2022-09-08T18:40:16Z</time>
      </trkpt>
      <trkpt lat="43.93171" lon="1.88827">
        <ele>157.4</ele>
        <time>2022-09-08T18:40:17Z</time>
      </trkpt>
      <trkpt lat="43.93174" lon="1.88821">
        <ele>157.4</ele>
        <time>2022-09-08T18:40:18Z</time>
      </trkpt>
      <trkpt lat="43.9318" lon="1.88804">
        <ele>157.4</ele>
        <time>2022-09-08T18:40:21Z</time>
      </trkpt>
      <trkpt lat="43.93182" lon="1.88798">
        <ele>157.4</ele>
        <time>2022-09-08T18:40:22Z</time>
      </trkpt>
      <trkpt lat="43.93184" lon="1.88794">
        <ele>157.6</ele>
        <time>2022-09-08T18:40:23Z</time>
      </trkpt>
      <trkpt lat="43.93186" lon="1.8879">
        <ele>157.6</ele>
        <time>2022-09-08T18:40:24Z</time>
      </trkpt>
      <trkpt lat="43.93187" lon="1.88787">
        <ele>157.8</ele>
        <time>2022-09-08T18:40:25Z</time>
      </trkpt>
      <trkpt lat="43.93189" lon="1.88784">
        <ele>157.8</ele>
        <time>2022-09-08T18:40:26Z</time>
      </trkpt>
      <trkpt lat="43.9319" lon="1.88781">
        <ele>157.8</ele>
        <time>2022-09-08T18:40:27Z</time>
      </trkpt>
      <trkpt lat="43.93195" lon="1.88769">
        <ele>158</ele>
        <time>2022-09-08T18:40:31Z</time>
      </trkpt>
      <trkpt lat="43.93196" lon="1.88766">
        <ele>158</ele>
        <time>2022-09-08T18:40:32Z</time>
      </trkpt>
      <trkpt lat="43.93197" lon="1.88763">
        <ele>158</ele>
        <time>2022-09-08T18:40:33Z</time>
      </trkpt>
      <trkpt lat="43.93205" lon="1.88741">
        <ele>158.2</ele>
        <time>2022-09-08T18:40:39Z</time>
      </trkpt>
      <trkpt lat="43.93207" lon="1.88737">
        <ele>158.2</ele>
        <time>2022-09-08T18:40:40Z</time>
      </trkpt>
      <trkpt lat="43.93209" lon="1.88733">
        <ele>158.2</ele>
        <time>2022-09-08T18:40:41Z</time>
      </trkpt>
      <trkpt lat="43.9321" lon="1.8873">
        <ele>158.2</ele>
        <time>2022-09-08T18:40:42Z</time>
      </trkpt>
      <trkpt lat="43.93211" lon="1.88727">
        <ele>158.2</ele>
        <time>2022-09-08T18:40:43Z</time>
      </trkpt>
      <trkpt lat="43.93213" lon="1.88724">
        <ele>158.2</ele>
        <time>2022-09-08T18:40:44Z</time>
      </trkpt>
      <trkpt lat="43.93214" lon="1.88721">
        <ele>158.2</ele>
        <time>2022-09-08T18:40:45Z</time>
      </trkpt>
      <trkpt lat="43.93223" lon="1.88701">
        <ele>158.4</ele>
        <time>2022-09-08T18:40:51Z</time>
      </trkpt>
      <trkpt lat="43.93225" lon="1.88698">
        <ele>158.4</ele>
        <time>2022-09-08T18:40:52Z</time>
      </trkpt>
      <trkpt lat="43.93226" lon="1.88694">
        <ele>158.6</ele>
        <time>2022-09-08T18:40:53Z</time>
      </trkpt>
      <trkpt lat="43.93236" lon="1.88676">
        <ele>158.8</ele>
        <time>2022-09-08T18:40:59Z</time>
      </trkpt>
      <trkpt lat="43.93242" lon="1.88666">
        <ele>158.8</ele>
        <time>2022-09-08T18:41:02Z</time>
      </trkpt>
      <trkpt lat="43.93243" lon="1.88663">
        <ele>158.8</ele>
        <time>2022-09-08T18:41:03Z</time>
      </trkpt>
      <trkpt lat="43.93245" lon="1.8866">
        <ele>159</ele>
        <time>2022-09-08T18:41:04Z</time>
      </trkpt>
      <trkpt lat="43.93247" lon="1.88657">
        <ele>159</ele>
        <time>2022-09-08T18:41:05Z</time>
      </trkpt>
      <trkpt lat="43.93248" lon="1.88654">
        <ele>159</ele>
        <time>2022-09-08T18:41:06Z</time>
      </trkpt>
      <trkpt lat="43.9325" lon="1.88651">
        <ele>159</ele>
        <time>2022-09-08T18:41:07Z</time>
      </trkpt>
      <trkpt lat="43.93256" lon="1.88635">
        <ele>159.2</ele>
        <time>2022-09-08T18:41:11Z</time>
      </trkpt>
      <trkpt lat="43.93257" lon="1.88631">
        <ele>159.2</ele>
        <time>2022-09-08T18:41:12Z</time>
      </trkpt>
      <trkpt lat="43.93258" lon="1.88628">
        <ele>159.2</ele>
        <time>2022-09-08T18:41:13Z</time>
      </trkpt>
      <trkpt lat="43.93259" lon="1.88624">
        <ele>159.2</ele>
        <time>2022-09-08T18:41:14Z</time>
      </trkpt>
      <trkpt lat="43.93261" lon="1.88621">
        <ele>159.4</ele>
        <time>2022-09-08T18:41:15Z</time>
      </trkpt>
      <trkpt lat="43.93267" lon="1.88609">
        <ele>159.4</ele>
        <time>2022-09-08T18:41:19Z</time>
      </trkpt>
      <trkpt lat="43.93274" lon="1.886">
        <ele>159.6</ele>
        <time>2022-09-08T18:41:22Z</time>
      </trkpt>
      <trkpt lat="43.93276" lon="1.88599">
        <ele>159.6</ele>
        <time>2022-09-08T18:41:23Z</time>
      </trkpt>
      <trkpt lat="43.93279" lon="1.88599">
        <ele>159.6</ele>
        <time>2022-09-08T18:41:24Z</time>
      </trkpt>
      <trkpt lat="43.93281" lon="1.88598">
        <ele>159.6</ele>
        <time>2022-09-08T18:41:25Z</time>
      </trkpt>
      <trkpt lat="43.93284" lon="1.88597">
        <ele>159.6</ele>
        <time>2022-09-08T18:41:26Z</time>
      </trkpt>
      <trkpt lat="43.93286" lon="1.88596">
        <ele>159.6</ele>
        <time>2022-09-08T18:41:27Z</time>
      </trkpt>
      <trkpt lat="43.93289" lon="1.88595">
        <ele>159.6</ele>
        <time>2022-09-08T18:41:28Z</time>
      </trkpt>
      <trkpt lat="43.93291" lon="1.88595">
        <ele>159.6</ele>
        <time>2022-09-08T18:41:29Z</time>
      </trkpt>
      <trkpt lat="43.93293" lon="1.88594">
        <ele>159.6</ele>
        <time>2022-09-08T18:41:30Z</time>
      </trkpt>
      <trkpt lat="43.93295" lon="1.88594">
        <ele>159.6</ele>
        <time>2022-09-08T18:41:31Z</time>
      </trkpt>
      <trkpt lat="43.93301" lon="1.88592">
        <ele>159.6</ele>
        <time>2022-09-08T18:41:33Z</time>
      </trkpt>
      <trkpt lat="43.93307" lon="1.88595">
        <ele>159.6</ele>
        <time>2022-09-08T18:41:35Z</time>
      </trkpt>
      <trkpt lat="43.9331" lon="1.88597">
        <ele>159.6</ele>
        <time>2022-09-08T18:41:36Z</time>
      </trkpt>
      <trkpt lat="43.93313" lon="1.88598">
        <ele>159.6</ele>
        <time>2022-09-08T18:41:37Z</time>
      </trkpt>
      <trkpt lat="43.93316" lon="1.886">
        <ele>159.6</ele>
        <time>2022-09-08T18:41:38Z</time>
      </trkpt>
      <trkpt lat="43.93319" lon="1.88602">
        <ele>159.8</ele>
        <time>2022-09-08T18:41:39Z</time>
      </trkpt>
      <trkpt lat="43.93322" lon="1.88603">
        <ele>159.8</ele>
        <time>2022-09-08T18:41:40Z</time>
      </trkpt>
      <trkpt lat="43.93325" lon="1.88605">
        <ele>160</ele>
        <time>2022-09-08T18:41:41Z</time>
      </trkpt>
      <trkpt lat="43.93328" lon="1.88606">
        <ele>160</ele>
        <time>2022-09-08T18:41:42Z</time>
      </trkpt>
      <trkpt lat="43.93345" lon="1.88616">
        <ele>160.4</ele>
        <time>2022-09-08T18:41:48Z</time>
      </trkpt>
      <trkpt lat="43.93348" lon="1.88617">
        <ele>160.4</ele>
        <time>2022-09-08T18:41:49Z</time>
      </trkpt>
      <trkpt lat="43.93351" lon="1.88619">
        <ele>160.6</ele>
        <time>2022-09-08T18:41:50Z</time>
      </trkpt>
      <trkpt lat="43.93357" lon="1.88621">
        <ele>160.6</ele>
        <time>2022-09-08T18:41:52Z</time>
      </trkpt>
      <trkpt lat="43.9338" lon="1.88626">
        <ele>161</ele>
        <time>2022-09-08T18:41:59Z</time>
      </trkpt>
      <trkpt lat="43.93384" lon="1.88625">
        <ele>161</ele>
        <time>2022-09-08T18:42:00Z</time>
      </trkpt>
      <trkpt lat="43.93387" lon="1.88624">
        <ele>161</ele>
        <time>2022-09-08T18:42:01Z</time>
      </trkpt>
      <trkpt lat="43.9339" lon="1.88624">
        <ele>161.2</ele>
        <time>2022-09-08T18:42:02Z</time>
      </trkpt>
      <trkpt lat="43.93396" lon="1.88622">
        <ele>161.2</ele>
        <time>2022-09-08T18:42:04Z</time>
      </trkpt>
      <trkpt lat="43.93399" lon="1.88621">
        <ele>161.4</ele>
        <time>2022-09-08T18:42:05Z</time>
      </trkpt>
      <trkpt lat="43.93412" lon="1.88619">
        <ele>161.8</ele>
        <time>2022-09-08T18:42:09Z</time>
      </trkpt>
      <trkpt lat="43.93415" lon="1.88618">
        <ele>161.8</ele>
        <time>2022-09-08T18:42:10Z</time>
      </trkpt>
      <trkpt lat="43.93418" lon="1.88618">
        <ele>162</ele>
        <time>2022-09-08T18:42:11Z</time>
      </trkpt>
      <trkpt lat="43.93421" lon="1.88617">
        <ele>162</ele>
        <time>2022-09-08T18:42:12Z</time>
      </trkpt>
      <trkpt lat="43.93423" lon="1.88617">
        <ele>162</ele>
        <time>2022-09-08T18:42:13Z</time>
      </trkpt>
      <trkpt lat="43.93432" lon="1.88614">
        <ele>162.2</ele>
        <time>2022-09-08T18:42:16Z</time>
      </trkpt>
      <trkpt lat="43.93435" lon="1.88613">
        <ele>162</ele>
        <time>2022-09-08T18:42:17Z</time>
      </trkpt>
      <trkpt lat="43.93444" lon="1.8861">
        <ele>162.2</ele>
        <time>2022-09-08T18:42:20Z</time>
      </trkpt>
      <trkpt lat="43.93446" lon="1.88608">
        <ele>162.4</ele>
        <time>2022-09-08T18:42:21Z</time>
      </trkpt>
      <trkpt lat="43.93448" lon="1.88607">
        <ele>162.4</ele>
        <time>2022-09-08T18:42:22Z</time>
      </trkpt>
      <trkpt lat="43.93451" lon="1.88606">
        <ele>162.4</ele>
        <time>2022-09-08T18:42:23Z</time>
      </trkpt>
      <trkpt lat="43.93453" lon="1.88604">
        <ele>162.6</ele>
        <time>2022-09-08T18:42:24Z</time>
      </trkpt>
      <trkpt lat="43.93455" lon="1.88603">
        <ele>162.8</ele>
        <time>2022-09-08T18:42:25Z</time>
      </trkpt>
      <trkpt lat="43.93456" lon="1.88602">
        <ele>162.8</ele>
        <time>2022-09-08T18:42:26Z</time>
      </trkpt>
      <trkpt lat="43.93466" lon="1.88591">
        <ele>163</ele>
        <time>2022-09-08T18:42:31Z</time>
      </trkpt>
      <trkpt lat="43.93467" lon="1.8859">
        <ele>163</ele>
        <time>2022-09-08T18:42:32Z</time>
      </trkpt>
      <trkpt lat="43.93469" lon="1.88588">
        <ele>163.2</ele>
        <time>2022-09-08T18:42:33Z</time>
      </trkpt>
      <trkpt lat="43.9347" lon="1.88586">
        <ele>163.2</ele>
        <time>2022-09-08T18:42:34Z</time>
      </trkpt>
      <trkpt lat="43.93472" lon="1.88583">
        <ele>163.2</ele>
        <time>2022-09-08T18:42:35Z</time>
      </trkpt>
      <trkpt lat="43.93478" lon="1.88567">
        <ele>163.8</ele>
        <time>2022-09-08T18:42:41Z</time>
      </trkpt>
      <trkpt lat="43.93482" lon="1.88558">
        <ele>164.2</ele>
        <time>2022-09-08T18:42:44Z</time>
      </trkpt>
      <trkpt lat="43.93484" lon="1.88556">
        <ele>164.4</ele>
        <time>2022-09-08T18:42:45Z</time>
      </trkpt>
      <trkpt lat="43.93492" lon="1.88545">
        <ele>164.8</ele>
        <time>2022-09-08T18:42:49Z</time>
      </trkpt>
      <trkpt lat="43.93497" lon="1.88539">
        <ele>165</ele>
        <time>2022-09-08T18:42:51Z</time>
      </trkpt>
      <trkpt lat="43.93501" lon="1.88532">
        <ele>164.8</ele>
        <time>2022-09-08T18:42:53Z</time>
      </trkpt>
      <trkpt lat="43.93503" lon="1.88528">
        <ele>165.4</ele>
        <time>2022-09-08T18:42:54Z</time>
      </trkpt>
      <trkpt lat="43.93505" lon="1.88525">
        <ele>165.6</ele>
        <time>2022-09-08T18:42:55Z</time>
      </trkpt>
      <trkpt lat="43.93506" lon="1.88522">
        <ele>165.8</ele>
        <time>2022-09-08T18:42:56Z</time>
      </trkpt>
      <trkpt lat="43.93507" lon="1.8852">
        <ele>166.2</ele>
        <time>2022-09-08T18:42:57Z</time>
      </trkpt>
      <trkpt lat="43.93508" lon="1.88517">
        <ele>166.4</ele>
        <time>2022-09-08T18:42:58Z</time>
      </trkpt>
      <trkpt lat="43.9351" lon="1.88514">
        <ele>166.6</ele>
        <time>2022-09-08T18:42:59Z</time>
      </trkpt>
      <trkpt lat="43.93511" lon="1.88511">
        <ele>166.6</ele>
        <time>2022-09-08T18:43:00Z</time>
      </trkpt>
      <trkpt lat="43.93512" lon="1.88508">
        <ele>166.8</ele>
        <time>2022-09-08T18:43:01Z</time>
      </trkpt>
      <trkpt lat="43.93513" lon="1.88505">
        <ele>167</ele>
        <time>2022-09-08T18:43:02Z</time>
      </trkpt>
      <trkpt lat="43.93515" lon="1.88502">
        <ele>167.4</ele>
        <time>2022-09-08T18:43:03Z</time>
      </trkpt>
      <trkpt lat="43.93516" lon="1.88499">
        <ele>167.6</ele>
        <time>2022-09-08T18:43:04Z</time>
      </trkpt>
      <trkpt lat="43.93518" lon="1.88496">
        <ele>167.8</ele>
        <time>2022-09-08T18:43:05Z</time>
      </trkpt>
      <trkpt lat="43.93519" lon="1.88493">
        <ele>168</ele>
        <time>2022-09-08T18:43:06Z</time>
      </trkpt>
      <trkpt lat="43.9352" lon="1.8849">
        <ele>168</ele>
        <time>2022-09-08T18:43:07Z</time>
      </trkpt>
      <trkpt lat="43.93522" lon="1.88488">
        <ele>168.2</ele>
        <time>2022-09-08T18:43:08Z</time>
      </trkpt>
      <trkpt lat="43.93523" lon="1.88484">
        <ele>168.2</ele>
        <time>2022-09-08T18:43:09Z</time>
      </trkpt>
      <trkpt lat="43.93524" lon="1.88481">
        <ele>168.4</ele>
        <time>2022-09-08T18:43:10Z</time>
      </trkpt>
      <trkpt lat="43.93525" lon="1.88478">
        <ele>168.6</ele>
        <time>2022-09-08T18:43:11Z</time>
      </trkpt>
      <trkpt lat="43.93526" lon="1.88474">
        <ele>168.8</ele>
        <time>2022-09-08T18:43:12Z</time>
      </trkpt>
      <trkpt lat="43.93527" lon="1.88471">
        <ele>169</ele>
        <time>2022-09-08T18:43:13Z</time>
      </trkpt>
      <trkpt lat="43.93528" lon="1.88468">
        <ele>169.2</ele>
        <time>2022-09-08T18:43:14Z</time>
      </trkpt>
      <trkpt lat="43.93529" lon="1.88465">
        <ele>169.4</ele>
        <time>2022-09-08T18:43:15Z</time>
      </trkpt>
      <trkpt lat="43.93529" lon="1.88462">
        <ele>169.6</ele>
        <time>2022-09-08T18:43:16Z</time>
      </trkpt>
      <trkpt lat="43.9353" lon="1.88459">
        <ele>170</ele>
        <time>2022-09-08T18:43:17Z</time>
      </trkpt>
      <trkpt lat="43.93531" lon="1.88455">
        <ele>170.2</ele>
        <time>2022-09-08T18:43:18Z</time>
      </trkpt>
      <trkpt lat="43.93532" lon="1.88452">
        <ele>170.4</ele>
        <time>2022-09-08T18:43:19Z</time>
      </trkpt>
      <trkpt lat="43.93532" lon="1.88449">
        <ele>170.8</ele>
        <time>2022-09-08T18:43:20Z</time>
      </trkpt>
      <trkpt lat="43.93532" lon="1.88446">
        <ele>170.8</ele>
        <time>2022-09-08T18:43:21Z</time>
      </trkpt>
      <trkpt lat="43.93533" lon="1.88443">
        <ele>171</ele>
        <time>2022-09-08T18:43:22Z</time>
      </trkpt>
      <trkpt lat="43.93533" lon="1.8844">
        <ele>171.2</ele>
        <time>2022-09-08T18:43:23Z</time>
      </trkpt>
      <trkpt lat="43.93534" lon="1.88437">
        <ele>171.4</ele>
        <time>2022-09-08T18:43:24Z</time>
      </trkpt>
      <trkpt lat="43.93534" lon="1.88434">
        <ele>171.6</ele>
        <time>2022-09-08T18:43:25Z</time>
      </trkpt>
      <trkpt lat="43.93535" lon="1.88431">
        <ele>172</ele>
        <time>2022-09-08T18:43:26Z</time>
      </trkpt>
      <trkpt lat="43.93536" lon="1.88429">
        <ele>172.4</ele>
        <time>2022-09-08T18:43:27Z</time>
      </trkpt>
      <trkpt lat="43.93536" lon="1.88426">
        <ele>172.4</ele>
        <time>2022-09-08T18:43:28Z</time>
      </trkpt>
      <trkpt lat="43.93537" lon="1.88424">
        <ele>172.8</ele>
        <time>2022-09-08T18:43:29Z</time>
      </trkpt>
      <trkpt lat="43.93537" lon="1.88421">
        <ele>172.8</ele>
        <time>2022-09-08T18:43:30Z</time>
      </trkpt>
      <trkpt lat="43.93538" lon="1.88418">
        <ele>173.2</ele>
        <time>2022-09-08T18:43:31Z</time>
      </trkpt>
      <trkpt lat="43.93538" lon="1.88416">
        <ele>173.2</ele>
        <time>2022-09-08T18:43:32Z</time>
      </trkpt>
      <trkpt lat="43.93538" lon="1.88413">
        <ele>173.6</ele>
        <time>2022-09-08T18:43:33Z</time>
      </trkpt>
      <trkpt lat="43.93539" lon="1.8841">
        <ele>173.6</ele>
        <time>2022-09-08T18:43:34Z</time>
      </trkpt>
      <trkpt lat="43.9354" lon="1.88407">
        <ele>174</ele>
        <time>2022-09-08T18:43:35Z</time>
      </trkpt>
      <trkpt lat="43.9354" lon="1.88404">
        <ele>174.4</ele>
        <time>2022-09-08T18:43:36Z</time>
      </trkpt>
      <trkpt lat="43.93541" lon="1.88401">
        <ele>174.6</ele>
        <time>2022-09-08T18:43:37Z</time>
      </trkpt>
      <trkpt lat="43.93543" lon="1.88398">
        <ele>175</ele>
        <time>2022-09-08T18:43:38Z</time>
      </trkpt>
      <trkpt lat="43.93544" lon="1.88396">
        <ele>175.2</ele>
        <time>2022-09-08T18:43:39Z</time>
      </trkpt>
      <trkpt lat="43.93545" lon="1.88393">
        <ele>175.4</ele>
        <time>2022-09-08T18:43:40Z</time>
      </trkpt>
      <trkpt lat="43.93546" lon="1.8839">
        <ele>175.6</ele>
        <time>2022-09-08T18:43:41Z</time>
      </trkpt>
      <trkpt lat="43.93547" lon="1.88387">
        <ele>175.8</ele>
        <time>2022-09-08T18:43:42Z</time>
      </trkpt>
      <trkpt lat="43.93548" lon="1.88384">
        <ele>176</ele>
        <time>2022-09-08T18:43:43Z</time>
      </trkpt>
      <trkpt lat="43.93549" lon="1.88381">
        <ele>176</ele>
        <time>2022-09-08T18:43:44Z</time>
      </trkpt>
      <trkpt lat="43.9355" lon="1.88378">
        <ele>176.2</ele>
        <time>2022-09-08T18:43:45Z</time>
      </trkpt>
      <trkpt lat="43.93551" lon="1.88375">
        <ele>176.4</ele>
        <time>2022-09-08T18:43:46Z</time>
      </trkpt>
      <trkpt lat="43.93551" lon="1.88371">
        <ele>176.6</ele>
        <time>2022-09-08T18:43:47Z</time>
      </trkpt>
      <trkpt lat="43.93552" lon="1.88368">
        <ele>176.6</ele>
        <time>2022-09-08T18:43:48Z</time>
      </trkpt>
      <trkpt lat="43.93553" lon="1.88364">
        <ele>176.6</ele>
        <time>2022-09-08T18:43:49Z</time>
      </trkpt>
      <trkpt lat="43.93554" lon="1.8836">
        <ele>176.8</ele>
        <time>2022-09-08T18:43:50Z</time>
      </trkpt>
      <trkpt lat="43.93555" lon="1.88356">
        <ele>176.8</ele>
        <time>2022-09-08T18:43:51Z</time>
      </trkpt>
      <trkpt lat="43.93556" lon="1.88352">
        <ele>176.8</ele>
        <time>2022-09-08T18:43:52Z</time>
      </trkpt>
      <trkpt lat="43.93558" lon="1.88349">
        <ele>177</ele>
        <time>2022-09-08T18:43:53Z</time>
      </trkpt>
      <trkpt lat="43.93559" lon="1.88345">
        <ele>177</ele>
        <time>2022-09-08T18:43:54Z</time>
      </trkpt>
      <trkpt lat="43.93561" lon="1.88341">
        <ele>177</ele>
        <time>2022-09-08T18:43:55Z</time>
      </trkpt>
      <trkpt lat="43.93563" lon="1.88338">
        <ele>177</ele>
        <time>2022-09-08T18:43:56Z</time>
      </trkpt>
      <trkpt lat="43.93565" lon="1.88335">
        <ele>177.2</ele>
        <time>2022-09-08T18:43:57Z</time>
      </trkpt>
      <trkpt lat="43.93566" lon="1.88332">
        <ele>177.2</ele>
        <time>2022-09-08T18:43:58Z</time>
      </trkpt>
      <trkpt lat="43.93568" lon="1.88329">
        <ele>177.2</ele>
        <time>2022-09-08T18:43:59Z</time>
      </trkpt>
      <trkpt lat="43.93569" lon="1.88326">
        <ele>177.2</ele>
        <time>2022-09-08T18:44:00Z</time>
      </trkpt>
      <trkpt lat="43.9357" lon="1.88324">
        <ele>177.4</ele>
        <time>2022-09-08T18:44:01Z</time>
      </trkpt>
      <trkpt lat="43.93572" lon="1.8832">
        <ele>177.4</ele>
        <time>2022-09-08T18:44:02Z</time>
      </trkpt>
      <trkpt lat="43.93573" lon="1.88318">
        <ele>177.4</ele>
        <time>2022-09-08T18:44:03Z</time>
      </trkpt>
      <trkpt lat="43.93574" lon="1.88315">
        <ele>177.6</ele>
        <time>2022-09-08T18:44:04Z</time>
      </trkpt>
      <trkpt lat="43.93575" lon="1.88313">
        <ele>177.8</ele>
        <time>2022-09-08T18:44:05Z</time>
      </trkpt>
      <trkpt lat="43.93577" lon="1.8831">
        <ele>178</ele>
        <time>2022-09-08T18:44:06Z</time>
      </trkpt>
      <trkpt lat="43.93578" lon="1.88308">
        <ele>178</ele>
        <time>2022-09-08T18:44:07Z</time>
      </trkpt>
      <trkpt lat="43.93579" lon="1.88306">
        <ele>178</ele>
        <time>2022-09-08T18:44:08Z</time>
      </trkpt>
      <trkpt lat="43.93581" lon="1.88303">
        <ele>178</ele>
        <time>2022-09-08T18:44:09Z</time>
      </trkpt>
      <trkpt lat="43.93582" lon="1.883">
        <ele>178.2</ele>
        <time>2022-09-08T18:44:10Z</time>
      </trkpt>
      <trkpt lat="43.93582" lon="1.88296">
        <ele>178.4</ele>
        <time>2022-09-08T18:44:11Z</time>
      </trkpt>
      <trkpt lat="43.93583" lon="1.88292">
        <ele>178.6</ele>
        <time>2022-09-08T18:44:12Z</time>
      </trkpt>
      <trkpt lat="43.93584" lon="1.88287">
        <ele>178.6</ele>
        <time>2022-09-08T18:44:13Z</time>
      </trkpt>
      <trkpt lat="43.93587" lon="1.88271">
        <ele>179.2</ele>
        <time>2022-09-08T18:44:17Z</time>
      </trkpt>
      <trkpt lat="43.93587" lon="1.88267">
        <ele>179.2</ele>
        <time>2022-09-08T18:44:18Z</time>
      </trkpt>
      <trkpt lat="43.93588" lon="1.88264">
        <ele>179.2</ele>
        <time>2022-09-08T18:44:19Z</time>
      </trkpt>
      <trkpt lat="43.93589" lon="1.8826">
        <ele>179.4</ele>
        <time>2022-09-08T18:44:20Z</time>
      </trkpt>
      <trkpt lat="43.9359" lon="1.88257">
        <ele>179.4</ele>
        <time>2022-09-08T18:44:21Z</time>
      </trkpt>
      <trkpt lat="43.93591" lon="1.88254">
        <ele>179.6</ele>
        <time>2022-09-08T18:44:22Z</time>
      </trkpt>
      <trkpt lat="43.93593" lon="1.8825">
        <ele>179.6</ele>
        <time>2022-09-08T18:44:23Z</time>
      </trkpt>
      <trkpt lat="43.93594" lon="1.88247">
        <ele>179.8</ele>
        <time>2022-09-08T18:44:24Z</time>
      </trkpt>
      <trkpt lat="43.93595" lon="1.88244">
        <ele>179.8</ele>
        <time>2022-09-08T18:44:25Z</time>
      </trkpt>
      <trkpt lat="43.93597" lon="1.8824">
        <ele>179.8</ele>
        <time>2022-09-08T18:44:26Z</time>
      </trkpt>
      <trkpt lat="43.93598" lon="1.88237">
        <ele>180</ele>
        <time>2022-09-08T18:44:27Z</time>
      </trkpt>
      <trkpt lat="43.936" lon="1.88234">
        <ele>180.2</ele>
        <time>2022-09-08T18:44:28Z</time>
      </trkpt>
      <trkpt lat="43.93602" lon="1.88231">
        <ele>180.4</ele>
        <time>2022-09-08T18:44:29Z</time>
      </trkpt>
      <trkpt lat="43.93604" lon="1.88228">
        <ele>180.4</ele>
        <time>2022-09-08T18:44:30Z</time>
      </trkpt>
      <trkpt lat="43.93605" lon="1.88225">
        <ele>180.4</ele>
        <time>2022-09-08T18:44:31Z</time>
      </trkpt>
      <trkpt lat="43.93607" lon="1.88222">
        <ele>180.6</ele>
        <time>2022-09-08T18:44:32Z</time>
      </trkpt>
      <trkpt lat="43.93609" lon="1.88219">
        <ele>180.8</ele>
        <time>2022-09-08T18:44:33Z</time>
      </trkpt>
      <trkpt lat="43.9361" lon="1.88216">
        <ele>181</ele>
        <time>2022-09-08T18:44:34Z</time>
      </trkpt>
      <trkpt lat="43.93612" lon="1.88214">
        <ele>181.2</ele>
        <time>2022-09-08T18:44:35Z</time>
      </trkpt>
      <trkpt lat="43.93613" lon="1.88211">
        <ele>181.4</ele>
        <time>2022-09-08T18:44:36Z</time>
      </trkpt>
      <trkpt lat="43.93615" lon="1.88209">
        <ele>181.6</ele>
        <time>2022-09-08T18:44:37Z</time>
      </trkpt>
      <trkpt lat="43.93617" lon="1.88206">
        <ele>181.8</ele>
        <time>2022-09-08T18:44:38Z</time>
      </trkpt>
      <trkpt lat="43.93619" lon="1.88204">
        <ele>181.8</ele>
        <time>2022-09-08T18:44:39Z</time>
      </trkpt>
      <trkpt lat="43.93621" lon="1.88201">
        <ele>182.2</ele>
        <time>2022-09-08T18:44:40Z</time>
      </trkpt>
      <trkpt lat="43.93623" lon="1.88199">
        <ele>182.2</ele>
        <time>2022-09-08T18:44:41Z</time>
      </trkpt>
      <trkpt lat="43.93624" lon="1.88196">
        <ele>182.4</ele>
        <time>2022-09-08T18:44:42Z</time>
      </trkpt>
      <trkpt lat="43.93626" lon="1.88194">
        <ele>182.6</ele>
        <time>2022-09-08T18:44:43Z</time>
      </trkpt>
      <trkpt lat="43.93628" lon="1.88191">
        <ele>183</ele>
        <time>2022-09-08T18:44:44Z</time>
      </trkpt>
      <trkpt lat="43.93629" lon="1.88189">
        <ele>183.2</ele>
        <time>2022-09-08T18:44:45Z</time>
      </trkpt>
      <trkpt lat="43.9363" lon="1.88186">
        <ele>183.4</ele>
        <time>2022-09-08T18:44:46Z</time>
      </trkpt>
      <trkpt lat="43.93631" lon="1.88184">
        <ele>183.6</ele>
        <time>2022-09-08T18:44:47Z</time>
      </trkpt>
      <trkpt lat="43.93631" lon="1.88182">
        <ele>183.8</ele>
        <time>2022-09-08T18:44:48Z</time>
      </trkpt>
      <trkpt lat="43.9363" lon="1.8818">
        <ele>184</ele>
        <time>2022-09-08T18:44:49Z</time>
      </trkpt>
      <trkpt lat="43.93629" lon="1.88177">
        <ele>184.2</ele>
        <time>2022-09-08T18:44:50Z</time>
      </trkpt>
      <trkpt lat="43.93628" lon="1.88174">
        <ele>184.4</ele>
        <time>2022-09-08T18:44:51Z</time>
      </trkpt>
      <trkpt lat="43.93626" lon="1.88171">
        <ele>184.6</ele>
        <time>2022-09-08T18:44:52Z</time>
      </trkpt>
      <trkpt lat="43.93624" lon="1.88166">
        <ele>184.6</ele>
        <time>2022-09-08T18:44:53Z</time>
      </trkpt>
      <trkpt lat="43.93623" lon="1.88159">
        <ele>184.6</ele>
        <time>2022-09-08T18:44:54Z</time>
      </trkpt>
      <trkpt lat="43.93622" lon="1.88151">
        <ele>184.6</ele>
        <time>2022-09-08T18:44:55Z</time>
      </trkpt>
      <trkpt lat="43.93621" lon="1.88144">
        <ele>184.6</ele>
        <time>2022-09-08T18:44:56Z</time>
      </trkpt>
      <trkpt lat="43.93618" lon="1.88137">
        <ele>184.6</ele>
        <time>2022-09-08T18:44:57Z</time>
      </trkpt>
      <trkpt lat="43.93614" lon="1.8813">
        <ele>184.4</ele>
        <time>2022-09-08T18:44:58Z</time>
      </trkpt>
      <trkpt lat="43.9361" lon="1.88124">
        <ele>184.4</ele>
        <time>2022-09-08T18:44:59Z</time>
      </trkpt>
      <trkpt lat="43.93604" lon="1.88117">
        <ele>184</ele>
        <time>2022-09-08T18:45:00Z</time>
      </trkpt>
      <trkpt lat="43.93598" lon="1.8811">
        <ele>183.4</ele>
        <time>2022-09-08T18:45:01Z</time>
      </trkpt>
      <trkpt lat="43.93591" lon="1.88102">
        <ele>183.2</ele>
        <time>2022-09-08T18:45:02Z</time>
      </trkpt>
      <trkpt lat="43.93584" lon="1.88094">
        <ele>182.6</ele>
        <time>2022-09-08T18:45:03Z</time>
      </trkpt>
      <trkpt lat="43.93577" lon="1.88086">
        <ele>182.2</ele>
        <time>2022-09-08T18:45:04Z</time>
      </trkpt>
      <trkpt lat="43.9357" lon="1.88078">
        <ele>180.6</ele>
        <time>2022-09-08T18:45:05Z</time>
      </trkpt>
      <trkpt lat="43.93557" lon="1.88062">
        <ele>177.6</ele>
        <time>2022-09-08T18:45:07Z</time>
      </trkpt>
      <trkpt lat="43.9355" lon="1.88054">
        <ele>176.2</ele>
        <time>2022-09-08T18:45:08Z</time>
      </trkpt>
      <trkpt lat="43.93544" lon="1.88048">
        <ele>175.6</ele>
        <time>2022-09-08T18:45:09Z</time>
      </trkpt>
      <trkpt lat="43.9354" lon="1.88042">
        <ele>173.4</ele>
        <time>2022-09-08T18:45:10Z</time>
      </trkpt>
      <trkpt lat="43.93536" lon="1.88037">
        <ele>172.4</ele>
        <time>2022-09-08T18:45:11Z</time>
      </trkpt>
      <trkpt lat="43.93534" lon="1.8803">
        <ele>170.8</ele>
        <time>2022-09-08T18:45:12Z</time>
      </trkpt>
      <trkpt lat="43.93534" lon="1.88025">
        <ele>170.2</ele>
        <time>2022-09-08T18:45:13Z</time>
      </trkpt>
      <trkpt lat="43.93536" lon="1.8802">
        <ele>169</ele>
        <time>2022-09-08T18:45:14Z</time>
      </trkpt>
      <trkpt lat="43.93538" lon="1.88015">
        <ele>168</ele>
        <time>2022-09-08T18:45:15Z</time>
      </trkpt>
      <trkpt lat="43.93539" lon="1.88011">
        <ele>167.8</ele>
        <time>2022-09-08T18:45:16Z</time>
      </trkpt>
      <trkpt lat="43.93541" lon="1.88006">
        <ele>167.4</ele>
        <time>2022-09-08T18:45:17Z</time>
      </trkpt>
      <trkpt lat="43.93542" lon="1.88002">
        <ele>167</ele>
        <time>2022-09-08T18:45:18Z</time>
      </trkpt>
      <trkpt lat="43.93543" lon="1.87998">
        <ele>166.6</ele>
        <time>2022-09-08T18:45:19Z</time>
      </trkpt>
      <trkpt lat="43.93545" lon="1.87994">
        <ele>166.4</ele>
        <time>2022-09-08T18:45:20Z</time>
      </trkpt>
      <trkpt lat="43.93546" lon="1.87991">
        <ele>166.2</ele>
        <time>2022-09-08T18:45:21Z</time>
      </trkpt>
      <trkpt lat="43.93547" lon="1.87988">
        <ele>166</ele>
        <time>2022-09-08T18:45:22Z</time>
      </trkpt>
      <trkpt lat="43.93548" lon="1.87985">
        <ele>165.8</ele>
        <time>2022-09-08T18:45:23Z</time>
      </trkpt>
      <trkpt lat="43.93552" lon="1.87973">
        <ele>165.6</ele>
        <time>2022-09-08T18:45:27Z</time>
      </trkpt>
      <trkpt lat="43.93553" lon="1.8797">
        <ele>165.6</ele>
        <time>2022-09-08T18:45:28Z</time>
      </trkpt>
      <trkpt lat="43.93554" lon="1.87967">
        <ele>165.6</ele>
        <time>2022-09-08T18:45:29Z</time>
      </trkpt>
      <trkpt lat="43.93556" lon="1.87964">
        <ele>165.6</ele>
        <time>2022-09-08T18:45:30Z</time>
      </trkpt>
      <trkpt lat="43.93557" lon="1.87961">
        <ele>165.6</ele>
        <time>2022-09-08T18:45:31Z</time>
      </trkpt>
      <trkpt lat="43.93558" lon="1.87958">
        <ele>165.6</ele>
        <time>2022-09-08T18:45:32Z</time>
      </trkpt>
      <trkpt lat="43.93559" lon="1.87955">
        <ele>165.6</ele>
        <time>2022-09-08T18:45:33Z</time>
      </trkpt>
      <trkpt lat="43.93564" lon="1.87938">
        <ele>165.6</ele>
        <time>2022-09-08T18:45:38Z</time>
      </trkpt>
      <trkpt lat="43.93565" lon="1.87935">
        <ele>165.6</ele>
        <time>2022-09-08T18:45:39Z</time>
      </trkpt>
      <trkpt lat="43.93566" lon="1.87932">
        <ele>165.6</ele>
        <time>2022-09-08T18:45:40Z</time>
      </trkpt>
      <trkpt lat="43.93567" lon="1.87928">
        <ele>165.6</ele>
        <time>2022-09-08T18:45:41Z</time>
      </trkpt>
      <trkpt lat="43.93568" lon="1.87925">
        <ele>165.8</ele>
        <time>2022-09-08T18:45:42Z</time>
      </trkpt>
      <trkpt lat="43.93574" lon="1.87908">
        <ele>166</ele>
        <time>2022-09-08T18:45:47Z</time>
      </trkpt>
      <trkpt lat="43.93579" lon="1.87894">
        <ele>166</ele>
        <time>2022-09-08T18:45:51Z</time>
      </trkpt>
      <trkpt lat="43.9358" lon="1.87891">
        <ele>166</ele>
        <time>2022-09-08T18:45:52Z</time>
      </trkpt>
      <trkpt lat="43.93582" lon="1.8788">
        <ele>166.2</ele>
        <time>2022-09-08T18:45:55Z</time>
      </trkpt>
      <trkpt lat="43.93583" lon="1.87877">
        <ele>166.2</ele>
        <time>2022-09-08T18:45:56Z</time>
      </trkpt>
      <trkpt lat="43.93584" lon="1.87874">
        <ele>166.2</ele>
        <time>2022-09-08T18:45:57Z</time>
      </trkpt>
      <trkpt lat="43.93585" lon="1.87871">
        <ele>166.2</ele>
        <time>2022-09-08T18:45:58Z</time>
      </trkpt>
      <trkpt lat="43.93589" lon="1.87865">
        <ele>166.2</ele>
        <time>2022-09-08T18:46:00Z</time>
      </trkpt>
      <trkpt lat="43.93591" lon="1.87858">
        <ele>166.4</ele>
        <time>2022-09-08T18:46:02Z</time>
      </trkpt>
      <trkpt lat="43.93593" lon="1.87851">
        <ele>166.4</ele>
        <time>2022-09-08T18:46:04Z</time>
      </trkpt>
      <trkpt lat="43.93595" lon="1.87848">
        <ele>166.4</ele>
        <time>2022-09-08T18:46:05Z</time>
      </trkpt>
      <trkpt lat="43.93598" lon="1.87838">
        <ele>166.6</ele>
        <time>2022-09-08T18:46:08Z</time>
      </trkpt>
      <trkpt lat="43.93601" lon="1.87828">
        <ele>166.6</ele>
        <time>2022-09-08T18:46:11Z</time>
      </trkpt>
      <trkpt lat="43.93603" lon="1.87824">
        <ele>166.6</ele>
        <time>2022-09-08T18:46:12Z</time>
      </trkpt>
      <trkpt lat="43.93605" lon="1.87817">
        <ele>166.6</ele>
        <time>2022-09-08T18:46:14Z</time>
      </trkpt>
      <trkpt lat="43.93607" lon="1.8781">
        <ele>167</ele>
        <time>2022-09-08T18:46:16Z</time>
      </trkpt>
      <trkpt lat="43.93611" lon="1.87797">
        <ele>167.2</ele>
        <time>2022-09-08T18:46:20Z</time>
      </trkpt>
      <trkpt lat="43.93612" lon="1.87794">
        <ele>167.2</ele>
        <time>2022-09-08T18:46:21Z</time>
      </trkpt>
      <trkpt lat="43.93613" lon="1.8779">
        <ele>167.2</ele>
        <time>2022-09-08T18:46:22Z</time>
      </trkpt>
      <trkpt lat="43.93614" lon="1.87787">
        <ele>167.2</ele>
        <time>2022-09-08T18:46:23Z</time>
      </trkpt>
      <trkpt lat="43.93619" lon="1.87772">
        <ele>167.4</ele>
        <time>2022-09-08T18:46:27Z</time>
      </trkpt>
      <trkpt lat="43.93625" lon="1.87753">
        <ele>167.8</ele>
        <time>2022-09-08T18:46:32Z</time>
      </trkpt>
      <trkpt lat="43.93627" lon="1.8775">
        <ele>167.8</ele>
        <time>2022-09-08T18:46:33Z</time>
      </trkpt>
      <trkpt lat="43.9363" lon="1.87742">
        <ele>167.8</ele>
        <time>2022-09-08T18:46:35Z</time>
      </trkpt>
      <trkpt lat="43.93631" lon="1.87739">
        <ele>167.8</ele>
        <time>2022-09-08T18:46:36Z</time>
      </trkpt>
      <trkpt lat="43.93635" lon="1.87733">
        <ele>167.8</ele>
        <time>2022-09-08T18:46:38Z</time>
      </trkpt>
      <trkpt lat="43.93637" lon="1.8773">
        <ele>167.8</ele>
        <time>2022-09-08T18:46:39Z</time>
      </trkpt>
      <trkpt lat="43.93641" lon="1.87724">
        <ele>167.8</ele>
        <time>2022-09-08T18:46:41Z</time>
      </trkpt>
      <trkpt lat="43.93652" lon="1.87703">
        <ele>168.2</ele>
        <time>2022-09-08T18:46:48Z</time>
      </trkpt>
      <trkpt lat="43.93654" lon="1.87701">
        <ele>168.2</ele>
        <time>2022-09-08T18:46:49Z</time>
      </trkpt>
      <trkpt lat="43.93656" lon="1.87698">
        <ele>168.2</ele>
        <time>2022-09-08T18:46:50Z</time>
      </trkpt>
      <trkpt lat="43.93657" lon="1.87695">
        <ele>168.4</ele>
        <time>2022-09-08T18:46:51Z</time>
      </trkpt>
      <trkpt lat="43.93659" lon="1.8769">
        <ele>168.6</ele>
        <time>2022-09-08T18:46:53Z</time>
      </trkpt>
      <trkpt lat="43.93661" lon="1.87685">
        <ele>168.6</ele>
        <time>2022-09-08T18:46:55Z</time>
      </trkpt>
      <trkpt lat="43.93665" lon="1.87676">
        <ele>168.8</ele>
        <time>2022-09-08T18:46:58Z</time>
      </trkpt>
      <trkpt lat="43.93669" lon="1.87665">
        <ele>168.8</ele>
        <time>2022-09-08T18:47:01Z</time>
      </trkpt>
      <trkpt lat="43.93672" lon="1.87659">
        <ele>168.8</ele>
        <time>2022-09-08T18:47:03Z</time>
      </trkpt>
      <trkpt lat="43.93673" lon="1.87655">
        <ele>168.8</ele>
        <time>2022-09-08T18:47:04Z</time>
      </trkpt>
      <trkpt lat="43.93676" lon="1.87645">
        <ele>168.8</ele>
        <time>2022-09-08T18:47:07Z</time>
      </trkpt>
      <trkpt lat="43.93681" lon="1.87631">
        <ele>169.2</ele>
        <time>2022-09-08T18:47:11Z</time>
      </trkpt>
      <trkpt lat="43.93682" lon="1.87628">
        <ele>169.2</ele>
        <time>2022-09-08T18:47:12Z</time>
      </trkpt>
      <trkpt lat="43.93683" lon="1.87624">
        <ele>169.2</ele>
        <time>2022-09-08T18:47:13Z</time>
      </trkpt>
      <trkpt lat="43.93684" lon="1.87621">
        <ele>169.2</ele>
        <time>2022-09-08T18:47:14Z</time>
      </trkpt>
      <trkpt lat="43.93686" lon="1.87614">
        <ele>169.4</ele>
        <time>2022-09-08T18:47:16Z</time>
      </trkpt>
      <trkpt lat="43.93687" lon="1.87611">
        <ele>169.4</ele>
        <time>2022-09-08T18:47:17Z</time>
      </trkpt>
      <trkpt lat="43.93688" lon="1.87608">
        <ele>169.4</ele>
        <time>2022-09-08T18:47:18Z</time>
      </trkpt>
      <trkpt lat="43.93689" lon="1.87605">
        <ele>169.2</ele>
        <time>2022-09-08T18:47:19Z</time>
      </trkpt>
      <trkpt lat="43.9369" lon="1.87602">
        <ele>169.2</ele>
        <time>2022-09-08T18:47:20Z</time>
      </trkpt>
      <trkpt lat="43.93691" lon="1.87599">
        <ele>169.2</ele>
        <time>2022-09-08T18:47:21Z</time>
      </trkpt>
      <trkpt lat="43.93692" lon="1.87596">
        <ele>169.2</ele>
        <time>2022-09-08T18:47:22Z</time>
      </trkpt>
      <trkpt lat="43.93696" lon="1.87585">
        <ele>169.2</ele>
        <time>2022-09-08T18:47:25Z</time>
      </trkpt>
      <trkpt lat="43.93697" lon="1.87582">
        <ele>169.4</ele>
        <time>2022-09-08T18:47:26Z</time>
      </trkpt>
      <trkpt lat="43.93699" lon="1.87578">
        <ele>169.6</ele>
        <time>2022-09-08T18:47:27Z</time>
      </trkpt>
      <trkpt lat="43.937" lon="1.87574">
        <ele>169.6</ele>
        <time>2022-09-08T18:47:28Z</time>
      </trkpt>
      <trkpt lat="43.93704" lon="1.87568">
        <ele>169.8</ele>
        <time>2022-09-08T18:47:30Z</time>
      </trkpt>
      <trkpt lat="43.93705" lon="1.87565">
        <ele>170</ele>
        <time>2022-09-08T18:47:31Z</time>
      </trkpt>
      <trkpt lat="43.93706" lon="1.87562">
        <ele>170.2</ele>
        <time>2022-09-08T18:47:32Z</time>
      </trkpt>
      <trkpt lat="43.93707" lon="1.87559">
        <ele>170.2</ele>
        <time>2022-09-08T18:47:33Z</time>
      </trkpt>
      <trkpt lat="43.93708" lon="1.87555">
        <ele>170.2</ele>
        <time>2022-09-08T18:47:34Z</time>
      </trkpt>
      <trkpt lat="43.93709" lon="1.87552">
        <ele>170.4</ele>
        <time>2022-09-08T18:47:35Z</time>
      </trkpt>
      <trkpt lat="43.93712" lon="1.87537">
        <ele>170.8</ele>
        <time>2022-09-08T18:47:39Z</time>
      </trkpt>
      <trkpt lat="43.93717" lon="1.87522">
        <ele>171</ele>
        <time>2022-09-08T18:47:43Z</time>
      </trkpt>
      <trkpt lat="43.93718" lon="1.87519">
        <ele>171</ele>
        <time>2022-09-08T18:47:44Z</time>
      </trkpt>
      <trkpt lat="43.9372" lon="1.87512">
        <ele>171</ele>
        <time>2022-09-08T18:47:46Z</time>
      </trkpt>
      <trkpt lat="43.93724" lon="1.875">
        <ele>171</ele>
        <time>2022-09-08T18:47:49Z</time>
      </trkpt>
      <trkpt lat="43.93728" lon="1.87489">
        <ele>171</ele>
        <time>2022-09-08T18:47:52Z</time>
      </trkpt>
      <trkpt lat="43.93729" lon="1.87486">
        <ele>171</ele>
        <time>2022-09-08T18:47:53Z</time>
      </trkpt>
      <trkpt lat="43.93732" lon="1.87473">
        <ele>171</ele>
        <time>2022-09-08T18:47:56Z</time>
      </trkpt>
      <trkpt lat="43.93733" lon="1.8747">
        <ele>171</ele>
        <time>2022-09-08T18:47:57Z</time>
      </trkpt>
      <trkpt lat="43.93734" lon="1.87463">
        <ele>171</ele>
        <time>2022-09-08T18:47:59Z</time>
      </trkpt>
      <trkpt lat="43.93735" lon="1.87458">
        <ele>171.2</ele>
        <time>2022-09-08T18:48:00Z</time>
      </trkpt>
      <trkpt lat="43.93736" lon="1.8745">
        <ele>171.2</ele>
        <time>2022-09-08T18:48:02Z</time>
      </trkpt>
      <trkpt lat="43.93736" lon="1.87446">
        <ele>171.2</ele>
        <time>2022-09-08T18:48:03Z</time>
      </trkpt>
      <trkpt lat="43.93738" lon="1.87425">
        <ele>171.4</ele>
        <time>2022-09-08T18:48:08Z</time>
      </trkpt>
      <trkpt lat="43.93738" lon="1.8742">
        <ele>171.6</ele>
        <time>2022-09-08T18:48:09Z</time>
      </trkpt>
      <trkpt lat="43.9374" lon="1.87412">
        <ele>171.8</ele>
        <time>2022-09-08T18:48:11Z</time>
      </trkpt>
      <trkpt lat="43.93741" lon="1.87408">
        <ele>171.8</ele>
        <time>2022-09-08T18:48:12Z</time>
      </trkpt>
      <trkpt lat="43.93741" lon="1.87404">
        <ele>171.8</ele>
        <time>2022-09-08T18:48:13Z</time>
      </trkpt>
      <trkpt lat="43.93743" lon="1.87392">
        <ele>172</ele>
        <time>2022-09-08T18:48:16Z</time>
      </trkpt>
      <trkpt lat="43.93745" lon="1.87378">
        <ele>172.2</ele>
        <time>2022-09-08T18:48:19Z</time>
      </trkpt>
      <trkpt lat="43.93747" lon="1.87364">
        <ele>172.2</ele>
        <time>2022-09-08T18:48:22Z</time>
      </trkpt>
      <trkpt lat="43.93749" lon="1.87355">
        <ele>172.4</ele>
        <time>2022-09-08T18:48:24Z</time>
      </trkpt>
      <trkpt lat="43.9375" lon="1.87351">
        <ele>172.4</ele>
        <time>2022-09-08T18:48:25Z</time>
      </trkpt>
      <trkpt lat="43.9375" lon="1.87347">
        <ele>172.4</ele>
        <time>2022-09-08T18:48:26Z</time>
      </trkpt>
      <trkpt lat="43.93751" lon="1.87343">
        <ele>172.4</ele>
        <time>2022-09-08T18:48:27Z</time>
      </trkpt>
      <trkpt lat="43.93751" lon="1.87339">
        <ele>172.4</ele>
        <time>2022-09-08T18:48:28Z</time>
      </trkpt>
      <trkpt lat="43.93752" lon="1.87335">
        <ele>172.4</ele>
        <time>2022-09-08T18:48:29Z</time>
      </trkpt>
      <trkpt lat="43.93753" lon="1.87331">
        <ele>172.4</ele>
        <time>2022-09-08T18:48:30Z</time>
      </trkpt>
      <trkpt lat="43.93755" lon="1.87328">
        <ele>172.4</ele>
        <time>2022-09-08T18:48:31Z</time>
      </trkpt>
      <trkpt lat="43.93756" lon="1.87326">
        <ele>172.6</ele>
        <time>2022-09-08T18:48:32Z</time>
      </trkpt>
      <trkpt lat="43.93758" lon="1.87325">
        <ele>172.8</ele>
        <time>2022-09-08T18:48:33Z</time>
      </trkpt>
      <trkpt lat="43.9376" lon="1.87325">
        <ele>172.8</ele>
        <time>2022-09-08T18:48:34Z</time>
      </trkpt>
      <trkpt lat="43.93762" lon="1.87326">
        <ele>172.8</ele>
        <time>2022-09-08T18:48:35Z</time>
      </trkpt>
      <trkpt lat="43.93765" lon="1.87326">
        <ele>172.8</ele>
        <time>2022-09-08T18:48:36Z</time>
      </trkpt>
      <trkpt lat="43.93769" lon="1.87327">
        <ele>172.8</ele>
        <time>2022-09-08T18:48:38Z</time>
      </trkpt>
      <trkpt lat="43.93771" lon="1.87328">
        <ele>173</ele>
        <time>2022-09-08T18:48:39Z</time>
      </trkpt>
      <trkpt lat="43.93778" lon="1.8733">
        <ele>173.2</ele>
        <time>2022-09-08T18:48:42Z</time>
      </trkpt>
      <trkpt lat="43.93787" lon="1.87334">
        <ele>173.6</ele>
        <time>2022-09-08T18:48:46Z</time>
      </trkpt>
      <trkpt lat="43.93789" lon="1.87335">
        <ele>173.6</ele>
        <time>2022-09-08T18:48:47Z</time>
      </trkpt>
      <trkpt lat="43.93793" lon="1.87338">
        <ele>173.6</ele>
        <time>2022-09-08T18:48:49Z</time>
      </trkpt>
      <trkpt lat="43.93795" lon="1.87339">
        <ele>173.8</ele>
        <time>2022-09-08T18:48:50Z</time>
      </trkpt>
      <trkpt lat="43.93797" lon="1.87341">
        <ele>173.8</ele>
        <time>2022-09-08T18:48:51Z</time>
      </trkpt>
      <trkpt lat="43.93803" lon="1.87346">
        <ele>174.6</ele>
        <time>2022-09-08T18:48:54Z</time>
      </trkpt>
      <trkpt lat="43.93805" lon="1.87348">
        <ele>174.6</ele>
        <time>2022-09-08T18:48:55Z</time>
      </trkpt>
      <trkpt lat="43.9381" lon="1.87355">
        <ele>174.8</ele>
        <time>2022-09-08T18:48:58Z</time>
      </trkpt>
      <trkpt lat="43.93811" lon="1.87357">
        <ele>174.8</ele>
        <time>2022-09-08T18:48:59Z</time>
      </trkpt>
      <trkpt lat="43.93812" lon="1.87359">
        <ele>175</ele>
        <time>2022-09-08T18:49:00Z</time>
      </trkpt>
      <trkpt lat="43.93814" lon="1.87362">
        <ele>175</ele>
        <time>2022-09-08T18:49:01Z</time>
      </trkpt>
      <trkpt lat="43.93817" lon="1.87374">
        <ele>175.6</ele>
        <time>2022-09-08T18:49:05Z</time>
      </trkpt>
      <trkpt lat="43.93818" lon="1.87377">
        <ele>176</ele>
        <time>2022-09-08T18:49:06Z</time>
      </trkpt>
      <trkpt lat="43.9382" lon="1.87387">
        <ele>176.2</ele>
        <time>2022-09-08T18:49:09Z</time>
      </trkpt>
      <trkpt lat="43.93821" lon="1.8739">
        <ele>176.4</ele>
        <time>2022-09-08T18:49:10Z</time>
      </trkpt>
      <trkpt lat="43.93821" lon="1.87393">
        <ele>176.6</ele>
        <time>2022-09-08T18:49:11Z</time>
      </trkpt>
      <trkpt lat="43.93822" lon="1.87396">
        <ele>176.6</ele>
        <time>2022-09-08T18:49:12Z</time>
      </trkpt>
      <trkpt lat="43.93823" lon="1.87399">
        <ele>176.8</ele>
        <time>2022-09-08T18:49:13Z</time>
      </trkpt>
      <trkpt lat="43.93824" lon="1.87403">
        <ele>176.8</ele>
        <time>2022-09-08T18:49:14Z</time>
      </trkpt>
      <trkpt lat="43.93824" lon="1.87406">
        <ele>177</ele>
        <time>2022-09-08T18:49:15Z</time>
      </trkpt>
      <trkpt lat="43.93825" lon="1.87409">
        <ele>177</ele>
        <time>2022-09-08T18:49:16Z</time>
      </trkpt>
      <trkpt lat="43.93825" lon="1.87413">
        <ele>177.2</ele>
        <time>2022-09-08T18:49:17Z</time>
      </trkpt>
      <trkpt lat="43.93826" lon="1.87416">
        <ele>177.2</ele>
        <time>2022-09-08T18:49:18Z</time>
      </trkpt>
      <trkpt lat="43.93827" lon="1.87419">
        <ele>177.4</ele>
        <time>2022-09-08T18:49:19Z</time>
      </trkpt>
      <trkpt lat="43.93827" lon="1.87422">
        <ele>177.6</ele>
        <time>2022-09-08T18:49:20Z</time>
      </trkpt>
      <trkpt lat="43.93827" lon="1.87425">
        <ele>177.6</ele>
        <time>2022-09-08T18:49:21Z</time>
      </trkpt>
      <trkpt lat="43.93828" lon="1.87428">
        <ele>177.8</ele>
        <time>2022-09-08T18:49:22Z</time>
      </trkpt>
      <trkpt lat="43.93828" lon="1.87432">
        <ele>177.8</ele>
        <time>2022-09-08T18:49:23Z</time>
      </trkpt>
      <trkpt lat="43.93827" lon="1.87436">
        <ele>178</ele>
        <time>2022-09-08T18:49:24Z</time>
      </trkpt>
      <trkpt lat="43.93827" lon="1.8744">
        <ele>178</ele>
        <time>2022-09-08T18:49:25Z</time>
      </trkpt>
      <trkpt lat="43.93827" lon="1.87444">
        <ele>178.2</ele>
        <time>2022-09-08T18:49:26Z</time>
      </trkpt>
      <trkpt lat="43.93827" lon="1.87448">
        <ele>178.2</ele>
        <time>2022-09-08T18:49:27Z</time>
      </trkpt>
      <trkpt lat="43.93827" lon="1.87452">
        <ele>178.2</ele>
        <time>2022-09-08T18:49:28Z</time>
      </trkpt>
      <trkpt lat="43.93827" lon="1.87456">
        <ele>178.2</ele>
        <time>2022-09-08T18:49:29Z</time>
      </trkpt>
      <trkpt lat="43.93827" lon="1.8746">
        <ele>178.2</ele>
        <time>2022-09-08T18:49:30Z</time>
      </trkpt>
      <trkpt lat="43.93827" lon="1.87464">
        <ele>178.2</ele>
        <time>2022-09-08T18:49:31Z</time>
      </trkpt>
      <trkpt lat="43.93827" lon="1.87468">
        <ele>178.2</ele>
        <time>2022-09-08T18:49:32Z</time>
      </trkpt>
      <trkpt lat="43.93827" lon="1.87471">
        <ele>178.4</ele>
        <time>2022-09-08T18:49:33Z</time>
      </trkpt>
      <trkpt lat="43.93827" lon="1.87475">
        <ele>178.4</ele>
        <time>2022-09-08T18:49:34Z</time>
      </trkpt>
      <trkpt lat="43.93827" lon="1.87478">
        <ele>178.4</ele>
        <time>2022-09-08T18:49:35Z</time>
      </trkpt>
      <trkpt lat="43.93827" lon="1.87486">
        <ele>178.4</ele>
        <time>2022-09-08T18:49:37Z</time>
      </trkpt>
      <trkpt lat="43.93826" lon="1.87504">
        <ele>178.8</ele>
        <time>2022-09-08T18:49:42Z</time>
      </trkpt>
      <trkpt lat="43.93826" lon="1.87511">
        <ele>179</ele>
        <time>2022-09-08T18:49:44Z</time>
      </trkpt>
      <trkpt lat="43.93826" lon="1.87522">
        <ele>179.2</ele>
        <time>2022-09-08T18:49:47Z</time>
      </trkpt>
      <trkpt lat="43.93826" lon="1.87529">
        <ele>179.4</ele>
        <time>2022-09-08T18:49:49Z</time>
      </trkpt>
      <trkpt lat="43.93826" lon="1.87533">
        <ele>179.6</ele>
        <time>2022-09-08T18:49:50Z</time>
      </trkpt>
      <trkpt lat="43.93826" lon="1.87537">
        <ele>179.8</ele>
        <time>2022-09-08T18:49:51Z</time>
      </trkpt>
      <trkpt lat="43.93826" lon="1.8754">
        <ele>180</ele>
        <time>2022-09-08T18:49:52Z</time>
      </trkpt>
      <trkpt lat="43.93826" lon="1.87544">
        <ele>180</ele>
        <time>2022-09-08T18:49:53Z</time>
      </trkpt>
      <trkpt lat="43.93826" lon="1.87547">
        <ele>180.4</ele>
        <time>2022-09-08T18:49:54Z</time>
      </trkpt>
      <trkpt lat="43.93826" lon="1.8755">
        <ele>180.4</ele>
        <time>2022-09-08T18:49:55Z</time>
      </trkpt>
      <trkpt lat="43.93828" lon="1.87555">
        <ele>180.8</ele>
        <time>2022-09-08T18:49:57Z</time>
      </trkpt>
      <trkpt lat="43.93829" lon="1.87557">
        <ele>180.8</ele>
        <time>2022-09-08T18:49:58Z</time>
      </trkpt>
      <trkpt lat="43.93831" lon="1.87559">
        <ele>181</ele>
        <time>2022-09-08T18:49:59Z</time>
      </trkpt>
      <trkpt lat="43.93832" lon="1.8756">
        <ele>181.2</ele>
        <time>2022-09-08T18:50:00Z</time>
      </trkpt>
      <trkpt lat="43.93834" lon="1.87561">
        <ele>181.2</ele>
        <time>2022-09-08T18:50:01Z</time>
      </trkpt>
      <trkpt lat="43.93836" lon="1.87563">
        <ele>181.4</ele>
        <time>2022-09-08T18:50:02Z</time>
      </trkpt>
      <trkpt lat="43.93837" lon="1.87564">
        <ele>181.6</ele>
        <time>2022-09-08T18:50:03Z</time>
      </trkpt>
      <trkpt lat="43.93839" lon="1.87565">
        <ele>181.6</ele>
        <time>2022-09-08T18:50:04Z</time>
      </trkpt>
      <trkpt lat="43.9384" lon="1.87567">
        <ele>181.8</ele>
        <time>2022-09-08T18:50:05Z</time>
      </trkpt>
      <trkpt lat="43.93842" lon="1.87568">
        <ele>182</ele>
        <time>2022-09-08T18:50:06Z</time>
      </trkpt>
      <trkpt lat="43.93843" lon="1.87569">
        <ele>182.2</ele>
        <time>2022-09-08T18:50:07Z</time>
      </trkpt>
      <trkpt lat="43.93845" lon="1.87571">
        <ele>182.4</ele>
        <time>2022-09-08T18:50:08Z</time>
      </trkpt>
      <trkpt lat="43.93847" lon="1.87572">
        <ele>182.4</ele>
        <time>2022-09-08T18:50:09Z</time>
      </trkpt>
      <trkpt lat="43.93848" lon="1.87574">
        <ele>182.6</ele>
        <time>2022-09-08T18:50:10Z</time>
      </trkpt>
      <trkpt lat="43.9385" lon="1.87575">
        <ele>182.8</ele>
        <time>2022-09-08T18:50:11Z</time>
      </trkpt>
      <trkpt lat="43.93851" lon="1.87577">
        <ele>183</ele>
        <time>2022-09-08T18:50:12Z</time>
      </trkpt>
      <trkpt lat="43.93852" lon="1.87578">
        <ele>183.2</ele>
        <time>2022-09-08T18:50:13Z</time>
      </trkpt>
      <trkpt lat="43.93853" lon="1.8758">
        <ele>183.4</ele>
        <time>2022-09-08T18:50:14Z</time>
      </trkpt>
      <trkpt lat="43.93854" lon="1.87583">
        <ele>183.6</ele>
        <time>2022-09-08T18:50:15Z</time>
      </trkpt>
      <trkpt lat="43.93856" lon="1.87585">
        <ele>183.6</ele>
        <time>2022-09-08T18:50:16Z</time>
      </trkpt>
      <trkpt lat="43.93856" lon="1.87588">
        <ele>183.8</ele>
        <time>2022-09-08T18:50:17Z</time>
      </trkpt>
      <trkpt lat="43.93857" lon="1.8759">
        <ele>183.8</ele>
        <time>2022-09-08T18:50:18Z</time>
      </trkpt>
      <trkpt lat="43.93857" lon="1.87593">
        <ele>184.2</ele>
        <time>2022-09-08T18:50:19Z</time>
      </trkpt>
      <trkpt lat="43.93858" lon="1.87596">
        <ele>184.6</ele>
        <time>2022-09-08T18:50:20Z</time>
      </trkpt>
      <trkpt lat="43.93858" lon="1.87598">
        <ele>184.6</ele>
        <time>2022-09-08T18:50:21Z</time>
      </trkpt>
      <trkpt lat="43.93859" lon="1.87601">
        <ele>184.6</ele>
        <time>2022-09-08T18:50:22Z</time>
      </trkpt>
      <trkpt lat="43.93859" lon="1.87603">
        <ele>184.8</ele>
        <time>2022-09-08T18:50:23Z</time>
      </trkpt>
      <trkpt lat="43.9386" lon="1.87606">
        <ele>184.8</ele>
        <time>2022-09-08T18:50:24Z</time>
      </trkpt>
      <trkpt lat="43.9386" lon="1.87609">
        <ele>184.8</ele>
        <time>2022-09-08T18:50:25Z</time>
      </trkpt>
      <trkpt lat="43.93861" lon="1.87611">
        <ele>185</ele>
        <time>2022-09-08T18:50:26Z</time>
      </trkpt>
      <trkpt lat="43.93861" lon="1.87614">
        <ele>185.2</ele>
        <time>2022-09-08T18:50:27Z</time>
      </trkpt>
      <trkpt lat="43.93862" lon="1.87616">
        <ele>185.4</ele>
        <time>2022-09-08T18:50:28Z</time>
      </trkpt>
      <trkpt lat="43.93864" lon="1.87618">
        <ele>185.6</ele>
        <time>2022-09-08T18:50:29Z</time>
      </trkpt>
      <trkpt lat="43.93865" lon="1.87621">
        <ele>185.8</ele>
        <time>2022-09-08T18:50:30Z</time>
      </trkpt>
      <trkpt lat="43.93866" lon="1.87623">
        <ele>185.8</ele>
        <time>2022-09-08T18:50:31Z</time>
      </trkpt>
      <trkpt lat="43.93868" lon="1.87625">
        <ele>185.8</ele>
        <time>2022-09-08T18:50:32Z</time>
      </trkpt>
      <trkpt lat="43.9387" lon="1.87627">
        <ele>186</ele>
        <time>2022-09-08T18:50:33Z</time>
      </trkpt>
      <trkpt lat="43.93871" lon="1.87629">
        <ele>186</ele>
        <time>2022-09-08T18:50:34Z</time>
      </trkpt>
      <trkpt lat="43.93873" lon="1.87631">
        <ele>186.4</ele>
        <time>2022-09-08T18:50:35Z</time>
      </trkpt>
      <trkpt lat="43.93875" lon="1.87633">
        <ele>186.8</ele>
        <time>2022-09-08T18:50:36Z</time>
      </trkpt>
      <trkpt lat="43.93877" lon="1.87635">
        <ele>187</ele>
        <time>2022-09-08T18:50:37Z</time>
      </trkpt>
      <trkpt lat="43.93879" lon="1.87636">
        <ele>187.2</ele>
        <time>2022-09-08T18:50:38Z</time>
      </trkpt>
      <trkpt lat="43.93881" lon="1.87638">
        <ele>187.2</ele>
        <time>2022-09-08T18:50:39Z</time>
      </trkpt>
      <trkpt lat="43.93883" lon="1.87639">
        <ele>187.4</ele>
        <time>2022-09-08T18:50:40Z</time>
      </trkpt>
      <trkpt lat="43.93885" lon="1.87641">
        <ele>187.6</ele>
        <time>2022-09-08T18:50:41Z</time>
      </trkpt>
      <trkpt lat="43.93887" lon="1.87643">
        <ele>187.6</ele>
        <time>2022-09-08T18:50:42Z</time>
      </trkpt>
      <trkpt lat="43.93889" lon="1.87645">
        <ele>187.8</ele>
        <time>2022-09-08T18:50:43Z</time>
      </trkpt>
      <trkpt lat="43.93891" lon="1.87646">
        <ele>187.8</ele>
        <time>2022-09-08T18:50:44Z</time>
      </trkpt>
      <trkpt lat="43.93893" lon="1.87648">
        <ele>187.6</ele>
        <time>2022-09-08T18:50:45Z</time>
      </trkpt>
      <trkpt lat="43.93895" lon="1.8765">
        <ele>187.8</ele>
        <time>2022-09-08T18:50:46Z</time>
      </trkpt>
      <trkpt lat="43.93897" lon="1.87652">
        <ele>187.8</ele>
        <time>2022-09-08T18:50:47Z</time>
      </trkpt>
      <trkpt lat="43.93899" lon="1.87654">
        <ele>187.8</ele>
        <time>2022-09-08T18:50:48Z</time>
      </trkpt>
      <trkpt lat="43.939" lon="1.87656">
        <ele>188.2</ele>
        <time>2022-09-08T18:50:49Z</time>
      </trkpt>
      <trkpt lat="43.93902" lon="1.87658">
        <ele>188.2</ele>
        <time>2022-09-08T18:50:50Z</time>
      </trkpt>
      <trkpt lat="43.93904" lon="1.8766">
        <ele>188.4</ele>
        <time>2022-09-08T18:50:51Z</time>
      </trkpt>
      <trkpt lat="43.93906" lon="1.87662">
        <ele>188.6</ele>
        <time>2022-09-08T18:50:52Z</time>
      </trkpt>
      <trkpt lat="43.93907" lon="1.87663">
        <ele>188.6</ele>
        <time>2022-09-08T18:50:53Z</time>
      </trkpt>
      <trkpt lat="43.93909" lon="1.87665">
        <ele>188.8</ele>
        <time>2022-09-08T18:50:54Z</time>
      </trkpt>
      <trkpt lat="43.93912" lon="1.87667">
        <ele>189</ele>
        <time>2022-09-08T18:50:55Z</time>
      </trkpt>
      <trkpt lat="43.93913" lon="1.87669">
        <ele>189.2</ele>
        <time>2022-09-08T18:50:56Z</time>
      </trkpt>
      <trkpt lat="43.93915" lon="1.87671">
        <ele>189.4</ele>
        <time>2022-09-08T18:50:57Z</time>
      </trkpt>
      <trkpt lat="43.93917" lon="1.87673">
        <ele>189.6</ele>
        <time>2022-09-08T18:50:58Z</time>
      </trkpt>
      <trkpt lat="43.93919" lon="1.87675">
        <ele>189.6</ele>
        <time>2022-09-08T18:50:59Z</time>
      </trkpt>
      <trkpt lat="43.93921" lon="1.87677">
        <ele>189.8</ele>
        <time>2022-09-08T18:51:00Z</time>
      </trkpt>
      <trkpt lat="43.93923" lon="1.87679">
        <ele>190</ele>
        <time>2022-09-08T18:51:01Z</time>
      </trkpt>
      <trkpt lat="43.93925" lon="1.87681">
        <ele>190.2</ele>
        <time>2022-09-08T18:51:02Z</time>
      </trkpt>
      <trkpt lat="43.93927" lon="1.87683">
        <ele>190.4</ele>
        <time>2022-09-08T18:51:03Z</time>
      </trkpt>
      <trkpt lat="43.93929" lon="1.87685">
        <ele>190.6</ele>
        <time>2022-09-08T18:51:04Z</time>
      </trkpt>
      <trkpt lat="43.93932" lon="1.87688">
        <ele>190.8</ele>
        <time>2022-09-08T18:51:05Z</time>
      </trkpt>
      <trkpt lat="43.93934" lon="1.87691">
        <ele>191</ele>
        <time>2022-09-08T18:51:06Z</time>
      </trkpt>
      <trkpt lat="43.93936" lon="1.87694">
        <ele>191.2</ele>
        <time>2022-09-08T18:51:07Z</time>
      </trkpt>
      <trkpt lat="43.93938" lon="1.87697">
        <ele>191.6</ele>
        <time>2022-09-08T18:51:08Z</time>
      </trkpt>
      <trkpt lat="43.9394" lon="1.877">
        <ele>191.8</ele>
        <time>2022-09-08T18:51:09Z</time>
      </trkpt>
      <trkpt lat="43.93942" lon="1.87703">
        <ele>192.2</ele>
        <time>2022-09-08T18:51:10Z</time>
      </trkpt>
      <trkpt lat="43.93944" lon="1.87707">
        <ele>192.6</ele>
        <time>2022-09-08T18:51:11Z</time>
      </trkpt>
      <trkpt lat="43.93945" lon="1.87709">
        <ele>193.2</ele>
        <time>2022-09-08T18:51:12Z</time>
      </trkpt>
      <trkpt lat="43.93944" lon="1.87712">
        <ele>193.4</ele>
        <time>2022-09-08T18:51:13Z</time>
      </trkpt>
      <trkpt lat="43.93943" lon="1.87715">
        <ele>193.8</ele>
        <time>2022-09-08T18:51:14Z</time>
      </trkpt>
      <trkpt lat="43.93941" lon="1.87717">
        <ele>194.2</ele>
        <time>2022-09-08T18:51:15Z</time>
      </trkpt>
      <trkpt lat="43.9394" lon="1.87719">
        <ele>194.2</ele>
        <time>2022-09-08T18:51:16Z</time>
      </trkpt>
      <trkpt lat="43.93939" lon="1.87721">
        <ele>194.6</ele>
        <time>2022-09-08T18:51:17Z</time>
      </trkpt>
      <trkpt lat="43.93938" lon="1.87723">
        <ele>194.8</ele>
        <time>2022-09-08T18:51:18Z</time>
      </trkpt>
      <trkpt lat="43.93937" lon="1.87725">
        <ele>195</ele>
        <time>2022-09-08T18:51:19Z</time>
      </trkpt>
      <trkpt lat="43.93936" lon="1.87727">
        <ele>195.2</ele>
        <time>2022-09-08T18:51:20Z</time>
      </trkpt>
      <trkpt lat="43.93935" lon="1.87729">
        <ele>195.4</ele>
        <time>2022-09-08T18:51:21Z</time>
      </trkpt>
      <trkpt lat="43.93934" lon="1.87731">
        <ele>195.4</ele>
        <time>2022-09-08T18:51:22Z</time>
      </trkpt>
      <trkpt lat="43.93933" lon="1.87733">
        <ele>195.6</ele>
        <time>2022-09-08T18:51:23Z</time>
      </trkpt>
      <trkpt lat="43.93933" lon="1.87735">
        <ele>195.6</ele>
        <time>2022-09-08T18:51:24Z</time>
      </trkpt>
      <trkpt lat="43.93932" lon="1.87737">
        <ele>195.6</ele>
        <time>2022-09-08T18:51:25Z</time>
      </trkpt>
      <trkpt lat="43.93931" lon="1.87739">
        <ele>195.8</ele>
        <time>2022-09-08T18:51:26Z</time>
      </trkpt>
      <trkpt lat="43.93929" lon="1.87741">
        <ele>195.8</ele>
        <time>2022-09-08T18:51:27Z</time>
      </trkpt>
      <trkpt lat="43.93928" lon="1.87744">
        <ele>195.8</ele>
        <time>2022-09-08T18:51:28Z</time>
      </trkpt>
      <trkpt lat="43.93927" lon="1.87746">
        <ele>195.8</ele>
        <time>2022-09-08T18:51:29Z</time>
      </trkpt>
      <trkpt lat="43.93927" lon="1.87749">
        <ele>195.8</ele>
        <time>2022-09-08T18:51:30Z</time>
      </trkpt>
      <trkpt lat="43.93926" lon="1.87751">
        <ele>195.8</ele>
        <time>2022-09-08T18:51:31Z</time>
      </trkpt>
      <trkpt lat="43.93925" lon="1.87754">
        <ele>195.8</ele>
        <time>2022-09-08T18:51:32Z</time>
      </trkpt>
      <trkpt lat="43.93925" lon="1.87756">
        <ele>195.8</ele>
        <time>2022-09-08T18:51:33Z</time>
      </trkpt>
      <trkpt lat="43.93924" lon="1.87758">
        <ele>195.8</ele>
        <time>2022-09-08T18:51:34Z</time>
      </trkpt>
      <trkpt lat="43.93923" lon="1.8776">
        <ele>195.8</ele>
        <time>2022-09-08T18:51:35Z</time>
      </trkpt>
      <trkpt lat="43.93922" lon="1.87762">
        <ele>196</ele>
        <time>2022-09-08T18:51:36Z</time>
      </trkpt>
      <trkpt lat="43.9392" lon="1.87764">
        <ele>195.8</ele>
        <time>2022-09-08T18:51:37Z</time>
      </trkpt>
      <trkpt lat="43.93919" lon="1.87767">
        <ele>195.8</ele>
        <time>2022-09-08T18:51:38Z</time>
      </trkpt>
      <trkpt lat="43.93918" lon="1.87769">
        <ele>195.8</ele>
        <time>2022-09-08T18:51:39Z</time>
      </trkpt>
      <trkpt lat="43.93917" lon="1.87772">
        <ele>195.8</ele>
        <time>2022-09-08T18:51:40Z</time>
      </trkpt>
      <trkpt lat="43.93916" lon="1.87774">
        <ele>195.8</ele>
        <time>2022-09-08T18:51:41Z</time>
      </trkpt>
      <trkpt lat="43.93915" lon="1.87777">
        <ele>195.8</ele>
        <time>2022-09-08T18:51:42Z</time>
      </trkpt>
      <trkpt lat="43.93914" lon="1.87779">
        <ele>195.8</ele>
        <time>2022-09-08T18:51:43Z</time>
      </trkpt>
      <trkpt lat="43.93913" lon="1.87782">
        <ele>195.8</ele>
        <time>2022-09-08T18:51:44Z</time>
      </trkpt>
      <trkpt lat="43.93912" lon="1.87784">
        <ele>195.8</ele>
        <time>2022-09-08T18:51:45Z</time>
      </trkpt>
      <trkpt lat="43.93911" lon="1.87786">
        <ele>195.8</ele>
        <time>2022-09-08T18:51:46Z</time>
      </trkpt>
      <trkpt lat="43.939" lon="1.87809">
        <ele>195.4</ele>
        <time>2022-09-08T18:51:53Z</time>
      </trkpt>
      <trkpt lat="43.93885" lon="1.87842">
        <ele>194.8</ele>
        <time>2022-09-08T18:52:01Z</time>
      </trkpt>
      <trkpt lat="43.9388" lon="1.87852">
        <ele>194.4</ele>
        <time>2022-09-08T18:52:03Z</time>
      </trkpt>
      <trkpt lat="43.93866" lon="1.87884">
        <ele>193.8</ele>
        <time>2022-09-08T18:52:09Z</time>
      </trkpt>
      <trkpt lat="43.93864" lon="1.87889">
        <ele>193.6</ele>
        <time>2022-09-08T18:52:10Z</time>
      </trkpt>
      <trkpt lat="43.93862" lon="1.87894">
        <ele>193.6</ele>
        <time>2022-09-08T18:52:11Z</time>
      </trkpt>
      <trkpt lat="43.93861" lon="1.87899">
        <ele>193.4</ele>
        <time>2022-09-08T18:52:12Z</time>
      </trkpt>
      <trkpt lat="43.9386" lon="1.87903">
        <ele>193.2</ele>
        <time>2022-09-08T18:52:13Z</time>
      </trkpt>
      <trkpt lat="43.93859" lon="1.87907">
        <ele>193</ele>
        <time>2022-09-08T18:52:14Z</time>
      </trkpt>
      <trkpt lat="43.93859" lon="1.87911">
        <ele>192.8</ele>
        <time>2022-09-08T18:52:15Z</time>
      </trkpt>
      <trkpt lat="43.93858" lon="1.87915">
        <ele>192.6</ele>
        <time>2022-09-08T18:52:16Z</time>
      </trkpt>
      <trkpt lat="43.93854" lon="1.87925">
        <ele>192.2</ele>
        <time>2022-09-08T18:52:19Z</time>
      </trkpt>
      <trkpt lat="43.93852" lon="1.87929">
        <ele>192.2</ele>
        <time>2022-09-08T18:52:20Z</time>
      </trkpt>
      <trkpt lat="43.93838" lon="1.87952">
        <ele>191.8</ele>
        <time>2022-09-08T18:52:26Z</time>
      </trkpt>
      <trkpt lat="43.93836" lon="1.87956">
        <ele>191.6</ele>
        <time>2022-09-08T18:52:27Z</time>
      </trkpt>
      <trkpt lat="43.93834" lon="1.87959">
        <ele>191.6</ele>
        <time>2022-09-08T18:52:28Z</time>
      </trkpt>
      <trkpt lat="43.93832" lon="1.87962">
        <ele>191.6</ele>
        <time>2022-09-08T18:52:29Z</time>
      </trkpt>
      <trkpt lat="43.93832" lon="1.87964">
        <ele>191.4</ele>
        <time>2022-09-08T18:52:30Z</time>
      </trkpt>
      <trkpt lat="43.93832" lon="1.87966">
        <ele>191.4</ele>
        <time>2022-09-08T18:52:31Z</time>
      </trkpt>
      <trkpt lat="43.93833" lon="1.87967">
        <ele>191.2</ele>
        <time>2022-09-08T18:52:32Z</time>
      </trkpt>
      <trkpt lat="43.93834" lon="1.87966">
        <ele>191.2</ele>
        <time>2022-09-08T18:52:33Z</time>
      </trkpt>
      <trkpt lat="43.93835" lon="1.87966">
        <ele>190.4</ele>
        <time>2022-09-08T18:52:59Z</time>
      </trkpt>
      <trkpt lat="43.9384" lon="1.8797">
        <ele>190.4</ele>
        <time>2022-09-08T18:53:01Z</time>
      </trkpt>
      <trkpt lat="43.93847" lon="1.87977">
        <ele>190.4</ele>
        <time>2022-09-08T18:53:03Z</time>
      </trkpt>
      <trkpt lat="43.93854" lon="1.87988">
        <ele>190.4</ele>
        <time>2022-09-08T18:53:05Z</time>
      </trkpt>
      <trkpt lat="43.93868" lon="1.88014">
        <ele>188.8</ele>
        <time>2022-09-08T18:53:09Z</time>
      </trkpt>
      <trkpt lat="43.93875" lon="1.88029">
        <ele>187.6</ele>
        <time>2022-09-08T18:53:11Z</time>
      </trkpt>
      <trkpt lat="43.93888" lon="1.88051">
        <ele>186.6</ele>
        <time>2022-09-08T18:53:14Z</time>
      </trkpt>
      <trkpt lat="43.93892" lon="1.88058">
        <ele>186.4</ele>
        <time>2022-09-08T18:53:15Z</time>
      </trkpt>
      <trkpt lat="43.93896" lon="1.88066">
        <ele>185.4</ele>
        <time>2022-09-08T18:53:16Z</time>
      </trkpt>
      <trkpt lat="43.939" lon="1.88073">
        <ele>184.8</ele>
        <time>2022-09-08T18:53:17Z</time>
      </trkpt>
      <trkpt lat="43.93904" lon="1.88079">
        <ele>184</ele>
        <time>2022-09-08T18:53:18Z</time>
      </trkpt>
      <trkpt lat="43.93909" lon="1.88083">
        <ele>183.4</ele>
        <time>2022-09-08T18:53:19Z</time>
      </trkpt>
      <trkpt lat="43.93915" lon="1.88086">
        <ele>182.6</ele>
        <time>2022-09-08T18:53:20Z</time>
      </trkpt>
      <trkpt lat="43.93922" lon="1.88088">
        <ele>181.2</ele>
        <time>2022-09-08T18:53:21Z</time>
      </trkpt>
      <trkpt lat="43.93929" lon="1.88091">
        <ele>180.8</ele>
        <time>2022-09-08T18:53:22Z</time>
      </trkpt>
      <trkpt lat="43.93936" lon="1.88093">
        <ele>180</ele>
        <time>2022-09-08T18:53:23Z</time>
      </trkpt>
      <trkpt lat="43.9395" lon="1.88097">
        <ele>179.4</ele>
        <time>2022-09-08T18:53:25Z</time>
      </trkpt>
      <trkpt lat="43.93957" lon="1.88099">
        <ele>179</ele>
        <time>2022-09-08T18:53:26Z</time>
      </trkpt>
      <trkpt lat="43.93963" lon="1.88101">
        <ele>177.8</ele>
        <time>2022-09-08T18:53:27Z</time>
      </trkpt>
      <trkpt lat="43.93968" lon="1.88102">
        <ele>177.2</ele>
        <time>2022-09-08T18:53:28Z</time>
      </trkpt>
      <trkpt lat="43.93973" lon="1.88103">
        <ele>176.4</ele>
        <time>2022-09-08T18:53:29Z</time>
      </trkpt>
      <trkpt lat="43.93977" lon="1.88102">
        <ele>175.6</ele>
        <time>2022-09-08T18:53:30Z</time>
      </trkpt>
      <trkpt lat="43.93981" lon="1.88099">
        <ele>174.8</ele>
        <time>2022-09-08T18:53:31Z</time>
      </trkpt>
      <trkpt lat="43.93984" lon="1.88095">
        <ele>173.4</ele>
        <time>2022-09-08T18:53:32Z</time>
      </trkpt>
      <trkpt lat="43.93991" lon="1.88086">
        <ele>172.4</ele>
        <time>2022-09-08T18:53:34Z</time>
      </trkpt>
      <trkpt lat="43.93995" lon="1.88081">
        <ele>172.4</ele>
        <time>2022-09-08T18:53:35Z</time>
      </trkpt>
      <trkpt lat="43.9401" lon="1.88057">
        <ele>171.8</ele>
        <time>2022-09-08T18:53:39Z</time>
      </trkpt>
      <trkpt lat="43.94014" lon="1.88051">
        <ele>171.8</ele>
        <time>2022-09-08T18:53:40Z</time>
      </trkpt>
      <trkpt lat="43.94022" lon="1.88039">
        <ele>171.6</ele>
        <time>2022-09-08T18:53:42Z</time>
      </trkpt>
      <trkpt lat="43.94025" lon="1.88034">
        <ele>171.6</ele>
        <time>2022-09-08T18:53:43Z</time>
      </trkpt>
      <trkpt lat="43.94028" lon="1.88028">
        <ele>171.4</ele>
        <time>2022-09-08T18:53:44Z</time>
      </trkpt>
      <trkpt lat="43.94032" lon="1.88023">
        <ele>171.4</ele>
        <time>2022-09-08T18:53:45Z</time>
      </trkpt>
      <trkpt lat="43.94035" lon="1.88018">
        <ele>171.4</ele>
        <time>2022-09-08T18:53:46Z</time>
      </trkpt>
      <trkpt lat="43.94037" lon="1.88013">
        <ele>171.4</ele>
        <time>2022-09-08T18:53:47Z</time>
      </trkpt>
      <trkpt lat="43.94045" lon="1.87997">
        <ele>171.8</ele>
        <time>2022-09-08T18:53:50Z</time>
      </trkpt>
      <trkpt lat="43.94065" lon="1.8796">
        <ele>172.8</ele>
        <time>2022-09-08T18:53:57Z</time>
      </trkpt>
      <trkpt lat="43.94073" lon="1.87944">
        <ele>172.8</ele>
        <time>2022-09-08T18:54:00Z</time>
      </trkpt>
      <trkpt lat="43.94076" lon="1.87939">
        <ele>173</ele>
        <time>2022-09-08T18:54:01Z</time>
      </trkpt>
      <trkpt lat="43.94079" lon="1.87934">
        <ele>172.8</ele>
        <time>2022-09-08T18:54:02Z</time>
      </trkpt>
      <trkpt lat="43.94081" lon="1.8793">
        <ele>173</ele>
        <time>2022-09-08T18:54:03Z</time>
      </trkpt>
      <trkpt lat="43.94083" lon="1.87926">
        <ele>173</ele>
        <time>2022-09-08T18:54:04Z</time>
      </trkpt>
      <trkpt lat="43.94085" lon="1.87922">
        <ele>173</ele>
        <time>2022-09-08T18:54:05Z</time>
      </trkpt>
      <trkpt lat="43.94087" lon="1.87918">
        <ele>173</ele>
        <time>2022-09-08T18:54:06Z</time>
      </trkpt>
      <trkpt lat="43.94089" lon="1.87913">
        <ele>173.2</ele>
        <time>2022-09-08T18:54:07Z</time>
      </trkpt>
      <trkpt lat="43.9409" lon="1.87909">
        <ele>173.2</ele>
        <time>2022-09-08T18:54:08Z</time>
      </trkpt>
      <trkpt lat="43.94095" lon="1.87895">
        <ele>173.8</ele>
        <time>2022-09-08T18:54:11Z</time>
      </trkpt>
      <trkpt lat="43.94107" lon="1.87864">
        <ele>174.2</ele>
        <time>2022-09-08T18:54:18Z</time>
      </trkpt>
      <trkpt lat="43.94108" lon="1.8786">
        <ele>174.2</ele>
        <time>2022-09-08T18:54:19Z</time>
      </trkpt>
      <trkpt lat="43.94109" lon="1.87856">
        <ele>174.2</ele>
        <time>2022-09-08T18:54:20Z</time>
      </trkpt>
      <trkpt lat="43.9411" lon="1.87851">
        <ele>174.2</ele>
        <time>2022-09-08T18:54:21Z</time>
      </trkpt>
      <trkpt lat="43.94112" lon="1.87846">
        <ele>174.6</ele>
        <time>2022-09-08T18:54:22Z</time>
      </trkpt>
      <trkpt lat="43.94113" lon="1.87841">
        <ele>174.6</ele>
        <time>2022-09-08T18:54:23Z</time>
      </trkpt>
      <trkpt lat="43.94114" lon="1.87836">
        <ele>174.8</ele>
        <time>2022-09-08T18:54:24Z</time>
      </trkpt>
      <trkpt lat="43.94115" lon="1.87831">
        <ele>174.8</ele>
        <time>2022-09-08T18:54:25Z</time>
      </trkpt>
      <trkpt lat="43.94116" lon="1.87827">
        <ele>174.8</ele>
        <time>2022-09-08T18:54:26Z</time>
      </trkpt>
      <trkpt lat="43.94119" lon="1.87813">
        <ele>175.2</ele>
        <time>2022-09-08T18:54:29Z</time>
      </trkpt>
      <trkpt lat="43.94122" lon="1.87798">
        <ele>175.4</ele>
        <time>2022-09-08T18:54:32Z</time>
      </trkpt>
      <trkpt lat="43.94124" lon="1.87794">
        <ele>175.4</ele>
        <time>2022-09-08T18:54:33Z</time>
      </trkpt>
      <trkpt lat="43.94126" lon="1.8779">
        <ele>175.4</ele>
        <time>2022-09-08T18:54:34Z</time>
      </trkpt>
      <trkpt lat="43.94128" lon="1.87786">
        <ele>175.4</ele>
        <time>2022-09-08T18:54:35Z</time>
      </trkpt>
      <trkpt lat="43.94131" lon="1.87783">
        <ele>175.4</ele>
        <time>2022-09-08T18:54:36Z</time>
      </trkpt>
      <trkpt lat="43.94134" lon="1.8778">
        <ele>175.6</ele>
        <time>2022-09-08T18:54:37Z</time>
      </trkpt>
      <trkpt lat="43.94149" lon="1.87762">
        <ele>175.8</ele>
        <time>2022-09-08T18:54:42Z</time>
      </trkpt>
      <trkpt lat="43.94159" lon="1.87754">
        <ele>176</ele>
        <time>2022-09-08T18:54:45Z</time>
      </trkpt>
      <trkpt lat="43.94166" lon="1.87751">
        <ele>176</ele>
        <time>2022-09-08T18:54:47Z</time>
      </trkpt>
      <trkpt lat="43.9417" lon="1.87749">
        <ele>176</ele>
        <time>2022-09-08T18:54:48Z</time>
      </trkpt>
      <trkpt lat="43.94173" lon="1.87746">
        <ele>176</ele>
        <time>2022-09-08T18:54:49Z</time>
      </trkpt>
      <trkpt lat="43.94175" lon="1.87744">
        <ele>176</ele>
        <time>2022-09-08T18:54:50Z</time>
      </trkpt>
      <trkpt lat="43.94177" lon="1.87742">
        <ele>176</ele>
        <time>2022-09-08T18:54:51Z</time>
      </trkpt>
      <trkpt lat="43.94178" lon="1.8774">
        <ele>176</ele>
        <time>2022-09-08T18:54:52Z</time>
      </trkpt>
      <trkpt lat="43.9418" lon="1.87737">
        <ele>176</ele>
        <time>2022-09-08T18:54:53Z</time>
      </trkpt>
      <trkpt lat="43.94182" lon="1.87735">
        <ele>176</ele>
        <time>2022-09-08T18:54:54Z</time>
      </trkpt>
      <trkpt lat="43.94184" lon="1.87732">
        <ele>176</ele>
        <time>2022-09-08T18:54:55Z</time>
      </trkpt>
      <trkpt lat="43.94186" lon="1.87729">
        <ele>176</ele>
        <time>2022-09-08T18:54:56Z</time>
      </trkpt>
      <trkpt lat="43.94187" lon="1.87727">
        <ele>176</ele>
        <time>2022-09-08T18:54:57Z</time>
      </trkpt>
      <trkpt lat="43.9419" lon="1.87721">
        <ele>176</ele>
        <time>2022-09-08T18:54:59Z</time>
      </trkpt>
      <trkpt lat="43.94194" lon="1.87714">
        <ele>176</ele>
        <time>2022-09-08T18:55:02Z</time>
      </trkpt>
      <trkpt lat="43.94195" lon="1.87711">
        <ele>176</ele>
        <time>2022-09-08T18:55:03Z</time>
      </trkpt>
      <trkpt lat="43.94196" lon="1.87708">
        <ele>176.2</ele>
        <time>2022-09-08T18:55:04Z</time>
      </trkpt>
      <trkpt lat="43.94198" lon="1.87705">
        <ele>176.2</ele>
        <time>2022-09-08T18:55:05Z</time>
      </trkpt>
      <trkpt lat="43.94199" lon="1.87703">
        <ele>176</ele>
        <time>2022-09-08T18:55:06Z</time>
      </trkpt>
      <trkpt lat="43.94201" lon="1.877">
        <ele>176</ele>
        <time>2022-09-08T18:55:07Z</time>
      </trkpt>
      <trkpt lat="43.94202" lon="1.87698">
        <ele>176.2</ele>
        <time>2022-09-08T18:55:08Z</time>
      </trkpt>
      <trkpt lat="43.94203" lon="1.87697">
        <ele>176.2</ele>
        <time>2022-09-08T18:55:09Z</time>
      </trkpt>
      <trkpt lat="43.94202" lon="1.87697">
        <ele>176.4</ele>
        <time>2022-09-08T18:55:23Z</time>
      </trkpt>
      <trkpt lat="43.94207" lon="1.87687">
        <ele>176.2</ele>
        <time>2022-09-08T18:55:29Z</time>
      </trkpt>
      <trkpt lat="43.94218" lon="1.87665">
        <ele>176.2</ele>
        <time>2022-09-08T18:55:35Z</time>
      </trkpt>
      <trkpt lat="43.94223" lon="1.87652">
        <ele>176.4</ele>
        <time>2022-09-08T18:55:38Z</time>
      </trkpt>
      <trkpt lat="43.94225" lon="1.87648">
        <ele>176.4</ele>
        <time>2022-09-08T18:55:39Z</time>
      </trkpt>
      <trkpt lat="43.94227" lon="1.87643">
        <ele>176.6</ele>
        <time>2022-09-08T18:55:40Z</time>
      </trkpt>
      <trkpt lat="43.94229" lon="1.87641">
        <ele>176.4</ele>
        <time>2022-09-08T18:55:41Z</time>
      </trkpt>
      <trkpt lat="43.9423" lon="1.87637">
        <ele>176.4</ele>
        <time>2022-09-08T18:55:42Z</time>
      </trkpt>
      <trkpt lat="43.94237" lon="1.87617">
        <ele>176.8</ele>
        <time>2022-09-08T18:55:47Z</time>
      </trkpt>
      <trkpt lat="43.94238" lon="1.87613">
        <ele>176.8</ele>
        <time>2022-09-08T18:55:48Z</time>
      </trkpt>
      <trkpt lat="43.94239" lon="1.8761">
        <ele>176.8</ele>
        <time>2022-09-08T18:55:49Z</time>
      </trkpt>
      <trkpt lat="43.94241" lon="1.87601">
        <ele>177</ele>
        <time>2022-09-08T18:55:51Z</time>
      </trkpt>
      <trkpt lat="43.94242" lon="1.87597">
        <ele>177</ele>
        <time>2022-09-08T18:55:52Z</time>
      </trkpt>
      <trkpt lat="43.94243" lon="1.87594">
        <ele>177</ele>
        <time>2022-09-08T18:55:53Z</time>
      </trkpt>
      <trkpt lat="43.94245" lon="1.87582">
        <ele>177</ele>
        <time>2022-09-08T18:55:56Z</time>
      </trkpt>
      <trkpt lat="43.94246" lon="1.87573">
        <ele>177</ele>
        <time>2022-09-08T18:55:58Z</time>
      </trkpt>
      <trkpt lat="43.94247" lon="1.87569">
        <ele>177</ele>
        <time>2022-09-08T18:55:59Z</time>
      </trkpt>
      <trkpt lat="43.94249" lon="1.87556">
        <ele>177.2</ele>
        <time>2022-09-08T18:56:02Z</time>
      </trkpt>
      <trkpt lat="43.9425" lon="1.87548">
        <ele>177.4</ele>
        <time>2022-09-08T18:56:04Z</time>
      </trkpt>
      <trkpt lat="43.94251" lon="1.87544">
        <ele>177.4</ele>
        <time>2022-09-08T18:56:05Z</time>
      </trkpt>
      <trkpt lat="43.94252" lon="1.8754">
        <ele>177.6</ele>
        <time>2022-09-08T18:56:06Z</time>
      </trkpt>
      <trkpt lat="43.94253" lon="1.87536">
        <ele>177.6</ele>
        <time>2022-09-08T18:56:07Z</time>
      </trkpt>
      <trkpt lat="43.94255" lon="1.87529">
        <ele>177.6</ele>
        <time>2022-09-08T18:56:09Z</time>
      </trkpt>
      <trkpt lat="43.94258" lon="1.87514">
        <ele>178</ele>
        <time>2022-09-08T18:56:13Z</time>
      </trkpt>
      <trkpt lat="43.94261" lon="1.87497">
        <ele>178.2</ele>
        <time>2022-09-08T18:56:17Z</time>
      </trkpt>
      <trkpt lat="43.94262" lon="1.87484">
        <ele>178.4</ele>
        <time>2022-09-08T18:56:20Z</time>
      </trkpt>
      <trkpt lat="43.94263" lon="1.87479">
        <ele>178.4</ele>
        <time>2022-09-08T18:56:21Z</time>
      </trkpt>
      <trkpt lat="43.94264" lon="1.87475">
        <ele>178.4</ele>
        <time>2022-09-08T18:56:22Z</time>
      </trkpt>
      <trkpt lat="43.94265" lon="1.87471">
        <ele>178.4</ele>
        <time>2022-09-08T18:56:23Z</time>
      </trkpt>
      <trkpt lat="43.94266" lon="1.87468">
        <ele>178.6</ele>
        <time>2022-09-08T18:56:24Z</time>
      </trkpt>
      <trkpt lat="43.94268" lon="1.87464">
        <ele>178.6</ele>
        <time>2022-09-08T18:56:25Z</time>
      </trkpt>
      <trkpt lat="43.9427" lon="1.87461">
        <ele>178.6</ele>
        <time>2022-09-08T18:56:26Z</time>
      </trkpt>
      <trkpt lat="43.94272" lon="1.87458">
        <ele>178.4</ele>
        <time>2022-09-08T18:56:27Z</time>
      </trkpt>
      <trkpt lat="43.94277" lon="1.87447">
        <ele>178.6</ele>
        <time>2022-09-08T18:56:30Z</time>
      </trkpt>
      <trkpt lat="43.94281" lon="1.8744">
        <ele>178.6</ele>
        <time>2022-09-08T18:56:32Z</time>
      </trkpt>
      <trkpt lat="43.94286" lon="1.87429">
        <ele>178.8</ele>
        <time>2022-09-08T18:56:35Z</time>
      </trkpt>
      <trkpt lat="43.94287" lon="1.87426">
        <ele>178.8</ele>
        <time>2022-09-08T18:56:36Z</time>
      </trkpt>
      <trkpt lat="43.94289" lon="1.87422">
        <ele>178.8</ele>
        <time>2022-09-08T18:56:37Z</time>
      </trkpt>
      <trkpt lat="43.94294" lon="1.87407">
        <ele>179</ele>
        <time>2022-09-08T18:56:41Z</time>
      </trkpt>
      <trkpt lat="43.94296" lon="1.87404">
        <ele>179</ele>
        <time>2022-09-08T18:56:42Z</time>
      </trkpt>
      <trkpt lat="43.94299" lon="1.87396">
        <ele>179</ele>
        <time>2022-09-08T18:56:44Z</time>
      </trkpt>
      <trkpt lat="43.943" lon="1.87392">
        <ele>179</ele>
        <time>2022-09-08T18:56:45Z</time>
      </trkpt>
      <trkpt lat="43.94302" lon="1.87389">
        <ele>179</ele>
        <time>2022-09-08T18:56:46Z</time>
      </trkpt>
      <trkpt lat="43.94309" lon="1.87373">
        <ele>179.2</ele>
        <time>2022-09-08T18:56:50Z</time>
      </trkpt>
      <trkpt lat="43.94312" lon="1.87366">
        <ele>179.2</ele>
        <time>2022-09-08T18:56:52Z</time>
      </trkpt>
      <trkpt lat="43.94314" lon="1.87362">
        <ele>179.2</ele>
        <time>2022-09-08T18:56:53Z</time>
      </trkpt>
      <trkpt lat="43.94316" lon="1.87358">
        <ele>179.2</ele>
        <time>2022-09-08T18:56:54Z</time>
      </trkpt>
      <trkpt lat="43.94317" lon="1.87355">
        <ele>179.2</ele>
        <time>2022-09-08T18:56:55Z</time>
      </trkpt>
      <trkpt lat="43.94319" lon="1.87351">
        <ele>179.4</ele>
        <time>2022-09-08T18:56:56Z</time>
      </trkpt>
      <trkpt lat="43.9432" lon="1.87348">
        <ele>179.4</ele>
        <time>2022-09-08T18:56:57Z</time>
      </trkpt>
      <trkpt lat="43.94321" lon="1.87344">
        <ele>179.4</ele>
        <time>2022-09-08T18:56:58Z</time>
      </trkpt>
      <trkpt lat="43.94321" lon="1.87341">
        <ele>179.6</ele>
        <time>2022-09-08T18:56:59Z</time>
      </trkpt>
      <trkpt lat="43.94321" lon="1.87337">
        <ele>179.6</ele>
        <time>2022-09-08T18:57:00Z</time>
      </trkpt>
      <trkpt lat="43.94321" lon="1.87334">
        <ele>179.6</ele>
        <time>2022-09-08T18:57:01Z</time>
      </trkpt>
      <trkpt lat="43.9432" lon="1.87331">
        <ele>179.8</ele>
        <time>2022-09-08T18:57:02Z</time>
      </trkpt>
      <trkpt lat="43.94319" lon="1.87328">
        <ele>180</ele>
        <time>2022-09-08T18:57:03Z</time>
      </trkpt>
      <trkpt lat="43.94318" lon="1.87325">
        <ele>180</ele>
        <time>2022-09-08T18:57:04Z</time>
      </trkpt>
      <trkpt lat="43.94318" lon="1.87322">
        <ele>180.2</ele>
        <time>2022-09-08T18:57:05Z</time>
      </trkpt>
      <trkpt lat="43.94319" lon="1.8732">
        <ele>180.2</ele>
        <time>2022-09-08T18:57:06Z</time>
      </trkpt>
      <trkpt lat="43.94321" lon="1.87317">
        <ele>180.2</ele>
        <time>2022-09-08T18:57:07Z</time>
      </trkpt>
      <trkpt lat="43.94323" lon="1.87317">
        <ele>180.4</ele>
        <time>2022-09-08T18:57:08Z</time>
      </trkpt>
      <trkpt lat="43.9433" lon="1.87323">
        <ele>180.6</ele>
        <time>2022-09-08T18:57:11Z</time>
      </trkpt>
      <trkpt lat="43.94333" lon="1.87325">
        <ele>180.6</ele>
        <time>2022-09-08T18:57:12Z</time>
      </trkpt>
      <trkpt lat="43.94336" lon="1.87327">
        <ele>180.6</ele>
        <time>2022-09-08T18:57:13Z</time>
      </trkpt>
      <trkpt lat="43.94339" lon="1.87328">
        <ele>180.8</ele>
        <time>2022-09-08T18:57:14Z</time>
      </trkpt>
      <trkpt lat="43.94346" lon="1.87332">
        <ele>180.8</ele>
        <time>2022-09-08T18:57:16Z</time>
      </trkpt>
      <trkpt lat="43.94361" lon="1.87341">
        <ele>181</ele>
        <time>2022-09-08T18:57:21Z</time>
      </trkpt>
      <trkpt lat="43.94364" lon="1.87343">
        <ele>181</ele>
        <time>2022-09-08T18:57:22Z</time>
      </trkpt>
      <trkpt lat="43.94367" lon="1.87345">
        <ele>181.2</ele>
        <time>2022-09-08T18:57:23Z</time>
      </trkpt>
      <trkpt lat="43.9437" lon="1.87347">
        <ele>181.2</ele>
        <time>2022-09-08T18:57:24Z</time>
      </trkpt>
      <trkpt lat="43.94372" lon="1.87348">
        <ele>181.4</ele>
        <time>2022-09-08T18:57:25Z</time>
      </trkpt>
      <trkpt lat="43.94375" lon="1.8735">
        <ele>181.4</ele>
        <time>2022-09-08T18:57:26Z</time>
      </trkpt>
      <trkpt lat="43.94378" lon="1.87351">
        <ele>181.4</ele>
        <time>2022-09-08T18:57:27Z</time>
      </trkpt>
      <trkpt lat="43.9438" lon="1.87353">
        <ele>181.6</ele>
        <time>2022-09-08T18:57:28Z</time>
      </trkpt>
      <trkpt lat="43.94383" lon="1.87354">
        <ele>181.6</ele>
        <time>2022-09-08T18:57:29Z</time>
      </trkpt>
      <trkpt lat="43.94385" lon="1.87356">
        <ele>181.8</ele>
        <time>2022-09-08T18:57:30Z</time>
      </trkpt>
      <trkpt lat="43.94387" lon="1.87357">
        <ele>181.8</ele>
        <time>2022-09-08T18:57:31Z</time>
      </trkpt>
      <trkpt lat="43.94392" lon="1.8736">
        <ele>182</ele>
        <time>2022-09-08T18:57:33Z</time>
      </trkpt>
      <trkpt lat="43.944" lon="1.87364">
        <ele>182.4</ele>
        <time>2022-09-08T18:57:36Z</time>
      </trkpt>
      <trkpt lat="43.94403" lon="1.87366">
        <ele>182.8</ele>
        <time>2022-09-08T18:57:37Z</time>
      </trkpt>
      <trkpt lat="43.94405" lon="1.87367">
        <ele>183.2</ele>
        <time>2022-09-08T18:57:38Z</time>
      </trkpt>
      <trkpt lat="43.94406" lon="1.8737">
        <ele>183.8</ele>
        <time>2022-09-08T18:57:39Z</time>
      </trkpt>
      <trkpt lat="43.94407" lon="1.87372">
        <ele>184</ele>
        <time>2022-09-08T18:57:40Z</time>
      </trkpt>
      <trkpt lat="43.94406" lon="1.87376">
        <ele>184.4</ele>
        <time>2022-09-08T18:57:41Z</time>
      </trkpt>
      <trkpt lat="43.94406" lon="1.87379">
        <ele>184.4</ele>
        <time>2022-09-08T18:57:42Z</time>
      </trkpt>
      <trkpt lat="43.94405" lon="1.87383">
        <ele>184.4</ele>
        <time>2022-09-08T18:57:43Z</time>
      </trkpt>
      <trkpt lat="43.94404" lon="1.87387">
        <ele>184.8</ele>
        <time>2022-09-08T18:57:44Z</time>
      </trkpt>
      <trkpt lat="43.94403" lon="1.8739">
        <ele>184.8</ele>
        <time>2022-09-08T18:57:45Z</time>
      </trkpt>
      <trkpt lat="43.94401" lon="1.87394">
        <ele>184.8</ele>
        <time>2022-09-08T18:57:46Z</time>
      </trkpt>
      <trkpt lat="43.944" lon="1.87398">
        <ele>185</ele>
        <time>2022-09-08T18:57:47Z</time>
      </trkpt>
      <trkpt lat="43.94399" lon="1.87402">
        <ele>185</ele>
        <time>2022-09-08T18:57:48Z</time>
      </trkpt>
      <trkpt lat="43.94398" lon="1.87405">
        <ele>185.2</ele>
        <time>2022-09-08T18:57:49Z</time>
      </trkpt>
      <trkpt lat="43.94397" lon="1.87409">
        <ele>185.2</ele>
        <time>2022-09-08T18:57:50Z</time>
      </trkpt>
      <trkpt lat="43.94396" lon="1.87413">
        <ele>185.2</ele>
        <time>2022-09-08T18:57:51Z</time>
      </trkpt>
      <trkpt lat="43.94395" lon="1.87417">
        <ele>185.2</ele>
        <time>2022-09-08T18:57:52Z</time>
      </trkpt>
      <trkpt lat="43.94393" lon="1.87421">
        <ele>185.2</ele>
        <time>2022-09-08T18:57:53Z</time>
      </trkpt>
      <trkpt lat="43.94392" lon="1.87426">
        <ele>185.2</ele>
        <time>2022-09-08T18:57:54Z</time>
      </trkpt>
      <trkpt lat="43.94391" lon="1.8743">
        <ele>185.2</ele>
        <time>2022-09-08T18:57:55Z</time>
      </trkpt>
      <trkpt lat="43.9439" lon="1.87434">
        <ele>185.4</ele>
        <time>2022-09-08T18:57:56Z</time>
      </trkpt>
      <trkpt lat="43.94388" lon="1.87439">
        <ele>185.4</ele>
        <time>2022-09-08T18:57:57Z</time>
      </trkpt>
      <trkpt lat="43.94387" lon="1.87443">
        <ele>185.4</ele>
        <time>2022-09-08T18:57:58Z</time>
      </trkpt>
      <trkpt lat="43.94386" lon="1.87447">
        <ele>185.4</ele>
        <time>2022-09-08T18:57:59Z</time>
      </trkpt>
      <trkpt lat="43.94385" lon="1.87452">
        <ele>185.4</ele>
        <time>2022-09-08T18:58:00Z</time>
      </trkpt>
      <trkpt lat="43.94383" lon="1.87456">
        <ele>185.4</ele>
        <time>2022-09-08T18:58:01Z</time>
      </trkpt>
      <trkpt lat="43.94382" lon="1.87461">
        <ele>185.4</ele>
        <time>2022-09-08T18:58:02Z</time>
      </trkpt>
      <trkpt lat="43.9438" lon="1.87465">
        <ele>185.4</ele>
        <time>2022-09-08T18:58:03Z</time>
      </trkpt>
      <trkpt lat="43.94379" lon="1.8747">
        <ele>185.4</ele>
        <time>2022-09-08T18:58:04Z</time>
      </trkpt>
      <trkpt lat="43.94377" lon="1.87474">
        <ele>185.4</ele>
        <time>2022-09-08T18:58:05Z</time>
      </trkpt>
      <trkpt lat="43.94356" lon="1.87527">
        <ele>185.4</ele>
        <time>2022-09-08T18:58:15Z</time>
      </trkpt>
      <trkpt lat="43.94339" lon="1.87563">
        <ele>184.8</ele>
        <time>2022-09-08T18:58:21Z</time>
      </trkpt>
      <trkpt lat="43.94334" lon="1.87576">
        <ele>184.6</ele>
        <time>2022-09-08T18:58:23Z</time>
      </trkpt>
      <trkpt lat="43.9433" lon="1.87584">
        <ele>184.4</ele>
        <time>2022-09-08T18:58:24Z</time>
      </trkpt>
      <trkpt lat="43.94328" lon="1.87589">
        <ele>184.2</ele>
        <time>2022-09-08T18:58:25Z</time>
      </trkpt>
      <trkpt lat="43.94326" lon="1.87595">
        <ele>183.8</ele>
        <time>2022-09-08T18:58:26Z</time>
      </trkpt>
      <trkpt lat="43.94323" lon="1.87601">
        <ele>183.8</ele>
        <time>2022-09-08T18:58:27Z</time>
      </trkpt>
      <trkpt lat="43.94316" lon="1.8762">
        <ele>182.8</ele>
        <time>2022-09-08T18:58:30Z</time>
      </trkpt>
      <trkpt lat="43.94314" lon="1.87626">
        <ele>182.6</ele>
        <time>2022-09-08T18:58:31Z</time>
      </trkpt>
      <trkpt lat="43.94312" lon="1.87632">
        <ele>182.6</ele>
        <time>2022-09-08T18:58:32Z</time>
      </trkpt>
      <trkpt lat="43.9431" lon="1.87638">
        <ele>182.6</ele>
        <time>2022-09-08T18:58:33Z</time>
      </trkpt>
      <trkpt lat="43.94308" lon="1.87643">
        <ele>182.2</ele>
        <time>2022-09-08T18:58:34Z</time>
      </trkpt>
      <trkpt lat="43.94306" lon="1.87649">
        <ele>181.8</ele>
        <time>2022-09-08T18:58:35Z</time>
      </trkpt>
      <trkpt lat="43.94304" lon="1.87654">
        <ele>181.8</ele>
        <time>2022-09-08T18:58:36Z</time>
      </trkpt>
      <trkpt lat="43.94303" lon="1.87659">
        <ele>181.4</ele>
        <time>2022-09-08T18:58:37Z</time>
      </trkpt>
      <trkpt lat="43.94301" lon="1.87664">
        <ele>181.4</ele>
        <time>2022-09-08T18:58:38Z</time>
      </trkpt>
      <trkpt lat="43.94301" lon="1.87667">
        <ele>181</ele>
        <time>2022-09-08T18:58:39Z</time>
      </trkpt>
      <trkpt lat="43.94302" lon="1.8767">
        <ele>181</ele>
        <time>2022-09-08T18:58:40Z</time>
      </trkpt>
      <trkpt lat="43.94303" lon="1.87672">
        <ele>180.8</ele>
        <time>2022-09-08T18:58:41Z</time>
      </trkpt>
      <trkpt lat="43.94304" lon="1.87672">
        <ele>180.8</ele>
        <time>2022-09-08T18:58:42Z</time>
      </trkpt>
      <trkpt lat="43.94306" lon="1.87673">
        <ele>180.8</ele>
        <time>2022-09-08T18:58:43Z</time>
      </trkpt>
      <trkpt lat="43.94307" lon="1.87673">
        <ele>180.8</ele>
        <time>2022-09-08T18:58:44Z</time>
      </trkpt>
      <trkpt lat="43.94308" lon="1.87673">
        <ele>180.8</ele>
        <time>2022-09-08T18:58:45Z</time>
      </trkpt>
      <trkpt lat="43.94309" lon="1.87673">
        <ele>180.8</ele>
        <time>2022-09-08T18:58:46Z</time>
      </trkpt>
      <trkpt lat="43.9432" lon="1.87672">
        <ele>181.2</ele>
        <time>2022-09-08T18:58:52Z</time>
      </trkpt>
      <trkpt lat="43.94328" lon="1.87673">
        <ele>181.6</ele>
        <time>2022-09-08T18:58:56Z</time>
      </trkpt>
      <trkpt lat="43.94338" lon="1.87673">
        <ele>182.2</ele>
        <time>2022-09-08T18:59:01Z</time>
      </trkpt>
      <trkpt lat="43.94347" lon="1.87674">
        <ele>182.6</ele>
        <time>2022-09-08T18:59:05Z</time>
      </trkpt>
      <trkpt lat="43.94349" lon="1.87674">
        <ele>182.8</ele>
        <time>2022-09-08T18:59:06Z</time>
      </trkpt>
      <trkpt lat="43.94351" lon="1.87674">
        <ele>182.8</ele>
        <time>2022-09-08T18:59:07Z</time>
      </trkpt>
      <trkpt lat="43.94355" lon="1.87674">
        <ele>183.2</ele>
        <time>2022-09-08T18:59:09Z</time>
      </trkpt>
      <trkpt lat="43.94357" lon="1.87675">
        <ele>183.2</ele>
        <time>2022-09-08T18:59:10Z</time>
      </trkpt>
      <trkpt lat="43.94358" lon="1.87675">
        <ele>183.4</ele>
        <time>2022-09-08T18:59:11Z</time>
      </trkpt>
      <trkpt lat="43.9436" lon="1.87675">
        <ele>183.4</ele>
        <time>2022-09-08T18:59:12Z</time>
      </trkpt>
      <trkpt lat="43.94362" lon="1.87675">
        <ele>183.6</ele>
        <time>2022-09-08T18:59:13Z</time>
      </trkpt>
      <trkpt lat="43.94364" lon="1.87675">
        <ele>183.8</ele>
        <time>2022-09-08T18:59:14Z</time>
      </trkpt>
      <trkpt lat="43.9437" lon="1.87676">
        <ele>184.4</ele>
        <time>2022-09-08T18:59:18Z</time>
      </trkpt>
      <trkpt lat="43.94374" lon="1.87676">
        <ele>184.8</ele>
        <time>2022-09-08T18:59:20Z</time>
      </trkpt>
      <trkpt lat="43.94376" lon="1.87676">
        <ele>185</ele>
        <time>2022-09-08T18:59:21Z</time>
      </trkpt>
      <trkpt lat="43.94377" lon="1.87676">
        <ele>185.2</ele>
        <time>2022-09-08T18:59:22Z</time>
      </trkpt>
      <trkpt lat="43.94379" lon="1.87676">
        <ele>185.4</ele>
        <time>2022-09-08T18:59:23Z</time>
      </trkpt>
      <trkpt lat="43.94381" lon="1.87676">
        <ele>185.6</ele>
        <time>2022-09-08T18:59:24Z</time>
      </trkpt>
      <trkpt lat="43.94383" lon="1.87675">
        <ele>185.8</ele>
        <time>2022-09-08T18:59:25Z</time>
      </trkpt>
      <trkpt lat="43.94385" lon="1.87675">
        <ele>186</ele>
        <time>2022-09-08T18:59:26Z</time>
      </trkpt>
      <trkpt lat="43.94386" lon="1.87675">
        <ele>186.2</ele>
        <time>2022-09-08T18:59:27Z</time>
      </trkpt>
      <trkpt lat="43.94388" lon="1.87675">
        <ele>186.2</ele>
        <time>2022-09-08T18:59:28Z</time>
      </trkpt>
      <trkpt lat="43.9439" lon="1.87675">
        <ele>186.4</ele>
        <time>2022-09-08T18:59:29Z</time>
      </trkpt>
      <trkpt lat="43.94392" lon="1.87676">
        <ele>186.8</ele>
        <time>2022-09-08T18:59:30Z</time>
      </trkpt>
      <trkpt lat="43.94393" lon="1.87676">
        <ele>186.8</ele>
        <time>2022-09-08T18:59:31Z</time>
      </trkpt>
      <trkpt lat="43.94395" lon="1.87675">
        <ele>187</ele>
        <time>2022-09-08T18:59:32Z</time>
      </trkpt>
      <trkpt lat="43.94397" lon="1.87675">
        <ele>187.2</ele>
        <time>2022-09-08T18:59:33Z</time>
      </trkpt>
      <trkpt lat="43.94398" lon="1.87675">
        <ele>187.4</ele>
        <time>2022-09-08T18:59:34Z</time>
      </trkpt>
      <trkpt lat="43.944" lon="1.87675">
        <ele>187.4</ele>
        <time>2022-09-08T18:59:35Z</time>
      </trkpt>
      <trkpt lat="43.94401" lon="1.87675">
        <ele>187.6</ele>
        <time>2022-09-08T18:59:36Z</time>
      </trkpt>
      <trkpt lat="43.94403" lon="1.87675">
        <ele>187.8</ele>
        <time>2022-09-08T18:59:37Z</time>
      </trkpt>
      <trkpt lat="43.94404" lon="1.87675">
        <ele>187.8</ele>
        <time>2022-09-08T18:59:38Z</time>
      </trkpt>
      <trkpt lat="43.94406" lon="1.87675">
        <ele>188</ele>
        <time>2022-09-08T18:59:39Z</time>
      </trkpt>
      <trkpt lat="43.94407" lon="1.87675">
        <ele>188.2</ele>
        <time>2022-09-08T18:59:40Z</time>
      </trkpt>
      <trkpt lat="43.94409" lon="1.87675">
        <ele>188.4</ele>
        <time>2022-09-08T18:59:41Z</time>
      </trkpt>
      <trkpt lat="43.9441" lon="1.87675">
        <ele>188.6</ele>
        <time>2022-09-08T18:59:42Z</time>
      </trkpt>
      <trkpt lat="43.94412" lon="1.87675">
        <ele>188.8</ele>
        <time>2022-09-08T18:59:43Z</time>
      </trkpt>
      <trkpt lat="43.94414" lon="1.87675">
        <ele>189.2</ele>
        <time>2022-09-08T18:59:44Z</time>
      </trkpt>
      <trkpt lat="43.94416" lon="1.87675">
        <ele>189.2</ele>
        <time>2022-09-08T18:59:45Z</time>
      </trkpt>
      <trkpt lat="43.94417" lon="1.87675">
        <ele>189.4</ele>
        <time>2022-09-08T18:59:46Z</time>
      </trkpt>
      <trkpt lat="43.94419" lon="1.87676">
        <ele>189.6</ele>
        <time>2022-09-08T18:59:47Z</time>
      </trkpt>
      <trkpt lat="43.94421" lon="1.87676">
        <ele>189.8</ele>
        <time>2022-09-08T18:59:48Z</time>
      </trkpt>
      <trkpt lat="43.94423" lon="1.87676">
        <ele>189.8</ele>
        <time>2022-09-08T18:59:49Z</time>
      </trkpt>
      <trkpt lat="43.94424" lon="1.87676">
        <ele>190.2</ele>
        <time>2022-09-08T18:59:50Z</time>
      </trkpt>
      <trkpt lat="43.94426" lon="1.87676">
        <ele>190.2</ele>
        <time>2022-09-08T18:59:51Z</time>
      </trkpt>
      <trkpt lat="43.94428" lon="1.87676">
        <ele>190.4</ele>
        <time>2022-09-08T18:59:52Z</time>
      </trkpt>
      <trkpt lat="43.94429" lon="1.87676">
        <ele>190.6</ele>
        <time>2022-09-08T18:59:53Z</time>
      </trkpt>
      <trkpt lat="43.94431" lon="1.87677">
        <ele>190.6</ele>
        <time>2022-09-08T18:59:54Z</time>
      </trkpt>
      <trkpt lat="43.94432" lon="1.87677">
        <ele>190.6</ele>
        <time>2022-09-08T18:59:55Z</time>
      </trkpt>
      <trkpt lat="43.94434" lon="1.87678">
        <ele>190.8</ele>
        <time>2022-09-08T18:59:56Z</time>
      </trkpt>
      <trkpt lat="43.94435" lon="1.87678">
        <ele>191</ele>
        <time>2022-09-08T18:59:57Z</time>
      </trkpt>
      <trkpt lat="43.94437" lon="1.87678">
        <ele>191.2</ele>
        <time>2022-09-08T18:59:58Z</time>
      </trkpt>
      <trkpt lat="43.94438" lon="1.87678">
        <ele>191.4</ele>
        <time>2022-09-08T18:59:59Z</time>
      </trkpt>
      <trkpt lat="43.9444" lon="1.87679">
        <ele>191.6</ele>
        <time>2022-09-08T19:00:00Z</time>
      </trkpt>
      <trkpt lat="43.94442" lon="1.87679">
        <ele>191.8</ele>
        <time>2022-09-08T19:00:01Z</time>
      </trkpt>
      <trkpt lat="43.94443" lon="1.87679">
        <ele>191.8</ele>
        <time>2022-09-08T19:00:02Z</time>
      </trkpt>
      <trkpt lat="43.94445" lon="1.87679">
        <ele>191.8</ele>
        <time>2022-09-08T19:00:03Z</time>
      </trkpt>
      <trkpt lat="43.94446" lon="1.8768">
        <ele>192</ele>
        <time>2022-09-08T19:00:04Z</time>
      </trkpt>
      <trkpt lat="43.94447" lon="1.8768">
        <ele>192.2</ele>
        <time>2022-09-08T19:00:05Z</time>
      </trkpt>
      <trkpt lat="43.94449" lon="1.87681">
        <ele>192.4</ele>
        <time>2022-09-08T19:00:06Z</time>
      </trkpt>
      <trkpt lat="43.94451" lon="1.87681">
        <ele>192.6</ele>
        <time>2022-09-08T19:00:07Z</time>
      </trkpt>
      <trkpt lat="43.94452" lon="1.87682">
        <ele>192.8</ele>
        <time>2022-09-08T19:00:08Z</time>
      </trkpt>
      <trkpt lat="43.94454" lon="1.87682">
        <ele>192.8</ele>
        <time>2022-09-08T19:00:09Z</time>
      </trkpt>
      <trkpt lat="43.94456" lon="1.87682">
        <ele>193</ele>
        <time>2022-09-08T19:00:10Z</time>
      </trkpt>
      <trkpt lat="43.94458" lon="1.87682">
        <ele>193.2</ele>
        <time>2022-09-08T19:00:11Z</time>
      </trkpt>
      <trkpt lat="43.94459" lon="1.87683">
        <ele>193.2</ele>
        <time>2022-09-08T19:00:12Z</time>
      </trkpt>
      <trkpt lat="43.94461" lon="1.87683">
        <ele>193.6</ele>
        <time>2022-09-08T19:00:13Z</time>
      </trkpt>
      <trkpt lat="43.94462" lon="1.87683">
        <ele>193.8</ele>
        <time>2022-09-08T19:00:14Z</time>
      </trkpt>
      <trkpt lat="43.94464" lon="1.87684">
        <ele>194</ele>
        <time>2022-09-08T19:00:15Z</time>
      </trkpt>
      <trkpt lat="43.94465" lon="1.87684">
        <ele>194.4</ele>
        <time>2022-09-08T19:00:16Z</time>
      </trkpt>
      <trkpt lat="43.94466" lon="1.87684">
        <ele>194.4</ele>
        <time>2022-09-08T19:00:17Z</time>
      </trkpt>
      <trkpt lat="43.94467" lon="1.87684">
        <ele>194.6</ele>
        <time>2022-09-08T19:00:18Z</time>
      </trkpt>
      <trkpt lat="43.94469" lon="1.87684">
        <ele>194.8</ele>
        <time>2022-09-08T19:00:19Z</time>
      </trkpt>
      <trkpt lat="43.9447" lon="1.87684">
        <ele>195.2</ele>
        <time>2022-09-08T19:00:20Z</time>
      </trkpt>
      <trkpt lat="43.94471" lon="1.87685">
        <ele>195.4</ele>
        <time>2022-09-08T19:00:21Z</time>
      </trkpt>
      <trkpt lat="43.94472" lon="1.87685">
        <ele>195.6</ele>
        <time>2022-09-08T19:00:22Z</time>
      </trkpt>
      <trkpt lat="43.94473" lon="1.87685">
        <ele>196</ele>
        <time>2022-09-08T19:00:23Z</time>
      </trkpt>
      <trkpt lat="43.94474" lon="1.87685">
        <ele>196</ele>
        <time>2022-09-08T19:00:24Z</time>
      </trkpt>
      <trkpt lat="43.94475" lon="1.87685">
        <ele>196.2</ele>
        <time>2022-09-08T19:00:25Z</time>
      </trkpt>
      <trkpt lat="43.94476" lon="1.87686">
        <ele>196.4</ele>
        <time>2022-09-08T19:00:26Z</time>
      </trkpt>
      <trkpt lat="43.94478" lon="1.87686">
        <ele>196.6</ele>
        <time>2022-09-08T19:00:27Z</time>
      </trkpt>
      <trkpt lat="43.94479" lon="1.87686">
        <ele>196.6</ele>
        <time>2022-09-08T19:00:28Z</time>
      </trkpt>
      <trkpt lat="43.9448" lon="1.87686">
        <ele>197</ele>
        <time>2022-09-08T19:00:29Z</time>
      </trkpt>
      <trkpt lat="43.94481" lon="1.87686">
        <ele>197.2</ele>
        <time>2022-09-08T19:00:30Z</time>
      </trkpt>
      <trkpt lat="43.94482" lon="1.87686">
        <ele>197.4</ele>
        <time>2022-09-08T19:00:31Z</time>
      </trkpt>
      <trkpt lat="43.94483" lon="1.87686">
        <ele>197.6</ele>
        <time>2022-09-08T19:00:32Z</time>
      </trkpt>
      <trkpt lat="43.94485" lon="1.87686">
        <ele>197.8</ele>
        <time>2022-09-08T19:00:33Z</time>
      </trkpt>
      <trkpt lat="43.94486" lon="1.87686">
        <ele>197.8</ele>
        <time>2022-09-08T19:00:34Z</time>
      </trkpt>
      <trkpt lat="43.94487" lon="1.87686">
        <ele>198</ele>
        <time>2022-09-08T19:00:35Z</time>
      </trkpt>
      <trkpt lat="43.94488" lon="1.87687">
        <ele>198.2</ele>
        <time>2022-09-08T19:00:36Z</time>
      </trkpt>
      <trkpt lat="43.94489" lon="1.87687">
        <ele>198.4</ele>
        <time>2022-09-08T19:00:37Z</time>
      </trkpt>
      <trkpt lat="43.9449" lon="1.87688">
        <ele>198.6</ele>
        <time>2022-09-08T19:00:38Z</time>
      </trkpt>
      <trkpt lat="43.94491" lon="1.87688">
        <ele>198.8</ele>
        <time>2022-09-08T19:00:39Z</time>
      </trkpt>
      <trkpt lat="43.94491" lon="1.87689">
        <ele>199</ele>
        <time>2022-09-08T19:00:40Z</time>
      </trkpt>
      <trkpt lat="43.94492" lon="1.87689">
        <ele>199.2</ele>
        <time>2022-09-08T19:00:41Z</time>
      </trkpt>
      <trkpt lat="43.94494" lon="1.8769">
        <ele>199.2</ele>
        <time>2022-09-08T19:00:42Z</time>
      </trkpt>
      <trkpt lat="43.94495" lon="1.8769">
        <ele>199.4</ele>
        <time>2022-09-08T19:00:43Z</time>
      </trkpt>
      <trkpt lat="43.94496" lon="1.8769">
        <ele>199.6</ele>
        <time>2022-09-08T19:00:44Z</time>
      </trkpt>
      <trkpt lat="43.94497" lon="1.87691">
        <ele>199.6</ele>
        <time>2022-09-08T19:00:45Z</time>
      </trkpt>
      <trkpt lat="43.94498" lon="1.87691">
        <ele>199.8</ele>
        <time>2022-09-08T19:00:46Z</time>
      </trkpt>
      <trkpt lat="43.94499" lon="1.87691">
        <ele>200.2</ele>
        <time>2022-09-08T19:00:47Z</time>
      </trkpt>
      <trkpt lat="43.945" lon="1.87692">
        <ele>200.4</ele>
        <time>2022-09-08T19:00:48Z</time>
      </trkpt>
      <trkpt lat="43.94502" lon="1.87692">
        <ele>200.6</ele>
        <time>2022-09-08T19:00:49Z</time>
      </trkpt>
      <trkpt lat="43.94503" lon="1.87693">
        <ele>200.8</ele>
        <time>2022-09-08T19:00:50Z</time>
      </trkpt>
      <trkpt lat="43.94504" lon="1.87693">
        <ele>201</ele>
        <time>2022-09-08T19:00:51Z</time>
      </trkpt>
      <trkpt lat="43.94505" lon="1.87693">
        <ele>201.4</ele>
        <time>2022-09-08T19:00:52Z</time>
      </trkpt>
      <trkpt lat="43.94506" lon="1.87693">
        <ele>201.4</ele>
        <time>2022-09-08T19:00:53Z</time>
      </trkpt>
      <trkpt lat="43.94507" lon="1.87693">
        <ele>201.6</ele>
        <time>2022-09-08T19:00:54Z</time>
      </trkpt>
      <trkpt lat="43.94508" lon="1.87693">
        <ele>201.6</ele>
        <time>2022-09-08T19:00:55Z</time>
      </trkpt>
      <trkpt lat="43.94509" lon="1.87694">
        <ele>201.8</ele>
        <time>2022-09-08T19:00:56Z</time>
      </trkpt>
      <trkpt lat="43.9451" lon="1.87694">
        <ele>202</ele>
        <time>2022-09-08T19:00:57Z</time>
      </trkpt>
      <trkpt lat="43.94511" lon="1.87694">
        <ele>202.2</ele>
        <time>2022-09-08T19:00:58Z</time>
      </trkpt>
      <trkpt lat="43.94513" lon="1.87694">
        <ele>202.4</ele>
        <time>2022-09-08T19:00:59Z</time>
      </trkpt>
      <trkpt lat="43.94514" lon="1.87695">
        <ele>202.6</ele>
        <time>2022-09-08T19:01:00Z</time>
      </trkpt>
      <trkpt lat="43.94515" lon="1.87695">
        <ele>202.8</ele>
        <time>2022-09-08T19:01:01Z</time>
      </trkpt>
      <trkpt lat="43.94516" lon="1.87695">
        <ele>202.8</ele>
        <time>2022-09-08T19:01:02Z</time>
      </trkpt>
      <trkpt lat="43.94517" lon="1.87695">
        <ele>203</ele>
        <time>2022-09-08T19:01:03Z</time>
      </trkpt>
      <trkpt lat="43.94519" lon="1.87695">
        <ele>203.2</ele>
        <time>2022-09-08T19:01:04Z</time>
      </trkpt>
      <trkpt lat="43.9452" lon="1.87695">
        <ele>203.4</ele>
        <time>2022-09-08T19:01:05Z</time>
      </trkpt>
      <trkpt lat="43.94521" lon="1.87695">
        <ele>203.6</ele>
        <time>2022-09-08T19:01:06Z</time>
      </trkpt>
      <trkpt lat="43.94522" lon="1.87695">
        <ele>203.8</ele>
        <time>2022-09-08T19:01:07Z</time>
      </trkpt>
      <trkpt lat="43.94523" lon="1.87696">
        <ele>204</ele>
        <time>2022-09-08T19:01:08Z</time>
      </trkpt>
      <trkpt lat="43.94524" lon="1.87697">
        <ele>204</ele>
        <time>2022-09-08T19:01:09Z</time>
      </trkpt>
      <trkpt lat="43.94525" lon="1.87697">
        <ele>204.2</ele>
        <time>2022-09-08T19:01:10Z</time>
      </trkpt>
      <trkpt lat="43.94526" lon="1.87697">
        <ele>204.4</ele>
        <time>2022-09-08T19:01:11Z</time>
      </trkpt>
      <trkpt lat="43.94527" lon="1.87698">
        <ele>204.6</ele>
        <time>2022-09-08T19:01:12Z</time>
      </trkpt>
      <trkpt lat="43.94529" lon="1.87698">
        <ele>205</ele>
        <time>2022-09-08T19:01:13Z</time>
      </trkpt>
      <trkpt lat="43.9453" lon="1.87698">
        <ele>205</ele>
        <time>2022-09-08T19:01:14Z</time>
      </trkpt>
      <trkpt lat="43.94531" lon="1.87698">
        <ele>205.2</ele>
        <time>2022-09-08T19:01:15Z</time>
      </trkpt>
      <trkpt lat="43.94532" lon="1.87698">
        <ele>205.4</ele>
        <time>2022-09-08T19:01:16Z</time>
      </trkpt>
      <trkpt lat="43.94534" lon="1.87699">
        <ele>205.4</ele>
        <time>2022-09-08T19:01:17Z</time>
      </trkpt>
      <trkpt lat="43.94535" lon="1.87699">
        <ele>205.6</ele>
        <time>2022-09-08T19:01:18Z</time>
      </trkpt>
      <trkpt lat="43.94536" lon="1.877">
        <ele>205.6</ele>
        <time>2022-09-08T19:01:19Z</time>
      </trkpt>
      <trkpt lat="43.94537" lon="1.877">
        <ele>205.8</ele>
        <time>2022-09-08T19:01:20Z</time>
      </trkpt>
      <trkpt lat="43.94539" lon="1.877">
        <ele>205.8</ele>
        <time>2022-09-08T19:01:21Z</time>
      </trkpt>
      <trkpt lat="43.9454" lon="1.877">
        <ele>206</ele>
        <time>2022-09-08T19:01:22Z</time>
      </trkpt>
      <trkpt lat="43.94541" lon="1.87699">
        <ele>206</ele>
        <time>2022-09-08T19:01:23Z</time>
      </trkpt>
      <trkpt lat="43.94542" lon="1.87699">
        <ele>206.4</ele>
        <time>2022-09-08T19:01:24Z</time>
      </trkpt>
      <trkpt lat="43.94543" lon="1.87698">
        <ele>206.6</ele>
        <time>2022-09-08T19:01:25Z</time>
      </trkpt>
      <trkpt lat="43.94544" lon="1.87697">
        <ele>206.8</ele>
        <time>2022-09-08T19:01:26Z</time>
      </trkpt>
      <trkpt lat="43.94545" lon="1.87697">
        <ele>206.8</ele>
        <time>2022-09-08T19:01:27Z</time>
      </trkpt>
      <trkpt lat="43.94545" lon="1.87696">
        <ele>206.8</ele>
        <time>2022-09-08T19:01:28Z</time>
      </trkpt>
      <trkpt lat="43.94546" lon="1.87695">
        <ele>207</ele>
        <time>2022-09-08T19:01:29Z</time>
      </trkpt>
      <trkpt lat="43.94548" lon="1.87695">
        <ele>207</ele>
        <time>2022-09-08T19:01:30Z</time>
      </trkpt>
      <trkpt lat="43.94548" lon="1.87694">
        <ele>207</ele>
        <time>2022-09-08T19:01:31Z</time>
      </trkpt>
      <trkpt lat="43.94549" lon="1.87693">
        <ele>207.2</ele>
        <time>2022-09-08T19:01:32Z</time>
      </trkpt>
      <trkpt lat="43.9455" lon="1.87691">
        <ele>207.4</ele>
        <time>2022-09-08T19:01:33Z</time>
      </trkpt>
      <trkpt lat="43.94551" lon="1.8769">
        <ele>207.6</ele>
        <time>2022-09-08T19:01:34Z</time>
      </trkpt>
      <trkpt lat="43.94552" lon="1.87689">
        <ele>207.6</ele>
        <time>2022-09-08T19:01:35Z</time>
      </trkpt>
      <trkpt lat="43.94553" lon="1.87688">
        <ele>207.8</ele>
        <time>2022-09-08T19:01:36Z</time>
      </trkpt>
      <trkpt lat="43.94554" lon="1.87687">
        <ele>208</ele>
        <time>2022-09-08T19:01:37Z</time>
      </trkpt>
      <trkpt lat="43.94555" lon="1.87686">
        <ele>208.2</ele>
        <time>2022-09-08T19:01:38Z</time>
      </trkpt>
      <trkpt lat="43.94555" lon="1.87685">
        <ele>208.4</ele>
        <time>2022-09-08T19:01:39Z</time>
      </trkpt>
      <trkpt lat="43.94556" lon="1.87684">
        <ele>208.6</ele>
        <time>2022-09-08T19:01:40Z</time>
      </trkpt>
      <trkpt lat="43.94557" lon="1.87683">
        <ele>208.6</ele>
        <time>2022-09-08T19:01:41Z</time>
      </trkpt>
      <trkpt lat="43.94558" lon="1.87682">
        <ele>208.8</ele>
        <time>2022-09-08T19:01:42Z</time>
      </trkpt>
      <trkpt lat="43.94558" lon="1.87681">
        <ele>209.2</ele>
        <time>2022-09-08T19:01:43Z</time>
      </trkpt>
      <trkpt lat="43.94559" lon="1.8768">
        <ele>209.4</ele>
        <time>2022-09-08T19:01:44Z</time>
      </trkpt>
      <trkpt lat="43.9456" lon="1.87679">
        <ele>209.8</ele>
        <time>2022-09-08T19:01:45Z</time>
      </trkpt>
      <trkpt lat="43.94561" lon="1.87678">
        <ele>210</ele>
        <time>2022-09-08T19:01:46Z</time>
      </trkpt>
      <trkpt lat="43.94562" lon="1.87677">
        <ele>210.2</ele>
        <time>2022-09-08T19:01:47Z</time>
      </trkpt>
      <trkpt lat="43.94563" lon="1.87676">
        <ele>210.2</ele>
        <time>2022-09-08T19:01:48Z</time>
      </trkpt>
      <trkpt lat="43.94565" lon="1.87675">
        <ele>210.4</ele>
        <time>2022-09-08T19:01:49Z</time>
      </trkpt>
      <trkpt lat="43.94566" lon="1.87674">
        <ele>210.6</ele>
        <time>2022-09-08T19:01:50Z</time>
      </trkpt>
      <trkpt lat="43.94567" lon="1.87672">
        <ele>210.6</ele>
        <time>2022-09-08T19:01:51Z</time>
      </trkpt>
      <trkpt lat="43.94568" lon="1.87671">
        <ele>211</ele>
        <time>2022-09-08T19:01:52Z</time>
      </trkpt>
      <trkpt lat="43.94569" lon="1.8767">
        <ele>211.2</ele>
        <time>2022-09-08T19:01:53Z</time>
      </trkpt>
      <trkpt lat="43.9457" lon="1.87669">
        <ele>211.4</ele>
        <time>2022-09-08T19:01:54Z</time>
      </trkpt>
      <trkpt lat="43.94571" lon="1.87668">
        <ele>211.8</ele>
        <time>2022-09-08T19:01:55Z</time>
      </trkpt>
      <trkpt lat="43.94572" lon="1.87667">
        <ele>212</ele>
        <time>2022-09-08T19:01:56Z</time>
      </trkpt>
      <trkpt lat="43.94573" lon="1.87666">
        <ele>212.2</ele>
        <time>2022-09-08T19:01:57Z</time>
      </trkpt>
      <trkpt lat="43.94574" lon="1.87665">
        <ele>212.4</ele>
        <time>2022-09-08T19:01:58Z</time>
      </trkpt>
      <trkpt lat="43.94576" lon="1.87664">
        <ele>212.6</ele>
        <time>2022-09-08T19:01:59Z</time>
      </trkpt>
      <trkpt lat="43.94577" lon="1.87663">
        <ele>213</ele>
        <time>2022-09-08T19:02:00Z</time>
      </trkpt>
      <trkpt lat="43.94578" lon="1.87663">
        <ele>213.2</ele>
        <time>2022-09-08T19:02:01Z</time>
      </trkpt>
      <trkpt lat="43.94579" lon="1.87662">
        <ele>213.4</ele>
        <time>2022-09-08T19:02:02Z</time>
      </trkpt>
      <trkpt lat="43.9458" lon="1.87662">
        <ele>213.8</ele>
        <time>2022-09-08T19:02:03Z</time>
      </trkpt>
      <trkpt lat="43.94581" lon="1.87661">
        <ele>214</ele>
        <time>2022-09-08T19:02:04Z</time>
      </trkpt>
      <trkpt lat="43.94582" lon="1.8766">
        <ele>214.4</ele>
        <time>2022-09-08T19:02:05Z</time>
      </trkpt>
      <trkpt lat="43.94583" lon="1.87659">
        <ele>214.6</ele>
        <time>2022-09-08T19:02:06Z</time>
      </trkpt>
      <trkpt lat="43.94584" lon="1.87658">
        <ele>214.8</ele>
        <time>2022-09-08T19:02:07Z</time>
      </trkpt>
      <trkpt lat="43.94585" lon="1.87657">
        <ele>215.2</ele>
        <time>2022-09-08T19:02:08Z</time>
      </trkpt>
      <trkpt lat="43.94586" lon="1.87657">
        <ele>215.4</ele>
        <time>2022-09-08T19:02:09Z</time>
      </trkpt>
      <trkpt lat="43.94587" lon="1.87656">
        <ele>215.8</ele>
        <time>2022-09-08T19:02:10Z</time>
      </trkpt>
      <trkpt lat="43.94588" lon="1.87656">
        <ele>215.8</ele>
        <time>2022-09-08T19:02:11Z</time>
      </trkpt>
      <trkpt lat="43.94589" lon="1.87655">
        <ele>216.2</ele>
        <time>2022-09-08T19:02:12Z</time>
      </trkpt>
      <trkpt lat="43.9459" lon="1.87654">
        <ele>216.4</ele>
        <time>2022-09-08T19:02:13Z</time>
      </trkpt>
      <trkpt lat="43.94592" lon="1.87654">
        <ele>216.6</ele>
        <time>2022-09-08T19:02:14Z</time>
      </trkpt>
      <trkpt lat="43.94593" lon="1.87653">
        <ele>216.8</ele>
        <time>2022-09-08T19:02:15Z</time>
      </trkpt>
      <trkpt lat="43.94594" lon="1.87653">
        <ele>217</ele>
        <time>2022-09-08T19:02:16Z</time>
      </trkpt>
      <trkpt lat="43.94595" lon="1.87652">
        <ele>217.4</ele>
        <time>2022-09-08T19:02:17Z</time>
      </trkpt>
      <trkpt lat="43.94597" lon="1.87652">
        <ele>217.6</ele>
        <time>2022-09-08T19:02:18Z</time>
      </trkpt>
      <trkpt lat="43.94598" lon="1.87651">
        <ele>217.8</ele>
        <time>2022-09-08T19:02:19Z</time>
      </trkpt>
      <trkpt lat="43.94599" lon="1.87651">
        <ele>218</ele>
        <time>2022-09-08T19:02:20Z</time>
      </trkpt>
      <trkpt lat="43.946" lon="1.87651">
        <ele>218.4</ele>
        <time>2022-09-08T19:02:21Z</time>
      </trkpt>
      <trkpt lat="43.94601" lon="1.8765">
        <ele>218.6</ele>
        <time>2022-09-08T19:02:22Z</time>
      </trkpt>
      <trkpt lat="43.94603" lon="1.8765">
        <ele>218.6</ele>
        <time>2022-09-08T19:02:23Z</time>
      </trkpt>
      <trkpt lat="43.94604" lon="1.87649">
        <ele>219.2</ele>
        <time>2022-09-08T19:02:24Z</time>
      </trkpt>
      <trkpt lat="43.94606" lon="1.87649">
        <ele>219.4</ele>
        <time>2022-09-08T19:02:25Z</time>
      </trkpt>
      <trkpt lat="43.94607" lon="1.87649">
        <ele>220</ele>
        <time>2022-09-08T19:02:26Z</time>
      </trkpt>
      <trkpt lat="43.94608" lon="1.87648">
        <ele>220.2</ele>
        <time>2022-09-08T19:02:27Z</time>
      </trkpt>
      <trkpt lat="43.94609" lon="1.87648">
        <ele>220.6</ele>
        <time>2022-09-08T19:02:28Z</time>
      </trkpt>
      <trkpt lat="43.9461" lon="1.87648">
        <ele>220.8</ele>
        <time>2022-09-08T19:02:29Z</time>
      </trkpt>
      <trkpt lat="43.94612" lon="1.87648">
        <ele>221</ele>
        <time>2022-09-08T19:02:30Z</time>
      </trkpt>
      <trkpt lat="43.94613" lon="1.87648">
        <ele>221.2</ele>
        <time>2022-09-08T19:02:31Z</time>
      </trkpt>
      <trkpt lat="43.94614" lon="1.87648">
        <ele>221.6</ele>
        <time>2022-09-08T19:02:32Z</time>
      </trkpt>
      <trkpt lat="43.94615" lon="1.87649">
        <ele>221.8</ele>
        <time>2022-09-08T19:02:33Z</time>
      </trkpt>
      <trkpt lat="43.94616" lon="1.87649">
        <ele>222</ele>
        <time>2022-09-08T19:02:34Z</time>
      </trkpt>
      <trkpt lat="43.94618" lon="1.87649">
        <ele>222.2</ele>
        <time>2022-09-08T19:02:35Z</time>
      </trkpt>
      <trkpt lat="43.94619" lon="1.87649">
        <ele>222.6</ele>
        <time>2022-09-08T19:02:36Z</time>
      </trkpt>
      <trkpt lat="43.9462" lon="1.87649">
        <ele>223</ele>
        <time>2022-09-08T19:02:37Z</time>
      </trkpt>
      <trkpt lat="43.94621" lon="1.87649">
        <ele>223.4</ele>
        <time>2022-09-08T19:02:38Z</time>
      </trkpt>
      <trkpt lat="43.94622" lon="1.87649">
        <ele>223.6</ele>
        <time>2022-09-08T19:02:39Z</time>
      </trkpt>
      <trkpt lat="43.94623" lon="1.87649">
        <ele>223.8</ele>
        <time>2022-09-08T19:02:40Z</time>
      </trkpt>
      <trkpt lat="43.94625" lon="1.87649">
        <ele>224</ele>
        <time>2022-09-08T19:02:41Z</time>
      </trkpt>
      <trkpt lat="43.94626" lon="1.87649">
        <ele>224.6</ele>
        <time>2022-09-08T19:02:42Z</time>
      </trkpt>
      <trkpt lat="43.94627" lon="1.87649">
        <ele>224.8</ele>
        <time>2022-09-08T19:02:43Z</time>
      </trkpt>
      <trkpt lat="43.94628" lon="1.87649">
        <ele>225.4</ele>
        <time>2022-09-08T19:02:44Z</time>
      </trkpt>
      <trkpt lat="43.94629" lon="1.87649">
        <ele>225.6</ele>
        <time>2022-09-08T19:02:45Z</time>
      </trkpt>
      <trkpt lat="43.9463" lon="1.87649">
        <ele>225.8</ele>
        <time>2022-09-08T19:02:46Z</time>
      </trkpt>
      <trkpt lat="43.94631" lon="1.87649">
        <ele>226</ele>
        <time>2022-09-08T19:02:47Z</time>
      </trkpt>
      <trkpt lat="43.94632" lon="1.87649">
        <ele>226.2</ele>
        <time>2022-09-08T19:02:48Z</time>
      </trkpt>
      <trkpt lat="43.94633" lon="1.87649">
        <ele>226.6</ele>
        <time>2022-09-08T19:02:49Z</time>
      </trkpt>
      <trkpt lat="43.94634" lon="1.87649">
        <ele>226.8</ele>
        <time>2022-09-08T19:02:50Z</time>
      </trkpt>
      <trkpt lat="43.94635" lon="1.87649">
        <ele>226.8</ele>
        <time>2022-09-08T19:02:51Z</time>
      </trkpt>
      <trkpt lat="43.94636" lon="1.87649">
        <ele>227</ele>
        <time>2022-09-08T19:02:52Z</time>
      </trkpt>
      <trkpt lat="43.94637" lon="1.87649">
        <ele>227.2</ele>
        <time>2022-09-08T19:02:53Z</time>
      </trkpt>
      <trkpt lat="43.94638" lon="1.87649">
        <ele>227.4</ele>
        <time>2022-09-08T19:02:54Z</time>
      </trkpt>
      <trkpt lat="43.9464" lon="1.8765">
        <ele>227.4</ele>
        <time>2022-09-08T19:02:55Z</time>
      </trkpt>
      <trkpt lat="43.94641" lon="1.8765">
        <ele>227.6</ele>
        <time>2022-09-08T19:02:56Z</time>
      </trkpt>
      <trkpt lat="43.94642" lon="1.8765">
        <ele>227.8</ele>
        <time>2022-09-08T19:02:57Z</time>
      </trkpt>
      <trkpt lat="43.94644" lon="1.8765">
        <ele>228</ele>
        <time>2022-09-08T19:02:58Z</time>
      </trkpt>
      <trkpt lat="43.94645" lon="1.8765">
        <ele>228</ele>
        <time>2022-09-08T19:02:59Z</time>
      </trkpt>
      <trkpt lat="43.94646" lon="1.8765">
        <ele>228.2</ele>
        <time>2022-09-08T19:03:00Z</time>
      </trkpt>
      <trkpt lat="43.94647" lon="1.87651">
        <ele>228.2</ele>
        <time>2022-09-08T19:03:01Z</time>
      </trkpt>
      <trkpt lat="43.94648" lon="1.87651">
        <ele>228.4</ele>
        <time>2022-09-08T19:03:02Z</time>
      </trkpt>
      <trkpt lat="43.94649" lon="1.87651">
        <ele>228.6</ele>
        <time>2022-09-08T19:03:03Z</time>
      </trkpt>
      <trkpt lat="43.9465" lon="1.87652">
        <ele>228.8</ele>
        <time>2022-09-08T19:03:04Z</time>
      </trkpt>
      <trkpt lat="43.94651" lon="1.87652">
        <ele>229</ele>
        <time>2022-09-08T19:03:05Z</time>
      </trkpt>
      <trkpt lat="43.94653" lon="1.87651">
        <ele>229</ele>
        <time>2022-09-08T19:03:06Z</time>
      </trkpt>
      <trkpt lat="43.94654" lon="1.87652">
        <ele>229</ele>
        <time>2022-09-08T19:03:07Z</time>
      </trkpt>
      <trkpt lat="43.94655" lon="1.87651">
        <ele>229.2</ele>
        <time>2022-09-08T19:03:08Z</time>
      </trkpt>
      <trkpt lat="43.94656" lon="1.87651">
        <ele>229.4</ele>
        <time>2022-09-08T19:03:09Z</time>
      </trkpt>
      <trkpt lat="43.94657" lon="1.87651">
        <ele>229.6</ele>
        <time>2022-09-08T19:03:10Z</time>
      </trkpt>
      <trkpt lat="43.94658" lon="1.87651">
        <ele>229.8</ele>
        <time>2022-09-08T19:03:11Z</time>
      </trkpt>
      <trkpt lat="43.9466" lon="1.87651">
        <ele>230</ele>
        <time>2022-09-08T19:03:12Z</time>
      </trkpt>
      <trkpt lat="43.94661" lon="1.87651">
        <ele>230</ele>
        <time>2022-09-08T19:03:13Z</time>
      </trkpt>
      <trkpt lat="43.94663" lon="1.87651">
        <ele>230.2</ele>
        <time>2022-09-08T19:03:14Z</time>
      </trkpt>
      <trkpt lat="43.94664" lon="1.87651">
        <ele>230.4</ele>
        <time>2022-09-08T19:03:15Z</time>
      </trkpt>
      <trkpt lat="43.94666" lon="1.8765">
        <ele>230.4</ele>
        <time>2022-09-08T19:03:16Z</time>
      </trkpt>
      <trkpt lat="43.94667" lon="1.8765">
        <ele>230.6</ele>
        <time>2022-09-08T19:03:17Z</time>
      </trkpt>
      <trkpt lat="43.94669" lon="1.87651">
        <ele>230.6</ele>
        <time>2022-09-08T19:03:18Z</time>
      </trkpt>
      <trkpt lat="43.9467" lon="1.87651">
        <ele>231</ele>
        <time>2022-09-08T19:03:19Z</time>
      </trkpt>
      <trkpt lat="43.94671" lon="1.87651">
        <ele>231.2</ele>
        <time>2022-09-08T19:03:20Z</time>
      </trkpt>
      <trkpt lat="43.94673" lon="1.87651">
        <ele>231.6</ele>
        <time>2022-09-08T19:03:21Z</time>
      </trkpt>
      <trkpt lat="43.94674" lon="1.87651">
        <ele>231.6</ele>
        <time>2022-09-08T19:03:22Z</time>
      </trkpt>
      <trkpt lat="43.94676" lon="1.87651">
        <ele>232</ele>
        <time>2022-09-08T19:03:23Z</time>
      </trkpt>
      <trkpt lat="43.94677" lon="1.87651">
        <ele>232.4</ele>
        <time>2022-09-08T19:03:24Z</time>
      </trkpt>
      <trkpt lat="43.94679" lon="1.8765">
        <ele>232.6</ele>
        <time>2022-09-08T19:03:25Z</time>
      </trkpt>
      <trkpt lat="43.9468" lon="1.8765">
        <ele>232.6</ele>
        <time>2022-09-08T19:03:26Z</time>
      </trkpt>
      <trkpt lat="43.94682" lon="1.8765">
        <ele>232.8</ele>
        <time>2022-09-08T19:03:27Z</time>
      </trkpt>
      <trkpt lat="43.94683" lon="1.8765">
        <ele>233</ele>
        <time>2022-09-08T19:03:28Z</time>
      </trkpt>
      <trkpt lat="43.94685" lon="1.8765">
        <ele>233</ele>
        <time>2022-09-08T19:03:29Z</time>
      </trkpt>
      <trkpt lat="43.94686" lon="1.8765">
        <ele>233.4</ele>
        <time>2022-09-08T19:03:30Z</time>
      </trkpt>
      <trkpt lat="43.94688" lon="1.8765">
        <ele>233.4</ele>
        <time>2022-09-08T19:03:31Z</time>
      </trkpt>
      <trkpt lat="43.94689" lon="1.8765">
        <ele>233.8</ele>
        <time>2022-09-08T19:03:32Z</time>
      </trkpt>
      <trkpt lat="43.94691" lon="1.87649">
        <ele>234.2</ele>
        <time>2022-09-08T19:03:33Z</time>
      </trkpt>
      <trkpt lat="43.94692" lon="1.87649">
        <ele>234.6</ele>
        <time>2022-09-08T19:03:34Z</time>
      </trkpt>
      <trkpt lat="43.94693" lon="1.87649">
        <ele>234.8</ele>
        <time>2022-09-08T19:03:35Z</time>
      </trkpt>
      <trkpt lat="43.94695" lon="1.87649">
        <ele>235</ele>
        <time>2022-09-08T19:03:36Z</time>
      </trkpt>
      <trkpt lat="43.94696" lon="1.87649">
        <ele>235.6</ele>
        <time>2022-09-08T19:03:37Z</time>
      </trkpt>
      <trkpt lat="43.94697" lon="1.87648">
        <ele>235.8</ele>
        <time>2022-09-08T19:03:38Z</time>
      </trkpt>
      <trkpt lat="43.94699" lon="1.87648">
        <ele>236</ele>
        <time>2022-09-08T19:03:39Z</time>
      </trkpt>
      <trkpt lat="43.947" lon="1.87648">
        <ele>236.4</ele>
        <time>2022-09-08T19:03:40Z</time>
      </trkpt>
      <trkpt lat="43.94701" lon="1.87647">
        <ele>236.6</ele>
        <time>2022-09-08T19:03:41Z</time>
      </trkpt>
      <trkpt lat="43.94703" lon="1.87647">
        <ele>237</ele>
        <time>2022-09-08T19:03:42Z</time>
      </trkpt>
      <trkpt lat="43.94704" lon="1.87646">
        <ele>237</ele>
        <time>2022-09-08T19:03:43Z</time>
      </trkpt>
      <trkpt lat="43.94706" lon="1.87646">
        <ele>237.4</ele>
        <time>2022-09-08T19:03:44Z</time>
      </trkpt>
      <trkpt lat="43.94707" lon="1.87645">
        <ele>237.8</ele>
        <time>2022-09-08T19:03:45Z</time>
      </trkpt>
      <trkpt lat="43.94709" lon="1.87645">
        <ele>238</ele>
        <time>2022-09-08T19:03:46Z</time>
      </trkpt>
      <trkpt lat="43.9471" lon="1.87644">
        <ele>238.4</ele>
        <time>2022-09-08T19:03:47Z</time>
      </trkpt>
      <trkpt lat="43.94711" lon="1.87644">
        <ele>238.6</ele>
        <time>2022-09-08T19:03:48Z</time>
      </trkpt>
      <trkpt lat="43.94713" lon="1.87643">
        <ele>239.2</ele>
        <time>2022-09-08T19:03:49Z</time>
      </trkpt>
      <trkpt lat="43.94714" lon="1.87642">
        <ele>239.4</ele>
        <time>2022-09-08T19:03:50Z</time>
      </trkpt>
      <trkpt lat="43.94716" lon="1.87641">
        <ele>239.8</ele>
        <time>2022-09-08T19:03:51Z</time>
      </trkpt>
      <trkpt lat="43.94717" lon="1.87641">
        <ele>240</ele>
        <time>2022-09-08T19:03:52Z</time>
      </trkpt>
      <trkpt lat="43.94718" lon="1.8764">
        <ele>240.4</ele>
        <time>2022-09-08T19:03:53Z</time>
      </trkpt>
      <trkpt lat="43.9472" lon="1.87639">
        <ele>240.4</ele>
        <time>2022-09-08T19:03:54Z</time>
      </trkpt>
      <trkpt lat="43.94721" lon="1.87639">
        <ele>241</ele>
        <time>2022-09-08T19:03:55Z</time>
      </trkpt>
      <trkpt lat="43.94723" lon="1.87638">
        <ele>241.4</ele>
        <time>2022-09-08T19:03:56Z</time>
      </trkpt>
      <trkpt lat="43.94724" lon="1.87637">
        <ele>241.8</ele>
        <time>2022-09-08T19:03:57Z</time>
      </trkpt>
      <trkpt lat="43.94725" lon="1.87637">
        <ele>242.2</ele>
        <time>2022-09-08T19:03:58Z</time>
      </trkpt>
      <trkpt lat="43.94726" lon="1.87636">
        <ele>242.6</ele>
        <time>2022-09-08T19:03:59Z</time>
      </trkpt>
      <trkpt lat="43.94728" lon="1.87636">
        <ele>243</ele>
        <time>2022-09-08T19:04:00Z</time>
      </trkpt>
      <trkpt lat="43.94729" lon="1.87635">
        <ele>243</ele>
        <time>2022-09-08T19:04:01Z</time>
      </trkpt>
      <trkpt lat="43.9473" lon="1.87635">
        <ele>243.6</ele>
        <time>2022-09-08T19:04:02Z</time>
      </trkpt>
      <trkpt lat="43.94731" lon="1.87635">
        <ele>244</ele>
        <time>2022-09-08T19:04:03Z</time>
      </trkpt>
      <trkpt lat="43.94732" lon="1.87634">
        <ele>244.2</ele>
        <time>2022-09-08T19:04:04Z</time>
      </trkpt>
      <trkpt lat="43.94734" lon="1.87634">
        <ele>244.4</ele>
        <time>2022-09-08T19:04:05Z</time>
      </trkpt>
      <trkpt lat="43.94735" lon="1.87633">
        <ele>244.6</ele>
        <time>2022-09-08T19:04:06Z</time>
      </trkpt>
      <trkpt lat="43.94736" lon="1.87633">
        <ele>245</ele>
        <time>2022-09-08T19:04:07Z</time>
      </trkpt>
      <trkpt lat="43.94737" lon="1.87633">
        <ele>245</ele>
        <time>2022-09-08T19:04:08Z</time>
      </trkpt>
      <trkpt lat="43.94739" lon="1.87633">
        <ele>245.2</ele>
        <time>2022-09-08T19:04:09Z</time>
      </trkpt>
      <trkpt lat="43.9474" lon="1.87633">
        <ele>245.4</ele>
        <time>2022-09-08T19:04:10Z</time>
      </trkpt>
      <trkpt lat="43.94741" lon="1.87634">
        <ele>245.8</ele>
        <time>2022-09-08T19:04:11Z</time>
      </trkpt>
      <trkpt lat="43.94742" lon="1.87634">
        <ele>246</ele>
        <time>2022-09-08T19:04:12Z</time>
      </trkpt>
      <trkpt lat="43.94743" lon="1.87634">
        <ele>246.2</ele>
        <time>2022-09-08T19:04:13Z</time>
      </trkpt>
      <trkpt lat="43.94745" lon="1.87634">
        <ele>246.4</ele>
        <time>2022-09-08T19:04:14Z</time>
      </trkpt>
      <trkpt lat="43.94746" lon="1.87635">
        <ele>246.6</ele>
        <time>2022-09-08T19:04:15Z</time>
      </trkpt>
      <trkpt lat="43.94747" lon="1.87635">
        <ele>246.8</ele>
        <time>2022-09-08T19:04:16Z</time>
      </trkpt>
      <trkpt lat="43.94748" lon="1.87636">
        <ele>247</ele>
        <time>2022-09-08T19:04:17Z</time>
      </trkpt>
      <trkpt lat="43.94749" lon="1.87637">
        <ele>247.2</ele>
        <time>2022-09-08T19:04:18Z</time>
      </trkpt>
      <trkpt lat="43.9475" lon="1.87638">
        <ele>247.4</ele>
        <time>2022-09-08T19:04:19Z</time>
      </trkpt>
      <trkpt lat="43.94752" lon="1.87639">
        <ele>247.6</ele>
        <time>2022-09-08T19:04:20Z</time>
      </trkpt>
      <trkpt lat="43.94753" lon="1.8764">
        <ele>247.8</ele>
        <time>2022-09-08T19:04:21Z</time>
      </trkpt>
      <trkpt lat="43.94754" lon="1.87641">
        <ele>248</ele>
        <time>2022-09-08T19:04:22Z</time>
      </trkpt>
      <trkpt lat="43.94755" lon="1.87642">
        <ele>248.4</ele>
        <time>2022-09-08T19:04:23Z</time>
      </trkpt>
      <trkpt lat="43.94757" lon="1.87643">
        <ele>248.4</ele>
        <time>2022-09-08T19:04:24Z</time>
      </trkpt>
      <trkpt lat="43.94758" lon="1.87644">
        <ele>248.8</ele>
        <time>2022-09-08T19:04:25Z</time>
      </trkpt>
      <trkpt lat="43.94759" lon="1.87644">
        <ele>248.8</ele>
        <time>2022-09-08T19:04:26Z</time>
      </trkpt>
      <trkpt lat="43.94759" lon="1.87644">
        <ele>249</ele>
        <time>2022-09-08T19:04:27Z</time>
      </trkpt>
      <trkpt lat="43.94761" lon="1.87645">
        <ele>249.4</ele>
        <time>2022-09-08T19:05:55Z</time>
      </trkpt>
      <trkpt lat="43.94763" lon="1.87644">
        <ele>249.4</ele>
        <time>2022-09-08T19:05:56Z</time>
      </trkpt>
      <trkpt lat="43.94766" lon="1.87644">
        <ele>249.4</ele>
        <time>2022-09-08T19:05:58Z</time>
      </trkpt>
      <trkpt lat="43.94768" lon="1.87644">
        <ele>249.4</ele>
        <time>2022-09-08T19:05:59Z</time>
      </trkpt>
      <trkpt lat="43.94771" lon="1.87644">
        <ele>249.6</ele>
        <time>2022-09-08T19:06:02Z</time>
      </trkpt>
      <trkpt lat="43.94772" lon="1.87644">
        <ele>249.6</ele>
        <time>2022-09-08T19:06:03Z</time>
      </trkpt>
      <trkpt lat="43.94773" lon="1.87643">
        <ele>249.6</ele>
        <time>2022-09-08T19:06:04Z</time>
      </trkpt>
      <trkpt lat="43.94775" lon="1.87643">
        <ele>249.6</ele>
        <time>2022-09-08T19:06:05Z</time>
      </trkpt>
      <trkpt lat="43.94779" lon="1.87642">
        <ele>249.8</ele>
        <time>2022-09-08T19:06:09Z</time>
      </trkpt>
      <trkpt lat="43.94782" lon="1.87642">
        <ele>249.8</ele>
        <time>2022-09-08T19:06:11Z</time>
      </trkpt>
      <trkpt lat="43.94796" lon="1.87644">
        <ele>249.4</ele>
        <time>2022-09-08T19:06:17Z</time>
      </trkpt>
      <trkpt lat="43.94803" lon="1.87646">
        <ele>249.2</ele>
        <time>2022-09-08T19:06:19Z</time>
      </trkpt>
      <trkpt lat="43.94807" lon="1.87647">
        <ele>249</ele>
        <time>2022-09-08T19:06:20Z</time>
      </trkpt>
      <trkpt lat="43.9481" lon="1.87648">
        <ele>249</ele>
        <time>2022-09-08T19:06:21Z</time>
      </trkpt>
      <trkpt lat="43.94813" lon="1.87649">
        <ele>248.8</ele>
        <time>2022-09-08T19:06:22Z</time>
      </trkpt>
      <trkpt lat="43.94815" lon="1.8765">
        <ele>248.6</ele>
        <time>2022-09-08T19:06:23Z</time>
      </trkpt>
      <trkpt lat="43.94818" lon="1.8765">
        <ele>248.6</ele>
        <time>2022-09-08T19:06:24Z</time>
      </trkpt>
      <trkpt lat="43.9482" lon="1.87651">
        <ele>248.6</ele>
        <time>2022-09-08T19:06:25Z</time>
      </trkpt>
      <trkpt lat="43.94825" lon="1.87653">
        <ele>248.4</ele>
        <time>2022-09-08T19:06:27Z</time>
      </trkpt>
      <trkpt lat="43.94831" lon="1.87654">
        <ele>248.4</ele>
        <time>2022-09-08T19:06:29Z</time>
      </trkpt>
      <trkpt lat="43.94833" lon="1.87655">
        <ele>248.2</ele>
        <time>2022-09-08T19:06:30Z</time>
      </trkpt>
      <trkpt lat="43.94836" lon="1.87656">
        <ele>248.2</ele>
        <time>2022-09-08T19:06:31Z</time>
      </trkpt>
      <trkpt lat="43.94838" lon="1.87657">
        <ele>248</ele>
        <time>2022-09-08T19:06:32Z</time>
      </trkpt>
      <trkpt lat="43.9484" lon="1.87658">
        <ele>248</ele>
        <time>2022-09-08T19:06:33Z</time>
      </trkpt>
      <trkpt lat="43.94842" lon="1.87658">
        <ele>248</ele>
        <time>2022-09-08T19:06:34Z</time>
      </trkpt>
      <trkpt lat="43.94849" lon="1.8766">
        <ele>248</ele>
        <time>2022-09-08T19:06:37Z</time>
      </trkpt>
      <trkpt lat="43.94851" lon="1.8766">
        <ele>248</ele>
        <time>2022-09-08T19:06:38Z</time>
      </trkpt>
      <trkpt lat="43.94876" lon="1.87663">
        <ele>248.6</ele>
        <time>2022-09-08T19:06:47Z</time>
      </trkpt>
      <trkpt lat="43.94884" lon="1.87665">
        <ele>248.6</ele>
        <time>2022-09-08T19:06:50Z</time>
      </trkpt>
      <trkpt lat="43.94887" lon="1.87666">
        <ele>248.6</ele>
        <time>2022-09-08T19:06:51Z</time>
      </trkpt>
      <trkpt lat="43.94889" lon="1.87666">
        <ele>248.8</ele>
        <time>2022-09-08T19:06:52Z</time>
      </trkpt>
      <trkpt lat="43.94893" lon="1.87667">
        <ele>248.8</ele>
        <time>2022-09-08T19:06:53Z</time>
      </trkpt>
      <trkpt lat="43.94903" lon="1.87673">
        <ele>248.6</ele>
        <time>2022-09-08T19:06:57Z</time>
      </trkpt>
      <trkpt lat="43.94906" lon="1.87675">
        <ele>248.6</ele>
        <time>2022-09-08T19:06:58Z</time>
      </trkpt>
      <trkpt lat="43.94908" lon="1.87677">
        <ele>248.6</ele>
        <time>2022-09-08T19:06:59Z</time>
      </trkpt>
      <trkpt lat="43.9491" lon="1.87679">
        <ele>248.4</ele>
        <time>2022-09-08T19:07:00Z</time>
      </trkpt>
      <trkpt lat="43.94926" lon="1.87698">
        <ele>248.2</ele>
        <time>2022-09-08T19:07:06Z</time>
      </trkpt>
      <trkpt lat="43.94929" lon="1.87702">
        <ele>248.2</ele>
        <time>2022-09-08T19:07:07Z</time>
      </trkpt>
      <trkpt lat="43.94931" lon="1.87707">
        <ele>248</ele>
        <time>2022-09-08T19:07:08Z</time>
      </trkpt>
      <trkpt lat="43.94932" lon="1.87712">
        <ele>248</ele>
        <time>2022-09-08T19:07:09Z</time>
      </trkpt>
      <trkpt lat="43.94933" lon="1.87717">
        <ele>247.8</ele>
        <time>2022-09-08T19:07:10Z</time>
      </trkpt>
      <trkpt lat="43.94933" lon="1.87723">
        <ele>247.8</ele>
        <time>2022-09-08T19:07:11Z</time>
      </trkpt>
      <trkpt lat="43.94934" lon="1.87727">
        <ele>247.6</ele>
        <time>2022-09-08T19:07:12Z</time>
      </trkpt>
      <trkpt lat="43.94937" lon="1.87741">
        <ele>247.6</ele>
        <time>2022-09-08T19:07:15Z</time>
      </trkpt>
      <trkpt lat="43.94938" lon="1.87745">
        <ele>247.2</ele>
        <time>2022-09-08T19:07:16Z</time>
      </trkpt>
      <trkpt lat="43.94942" lon="1.87753">
        <ele>247.4</ele>
        <time>2022-09-08T19:07:18Z</time>
      </trkpt>
      <trkpt lat="43.94944" lon="1.87757">
        <ele>247.2</ele>
        <time>2022-09-08T19:07:19Z</time>
      </trkpt>
      <trkpt lat="43.94945" lon="1.8776">
        <ele>247.6</ele>
        <time>2022-09-08T19:07:20Z</time>
      </trkpt>
      <trkpt lat="43.94947" lon="1.87764">
        <ele>247.6</ele>
        <time>2022-09-08T19:07:21Z</time>
      </trkpt>
      <trkpt lat="43.94949" lon="1.87766">
        <ele>247.6</ele>
        <time>2022-09-08T19:07:22Z</time>
      </trkpt>
      <trkpt lat="43.94951" lon="1.87768">
        <ele>247.6</ele>
        <time>2022-09-08T19:07:23Z</time>
      </trkpt>
      <trkpt lat="43.94954" lon="1.87769">
        <ele>247.6</ele>
        <time>2022-09-08T19:07:24Z</time>
      </trkpt>
      <trkpt lat="43.94956" lon="1.87768">
        <ele>247.8</ele>
        <time>2022-09-08T19:07:25Z</time>
      </trkpt>
      <trkpt lat="43.94959" lon="1.87766">
        <ele>247.6</ele>
        <time>2022-09-08T19:07:26Z</time>
      </trkpt>
      <trkpt lat="43.94961" lon="1.87763">
        <ele>247.6</ele>
        <time>2022-09-08T19:07:27Z</time>
      </trkpt>
      <trkpt lat="43.94967" lon="1.87756">
        <ele>247.6</ele>
        <time>2022-09-08T19:07:29Z</time>
      </trkpt>
      <trkpt lat="43.9497" lon="1.87751">
        <ele>247.4</ele>
        <time>2022-09-08T19:07:30Z</time>
      </trkpt>
      <trkpt lat="43.94973" lon="1.87746">
        <ele>247.4</ele>
        <time>2022-09-08T19:07:31Z</time>
      </trkpt>
      <trkpt lat="43.94993" lon="1.87712">
        <ele>247</ele>
        <time>2022-09-08T19:07:37Z</time>
      </trkpt>
      <trkpt lat="43.94998" lon="1.87705">
        <ele>247</ele>
        <time>2022-09-08T19:07:38Z</time>
      </trkpt>
      <trkpt lat="43.9501" lon="1.87688">
        <ele>246.8</ele>
        <time>2022-09-08T19:07:41Z</time>
      </trkpt>
      <trkpt lat="43.95019" lon="1.87677">
        <ele>246.6</ele>
        <time>2022-09-08T19:07:43Z</time>
      </trkpt>
      <trkpt lat="43.95024" lon="1.87672">
        <ele>246.4</ele>
        <time>2022-09-08T19:07:44Z</time>
      </trkpt>
      <trkpt lat="43.95028" lon="1.87668">
        <ele>246.4</ele>
        <time>2022-09-08T19:07:45Z</time>
      </trkpt>
      <trkpt lat="43.95032" lon="1.87663">
        <ele>246.2</ele>
        <time>2022-09-08T19:07:46Z</time>
      </trkpt>
      <trkpt lat="43.95036" lon="1.87659">
        <ele>246.2</ele>
        <time>2022-09-08T19:07:47Z</time>
      </trkpt>
      <trkpt lat="43.9504" lon="1.87654">
        <ele>246.2</ele>
        <time>2022-09-08T19:07:48Z</time>
      </trkpt>
      <trkpt lat="43.95044" lon="1.87649">
        <ele>246.2</ele>
        <time>2022-09-08T19:07:49Z</time>
      </trkpt>
      <trkpt lat="43.95052" lon="1.87639">
        <ele>246.4</ele>
        <time>2022-09-08T19:07:51Z</time>
      </trkpt>
      <trkpt lat="43.95055" lon="1.87633">
        <ele>246.4</ele>
        <time>2022-09-08T19:07:52Z</time>
      </trkpt>
      <trkpt lat="43.95059" lon="1.87628">
        <ele>246.4</ele>
        <time>2022-09-08T19:07:53Z</time>
      </trkpt>
      <trkpt lat="43.95062" lon="1.87624">
        <ele>246.4</ele>
        <time>2022-09-08T19:07:54Z</time>
      </trkpt>
      <trkpt lat="43.95065" lon="1.8762">
        <ele>246.4</ele>
        <time>2022-09-08T19:07:55Z</time>
      </trkpt>
      <trkpt lat="43.95069" lon="1.87616">
        <ele>246.6</ele>
        <time>2022-09-08T19:07:56Z</time>
      </trkpt>
      <trkpt lat="43.95072" lon="1.87612">
        <ele>246.8</ele>
        <time>2022-09-08T19:07:57Z</time>
      </trkpt>
      <trkpt lat="43.95075" lon="1.87608">
        <ele>247</ele>
        <time>2022-09-08T19:07:58Z</time>
      </trkpt>
      <trkpt lat="43.95088" lon="1.87588">
        <ele>247.4</ele>
        <time>2022-09-08T19:08:02Z</time>
      </trkpt>
      <trkpt lat="43.951" lon="1.87569">
        <ele>247.2</ele>
        <time>2022-09-08T19:08:06Z</time>
      </trkpt>
      <trkpt lat="43.95112" lon="1.87548">
        <ele>247.2</ele>
        <time>2022-09-08T19:08:10Z</time>
      </trkpt>
      <trkpt lat="43.95115" lon="1.87542">
        <ele>247.2</ele>
        <time>2022-09-08T19:08:11Z</time>
      </trkpt>
      <trkpt lat="43.95117" lon="1.87536">
        <ele>247.2</ele>
        <time>2022-09-08T19:08:12Z</time>
      </trkpt>
      <trkpt lat="43.95119" lon="1.8753">
        <ele>247</ele>
        <time>2022-09-08T19:08:13Z</time>
      </trkpt>
      <trkpt lat="43.95119" lon="1.87524">
        <ele>247</ele>
        <time>2022-09-08T19:08:14Z</time>
      </trkpt>
      <trkpt lat="43.95119" lon="1.87518">
        <ele>247</ele>
        <time>2022-09-08T19:08:15Z</time>
      </trkpt>
      <trkpt lat="43.95119" lon="1.87511">
        <ele>247</ele>
        <time>2022-09-08T19:08:16Z</time>
      </trkpt>
      <trkpt lat="43.95119" lon="1.87505">
        <ele>247.2</ele>
        <time>2022-09-08T19:08:17Z</time>
      </trkpt>
      <trkpt lat="43.95119" lon="1.87499">
        <ele>247.2</ele>
        <time>2022-09-08T19:08:18Z</time>
      </trkpt>
      <trkpt lat="43.95119" lon="1.87494">
        <ele>247.2</ele>
        <time>2022-09-08T19:08:19Z</time>
      </trkpt>
      <trkpt lat="43.95119" lon="1.87488">
        <ele>247.2</ele>
        <time>2022-09-08T19:08:20Z</time>
      </trkpt>
      <trkpt lat="43.95119" lon="1.87483">
        <ele>247.2</ele>
        <time>2022-09-08T19:08:21Z</time>
      </trkpt>
      <trkpt lat="43.95119" lon="1.87478">
        <ele>247.4</ele>
        <time>2022-09-08T19:08:22Z</time>
      </trkpt>
      <trkpt lat="43.9512" lon="1.87473">
        <ele>247.4</ele>
        <time>2022-09-08T19:08:23Z</time>
      </trkpt>
      <trkpt lat="43.95121" lon="1.87469">
        <ele>247.8</ele>
        <time>2022-09-08T19:08:24Z</time>
      </trkpt>
      <trkpt lat="43.95121" lon="1.87464">
        <ele>248</ele>
        <time>2022-09-08T19:08:25Z</time>
      </trkpt>
      <trkpt lat="43.95122" lon="1.8746">
        <ele>248.2</ele>
        <time>2022-09-08T19:08:26Z</time>
      </trkpt>
      <trkpt lat="43.95122" lon="1.87456">
        <ele>248.4</ele>
        <time>2022-09-08T19:08:27Z</time>
      </trkpt>
      <trkpt lat="43.95121" lon="1.87447">
        <ele>249</ele>
        <time>2022-09-08T19:08:29Z</time>
      </trkpt>
      <trkpt lat="43.95121" lon="1.87438">
        <ele>249.4</ele>
        <time>2022-09-08T19:08:31Z</time>
      </trkpt>
      <trkpt lat="43.9512" lon="1.8743">
        <ele>249.8</ele>
        <time>2022-09-08T19:08:33Z</time>
      </trkpt>
      <trkpt lat="43.95119" lon="1.87425">
        <ele>250</ele>
        <time>2022-09-08T19:08:34Z</time>
      </trkpt>
      <trkpt lat="43.95118" lon="1.87417">
        <ele>250.4</ele>
        <time>2022-09-08T19:08:36Z</time>
      </trkpt>
      <trkpt lat="43.95117" lon="1.87412">
        <ele>250.6</ele>
        <time>2022-09-08T19:08:37Z</time>
      </trkpt>
      <trkpt lat="43.95116" lon="1.87408">
        <ele>250.8</ele>
        <time>2022-09-08T19:08:38Z</time>
      </trkpt>
      <trkpt lat="43.95116" lon="1.87404">
        <ele>250.8</ele>
        <time>2022-09-08T19:08:39Z</time>
      </trkpt>
      <trkpt lat="43.95115" lon="1.87399">
        <ele>251</ele>
        <time>2022-09-08T19:08:40Z</time>
      </trkpt>
      <trkpt lat="43.95114" lon="1.87394">
        <ele>251</ele>
        <time>2022-09-08T19:08:41Z</time>
      </trkpt>
      <trkpt lat="43.95114" lon="1.87391">
        <ele>251.2</ele>
        <time>2022-09-08T19:08:42Z</time>
      </trkpt>
      <trkpt lat="43.95114" lon="1.87386">
        <ele>251.2</ele>
        <time>2022-09-08T19:08:43Z</time>
      </trkpt>
      <trkpt lat="43.95114" lon="1.87383">
        <ele>251.4</ele>
        <time>2022-09-08T19:08:44Z</time>
      </trkpt>
      <trkpt lat="43.95114" lon="1.87379">
        <ele>251.6</ele>
        <time>2022-09-08T19:08:45Z</time>
      </trkpt>
      <trkpt lat="43.95114" lon="1.87374">
        <ele>251.6</ele>
        <time>2022-09-08T19:08:46Z</time>
      </trkpt>
      <trkpt lat="43.95114" lon="1.8737">
        <ele>251.8</ele>
        <time>2022-09-08T19:08:47Z</time>
      </trkpt>
      <trkpt lat="43.95114" lon="1.87366">
        <ele>251.8</ele>
        <time>2022-09-08T19:08:48Z</time>
      </trkpt>
      <trkpt lat="43.95115" lon="1.87362">
        <ele>252</ele>
        <time>2022-09-08T19:08:49Z</time>
      </trkpt>
      <trkpt lat="43.95116" lon="1.87358">
        <ele>252</ele>
        <time>2022-09-08T19:08:50Z</time>
      </trkpt>
      <trkpt lat="43.95116" lon="1.87355">
        <ele>252.2</ele>
        <time>2022-09-08T19:08:51Z</time>
      </trkpt>
      <trkpt lat="43.95117" lon="1.87351">
        <ele>252.2</ele>
        <time>2022-09-08T19:08:52Z</time>
      </trkpt>
      <trkpt lat="43.95118" lon="1.87348">
        <ele>252.6</ele>
        <time>2022-09-08T19:08:53Z</time>
      </trkpt>
      <trkpt lat="43.95118" lon="1.87345">
        <ele>252.8</ele>
        <time>2022-09-08T19:08:54Z</time>
      </trkpt>
      <trkpt lat="43.95119" lon="1.87341">
        <ele>253</ele>
        <time>2022-09-08T19:08:55Z</time>
      </trkpt>
      <trkpt lat="43.9512" lon="1.87338">
        <ele>253.2</ele>
        <time>2022-09-08T19:08:56Z</time>
      </trkpt>
      <trkpt lat="43.95122" lon="1.87335">
        <ele>253</ele>
        <time>2022-09-08T19:08:57Z</time>
      </trkpt>
      <trkpt lat="43.95124" lon="1.87332">
        <ele>253</ele>
        <time>2022-09-08T19:08:58Z</time>
      </trkpt>
      <trkpt lat="43.95125" lon="1.87328">
        <ele>253</ele>
        <time>2022-09-08T19:08:59Z</time>
      </trkpt>
      <trkpt lat="43.95127" lon="1.87325">
        <ele>253.2</ele>
        <time>2022-09-08T19:09:00Z</time>
      </trkpt>
      <trkpt lat="43.95129" lon="1.87323">
        <ele>253.2</ele>
        <time>2022-09-08T19:09:01Z</time>
      </trkpt>
      <trkpt lat="43.95132" lon="1.8732">
        <ele>253.2</ele>
        <time>2022-09-08T19:09:02Z</time>
      </trkpt>
      <trkpt lat="43.95136" lon="1.87319">
        <ele>253.4</ele>
        <time>2022-09-08T19:09:03Z</time>
      </trkpt>
      <trkpt lat="43.95139" lon="1.87317">
        <ele>253.4</ele>
        <time>2022-09-08T19:09:04Z</time>
      </trkpt>
      <trkpt lat="43.95142" lon="1.87316">
        <ele>253.4</ele>
        <time>2022-09-08T19:09:05Z</time>
      </trkpt>
      <trkpt lat="43.95146" lon="1.87315">
        <ele>253.6</ele>
        <time>2022-09-08T19:09:06Z</time>
      </trkpt>
      <trkpt lat="43.95149" lon="1.87313">
        <ele>253.6</ele>
        <time>2022-09-08T19:09:07Z</time>
      </trkpt>
      <trkpt lat="43.95152" lon="1.87311">
        <ele>253.8</ele>
        <time>2022-09-08T19:09:08Z</time>
      </trkpt>
      <trkpt lat="43.95156" lon="1.87309">
        <ele>253.8</ele>
        <time>2022-09-08T19:09:09Z</time>
      </trkpt>
      <trkpt lat="43.95159" lon="1.87307">
        <ele>254</ele>
        <time>2022-09-08T19:09:10Z</time>
      </trkpt>
      <trkpt lat="43.95162" lon="1.87305">
        <ele>254</ele>
        <time>2022-09-08T19:09:11Z</time>
      </trkpt>
      <trkpt lat="43.95166" lon="1.87303">
        <ele>254.4</ele>
        <time>2022-09-08T19:09:12Z</time>
      </trkpt>
      <trkpt lat="43.9517" lon="1.87301">
        <ele>254.4</ele>
        <time>2022-09-08T19:09:13Z</time>
      </trkpt>
      <trkpt lat="43.95175" lon="1.873">
        <ele>255</ele>
        <time>2022-09-08T19:09:14Z</time>
      </trkpt>
      <trkpt lat="43.95179" lon="1.873">
        <ele>255.4</ele>
        <time>2022-09-08T19:09:15Z</time>
      </trkpt>
      <trkpt lat="43.95183" lon="1.87301">
        <ele>255.8</ele>
        <time>2022-09-08T19:09:16Z</time>
      </trkpt>
      <trkpt lat="43.95187" lon="1.87302">
        <ele>256.4</ele>
        <time>2022-09-08T19:09:17Z</time>
      </trkpt>
      <trkpt lat="43.95191" lon="1.87303">
        <ele>256.6</ele>
        <time>2022-09-08T19:09:18Z</time>
      </trkpt>
      <trkpt lat="43.95195" lon="1.87305">
        <ele>257.4</ele>
        <time>2022-09-08T19:09:19Z</time>
      </trkpt>
      <trkpt lat="43.95198" lon="1.87306">
        <ele>257.6</ele>
        <time>2022-09-08T19:09:20Z</time>
      </trkpt>
      <trkpt lat="43.95202" lon="1.87309">
        <ele>258.2</ele>
        <time>2022-09-08T19:09:21Z</time>
      </trkpt>
      <trkpt lat="43.95206" lon="1.87311">
        <ele>258.4</ele>
        <time>2022-09-08T19:09:22Z</time>
      </trkpt>
      <trkpt lat="43.95211" lon="1.87314">
        <ele>259.2</ele>
        <time>2022-09-08T19:09:23Z</time>
      </trkpt>
      <trkpt lat="43.95214" lon="1.87316">
        <ele>259.6</ele>
        <time>2022-09-08T19:09:24Z</time>
      </trkpt>
      <trkpt lat="43.95217" lon="1.87319">
        <ele>260</ele>
        <time>2022-09-08T19:09:25Z</time>
      </trkpt>
      <trkpt lat="43.9522" lon="1.87321">
        <ele>260.4</ele>
        <time>2022-09-08T19:09:26Z</time>
      </trkpt>
      <trkpt lat="43.95224" lon="1.87323">
        <ele>260.4</ele>
        <time>2022-09-08T19:09:27Z</time>
      </trkpt>
      <trkpt lat="43.95227" lon="1.87323">
        <ele>261.2</ele>
        <time>2022-09-08T19:09:28Z</time>
      </trkpt>
      <trkpt lat="43.95231" lon="1.87323">
        <ele>261.6</ele>
        <time>2022-09-08T19:09:29Z</time>
      </trkpt>
      <trkpt lat="43.95235" lon="1.87322">
        <ele>262.2</ele>
        <time>2022-09-08T19:09:30Z</time>
      </trkpt>
      <trkpt lat="43.95238" lon="1.87319">
        <ele>262.4</ele>
        <time>2022-09-08T19:09:31Z</time>
      </trkpt>
      <trkpt lat="43.95241" lon="1.87316">
        <ele>262.8</ele>
        <time>2022-09-08T19:09:32Z</time>
      </trkpt>
      <trkpt lat="43.95245" lon="1.87311">
        <ele>263.4</ele>
        <time>2022-09-08T19:09:33Z</time>
      </trkpt>
      <trkpt lat="43.95248" lon="1.87308">
        <ele>263.8</ele>
        <time>2022-09-08T19:09:34Z</time>
      </trkpt>
      <trkpt lat="43.95252" lon="1.87304">
        <ele>264.2</ele>
        <time>2022-09-08T19:09:35Z</time>
      </trkpt>
      <trkpt lat="43.95255" lon="1.873">
        <ele>264.4</ele>
        <time>2022-09-08T19:09:36Z</time>
      </trkpt>
      <trkpt lat="43.95258" lon="1.87296">
        <ele>265</ele>
        <time>2022-09-08T19:09:37Z</time>
      </trkpt>
      <trkpt lat="43.95262" lon="1.87291">
        <ele>265.4</ele>
        <time>2022-09-08T19:09:38Z</time>
      </trkpt>
      <trkpt lat="43.95265" lon="1.87287">
        <ele>266.4</ele>
        <time>2022-09-08T19:09:39Z</time>
      </trkpt>
      <trkpt lat="43.95269" lon="1.87283">
        <ele>266.8</ele>
        <time>2022-09-08T19:09:40Z</time>
      </trkpt>
      <trkpt lat="43.95272" lon="1.8728">
        <ele>267</ele>
        <time>2022-09-08T19:09:41Z</time>
      </trkpt>
      <trkpt lat="43.95274" lon="1.87276">
        <ele>267.2</ele>
        <time>2022-09-08T19:09:42Z</time>
      </trkpt>
      <trkpt lat="43.95277" lon="1.87274">
        <ele>267.2</ele>
        <time>2022-09-08T19:09:43Z</time>
      </trkpt>
      <trkpt lat="43.9528" lon="1.87271">
        <ele>267.6</ele>
        <time>2022-09-08T19:09:44Z</time>
      </trkpt>
      <trkpt lat="43.95282" lon="1.8727">
        <ele>268</ele>
        <time>2022-09-08T19:09:45Z</time>
      </trkpt>
      <trkpt lat="43.95284" lon="1.87268">
        <ele>268.6</ele>
        <time>2022-09-08T19:09:46Z</time>
      </trkpt>
      <trkpt lat="43.95286" lon="1.87268">
        <ele>268.8</ele>
        <time>2022-09-08T19:09:47Z</time>
      </trkpt>
      <trkpt lat="43.95288" lon="1.87267">
        <ele>269.6</ele>
        <time>2022-09-08T19:09:48Z</time>
      </trkpt>
      <trkpt lat="43.9529" lon="1.87267">
        <ele>269.8</ele>
        <time>2022-09-08T19:09:49Z</time>
      </trkpt>
      <trkpt lat="43.95291" lon="1.87267">
        <ele>270</ele>
        <time>2022-09-08T19:09:50Z</time>
      </trkpt>
      <trkpt lat="43.95293" lon="1.87268">
        <ele>270.4</ele>
        <time>2022-09-08T19:09:51Z</time>
      </trkpt>
      <trkpt lat="43.95294" lon="1.87268">
        <ele>270.6</ele>
        <time>2022-09-08T19:09:52Z</time>
      </trkpt>
      <trkpt lat="43.95296" lon="1.87269">
        <ele>271</ele>
        <time>2022-09-08T19:09:53Z</time>
      </trkpt>
      <trkpt lat="43.95298" lon="1.87269">
        <ele>271.2</ele>
        <time>2022-09-08T19:09:54Z</time>
      </trkpt>
      <trkpt lat="43.953" lon="1.8727">
        <ele>271.4</ele>
        <time>2022-09-08T19:09:55Z</time>
      </trkpt>
      <trkpt lat="43.95301" lon="1.8727">
        <ele>271.6</ele>
        <time>2022-09-08T19:09:56Z</time>
      </trkpt>
      <trkpt lat="43.95303" lon="1.87271">
        <ele>271.6</ele>
        <time>2022-09-08T19:09:57Z</time>
      </trkpt>
      <trkpt lat="43.95305" lon="1.87272">
        <ele>271.8</ele>
        <time>2022-09-08T19:09:58Z</time>
      </trkpt>
      <trkpt lat="43.95307" lon="1.87273">
        <ele>271.8</ele>
        <time>2022-09-08T19:09:59Z</time>
      </trkpt>
      <trkpt lat="43.95309" lon="1.87274">
        <ele>271.8</ele>
        <time>2022-09-08T19:10:00Z</time>
      </trkpt>
      <trkpt lat="43.95311" lon="1.87275">
        <ele>272</ele>
        <time>2022-09-08T19:10:01Z</time>
      </trkpt>
      <trkpt lat="43.95314" lon="1.87276">
        <ele>272</ele>
        <time>2022-09-08T19:10:02Z</time>
      </trkpt>
      <trkpt lat="43.95316" lon="1.87277">
        <ele>272.2</ele>
        <time>2022-09-08T19:10:03Z</time>
      </trkpt>
      <trkpt lat="43.95319" lon="1.87278">
        <ele>272.4</ele>
        <time>2022-09-08T19:10:04Z</time>
      </trkpt>
      <trkpt lat="43.95321" lon="1.87279">
        <ele>272.6</ele>
        <time>2022-09-08T19:10:05Z</time>
      </trkpt>
      <trkpt lat="43.95323" lon="1.87279">
        <ele>272.6</ele>
        <time>2022-09-08T19:10:06Z</time>
      </trkpt>
      <trkpt lat="43.95325" lon="1.8728">
        <ele>272.6</ele>
        <time>2022-09-08T19:10:07Z</time>
      </trkpt>
      <trkpt lat="43.95327" lon="1.87282">
        <ele>272.6</ele>
        <time>2022-09-08T19:10:08Z</time>
      </trkpt>
      <trkpt lat="43.95329" lon="1.87283">
        <ele>272.6</ele>
        <time>2022-09-08T19:10:09Z</time>
      </trkpt>
      <trkpt lat="43.95332" lon="1.87284">
        <ele>272.8</ele>
        <time>2022-09-08T19:10:10Z</time>
      </trkpt>
      <trkpt lat="43.95334" lon="1.87284">
        <ele>272.8</ele>
        <time>2022-09-08T19:10:11Z</time>
      </trkpt>
      <trkpt lat="43.95337" lon="1.87285">
        <ele>272.6</ele>
        <time>2022-09-08T19:10:12Z</time>
      </trkpt>
      <trkpt lat="43.95339" lon="1.87286">
        <ele>272.8</ele>
        <time>2022-09-08T19:10:13Z</time>
      </trkpt>
      <trkpt lat="43.95341" lon="1.87287">
        <ele>272.8</ele>
        <time>2022-09-08T19:10:14Z</time>
      </trkpt>
      <trkpt lat="43.95344" lon="1.87287">
        <ele>272.8</ele>
        <time>2022-09-08T19:10:15Z</time>
      </trkpt>
      <trkpt lat="43.95346" lon="1.87289">
        <ele>273</ele>
        <time>2022-09-08T19:10:16Z</time>
      </trkpt>
      <trkpt lat="43.95348" lon="1.8729">
        <ele>273</ele>
        <time>2022-09-08T19:10:17Z</time>
      </trkpt>
      <trkpt lat="43.9535" lon="1.87291">
        <ele>273.2</ele>
        <time>2022-09-08T19:10:18Z</time>
      </trkpt>
      <trkpt lat="43.95353" lon="1.87291">
        <ele>273.2</ele>
        <time>2022-09-08T19:10:19Z</time>
      </trkpt>
      <trkpt lat="43.95355" lon="1.87292">
        <ele>273.4</ele>
        <time>2022-09-08T19:10:20Z</time>
      </trkpt>
      <trkpt lat="43.95357" lon="1.87293">
        <ele>273.4</ele>
        <time>2022-09-08T19:10:21Z</time>
      </trkpt>
      <trkpt lat="43.9536" lon="1.87294">
        <ele>273.6</ele>
        <time>2022-09-08T19:10:22Z</time>
      </trkpt>
      <trkpt lat="43.95362" lon="1.87295">
        <ele>273.6</ele>
        <time>2022-09-08T19:10:23Z</time>
      </trkpt>
      <trkpt lat="43.95364" lon="1.87296">
        <ele>273.6</ele>
        <time>2022-09-08T19:10:24Z</time>
      </trkpt>
      <trkpt lat="43.95366" lon="1.87298">
        <ele>273.8</ele>
        <time>2022-09-08T19:10:25Z</time>
      </trkpt>
      <trkpt lat="43.95368" lon="1.87299">
        <ele>273.8</ele>
        <time>2022-09-08T19:10:26Z</time>
      </trkpt>
      <trkpt lat="43.9537" lon="1.87299">
        <ele>274</ele>
        <time>2022-09-08T19:10:27Z</time>
      </trkpt>
      <trkpt lat="43.95372" lon="1.87298">
        <ele>274</ele>
        <time>2022-09-08T19:10:28Z</time>
      </trkpt>
      <trkpt lat="43.95374" lon="1.87297">
        <ele>274</ele>
        <time>2022-09-08T19:10:29Z</time>
      </trkpt>
      <trkpt lat="43.95374" lon="1.87295">
        <ele>274</ele>
        <time>2022-09-08T19:10:30Z</time>
      </trkpt>
      <trkpt lat="43.95375" lon="1.87293">
        <ele>274</ele>
        <time>2022-09-08T19:10:31Z</time>
      </trkpt>
      <trkpt lat="43.95374" lon="1.87291">
        <ele>273.8</ele>
        <time>2022-09-08T19:11:34Z</time>
      </trkpt>
      <trkpt lat="43.95374" lon="1.87274">
        <ele>273.8</ele>
        <time>2022-09-08T19:11:38Z</time>
      </trkpt>
      <trkpt lat="43.95382" lon="1.87236">
        <ele>273.4</ele>
        <time>2022-09-08T19:11:45Z</time>
      </trkpt>
      <trkpt lat="43.95388" lon="1.87205">
        <ele>272.8</ele>
        <time>2022-09-08T19:11:50Z</time>
      </trkpt>
      <trkpt lat="43.95391" lon="1.87192">
        <ele>272.4</ele>
        <time>2022-09-08T19:11:52Z</time>
      </trkpt>
      <trkpt lat="43.954" lon="1.8715">
        <ele>271.8</ele>
        <time>2022-09-08T19:11:58Z</time>
      </trkpt>
      <trkpt lat="43.95402" lon="1.87143">
        <ele>271.4</ele>
        <time>2022-09-08T19:11:59Z</time>
      </trkpt>
      <trkpt lat="43.95403" lon="1.87136">
        <ele>271.2</ele>
        <time>2022-09-08T19:12:00Z</time>
      </trkpt>
      <trkpt lat="43.95413" lon="1.87086">
        <ele>270.4</ele>
        <time>2022-09-08T19:12:07Z</time>
      </trkpt>
      <trkpt lat="43.95415" lon="1.87079">
        <ele>270.2</ele>
        <time>2022-09-08T19:12:08Z</time>
      </trkpt>
      <trkpt lat="43.95421" lon="1.87048">
        <ele>269.6</ele>
        <time>2022-09-08T19:12:12Z</time>
      </trkpt>
      <trkpt lat="43.95422" lon="1.87041">
        <ele>269.4</ele>
        <time>2022-09-08T19:12:13Z</time>
      </trkpt>
      <trkpt lat="43.95422" lon="1.87033">
        <ele>269.2</ele>
        <time>2022-09-08T19:12:14Z</time>
      </trkpt>
      <trkpt lat="43.9542" lon="1.87026">
        <ele>268.8</ele>
        <time>2022-09-08T19:12:15Z</time>
      </trkpt>
      <trkpt lat="43.95413" lon="1.87013">
        <ele>268.4</ele>
        <time>2022-09-08T19:12:17Z</time>
      </trkpt>
      <trkpt lat="43.95409" lon="1.87008">
        <ele>268.2</ele>
        <time>2022-09-08T19:12:18Z</time>
      </trkpt>
      <trkpt lat="43.95404" lon="1.87004">
        <ele>268</ele>
        <time>2022-09-08T19:12:19Z</time>
      </trkpt>
      <trkpt lat="43.954" lon="1.87">
        <ele>268</ele>
        <time>2022-09-08T19:12:20Z</time>
      </trkpt>
      <trkpt lat="43.95395" lon="1.86996">
        <ele>267.8</ele>
        <time>2022-09-08T19:12:21Z</time>
      </trkpt>
      <trkpt lat="43.95391" lon="1.86992">
        <ele>267.6</ele>
        <time>2022-09-08T19:12:22Z</time>
      </trkpt>
      <trkpt lat="43.95382" lon="1.86983">
        <ele>267.4</ele>
        <time>2022-09-08T19:12:24Z</time>
      </trkpt>
      <trkpt lat="43.95378" lon="1.86979">
        <ele>267.2</ele>
        <time>2022-09-08T19:12:25Z</time>
      </trkpt>
      <trkpt lat="43.95373" lon="1.86975">
        <ele>267</ele>
        <time>2022-09-08T19:12:26Z</time>
      </trkpt>
      <trkpt lat="43.95369" lon="1.86972">
        <ele>267</ele>
        <time>2022-09-08T19:12:27Z</time>
      </trkpt>
      <trkpt lat="43.95365" lon="1.86968">
        <ele>266.8</ele>
        <time>2022-09-08T19:12:28Z</time>
      </trkpt>
      <trkpt lat="43.95361" lon="1.86964">
        <ele>266.8</ele>
        <time>2022-09-08T19:12:29Z</time>
      </trkpt>
      <trkpt lat="43.95357" lon="1.8696">
        <ele>266.8</ele>
        <time>2022-09-08T19:12:30Z</time>
      </trkpt>
      <trkpt lat="43.95353" lon="1.86956">
        <ele>266.6</ele>
        <time>2022-09-08T19:12:31Z</time>
      </trkpt>
      <trkpt lat="43.95349" lon="1.86953">
        <ele>266.6</ele>
        <time>2022-09-08T19:12:32Z</time>
      </trkpt>
      <trkpt lat="43.95345" lon="1.86949">
        <ele>266.6</ele>
        <time>2022-09-08T19:12:33Z</time>
      </trkpt>
      <trkpt lat="43.95342" lon="1.86946">
        <ele>266.6</ele>
        <time>2022-09-08T19:12:34Z</time>
      </trkpt>
      <trkpt lat="43.9534" lon="1.86942">
        <ele>266.6</ele>
        <time>2022-09-08T19:12:35Z</time>
      </trkpt>
      <trkpt lat="43.95339" lon="1.86938">
        <ele>266.4</ele>
        <time>2022-09-08T19:12:36Z</time>
      </trkpt>
      <trkpt lat="43.9534" lon="1.86934">
        <ele>266.4</ele>
        <time>2022-09-08T19:12:37Z</time>
      </trkpt>
      <trkpt lat="43.9534" lon="1.8693">
        <ele>266.4</ele>
        <time>2022-09-08T19:12:38Z</time>
      </trkpt>
      <trkpt lat="43.95338" lon="1.86923">
        <ele>266.4</ele>
        <time>2022-09-08T19:12:40Z</time>
      </trkpt>
      <trkpt lat="43.9534" lon="1.86905">
        <ele>266.2</ele>
        <time>2022-09-08T19:12:44Z</time>
      </trkpt>
      <trkpt lat="43.95344" lon="1.86896">
        <ele>266.2</ele>
        <time>2022-09-08T19:12:46Z</time>
      </trkpt>
      <trkpt lat="43.95347" lon="1.86892">
        <ele>266</ele>
        <time>2022-09-08T19:12:47Z</time>
      </trkpt>
      <trkpt lat="43.95349" lon="1.86888">
        <ele>266</ele>
        <time>2022-09-08T19:12:48Z</time>
      </trkpt>
      <trkpt lat="43.95352" lon="1.86884">
        <ele>266</ele>
        <time>2022-09-08T19:12:49Z</time>
      </trkpt>
      <trkpt lat="43.95354" lon="1.8688">
        <ele>265.8</ele>
        <time>2022-09-08T19:12:50Z</time>
      </trkpt>
      <trkpt lat="43.95356" lon="1.86876">
        <ele>265.8</ele>
        <time>2022-09-08T19:12:51Z</time>
      </trkpt>
      <trkpt lat="43.95359" lon="1.86872">
        <ele>265.8</ele>
        <time>2022-09-08T19:12:52Z</time>
      </trkpt>
      <trkpt lat="43.95362" lon="1.86869">
        <ele>265.8</ele>
        <time>2022-09-08T19:12:53Z</time>
      </trkpt>
      <trkpt lat="43.95365" lon="1.86868">
        <ele>265.8</ele>
        <time>2022-09-08T19:12:54Z</time>
      </trkpt>
      <trkpt lat="43.95367" lon="1.86868">
        <ele>265.8</ele>
        <time>2022-09-08T19:12:55Z</time>
      </trkpt>
      <trkpt lat="43.95369" lon="1.86869">
        <ele>265.8</ele>
        <time>2022-09-08T19:12:56Z</time>
      </trkpt>
      <trkpt lat="43.95368" lon="1.86868">
        <ele>264.8</ele>
        <time>2022-09-08T19:13:47Z</time>
      </trkpt>
      <trkpt lat="43.95368" lon="1.86868">
        <ele>264.8</ele>
        <time>2022-09-08T19:13:48Z</time>
      </trkpt>
      <trkpt lat="43.95368" lon="1.86868">
        <ele>264.8</ele>
        <time>2022-09-08T19:13:49Z</time>
      </trkpt>
      <trkpt lat="43.95363" lon="1.86867">
        <ele>265</ele>
        <time>2022-09-08T19:13:52Z</time>
      </trkpt>
      <trkpt lat="43.95357" lon="1.86866">
        <ele>265</ele>
        <time>2022-09-08T19:13:55Z</time>
      </trkpt>
      <trkpt lat="43.95353" lon="1.86865">
        <ele>265</ele>
        <time>2022-09-08T19:13:57Z</time>
      </trkpt>
      <trkpt lat="43.95351" lon="1.86866">
        <ele>265</ele>
        <time>2022-09-08T19:13:58Z</time>
      </trkpt>
      <trkpt lat="43.95348" lon="1.86866">
        <ele>264.8</ele>
        <time>2022-09-08T19:13:59Z</time>
      </trkpt>
      <trkpt lat="43.95346" lon="1.86866">
        <ele>264.6</ele>
        <time>2022-09-08T19:14:00Z</time>
      </trkpt>
      <trkpt lat="43.95344" lon="1.86865">
        <ele>264.6</ele>
        <time>2022-09-08T19:14:01Z</time>
      </trkpt>
      <trkpt lat="43.95343" lon="1.86862">
        <ele>264.6</ele>
        <time>2022-09-08T19:14:02Z</time>
      </trkpt>
      <trkpt lat="43.95341" lon="1.8686">
        <ele>264.6</ele>
        <time>2022-09-08T19:14:03Z</time>
      </trkpt>
      <trkpt lat="43.95339" lon="1.86858">
        <ele>264.6</ele>
        <time>2022-09-08T19:14:04Z</time>
      </trkpt>
      <trkpt lat="43.95337" lon="1.86857">
        <ele>264.8</ele>
        <time>2022-09-08T19:14:05Z</time>
      </trkpt>
      <trkpt lat="43.95333" lon="1.86855">
        <ele>264.4</ele>
        <time>2022-09-08T19:14:07Z</time>
      </trkpt>
      <trkpt lat="43.9533" lon="1.86851">
        <ele>264.4</ele>
        <time>2022-09-08T19:14:09Z</time>
      </trkpt>
      <trkpt lat="43.95331" lon="1.8685">
        <ele>264.2</ele>
        <time>2022-09-08T19:14:10Z</time>
      </trkpt>
      <trkpt lat="43.95331" lon="1.86849">
        <ele>264.2</ele>
        <time>2022-09-08T19:14:12Z</time>
      </trkpt>
      <trkpt lat="43.95332" lon="1.86848">
        <ele>264</ele>
        <time>2022-09-08T19:14:14Z</time>
      </trkpt>
    </trkseg>
  </trk>
</gpx>